<?xml version="1.0" encoding="UTF-8" standalone="no" ?>
<gpx xmlns="http://www.topografix.com/GPX/1/1" xmlns:xsi="http://www.w3.org/2001/XMLSchema-instance" xsi:schemaLocation="http://www.topografix.com/GPX/1/1 http://www.topografix.com/GPX/1/1/gpx.xsd" version="1.1" creator="VisuGPX - https://www.visugpx.com">
  <metadata>
    <name>Pic d\'Ouxis en boucle</name>
    <desc><![CDATA[Pic d\'Ouxis en boucle]]></desc>
  </metadata>
  <trk>
    <name><![CDATA[Rando-course]]></name>
    <cmt><![CDATA[Pic d'ouxis en boucle]]></cmt>
    <trkseg>
      <trkpt lat="42.67867" lon="1.94929">
        <ele>1164.2939453125</ele>
        <time>2013-08-20T07:49:02Z</time>
      </trkpt>
      <trkpt lat="42.67863" lon="1.94937">
        <ele>1167.1779785156</ele>
        <time>2013-08-20T07:49:06Z</time>
      </trkpt>
      <trkpt lat="42.67863" lon="1.94946">
        <ele>1167.1779785156</ele>
        <time>2013-08-20T07:49:11Z</time>
      </trkpt>
      <trkpt lat="42.67859" lon="1.94955">
        <ele>1169.1005859375</ele>
        <time>2013-08-20T07:49:17Z</time>
      </trkpt>
      <trkpt lat="42.67855" lon="1.94964">
        <ele>1171.984375</ele>
        <time>2013-08-20T07:49:22Z</time>
      </trkpt>
      <trkpt lat="42.67853" lon="1.94969">
        <ele>1168.6198730469</ele>
        <time>2013-08-20T07:49:26Z</time>
      </trkpt>
      <trkpt lat="42.67854" lon="1.94976">
        <ele>1164.2939453125</ele>
        <time>2013-08-20T07:49:32Z</time>
      </trkpt>
      <trkpt lat="42.67854" lon="1.94977">
        <ele>1159.0065917969</ele>
        <time>2013-08-20T07:49:44Z</time>
      </trkpt>
      <trkpt lat="42.67849" lon="1.94981">
        <ele>1159.9677734375</ele>
        <time>2013-08-20T07:49:47Z</time>
      </trkpt>
      <trkpt lat="42.67843" lon="1.94992">
        <ele>1161.890625</ele>
        <time>2013-08-20T07:49:52Z</time>
      </trkpt>
      <trkpt lat="42.6784" lon="1.95">
        <ele>1159.0065917969</ele>
        <time>2013-08-20T07:49:57Z</time>
      </trkpt>
      <trkpt lat="42.67836" lon="1.95002">
        <ele>1161.4099121094</ele>
        <time>2013-08-20T07:50:00Z</time>
      </trkpt>
      <trkpt lat="42.6783" lon="1.95005">
        <ele>1162.37109375</ele>
        <time>2013-08-20T07:50:04Z</time>
      </trkpt>
      <trkpt lat="42.67825" lon="1.95008">
        <ele>1159.9677734375</ele>
        <time>2013-08-20T07:50:09Z</time>
      </trkpt>
      <trkpt lat="42.6782" lon="1.9501">
        <ele>1158.5258789062</ele>
        <time>2013-08-20T07:50:13Z</time>
      </trkpt>
      <trkpt lat="42.67815" lon="1.95013">
        <ele>1156.1225585938</ele>
        <time>2013-08-20T07:50:18Z</time>
      </trkpt>
      <trkpt lat="42.67807" lon="1.95018">
        <ele>1156.1225585938</ele>
        <time>2013-08-20T07:50:23Z</time>
      </trkpt>
      <trkpt lat="42.67799" lon="1.95027">
        <ele>1158.5258789062</ele>
        <time>2013-08-20T07:50:30Z</time>
      </trkpt>
      <trkpt lat="42.67796" lon="1.95037">
        <ele>1156.6032714844</ele>
        <time>2013-08-20T07:50:36Z</time>
      </trkpt>
      <trkpt lat="42.67792" lon="1.95046">
        <ele>1151.3161621094</ele>
        <time>2013-08-20T07:50:43Z</time>
      </trkpt>
      <trkpt lat="42.67787" lon="1.95057">
        <ele>1146.9899902344</ele>
        <time>2013-08-20T07:50:49Z</time>
      </trkpt>
      <trkpt lat="42.67781" lon="1.95062">
        <ele>1150.8354492188</ele>
        <time>2013-08-20T07:50:53Z</time>
      </trkpt>
      <trkpt lat="42.67778" lon="1.95068">
        <ele>1157.083984375</ele>
        <time>2013-08-20T07:50:58Z</time>
      </trkpt>
      <trkpt lat="42.67775" lon="1.95073">
        <ele>1160.4484863281</ele>
        <time>2013-08-20T07:51:01Z</time>
      </trkpt>
      <trkpt lat="42.67771" lon="1.95083">
        <ele>1167.1779785156</ele>
        <time>2013-08-20T07:51:06Z</time>
      </trkpt>
      <trkpt lat="42.67763" lon="1.9509">
        <ele>1175.8295898438</ele>
        <time>2013-08-20T07:51:13Z</time>
      </trkpt>
      <trkpt lat="42.67755" lon="1.95096">
        <ele>1182.5590820312</ele>
        <time>2013-08-20T07:51:19Z</time>
      </trkpt>
      <trkpt lat="42.67752" lon="1.951">
        <ele>1185.4428710938</ele>
        <time>2013-08-20T07:51:23Z</time>
      </trkpt>
      <trkpt lat="42.67746" lon="1.95107">
        <ele>1185.4428710938</ele>
        <time>2013-08-20T07:51:27Z</time>
      </trkpt>
      <trkpt lat="42.67738" lon="1.95113">
        <ele>1193.6140136719</ele>
        <time>2013-08-20T07:51:31Z</time>
      </trkpt>
      <trkpt lat="42.67733" lon="1.95119">
        <ele>1195.5366210938</ele>
        <time>2013-08-20T07:51:35Z</time>
      </trkpt>
      <trkpt lat="42.67732" lon="1.95126">
        <ele>1189.7687988281</ele>
        <time>2013-08-20T07:51:40Z</time>
      </trkpt>
      <trkpt lat="42.67726" lon="1.9513">
        <ele>1185.9235839844</ele>
        <time>2013-08-20T07:51:46Z</time>
      </trkpt>
      <trkpt lat="42.67721" lon="1.95133">
        <ele>1184.9624023438</ele>
        <time>2013-08-20T07:51:50Z</time>
      </trkpt>
      <trkpt lat="42.67721" lon="1.95134">
        <ele>1184.4816894531</ele>
        <time>2013-08-20T07:51:51Z</time>
      </trkpt>
      <trkpt lat="42.67718" lon="1.95134">
        <ele>1185.9235839844</ele>
        <time>2013-08-20T07:51:56Z</time>
      </trkpt>
      <trkpt lat="42.67717" lon="1.95141">
        <ele>1185.9235839844</ele>
        <time>2013-08-20T07:52:00Z</time>
      </trkpt>
      <trkpt lat="42.67709" lon="1.95153">
        <ele>1185.9235839844</ele>
        <time>2013-08-20T07:52:08Z</time>
      </trkpt>
      <trkpt lat="42.67701" lon="1.95164">
        <ele>1185.4428710938</ele>
        <time>2013-08-20T07:52:14Z</time>
      </trkpt>
      <trkpt lat="42.67689" lon="1.95164">
        <ele>1194.5751953125</ele>
        <time>2013-08-20T07:52:23Z</time>
      </trkpt>
      <trkpt lat="42.67686" lon="1.95165">
        <ele>1197.4594726562</ele>
        <time>2013-08-20T07:52:27Z</time>
      </trkpt>
      <trkpt lat="42.67689" lon="1.95173">
        <ele>1195.5366210938</ele>
        <time>2013-08-20T07:52:30Z</time>
      </trkpt>
      <trkpt lat="42.67687" lon="1.95183">
        <ele>1191.2106933594</ele>
        <time>2013-08-20T07:52:35Z</time>
      </trkpt>
      <trkpt lat="42.67682" lon="1.95188">
        <ele>1186.884765625</ele>
        <time>2013-08-20T07:52:40Z</time>
      </trkpt>
      <trkpt lat="42.6768" lon="1.95193">
        <ele>1184.4816894531</ele>
        <time>2013-08-20T07:52:42Z</time>
      </trkpt>
      <trkpt lat="42.67669" lon="1.95191">
        <ele>1187.3654785156</ele>
        <time>2013-08-20T07:52:49Z</time>
      </trkpt>
      <trkpt lat="42.67662" lon="1.95189">
        <ele>1190.2495117188</ele>
        <time>2013-08-20T07:52:53Z</time>
      </trkpt>
      <trkpt lat="42.67653" lon="1.95188">
        <ele>1193.1333007812</ele>
        <time>2013-08-20T07:52:59Z</time>
      </trkpt>
      <trkpt lat="42.67644" lon="1.95194">
        <ele>1195.0559082031</ele>
        <time>2013-08-20T07:53:05Z</time>
      </trkpt>
      <trkpt lat="42.67642" lon="1.95196">
        <ele>1197.9401855469</ele>
        <time>2013-08-20T07:53:07Z</time>
      </trkpt>
      <trkpt lat="42.67635" lon="1.95198">
        <ele>1196.9787597656</ele>
        <time>2013-08-20T07:53:12Z</time>
      </trkpt>
      <trkpt lat="42.6763" lon="1.95205">
        <ele>1191.69140625</ele>
        <time>2013-08-20T07:53:18Z</time>
      </trkpt>
      <trkpt lat="42.6762" lon="1.9521">
        <ele>1196.4982910156</ele>
        <time>2013-08-20T07:53:23Z</time>
      </trkpt>
      <trkpt lat="42.67611" lon="1.95216">
        <ele>1201.7854003906</ele>
        <time>2013-08-20T07:53:28Z</time>
      </trkpt>
      <trkpt lat="42.67599" lon="1.95227">
        <ele>1204.1887207031</ele>
        <time>2013-08-20T07:53:33Z</time>
      </trkpt>
      <trkpt lat="42.67591" lon="1.95242">
        <ele>1206.591796875</ele>
        <time>2013-08-20T07:53:38Z</time>
      </trkpt>
      <trkpt lat="42.67583" lon="1.95257">
        <ele>1210.9177246094</ele>
        <time>2013-08-20T07:53:42Z</time>
      </trkpt>
      <trkpt lat="42.67574" lon="1.95274">
        <ele>1231.1057128906</ele>
        <time>2013-08-20T07:53:46Z</time>
      </trkpt>
      <trkpt lat="42.67575" lon="1.95281">
        <ele>1235.912109375</ele>
        <time>2013-08-20T07:53:50Z</time>
      </trkpt>
      <trkpt lat="42.67581" lon="1.95286">
        <ele>1218.6083984375</ele>
        <time>2013-08-20T07:53:56Z</time>
      </trkpt>
      <trkpt lat="42.67582" lon="1.95291">
        <ele>1215.724609375</ele>
        <time>2013-08-20T07:53:57Z</time>
      </trkpt>
      <trkpt lat="42.67583" lon="1.95315">
        <ele>1201.7854003906</ele>
        <time>2013-08-20T07:54:03Z</time>
      </trkpt>
      <trkpt lat="42.67579" lon="1.95325">
        <ele>1198.4206542969</ele>
        <time>2013-08-20T07:54:05Z</time>
      </trkpt>
      <trkpt lat="42.67575" lon="1.95335">
        <ele>1191.2106933594</ele>
        <time>2013-08-20T07:54:10Z</time>
      </trkpt>
      <trkpt lat="42.67569" lon="1.95349">
        <ele>1184.0009765625</ele>
        <time>2013-08-20T07:54:18Z</time>
      </trkpt>
      <trkpt lat="42.67564" lon="1.95355">
        <ele>1182.5590820312</ele>
        <time>2013-08-20T07:54:22Z</time>
      </trkpt>
      <trkpt lat="42.67561" lon="1.95358">
        <ele>1182.5590820312</ele>
        <time>2013-08-20T07:54:24Z</time>
      </trkpt>
      <trkpt lat="42.6755" lon="1.95362">
        <ele>1188.3269042969</ele>
        <time>2013-08-20T07:54:30Z</time>
      </trkpt>
      <trkpt lat="42.67541" lon="1.95367">
        <ele>1193.1333007812</ele>
        <time>2013-08-20T07:54:35Z</time>
      </trkpt>
      <trkpt lat="42.67535" lon="1.95369">
        <ele>1198.4206542969</ele>
        <time>2013-08-20T07:54:40Z</time>
      </trkpt>
      <trkpt lat="42.67533" lon="1.95368">
        <ele>1201.7854003906</ele>
        <time>2013-08-20T07:54:42Z</time>
      </trkpt>
      <trkpt lat="42.67531" lon="1.95368">
        <ele>1206.591796875</ele>
        <time>2013-08-20T07:54:44Z</time>
      </trkpt>
      <trkpt lat="42.67524" lon="1.95376">
        <ele>1220.0502929688</ele>
        <time>2013-08-20T07:54:49Z</time>
      </trkpt>
      <trkpt lat="42.67515" lon="1.9538">
        <ele>1228.7023925781</ele>
        <time>2013-08-20T07:54:54Z</time>
      </trkpt>
      <trkpt lat="42.67503" lon="1.95386">
        <ele>1239.7573242188</ele>
        <time>2013-08-20T07:54:59Z</time>
      </trkpt>
      <trkpt lat="42.67487" lon="1.95391">
        <ele>1258.5029296875</ele>
        <time>2013-08-20T07:55:05Z</time>
      </trkpt>
      <trkpt lat="42.67475" lon="1.95393">
        <ele>1273.4035644531</ele>
        <time>2013-08-20T07:55:10Z</time>
      </trkpt>
      <trkpt lat="42.67471" lon="1.95395">
        <ele>1275.806640625</ele>
        <time>2013-08-20T07:55:12Z</time>
      </trkpt>
      <trkpt lat="42.67468" lon="1.95395">
        <ele>1266.6743164062</ele>
        <time>2013-08-20T07:55:18Z</time>
      </trkpt>
      <trkpt lat="42.67464" lon="1.95395">
        <ele>1268.1162109375</ele>
        <time>2013-08-20T07:55:21Z</time>
      </trkpt>
      <trkpt lat="42.67459" lon="1.95401">
        <ele>1269.0776367188</ele>
        <time>2013-08-20T07:55:28Z</time>
      </trkpt>
      <trkpt lat="42.67455" lon="1.95412">
        <ele>1263.7902832031</ele>
        <time>2013-08-20T07:55:33Z</time>
      </trkpt>
      <trkpt lat="42.67451" lon="1.95418">
        <ele>1257.5417480469</ele>
        <time>2013-08-20T07:55:37Z</time>
      </trkpt>
      <trkpt lat="42.67449" lon="1.95421">
        <ele>1267.6354980469</ele>
        <time>2013-08-20T07:55:43Z</time>
      </trkpt>
      <trkpt lat="42.67459" lon="1.95422">
        <ele>1271.4807128906</ele>
        <time>2013-08-20T07:55:53Z</time>
      </trkpt>
      <trkpt lat="42.67453" lon="1.95436">
        <ele>1270.0388183594</ele>
        <time>2013-08-20T07:56:01Z</time>
      </trkpt>
      <trkpt lat="42.6745" lon="1.9544">
        <ele>1271.9614257812</ele>
        <time>2013-08-20T07:56:03Z</time>
      </trkpt>
      <trkpt lat="42.67443" lon="1.95449">
        <ele>1270.51953125</ele>
        <time>2013-08-20T07:56:07Z</time>
      </trkpt>
      <trkpt lat="42.67436" lon="1.95459">
        <ele>1269.5583496094</ele>
        <time>2013-08-20T07:56:13Z</time>
      </trkpt>
      <trkpt lat="42.67433" lon="1.95463">
        <ele>1270.0388183594</ele>
        <time>2013-08-20T07:56:18Z</time>
      </trkpt>
      <trkpt lat="42.6743" lon="1.95465">
        <ele>1272.4421386719</ele>
        <time>2013-08-20T07:56:19Z</time>
      </trkpt>
      <trkpt lat="42.67418" lon="1.95472">
        <ele>1277.7294921875</ele>
        <time>2013-08-20T07:56:23Z</time>
      </trkpt>
      <trkpt lat="42.67382" lon="1.95502">
        <ele>1269.0776367188</ele>
        <time>2013-08-20T07:56:54Z</time>
      </trkpt>
      <trkpt lat="42.67382" lon="1.95502">
        <ele>1269.0776367188</ele>
        <time>2013-08-20T07:56:55Z</time>
      </trkpt>
      <trkpt lat="42.67375" lon="1.95516">
        <ele>1268.1162109375</ele>
        <time>2013-08-20T07:57:01Z</time>
      </trkpt>
      <trkpt lat="42.6737" lon="1.95521">
        <ele>1266.1936035156</ele>
        <time>2013-08-20T07:57:05Z</time>
      </trkpt>
      <trkpt lat="42.67365" lon="1.95524">
        <ele>1263.3098144531</ele>
        <time>2013-08-20T07:57:10Z</time>
      </trkpt>
      <trkpt lat="42.67355" lon="1.95528">
        <ele>1259.9448242188</ele>
        <time>2013-08-20T07:57:19Z</time>
      </trkpt>
      <trkpt lat="42.67298" lon="1.95563">
        <ele>1237.8347167969</ele>
        <time>2013-08-20T07:59:04Z</time>
      </trkpt>
      <trkpt lat="42.67299" lon="1.95564">
        <ele>1236.8732910156</ele>
        <time>2013-08-20T07:59:05Z</time>
      </trkpt>
      <trkpt lat="42.67299" lon="1.95568">
        <ele>1236.3928222656</ele>
        <time>2013-08-20T07:59:10Z</time>
      </trkpt>
      <trkpt lat="42.67236" lon="1.95633">
        <ele>1227.2602539062</ele>
        <time>2013-08-20T08:00:17Z</time>
      </trkpt>
      <trkpt lat="42.6724" lon="1.95635">
        <ele>1226.7795410156</ele>
        <time>2013-08-20T08:00:21Z</time>
      </trkpt>
      <trkpt lat="42.67241" lon="1.95642">
        <ele>1225.3374023438</ele>
        <time>2013-08-20T08:00:28Z</time>
      </trkpt>
      <trkpt lat="42.67447" lon="1.95784">
        <ele>1219.0891113281</ele>
        <time>2013-08-20T08:03:21Z</time>
      </trkpt>
      <trkpt lat="42.67448" lon="1.95788">
        <ele>1219.0891113281</ele>
        <time>2013-08-20T08:03:23Z</time>
      </trkpt>
      <trkpt lat="42.67452" lon="1.95796">
        <ele>1219.0891113281</ele>
        <time>2013-08-20T08:03:28Z</time>
      </trkpt>
      <trkpt lat="42.67468" lon="1.95806">
        <ele>1218.6083984375</ele>
        <time>2013-08-20T08:03:34Z</time>
      </trkpt>
      <trkpt lat="42.67466" lon="1.95808">
        <ele>1218.6083984375</ele>
        <time>2013-08-20T08:03:35Z</time>
      </trkpt>
      <trkpt lat="42.67464" lon="1.95813">
        <ele>1218.6083984375</ele>
        <time>2013-08-20T08:03:38Z</time>
      </trkpt>
      <trkpt lat="42.67437" lon="1.95827">
        <ele>1218.6083984375</ele>
        <time>2013-08-20T08:03:44Z</time>
      </trkpt>
      <trkpt lat="42.67398" lon="1.95856">
        <ele>1218.6083984375</ele>
        <time>2013-08-20T08:03:58Z</time>
      </trkpt>
      <trkpt lat="42.67403" lon="1.95875">
        <ele>1218.1276855469</ele>
        <time>2013-08-20T08:04:05Z</time>
      </trkpt>
      <trkpt lat="42.674" lon="1.95896">
        <ele>1240.7185058594</ele>
        <time>2013-08-20T08:04:13Z</time>
      </trkpt>
      <trkpt lat="42.67401" lon="1.95906">
        <ele>1236.3928222656</ele>
        <time>2013-08-20T08:04:19Z</time>
      </trkpt>
      <trkpt lat="42.674" lon="1.95927">
        <ele>1231.1057128906</ele>
        <time>2013-08-20T08:04:32Z</time>
      </trkpt>
      <trkpt lat="42.67384" lon="1.95918">
        <ele>1213.8017578125</ele>
        <time>2013-08-20T08:04:34Z</time>
      </trkpt>
      <trkpt lat="42.67363" lon="1.95919">
        <ele>1197.4594726562</ele>
        <time>2013-08-20T08:04:36Z</time>
      </trkpt>
      <trkpt lat="42.67343" lon="1.95923">
        <ele>1185.4428710938</ele>
        <time>2013-08-20T08:04:38Z</time>
      </trkpt>
      <trkpt lat="42.67326" lon="1.95934">
        <ele>1178.2329101562</ele>
        <time>2013-08-20T08:04:42Z</time>
      </trkpt>
      <trkpt lat="42.67318" lon="1.95941">
        <ele>1172.9458007812</ele>
        <time>2013-08-20T08:04:45Z</time>
      </trkpt>
      <trkpt lat="42.67304" lon="1.95952">
        <ele>1164.2939453125</ele>
        <time>2013-08-20T08:04:50Z</time>
      </trkpt>
      <trkpt lat="42.67293" lon="1.9596">
        <ele>1157.083984375</ele>
        <time>2013-08-20T08:04:54Z</time>
      </trkpt>
      <trkpt lat="42.67274" lon="1.95969">
        <ele>1129.6862792969</ele>
        <time>2013-08-20T08:05:01Z</time>
      </trkpt>
      <trkpt lat="42.6727" lon="1.95972">
        <ele>1126.3217773438</ele>
        <time>2013-08-20T08:05:03Z</time>
      </trkpt>
      <trkpt lat="42.67259" lon="1.95983">
        <ele>1123.9184570312</ele>
        <time>2013-08-20T08:05:09Z</time>
      </trkpt>
      <trkpt lat="42.6725" lon="1.95995">
        <ele>1132.08984375</ele>
        <time>2013-08-20T08:05:14Z</time>
      </trkpt>
      <trkpt lat="42.67237" lon="1.96008">
        <ele>1137.376953125</ele>
        <time>2013-08-20T08:05:21Z</time>
      </trkpt>
      <trkpt lat="42.67209" lon="1.96021">
        <ele>1151.3161621094</ele>
        <time>2013-08-20T08:05:27Z</time>
      </trkpt>
      <trkpt lat="42.67204" lon="1.96026">
        <ele>1152.7580566406</ele>
        <time>2013-08-20T08:05:31Z</time>
      </trkpt>
      <trkpt lat="42.67143" lon="1.96031">
        <ele>1268.1162109375</ele>
        <time>2013-08-20T08:05:33Z</time>
      </trkpt>
      <trkpt lat="42.6711" lon="1.96039">
        <ele>1322.4306640625</ele>
        <time>2013-08-20T08:05:37Z</time>
      </trkpt>
      <trkpt lat="42.67099" lon="1.96047">
        <ele>1342.1379394531</ele>
        <time>2013-08-20T08:05:43Z</time>
      </trkpt>
      <trkpt lat="42.67098" lon="1.96049">
        <ele>1343.0991210938</ele>
        <time>2013-08-20T08:05:44Z</time>
      </trkpt>
      <trkpt lat="42.67096" lon="1.96058">
        <ele>1349.34765625</ele>
        <time>2013-08-20T08:05:50Z</time>
      </trkpt>
      <trkpt lat="42.67096" lon="1.96062">
        <ele>1351.2702636719</ele>
        <time>2013-08-20T08:05:52Z</time>
      </trkpt>
      <trkpt lat="42.6709" lon="1.96069">
        <ele>1362.8061523438</ele>
        <time>2013-08-20T08:05:56Z</time>
      </trkpt>
      <trkpt lat="42.67073" lon="1.96083">
        <ele>1384.9165039062</ele>
        <time>2013-08-20T08:06:04Z</time>
      </trkpt>
      <trkpt lat="42.67061" lon="1.96097">
        <ele>1391.1650390625</ele>
        <time>2013-08-20T08:06:12Z</time>
      </trkpt>
      <trkpt lat="42.67054" lon="1.96106">
        <ele>1391.1650390625</ele>
        <time>2013-08-20T08:06:18Z</time>
      </trkpt>
      <trkpt lat="42.67047" lon="1.96115">
        <ele>1393.568359375</ele>
        <time>2013-08-20T08:06:25Z</time>
      </trkpt>
      <trkpt lat="42.67042" lon="1.9612">
        <ele>1394.0490722656</ele>
        <time>2013-08-20T08:06:29Z</time>
      </trkpt>
      <trkpt lat="42.67035" lon="1.96127">
        <ele>1394.5295410156</ele>
        <time>2013-08-20T08:06:35Z</time>
      </trkpt>
      <trkpt lat="42.67028" lon="1.96137">
        <ele>1395.4909667969</ele>
        <time>2013-08-20T08:06:42Z</time>
      </trkpt>
      <trkpt lat="42.67023" lon="1.96145">
        <ele>1396.9328613281</ele>
        <time>2013-08-20T08:06:49Z</time>
      </trkpt>
      <trkpt lat="42.67019" lon="1.96149">
        <ele>1397.8942871094</ele>
        <time>2013-08-20T08:06:53Z</time>
      </trkpt>
      <trkpt lat="42.67007" lon="1.96155">
        <ele>1395.9716796875</ele>
        <time>2013-08-20T08:06:59Z</time>
      </trkpt>
      <trkpt lat="42.66989" lon="1.96161">
        <ele>1397.8942871094</ele>
        <time>2013-08-20T08:07:06Z</time>
      </trkpt>
      <trkpt lat="42.6698" lon="1.96172">
        <ele>1403.662109375</ele>
        <time>2013-08-20T08:07:11Z</time>
      </trkpt>
      <trkpt lat="42.66977" lon="1.96175">
        <ele>1404.6235351562</ele>
        <time>2013-08-20T08:07:12Z</time>
      </trkpt>
      <trkpt lat="42.6697" lon="1.9619">
        <ele>1405.1042480469</ele>
        <time>2013-08-20T08:07:18Z</time>
      </trkpt>
      <trkpt lat="42.66964" lon="1.962">
        <ele>1406.5461425781</ele>
        <time>2013-08-20T08:07:23Z</time>
      </trkpt>
      <trkpt lat="42.66957" lon="1.96207">
        <ele>1409.4301757812</ele>
        <time>2013-08-20T08:07:27Z</time>
      </trkpt>
      <trkpt lat="42.66953" lon="1.96214">
        <ele>1412.7946777344</ele>
        <time>2013-08-20T08:07:29Z</time>
      </trkpt>
      <trkpt lat="42.66945" lon="1.96225">
        <ele>1417.6010742188</ele>
        <time>2013-08-20T08:07:35Z</time>
      </trkpt>
      <trkpt lat="42.66943" lon="1.9623">
        <ele>1415.1979980469</ele>
        <time>2013-08-20T08:07:40Z</time>
      </trkpt>
      <trkpt lat="42.66941" lon="1.96238">
        <ele>1411.3527832031</ele>
        <time>2013-08-20T08:07:45Z</time>
      </trkpt>
      <trkpt lat="42.66938" lon="1.96249">
        <ele>1407.0268554688</ele>
        <time>2013-08-20T08:07:51Z</time>
      </trkpt>
      <trkpt lat="42.66937" lon="1.96256">
        <ele>1404.1430664062</ele>
        <time>2013-08-20T08:07:55Z</time>
      </trkpt>
      <trkpt lat="42.66933" lon="1.96264">
        <ele>1402.2199707031</ele>
        <time>2013-08-20T08:08:00Z</time>
      </trkpt>
      <trkpt lat="42.66927" lon="1.96275">
        <ele>1399.8168945312</ele>
        <time>2013-08-20T08:08:08Z</time>
      </trkpt>
      <trkpt lat="42.66896" lon="1.9628">
        <ele>1374.8227539062</ele>
        <time>2013-08-20T08:08:13Z</time>
      </trkpt>
      <trkpt lat="42.66867" lon="1.96286">
        <ele>1349.8283691406</ele>
        <time>2013-08-20T08:08:19Z</time>
      </trkpt>
      <trkpt lat="42.66845" lon="1.9629">
        <ele>1332.5246582031</ele>
        <time>2013-08-20T08:08:24Z</time>
      </trkpt>
      <trkpt lat="42.66833" lon="1.96294">
        <ele>1325.7954101562</ele>
        <time>2013-08-20T08:08:29Z</time>
      </trkpt>
      <trkpt lat="42.66828" lon="1.96298">
        <ele>1328.6794433594</ele>
        <time>2013-08-20T08:08:36Z</time>
      </trkpt>
      <trkpt lat="42.66824" lon="1.96304">
        <ele>1333.9665527344</ele>
        <time>2013-08-20T08:08:42Z</time>
      </trkpt>
      <trkpt lat="42.66821" lon="1.9631">
        <ele>1338.2924804688</ele>
        <time>2013-08-20T08:08:47Z</time>
      </trkpt>
      <trkpt lat="42.66813" lon="1.96312">
        <ele>1338.7731933594</ele>
        <time>2013-08-20T08:08:51Z</time>
      </trkpt>
      <trkpt lat="42.66812" lon="1.96318">
        <ele>1344.541015625</ele>
        <time>2013-08-20T08:08:57Z</time>
      </trkpt>
      <trkpt lat="42.66812" lon="1.9632">
        <ele>1345.0217285156</ele>
        <time>2013-08-20T08:08:58Z</time>
      </trkpt>
      <trkpt lat="42.66811" lon="1.96323">
        <ele>1344.541015625</ele>
        <time>2013-08-20T08:09:00Z</time>
      </trkpt>
      <trkpt lat="42.66803" lon="1.96334">
        <ele>1342.1379394531</ele>
        <time>2013-08-20T08:09:06Z</time>
      </trkpt>
      <trkpt lat="42.668" lon="1.96343">
        <ele>1342.1379394531</ele>
        <time>2013-08-20T08:09:11Z</time>
      </trkpt>
      <trkpt lat="42.66795" lon="1.9635">
        <ele>1341.1765136719</ele>
        <time>2013-08-20T08:09:15Z</time>
      </trkpt>
      <trkpt lat="42.6679" lon="1.9636">
        <ele>1341.1765136719</ele>
        <time>2013-08-20T08:09:21Z</time>
      </trkpt>
      <trkpt lat="42.66789" lon="1.96362">
        <ele>1341.1765136719</ele>
        <time>2013-08-20T08:09:22Z</time>
      </trkpt>
      <trkpt lat="42.66788" lon="1.96366">
        <ele>1341.6572265625</ele>
        <time>2013-08-20T08:09:24Z</time>
      </trkpt>
      <trkpt lat="42.66789" lon="1.96375">
        <ele>1343.0991210938</ele>
        <time>2013-08-20T08:09:28Z</time>
      </trkpt>
      <trkpt lat="42.66781" lon="1.96384">
        <ele>1348.8669433594</ele>
        <time>2013-08-20T08:09:33Z</time>
      </trkpt>
      <trkpt lat="42.66774" lon="1.96395">
        <ele>1349.34765625</ele>
        <time>2013-08-20T08:09:40Z</time>
      </trkpt>
      <trkpt lat="42.66772" lon="1.96402">
        <ele>1348.8669433594</ele>
        <time>2013-08-20T08:09:44Z</time>
      </trkpt>
      <trkpt lat="42.66769" lon="1.96406">
        <ele>1347.9057617188</ele>
        <time>2013-08-20T08:09:47Z</time>
      </trkpt>
      <trkpt lat="42.66767" lon="1.96417">
        <ele>1346.4638671875</ele>
        <time>2013-08-20T08:09:53Z</time>
      </trkpt>
      <trkpt lat="42.66763" lon="1.96421">
        <ele>1345.0217285156</ele>
        <time>2013-08-20T08:09:56Z</time>
      </trkpt>
      <trkpt lat="42.66761" lon="1.96426">
        <ele>1345.5024414062</ele>
        <time>2013-08-20T08:09:59Z</time>
      </trkpt>
      <trkpt lat="42.66754" lon="1.96433">
        <ele>1344.060546875</ele>
        <time>2013-08-20T08:10:03Z</time>
      </trkpt>
      <trkpt lat="42.66743" lon="1.96439">
        <ele>1341.1765136719</ele>
        <time>2013-08-20T08:10:09Z</time>
      </trkpt>
      <trkpt lat="42.66732" lon="1.96447">
        <ele>1336.8503417969</ele>
        <time>2013-08-20T08:10:15Z</time>
      </trkpt>
      <trkpt lat="42.6673" lon="1.96454">
        <ele>1336.3698730469</ele>
        <time>2013-08-20T08:10:19Z</time>
      </trkpt>
      <trkpt lat="42.66728" lon="1.96458">
        <ele>1338.7731933594</ele>
        <time>2013-08-20T08:10:22Z</time>
      </trkpt>
      <trkpt lat="42.66716" lon="1.96466">
        <ele>1337.3310546875</ele>
        <time>2013-08-20T08:10:30Z</time>
      </trkpt>
      <trkpt lat="42.66709" lon="1.9648">
        <ele>1332.0439453125</ele>
        <time>2013-08-20T08:10:36Z</time>
      </trkpt>
      <trkpt lat="42.66704" lon="1.96494">
        <ele>1326.2761230469</ele>
        <time>2013-08-20T08:10:43Z</time>
      </trkpt>
      <trkpt lat="42.66698" lon="1.96505">
        <ele>1318.5854492188</ele>
        <time>2013-08-20T08:10:48Z</time>
      </trkpt>
      <trkpt lat="42.66694" lon="1.96516">
        <ele>1319.0661621094</ele>
        <time>2013-08-20T08:10:54Z</time>
      </trkpt>
      <trkpt lat="42.66692" lon="1.96522">
        <ele>1322.4306640625</ele>
        <time>2013-08-20T08:10:58Z</time>
      </trkpt>
      <trkpt lat="42.66687" lon="1.96528">
        <ele>1329.640625</ele>
        <time>2013-08-20T08:11:02Z</time>
      </trkpt>
      <trkpt lat="42.66677" lon="1.96535">
        <ele>1341.1765136719</ele>
        <time>2013-08-20T08:11:08Z</time>
      </trkpt>
      <trkpt lat="42.66673" lon="1.96539">
        <ele>1343.5798339844</ele>
        <time>2013-08-20T08:11:10Z</time>
      </trkpt>
      <trkpt lat="42.66664" lon="1.96537">
        <ele>1341.1765136719</ele>
        <time>2013-08-20T08:11:15Z</time>
      </trkpt>
      <trkpt lat="42.66659" lon="1.96544">
        <ele>1327.2375488281</ele>
        <time>2013-08-20T08:11:20Z</time>
      </trkpt>
      <trkpt lat="42.66656" lon="1.96562">
        <ele>1309.453125</ele>
        <time>2013-08-20T08:11:28Z</time>
      </trkpt>
      <trkpt lat="42.66656" lon="1.96566">
        <ele>1308.0112304688</ele>
        <time>2013-08-20T08:11:33Z</time>
      </trkpt>
      <trkpt lat="42.66658" lon="1.96575">
        <ele>1308.0112304688</ele>
        <time>2013-08-20T08:11:40Z</time>
      </trkpt>
      <trkpt lat="42.66655" lon="1.96583">
        <ele>1305.126953125</ele>
        <time>2013-08-20T08:11:45Z</time>
      </trkpt>
      <trkpt lat="42.66656" lon="1.96594">
        <ele>1309.453125</ele>
        <time>2013-08-20T08:11:52Z</time>
      </trkpt>
      <trkpt lat="42.66663" lon="1.96607">
        <ele>1315.2209472656</ele>
        <time>2013-08-20T08:11:58Z</time>
      </trkpt>
      <trkpt lat="42.66654" lon="1.96617">
        <ele>1316.1821289062</ele>
        <time>2013-08-20T08:12:04Z</time>
      </trkpt>
      <trkpt lat="42.66651" lon="1.9662">
        <ele>1315.2209472656</ele>
        <time>2013-08-20T08:12:06Z</time>
      </trkpt>
      <trkpt lat="42.66638" lon="1.96635">
        <ele>1310.8950195312</ele>
        <time>2013-08-20T08:12:15Z</time>
      </trkpt>
      <trkpt lat="42.66628" lon="1.96638">
        <ele>1309.93359375</ele>
        <time>2013-08-20T08:12:22Z</time>
      </trkpt>
      <trkpt lat="42.66619" lon="1.96646">
        <ele>1308.0112304688</ele>
        <time>2013-08-20T08:12:30Z</time>
      </trkpt>
      <trkpt lat="42.66614" lon="1.96648">
        <ele>1308.9724121094</ele>
        <time>2013-08-20T08:12:33Z</time>
      </trkpt>
      <trkpt lat="42.66599" lon="1.96648">
        <ele>1313.7788085938</ele>
        <time>2013-08-20T08:12:38Z</time>
      </trkpt>
      <trkpt lat="42.66586" lon="1.96646">
        <ele>1315.7016601562</ele>
        <time>2013-08-20T08:12:42Z</time>
      </trkpt>
      <trkpt lat="42.66578" lon="1.96645">
        <ele>1315.2209472656</ele>
        <time>2013-08-20T08:12:45Z</time>
      </trkpt>
      <trkpt lat="42.66556" lon="1.96643">
        <ele>1325.3146972656</ele>
        <time>2013-08-20T08:12:51Z</time>
      </trkpt>
      <trkpt lat="42.6654" lon="1.96644">
        <ele>1328.6794433594</ele>
        <time>2013-08-20T08:12:56Z</time>
      </trkpt>
      <trkpt lat="42.66522" lon="1.96646">
        <ele>1330.6020507812</ele>
        <time>2013-08-20T08:13:02Z</time>
      </trkpt>
      <trkpt lat="42.66509" lon="1.96646">
        <ele>1331.5632324219</ele>
        <time>2013-08-20T08:13:07Z</time>
      </trkpt>
      <trkpt lat="42.66495" lon="1.96645">
        <ele>1332.5246582031</ele>
        <time>2013-08-20T08:13:12Z</time>
      </trkpt>
      <trkpt lat="42.66481" lon="1.96642">
        <ele>1333.4858398438</ele>
        <time>2013-08-20T08:13:17Z</time>
      </trkpt>
      <trkpt lat="42.66471" lon="1.96641">
        <ele>1333.9665527344</ele>
        <time>2013-08-20T08:13:23Z</time>
      </trkpt>
      <trkpt lat="42.66462" lon="1.96641">
        <ele>1334.447265625</ele>
        <time>2013-08-20T08:13:28Z</time>
      </trkpt>
      <trkpt lat="42.6645" lon="1.9664">
        <ele>1334.9279785156</ele>
        <time>2013-08-20T08:13:33Z</time>
      </trkpt>
      <trkpt lat="42.66448" lon="1.9664">
        <ele>1334.9279785156</ele>
        <time>2013-08-20T08:13:34Z</time>
      </trkpt>
      <trkpt lat="42.66433" lon="1.96638">
        <ele>1335.4084472656</ele>
        <time>2013-08-20T08:13:40Z</time>
      </trkpt>
      <trkpt lat="42.66428" lon="1.96638">
        <ele>1334.9279785156</ele>
        <time>2013-08-20T08:13:42Z</time>
      </trkpt>
      <trkpt lat="42.66415" lon="1.96639">
        <ele>1334.447265625</ele>
        <time>2013-08-20T08:13:48Z</time>
      </trkpt>
      <trkpt lat="42.66406" lon="1.96642">
        <ele>1333.4858398438</ele>
        <time>2013-08-20T08:13:52Z</time>
      </trkpt>
      <trkpt lat="42.66399" lon="1.96647">
        <ele>1332.5246582031</ele>
        <time>2013-08-20T08:13:56Z</time>
      </trkpt>
      <trkpt lat="42.66393" lon="1.96655">
        <ele>1331.5632324219</ele>
        <time>2013-08-20T08:14:00Z</time>
      </trkpt>
      <trkpt lat="42.66387" lon="1.96661">
        <ele>1330.6020507812</ele>
        <time>2013-08-20T08:14:05Z</time>
      </trkpt>
      <trkpt lat="42.66384" lon="1.96666">
        <ele>1329.1599121094</ele>
        <time>2013-08-20T08:14:08Z</time>
      </trkpt>
      <trkpt lat="42.66379" lon="1.96671">
        <ele>1327.7180175781</ele>
        <time>2013-08-20T08:14:12Z</time>
      </trkpt>
      <trkpt lat="42.66368" lon="1.96677">
        <ele>1326.2761230469</ele>
        <time>2013-08-20T08:14:18Z</time>
      </trkpt>
      <trkpt lat="42.66359" lon="1.96681">
        <ele>1325.3146972656</ele>
        <time>2013-08-20T08:14:22Z</time>
      </trkpt>
      <trkpt lat="42.66356" lon="1.96681">
        <ele>1325.3146972656</ele>
        <time>2013-08-20T08:14:23Z</time>
      </trkpt>
      <trkpt lat="42.66342" lon="1.9668">
        <ele>1323.8725585938</ele>
        <time>2013-08-20T08:14:30Z</time>
      </trkpt>
      <trkpt lat="42.66331" lon="1.96683">
        <ele>1329.640625</ele>
        <time>2013-08-20T08:14:34Z</time>
      </trkpt>
      <trkpt lat="42.66321" lon="1.96687">
        <ele>1335.4084472656</ele>
        <time>2013-08-20T08:14:38Z</time>
      </trkpt>
      <trkpt lat="42.6631" lon="1.96688">
        <ele>1345.9831542969</ele>
        <time>2013-08-20T08:14:46Z</time>
      </trkpt>
      <trkpt lat="42.66315" lon="1.96672">
        <ele>1337.3310546875</ele>
        <time>2013-08-20T08:14:53Z</time>
      </trkpt>
      <trkpt lat="42.6632" lon="1.96667">
        <ele>1337.3310546875</ele>
        <time>2013-08-20T08:14:58Z</time>
      </trkpt>
      <trkpt lat="42.66333" lon="1.96661">
        <ele>1333.0051269531</ele>
        <time>2013-08-20T08:15:05Z</time>
      </trkpt>
      <trkpt lat="42.66344" lon="1.9666">
        <ele>1329.640625</ele>
        <time>2013-08-20T08:15:09Z</time>
      </trkpt>
      <trkpt lat="42.66351" lon="1.96656">
        <ele>1327.7180175781</ele>
        <time>2013-08-20T08:15:15Z</time>
      </trkpt>
      <trkpt lat="42.66357" lon="1.96651">
        <ele>1326.7568359375</ele>
        <time>2013-08-20T08:15:20Z</time>
      </trkpt>
      <trkpt lat="42.66363" lon="1.96644">
        <ele>1329.640625</ele>
        <time>2013-08-20T08:15:27Z</time>
      </trkpt>
      <trkpt lat="42.66362" lon="1.96643">
        <ele>1329.640625</ele>
        <time>2013-08-20T08:15:28Z</time>
      </trkpt>
      <trkpt lat="42.6636" lon="1.96642">
        <ele>1330.6020507812</ele>
        <time>2013-08-20T08:15:30Z</time>
      </trkpt>
      <trkpt lat="42.66348" lon="1.96642">
        <ele>1335.4084472656</ele>
        <time>2013-08-20T08:15:38Z</time>
      </trkpt>
      <trkpt lat="42.66337" lon="1.96646">
        <ele>1342.6186523438</ele>
        <time>2013-08-20T08:15:45Z</time>
      </trkpt>
      <trkpt lat="42.66329" lon="1.96648">
        <ele>1347.4250488281</ele>
        <time>2013-08-20T08:15:51Z</time>
      </trkpt>
      <trkpt lat="42.66321" lon="1.96649">
        <ele>1353.6735839844</ele>
        <time>2013-08-20T08:15:58Z</time>
      </trkpt>
      <trkpt lat="42.66317" lon="1.96648">
        <ele>1354.634765625</ele>
        <time>2013-08-20T08:16:02Z</time>
      </trkpt>
      <trkpt lat="42.66312" lon="1.96646">
        <ele>1354.634765625</ele>
        <time>2013-08-20T08:16:09Z</time>
      </trkpt>
      <trkpt lat="42.66304" lon="1.9665">
        <ele>1362.3254394531</ele>
        <time>2013-08-20T08:16:18Z</time>
      </trkpt>
      <trkpt lat="42.66298" lon="1.9665">
        <ele>1362.8061523438</ele>
        <time>2013-08-20T08:16:23Z</time>
      </trkpt>
      <trkpt lat="42.66296" lon="1.96648">
        <ele>1361.8449707031</ele>
        <time>2013-08-20T08:16:26Z</time>
      </trkpt>
      <trkpt lat="42.66289" lon="1.96645">
        <ele>1363.7673339844</ele>
        <time>2013-08-20T08:16:30Z</time>
      </trkpt>
      <trkpt lat="42.66281" lon="1.96645">
        <ele>1370.9772949219</ele>
        <time>2013-08-20T08:16:34Z</time>
      </trkpt>
      <trkpt lat="42.66279" lon="1.96645">
        <ele>1372.4194335938</ele>
        <time>2013-08-20T08:16:35Z</time>
      </trkpt>
      <trkpt lat="42.6627" lon="1.9664">
        <ele>1379.6291503906</ele>
        <time>2013-08-20T08:16:41Z</time>
      </trkpt>
      <trkpt lat="42.66265" lon="1.96636">
        <ele>1381.5517578125</ele>
        <time>2013-08-20T08:16:45Z</time>
      </trkpt>
      <trkpt lat="42.66256" lon="1.96633">
        <ele>1384.4357910156</ele>
        <time>2013-08-20T08:16:52Z</time>
      </trkpt>
      <trkpt lat="42.66249" lon="1.96626">
        <ele>1386.8388671875</ele>
        <time>2013-08-20T08:16:58Z</time>
      </trkpt>
      <trkpt lat="42.66241" lon="1.96619">
        <ele>1388.7619628906</ele>
        <time>2013-08-20T08:17:04Z</time>
      </trkpt>
      <trkpt lat="42.66231" lon="1.96615">
        <ele>1386.8388671875</ele>
        <time>2013-08-20T08:17:12Z</time>
      </trkpt>
      <trkpt lat="42.66222" lon="1.96617">
        <ele>1391.6457519531</ele>
        <time>2013-08-20T08:17:18Z</time>
      </trkpt>
      <trkpt lat="42.6622" lon="1.96615">
        <ele>1389.7231445312</ele>
        <time>2013-08-20T08:17:22Z</time>
      </trkpt>
      <trkpt lat="42.66213" lon="1.96612">
        <ele>1388.28125</ele>
        <time>2013-08-20T08:17:27Z</time>
      </trkpt>
      <trkpt lat="42.66206" lon="1.9661">
        <ele>1385.8776855469</ele>
        <time>2013-08-20T08:17:33Z</time>
      </trkpt>
      <trkpt lat="42.66203" lon="1.9661">
        <ele>1383.4743652344</ele>
        <time>2013-08-20T08:17:36Z</time>
      </trkpt>
      <trkpt lat="42.66196" lon="1.96612">
        <ele>1382.0324707031</ele>
        <time>2013-08-20T08:17:41Z</time>
      </trkpt>
      <trkpt lat="42.6619" lon="1.96612">
        <ele>1382.0324707031</ele>
        <time>2013-08-20T08:17:45Z</time>
      </trkpt>
      <trkpt lat="42.66176" lon="1.96616">
        <ele>1383.4743652344</ele>
        <time>2013-08-20T08:17:55Z</time>
      </trkpt>
      <trkpt lat="42.66171" lon="1.96617">
        <ele>1380.5905761719</ele>
        <time>2013-08-20T08:18:00Z</time>
      </trkpt>
      <trkpt lat="42.66158" lon="1.96619">
        <ele>1383.955078125</ele>
        <time>2013-08-20T08:18:08Z</time>
      </trkpt>
      <trkpt lat="42.66149" lon="1.96621">
        <ele>1385.3969726562</ele>
        <time>2013-08-20T08:18:14Z</time>
      </trkpt>
      <trkpt lat="42.6614" lon="1.96624">
        <ele>1386.3583984375</ele>
        <time>2013-08-20T08:18:21Z</time>
      </trkpt>
      <trkpt lat="42.66132" lon="1.96621">
        <ele>1383.955078125</ele>
        <time>2013-08-20T08:18:28Z</time>
      </trkpt>
      <trkpt lat="42.66122" lon="1.96619">
        <ele>1381.0712890625</ele>
        <time>2013-08-20T08:18:36Z</time>
      </trkpt>
      <trkpt lat="42.66118" lon="1.96615">
        <ele>1377.7065429688</ele>
        <time>2013-08-20T08:18:42Z</time>
      </trkpt>
      <trkpt lat="42.66115" lon="1.96611">
        <ele>1374.3420410156</ele>
        <time>2013-08-20T08:18:47Z</time>
      </trkpt>
      <trkpt lat="42.66108" lon="1.96607">
        <ele>1372.4194335938</ele>
        <time>2013-08-20T08:18:54Z</time>
      </trkpt>
      <trkpt lat="42.66099" lon="1.96603">
        <ele>1369.5354003906</ele>
        <time>2013-08-20T08:19:02Z</time>
      </trkpt>
      <trkpt lat="42.66095" lon="1.96602">
        <ele>1367.6125488281</ele>
        <time>2013-08-20T08:19:09Z</time>
      </trkpt>
      <trkpt lat="42.66089" lon="1.96601">
        <ele>1365.6901855469</ele>
        <time>2013-08-20T08:19:13Z</time>
      </trkpt>
      <trkpt lat="42.66087" lon="1.96599">
        <ele>1365.2094726562</ele>
        <time>2013-08-20T08:19:15Z</time>
      </trkpt>
      <trkpt lat="42.66076" lon="1.96594">
        <ele>1362.3254394531</ele>
        <time>2013-08-20T08:19:24Z</time>
      </trkpt>
      <trkpt lat="42.66064" lon="1.96587">
        <ele>1361.3642578125</ele>
        <time>2013-08-20T08:19:33Z</time>
      </trkpt>
      <trkpt lat="42.66055" lon="1.9658">
        <ele>1360.8835449219</ele>
        <time>2013-08-20T08:19:40Z</time>
      </trkpt>
      <trkpt lat="42.66045" lon="1.96573">
        <ele>1360.4028320312</ele>
        <time>2013-08-20T08:19:48Z</time>
      </trkpt>
      <trkpt lat="42.66034" lon="1.9657">
        <ele>1359.9221191406</ele>
        <time>2013-08-20T08:19:56Z</time>
      </trkpt>
      <trkpt lat="42.66026" lon="1.96569">
        <ele>1361.3642578125</ele>
        <time>2013-08-20T08:20:03Z</time>
      </trkpt>
      <trkpt lat="42.66016" lon="1.96568">
        <ele>1361.8449707031</ele>
        <time>2013-08-20T08:20:11Z</time>
      </trkpt>
      <trkpt lat="42.66006" lon="1.96564">
        <ele>1362.3254394531</ele>
        <time>2013-08-20T08:20:19Z</time>
      </trkpt>
      <trkpt lat="42.65998" lon="1.96561">
        <ele>1362.8061523438</ele>
        <time>2013-08-20T08:20:26Z</time>
      </trkpt>
      <trkpt lat="42.65987" lon="1.96557">
        <ele>1362.8061523438</ele>
        <time>2013-08-20T08:20:34Z</time>
      </trkpt>
      <trkpt lat="42.65977" lon="1.96552">
        <ele>1364.248046875</ele>
        <time>2013-08-20T08:20:42Z</time>
      </trkpt>
      <trkpt lat="42.65969" lon="1.9655">
        <ele>1363.7673339844</ele>
        <time>2013-08-20T08:20:50Z</time>
      </trkpt>
      <trkpt lat="42.6596" lon="1.96549">
        <ele>1363.7673339844</ele>
        <time>2013-08-20T08:20:58Z</time>
      </trkpt>
      <trkpt lat="42.65954" lon="1.96548">
        <ele>1362.3254394531</ele>
        <time>2013-08-20T08:21:05Z</time>
      </trkpt>
      <trkpt lat="42.65953" lon="1.9654">
        <ele>1360.4028320312</ele>
        <time>2013-08-20T08:21:11Z</time>
      </trkpt>
      <trkpt lat="42.65954" lon="1.96537">
        <ele>1359.9221191406</ele>
        <time>2013-08-20T08:21:13Z</time>
      </trkpt>
      <trkpt lat="42.65958" lon="1.96529">
        <ele>1358.9609375</ele>
        <time>2013-08-20T08:21:19Z</time>
      </trkpt>
      <trkpt lat="42.65964" lon="1.96526">
        <ele>1358.4802246094</ele>
        <time>2013-08-20T08:21:25Z</time>
      </trkpt>
      <trkpt lat="42.65973" lon="1.96526">
        <ele>1358.4802246094</ele>
        <time>2013-08-20T08:21:32Z</time>
      </trkpt>
      <trkpt lat="42.6598" lon="1.96527">
        <ele>1357.0383300781</ele>
        <time>2013-08-20T08:21:37Z</time>
      </trkpt>
      <trkpt lat="42.65994" lon="1.96529">
        <ele>1353.6735839844</ele>
        <time>2013-08-20T08:21:45Z</time>
      </trkpt>
      <trkpt lat="42.66003" lon="1.96529">
        <ele>1351.7509765625</ele>
        <time>2013-08-20T08:21:52Z</time>
      </trkpt>
      <trkpt lat="42.66008" lon="1.96526">
        <ele>1351.7509765625</ele>
        <time>2013-08-20T08:21:56Z</time>
      </trkpt>
      <trkpt lat="42.6601" lon="1.9652">
        <ele>1351.2702636719</ele>
        <time>2013-08-20T08:22:00Z</time>
      </trkpt>
      <trkpt lat="42.66009" lon="1.96517">
        <ele>1351.2702636719</ele>
        <time>2013-08-20T08:22:02Z</time>
      </trkpt>
      <trkpt lat="42.66005" lon="1.96511">
        <ele>1351.2702636719</ele>
        <time>2013-08-20T08:22:08Z</time>
      </trkpt>
      <trkpt lat="42.65993" lon="1.96509">
        <ele>1350.7895507812</ele>
        <time>2013-08-20T08:22:18Z</time>
      </trkpt>
      <trkpt lat="42.65984" lon="1.96504">
        <ele>1352.2314453125</ele>
        <time>2013-08-20T08:22:25Z</time>
      </trkpt>
      <trkpt lat="42.65976" lon="1.96497">
        <ele>1353.1928710938</ele>
        <time>2013-08-20T08:22:33Z</time>
      </trkpt>
      <trkpt lat="42.65969" lon="1.96489">
        <ele>1354.154296875</ele>
        <time>2013-08-20T08:22:40Z</time>
      </trkpt>
      <trkpt lat="42.65966" lon="1.96484">
        <ele>1353.6735839844</ele>
        <time>2013-08-20T08:22:45Z</time>
      </trkpt>
      <trkpt lat="42.6596" lon="1.96476">
        <ele>1352.7121582031</ele>
        <time>2013-08-20T08:22:53Z</time>
      </trkpt>
      <trkpt lat="42.65952" lon="1.96466">
        <ele>1353.6735839844</ele>
        <time>2013-08-20T08:23:01Z</time>
      </trkpt>
      <trkpt lat="42.65946" lon="1.96459">
        <ele>1354.634765625</ele>
        <time>2013-08-20T08:23:08Z</time>
      </trkpt>
      <trkpt lat="42.65936" lon="1.96452">
        <ele>1355.5961914062</ele>
        <time>2013-08-20T08:23:16Z</time>
      </trkpt>
      <trkpt lat="42.65923" lon="1.9645">
        <ele>1357.5190429688</ele>
        <time>2013-08-20T08:23:25Z</time>
      </trkpt>
      <trkpt lat="42.65908" lon="1.96454">
        <ele>1357.9997558594</ele>
        <time>2013-08-20T08:23:36Z</time>
      </trkpt>
      <trkpt lat="42.65898" lon="1.9646">
        <ele>1357.9997558594</ele>
        <time>2013-08-20T08:23:44Z</time>
      </trkpt>
      <trkpt lat="42.65888" lon="1.96464">
        <ele>1357.9997558594</ele>
        <time>2013-08-20T08:23:52Z</time>
      </trkpt>
      <trkpt lat="42.65883" lon="1.96468">
        <ele>1357.9997558594</ele>
        <time>2013-08-20T08:23:57Z</time>
      </trkpt>
      <trkpt lat="42.65874" lon="1.96474">
        <ele>1357.0383300781</ele>
        <time>2013-08-20T08:24:06Z</time>
      </trkpt>
      <trkpt lat="42.65865" lon="1.96477">
        <ele>1357.9997558594</ele>
        <time>2013-08-20T08:24:13Z</time>
      </trkpt>
      <trkpt lat="42.65855" lon="1.9648">
        <ele>1358.4802246094</ele>
        <time>2013-08-20T08:24:20Z</time>
      </trkpt>
      <trkpt lat="42.65844" lon="1.96483">
        <ele>1359.4416503906</ele>
        <time>2013-08-20T08:24:28Z</time>
      </trkpt>
      <trkpt lat="42.65834" lon="1.96487">
        <ele>1358.9609375</ele>
        <time>2013-08-20T08:24:36Z</time>
      </trkpt>
      <trkpt lat="42.65824" lon="1.96491">
        <ele>1358.4802246094</ele>
        <time>2013-08-20T08:24:44Z</time>
      </trkpt>
      <trkpt lat="42.65816" lon="1.96496">
        <ele>1357.9997558594</ele>
        <time>2013-08-20T08:24:50Z</time>
      </trkpt>
      <trkpt lat="42.65804" lon="1.96499">
        <ele>1358.4802246094</ele>
        <time>2013-08-20T08:24:58Z</time>
      </trkpt>
      <trkpt lat="42.65795" lon="1.965">
        <ele>1358.4802246094</ele>
        <time>2013-08-20T08:25:05Z</time>
      </trkpt>
      <trkpt lat="42.65785" lon="1.96499">
        <ele>1358.9609375</ele>
        <time>2013-08-20T08:25:12Z</time>
      </trkpt>
      <trkpt lat="42.65776" lon="1.96496">
        <ele>1357.5190429688</ele>
        <time>2013-08-20T08:25:21Z</time>
      </trkpt>
      <trkpt lat="42.65771" lon="1.96499">
        <ele>1359.4416503906</ele>
        <time>2013-08-20T08:25:26Z</time>
      </trkpt>
      <trkpt lat="42.65759" lon="1.96503">
        <ele>1359.4416503906</ele>
        <time>2013-08-20T08:25:35Z</time>
      </trkpt>
      <trkpt lat="42.65751" lon="1.96506">
        <ele>1357.0383300781</ele>
        <time>2013-08-20T08:25:42Z</time>
      </trkpt>
      <trkpt lat="42.65741" lon="1.9651">
        <ele>1355.1154785156</ele>
        <time>2013-08-20T08:25:50Z</time>
      </trkpt>
      <trkpt lat="42.6573" lon="1.96511">
        <ele>1353.6735839844</ele>
        <time>2013-08-20T08:25:58Z</time>
      </trkpt>
      <trkpt lat="42.65719" lon="1.9651">
        <ele>1352.7121582031</ele>
        <time>2013-08-20T08:26:06Z</time>
      </trkpt>
      <trkpt lat="42.65709" lon="1.96505">
        <ele>1352.2314453125</ele>
        <time>2013-08-20T08:26:13Z</time>
      </trkpt>
      <trkpt lat="42.65692" lon="1.96497">
        <ele>1351.2702636719</ele>
        <time>2013-08-20T08:26:25Z</time>
      </trkpt>
      <trkpt lat="42.65679" lon="1.96489">
        <ele>1351.7509765625</ele>
        <time>2013-08-20T08:26:34Z</time>
      </trkpt>
      <trkpt lat="42.65674" lon="1.96484">
        <ele>1351.7509765625</ele>
        <time>2013-08-20T08:26:38Z</time>
      </trkpt>
      <trkpt lat="42.6566" lon="1.96473">
        <ele>1353.1928710938</ele>
        <time>2013-08-20T08:26:48Z</time>
      </trkpt>
      <trkpt lat="42.65649" lon="1.96467">
        <ele>1352.7121582031</ele>
        <time>2013-08-20T08:26:56Z</time>
      </trkpt>
      <trkpt lat="42.65637" lon="1.96458">
        <ele>1351.2702636719</ele>
        <time>2013-08-20T08:27:05Z</time>
      </trkpt>
      <trkpt lat="42.65622" lon="1.96447">
        <ele>1352.2314453125</ele>
        <time>2013-08-20T08:27:16Z</time>
      </trkpt>
      <trkpt lat="42.6561" lon="1.96443">
        <ele>1350.3090820312</ele>
        <time>2013-08-20T08:27:25Z</time>
      </trkpt>
      <trkpt lat="42.65598" lon="1.96439">
        <ele>1348.8669433594</ele>
        <time>2013-08-20T08:27:34Z</time>
      </trkpt>
      <trkpt lat="42.65594" lon="1.96437">
        <ele>1347.9057617188</ele>
        <time>2013-08-20T08:27:37Z</time>
      </trkpt>
      <trkpt lat="42.6558" lon="1.96435">
        <ele>1343.5798339844</ele>
        <time>2013-08-20T08:27:48Z</time>
      </trkpt>
      <trkpt lat="42.65569" lon="1.96431">
        <ele>1340.6958007812</ele>
        <time>2013-08-20T08:27:57Z</time>
      </trkpt>
      <trkpt lat="42.65559" lon="1.96427">
        <ele>1339.2536621094</ele>
        <time>2013-08-20T08:28:05Z</time>
      </trkpt>
      <trkpt lat="42.65553" lon="1.96424">
        <ele>1337.8117675781</ele>
        <time>2013-08-20T08:28:11Z</time>
      </trkpt>
      <trkpt lat="42.65545" lon="1.9642">
        <ele>1337.8117675781</ele>
        <time>2013-08-20T08:28:18Z</time>
      </trkpt>
      <trkpt lat="42.65538" lon="1.96419">
        <ele>1337.8117675781</ele>
        <time>2013-08-20T08:28:24Z</time>
      </trkpt>
      <trkpt lat="42.65529" lon="1.96417">
        <ele>1337.8117675781</ele>
        <time>2013-08-20T08:28:31Z</time>
      </trkpt>
      <trkpt lat="42.65524" lon="1.96416">
        <ele>1337.8117675781</ele>
        <time>2013-08-20T08:28:35Z</time>
      </trkpt>
      <trkpt lat="42.65522" lon="1.96415">
        <ele>1337.8117675781</ele>
        <time>2013-08-20T08:28:37Z</time>
      </trkpt>
      <trkpt lat="42.65514" lon="1.96412">
        <ele>1338.7731933594</ele>
        <time>2013-08-20T08:28:44Z</time>
      </trkpt>
      <trkpt lat="42.65506" lon="1.96406">
        <ele>1339.2536621094</ele>
        <time>2013-08-20T08:28:51Z</time>
      </trkpt>
      <trkpt lat="42.65497" lon="1.96401">
        <ele>1340.6958007812</ele>
        <time>2013-08-20T08:28:58Z</time>
      </trkpt>
      <trkpt lat="42.65488" lon="1.96393">
        <ele>1340.6958007812</ele>
        <time>2013-08-20T08:29:06Z</time>
      </trkpt>
      <trkpt lat="42.65482" lon="1.96388">
        <ele>1339.734375</ele>
        <time>2013-08-20T08:29:12Z</time>
      </trkpt>
      <trkpt lat="42.65471" lon="1.96379">
        <ele>1338.7731933594</ele>
        <time>2013-08-20T08:29:22Z</time>
      </trkpt>
      <trkpt lat="42.65462" lon="1.96373">
        <ele>1339.734375</ele>
        <time>2013-08-20T08:29:30Z</time>
      </trkpt>
      <trkpt lat="42.65455" lon="1.96369">
        <ele>1339.2536621094</ele>
        <time>2013-08-20T08:29:36Z</time>
      </trkpt>
      <trkpt lat="42.65446" lon="1.96364">
        <ele>1337.8117675781</ele>
        <time>2013-08-20T08:29:44Z</time>
      </trkpt>
      <trkpt lat="42.65437" lon="1.96357">
        <ele>1335.8891601562</ele>
        <time>2013-08-20T08:29:53Z</time>
      </trkpt>
      <trkpt lat="42.65431" lon="1.96352">
        <ele>1334.9279785156</ele>
        <time>2013-08-20T08:29:58Z</time>
      </trkpt>
      <trkpt lat="42.65424" lon="1.96347">
        <ele>1333.0051269531</ele>
        <time>2013-08-20T08:30:04Z</time>
      </trkpt>
      <trkpt lat="42.65419" lon="1.96343">
        <ele>1333.4858398438</ele>
        <time>2013-08-20T08:30:09Z</time>
      </trkpt>
      <trkpt lat="42.65411" lon="1.96338">
        <ele>1331.5632324219</ele>
        <time>2013-08-20T08:30:16Z</time>
      </trkpt>
      <trkpt lat="42.65404" lon="1.96333">
        <ele>1329.640625</ele>
        <time>2013-08-20T08:30:23Z</time>
      </trkpt>
      <trkpt lat="42.65399" lon="1.96331">
        <ele>1329.640625</ele>
        <time>2013-08-20T08:30:27Z</time>
      </trkpt>
      <trkpt lat="42.65391" lon="1.96326">
        <ele>1331.5632324219</ele>
        <time>2013-08-20T08:30:34Z</time>
      </trkpt>
      <trkpt lat="42.6539" lon="1.96325">
        <ele>1331.0827636719</ele>
        <time>2013-08-20T08:30:35Z</time>
      </trkpt>
      <trkpt lat="42.65383" lon="1.96323">
        <ele>1342.6186523438</ele>
        <time>2013-08-20T08:30:41Z</time>
      </trkpt>
      <trkpt lat="42.6538" lon="1.96322">
        <ele>1348.3862304688</ele>
        <time>2013-08-20T08:30:42Z</time>
      </trkpt>
      <trkpt lat="42.65371" lon="1.96317">
        <ele>1363.2868652344</ele>
        <time>2013-08-20T08:30:44Z</time>
      </trkpt>
      <trkpt lat="42.65353" lon="1.96311">
        <ele>1391.6457519531</ele>
        <time>2013-08-20T08:30:47Z</time>
      </trkpt>
      <trkpt lat="42.65329" lon="1.96305">
        <ele>1412.7946777344</ele>
        <time>2013-08-20T08:30:56Z</time>
      </trkpt>
      <trkpt lat="42.65322" lon="1.96303">
        <ele>1409.9106445312</ele>
        <time>2013-08-20T08:31:03Z</time>
      </trkpt>
      <trkpt lat="42.6531" lon="1.96298">
        <ele>1410.8720703125</ele>
        <time>2013-08-20T08:31:12Z</time>
      </trkpt>
      <trkpt lat="42.653" lon="1.96296">
        <ele>1410.3913574219</ele>
        <time>2013-08-20T08:31:20Z</time>
      </trkpt>
      <trkpt lat="42.65292" lon="1.96291">
        <ele>1411.3527832031</ele>
        <time>2013-08-20T08:31:27Z</time>
      </trkpt>
      <trkpt lat="42.65283" lon="1.96286">
        <ele>1413.755859375</ele>
        <time>2013-08-20T08:31:35Z</time>
      </trkpt>
      <trkpt lat="42.65276" lon="1.96284">
        <ele>1414.7172851562</ele>
        <time>2013-08-20T08:31:41Z</time>
      </trkpt>
      <trkpt lat="42.6527" lon="1.96278">
        <ele>1414.7172851562</ele>
        <time>2013-08-20T08:31:47Z</time>
      </trkpt>
      <trkpt lat="42.65263" lon="1.96274">
        <ele>1417.1206054688</ele>
        <time>2013-08-20T08:31:54Z</time>
      </trkpt>
      <trkpt lat="42.65257" lon="1.9627">
        <ele>1419.0432128906</ele>
        <time>2013-08-20T08:31:59Z</time>
      </trkpt>
      <trkpt lat="42.65252" lon="1.96265">
        <ele>1422.888671875</ele>
        <time>2013-08-20T08:32:03Z</time>
      </trkpt>
      <trkpt lat="42.65245" lon="1.96256">
        <ele>1423.3693847656</ele>
        <time>2013-08-20T08:32:11Z</time>
      </trkpt>
      <trkpt lat="42.65239" lon="1.96249">
        <ele>1429.1369628906</ele>
        <time>2013-08-20T08:32:17Z</time>
      </trkpt>
      <trkpt lat="42.65236" lon="1.96241">
        <ele>1431.0598144531</ele>
        <time>2013-08-20T08:32:23Z</time>
      </trkpt>
      <trkpt lat="42.65231" lon="1.96236">
        <ele>1428.6564941406</ele>
        <time>2013-08-20T08:32:30Z</time>
      </trkpt>
      <trkpt lat="42.65226" lon="1.96235">
        <ele>1427.6950683594</ele>
        <time>2013-08-20T08:32:35Z</time>
      </trkpt>
      <trkpt lat="42.65224" lon="1.96234">
        <ele>1427.2145996094</ele>
        <time>2013-08-20T08:32:38Z</time>
      </trkpt>
      <trkpt lat="42.6522" lon="1.96234">
        <ele>1427.2145996094</ele>
        <time>2013-08-20T08:32:42Z</time>
      </trkpt>
      <trkpt lat="42.65215" lon="1.96235">
        <ele>1427.2145996094</ele>
        <time>2013-08-20T08:32:46Z</time>
      </trkpt>
      <trkpt lat="42.65209" lon="1.96237">
        <ele>1427.2145996094</ele>
        <time>2013-08-20T08:32:51Z</time>
      </trkpt>
      <trkpt lat="42.65199" lon="1.96235">
        <ele>1426.7338867188</ele>
        <time>2013-08-20T08:33:00Z</time>
      </trkpt>
      <trkpt lat="42.65196" lon="1.96235">
        <ele>1426.7338867188</ele>
        <time>2013-08-20T08:33:02Z</time>
      </trkpt>
      <trkpt lat="42.65187" lon="1.96231">
        <ele>1429.6176757812</ele>
        <time>2013-08-20T08:33:09Z</time>
      </trkpt>
      <trkpt lat="42.65167" lon="1.96221">
        <ele>1453.6508789062</ele>
        <time>2013-08-20T08:33:17Z</time>
      </trkpt>
      <trkpt lat="42.65163" lon="1.96218">
        <ele>1444.9987792969</ele>
        <time>2013-08-20T08:33:24Z</time>
      </trkpt>
      <trkpt lat="42.65159" lon="1.96216">
        <ele>1436.8276367188</ele>
        <time>2013-08-20T08:33:31Z</time>
      </trkpt>
      <trkpt lat="42.65149" lon="1.96213">
        <ele>1432.9821777344</ele>
        <time>2013-08-20T08:33:40Z</time>
      </trkpt>
      <trkpt lat="42.65136" lon="1.96214">
        <ele>1432.0209960938</ele>
        <time>2013-08-20T08:33:49Z</time>
      </trkpt>
      <trkpt lat="42.65126" lon="1.96216">
        <ele>1432.0209960938</ele>
        <time>2013-08-20T08:33:57Z</time>
      </trkpt>
      <trkpt lat="42.65113" lon="1.96218">
        <ele>1432.0209960938</ele>
        <time>2013-08-20T08:34:07Z</time>
      </trkpt>
      <trkpt lat="42.65104" lon="1.9622">
        <ele>1433.9436035156</ele>
        <time>2013-08-20T08:34:14Z</time>
      </trkpt>
      <trkpt lat="42.65096" lon="1.96222">
        <ele>1434.4243164062</ele>
        <time>2013-08-20T08:34:20Z</time>
      </trkpt>
      <trkpt lat="42.65089" lon="1.96223">
        <ele>1434.4243164062</ele>
        <time>2013-08-20T08:34:26Z</time>
      </trkpt>
      <trkpt lat="42.65079" lon="1.96225">
        <ele>1435.3854980469</ele>
        <time>2013-08-20T08:34:33Z</time>
      </trkpt>
      <trkpt lat="42.65069" lon="1.96225">
        <ele>1435.3854980469</ele>
        <time>2013-08-20T08:34:40Z</time>
      </trkpt>
      <trkpt lat="42.65056" lon="1.96227">
        <ele>1435.8662109375</ele>
        <time>2013-08-20T08:34:48Z</time>
      </trkpt>
      <trkpt lat="42.65045" lon="1.96228">
        <ele>1433.462890625</ele>
        <time>2013-08-20T08:34:56Z</time>
      </trkpt>
      <trkpt lat="42.65035" lon="1.96226">
        <ele>1432.9821777344</ele>
        <time>2013-08-20T08:35:03Z</time>
      </trkpt>
      <trkpt lat="42.65026" lon="1.96224">
        <ele>1434.9050292969</ele>
        <time>2013-08-20T08:35:07Z</time>
      </trkpt>
      <trkpt lat="42.65012" lon="1.96219">
        <ele>1436.3471679688</ele>
        <time>2013-08-20T08:35:12Z</time>
      </trkpt>
      <trkpt lat="42.64996" lon="1.96213">
        <ele>1436.3471679688</ele>
        <time>2013-08-20T08:35:18Z</time>
      </trkpt>
      <trkpt lat="42.64983" lon="1.96208">
        <ele>1437.3083496094</ele>
        <time>2013-08-20T08:35:23Z</time>
      </trkpt>
      <trkpt lat="42.64967" lon="1.96203">
        <ele>1438.2697753906</ele>
        <time>2013-08-20T08:35:29Z</time>
      </trkpt>
      <trkpt lat="42.64954" lon="1.96197">
        <ele>1438.2697753906</ele>
        <time>2013-08-20T08:35:34Z</time>
      </trkpt>
      <trkpt lat="42.64949" lon="1.96196">
        <ele>1437.7890625</ele>
        <time>2013-08-20T08:35:36Z</time>
      </trkpt>
      <trkpt lat="42.64938" lon="1.96191">
        <ele>1437.7890625</ele>
        <time>2013-08-20T08:35:40Z</time>
      </trkpt>
      <trkpt lat="42.64925" lon="1.96184">
        <ele>1438.2697753906</ele>
        <time>2013-08-20T08:35:46Z</time>
      </trkpt>
      <trkpt lat="42.64915" lon="1.96181">
        <ele>1437.7890625</ele>
        <time>2013-08-20T08:35:50Z</time>
      </trkpt>
      <trkpt lat="42.64906" lon="1.96176">
        <ele>1438.2697753906</ele>
        <time>2013-08-20T08:35:54Z</time>
      </trkpt>
      <trkpt lat="42.64895" lon="1.9617">
        <ele>1439.2309570312</ele>
        <time>2013-08-20T08:35:59Z</time>
      </trkpt>
      <trkpt lat="42.64886" lon="1.96162">
        <ele>1441.1535644531</ele>
        <time>2013-08-20T08:36:03Z</time>
      </trkpt>
      <trkpt lat="42.64876" lon="1.96153">
        <ele>1440.6728515625</ele>
        <time>2013-08-20T08:36:08Z</time>
      </trkpt>
      <trkpt lat="42.64867" lon="1.96147">
        <ele>1440.1923828125</ele>
        <time>2013-08-20T08:36:12Z</time>
      </trkpt>
      <trkpt lat="42.64854" lon="1.96139">
        <ele>1439.2309570312</ele>
        <time>2013-08-20T08:36:17Z</time>
      </trkpt>
      <trkpt lat="42.64845" lon="1.96136">
        <ele>1439.2309570312</ele>
        <time>2013-08-20T08:36:21Z</time>
      </trkpt>
      <trkpt lat="42.64835" lon="1.96133">
        <ele>1438.7504882812</ele>
        <time>2013-08-20T08:36:26Z</time>
      </trkpt>
      <trkpt lat="42.64828" lon="1.9613">
        <ele>1442.595703125</ele>
        <time>2013-08-20T08:36:31Z</time>
      </trkpt>
      <trkpt lat="42.64824" lon="1.96128">
        <ele>1439.2309570312</ele>
        <time>2013-08-20T08:36:35Z</time>
      </trkpt>
      <trkpt lat="42.64817" lon="1.96123">
        <ele>1438.2697753906</ele>
        <time>2013-08-20T08:36:40Z</time>
      </trkpt>
      <trkpt lat="42.64812" lon="1.96121">
        <ele>1440.1923828125</ele>
        <time>2013-08-20T08:36:46Z</time>
      </trkpt>
      <trkpt lat="42.64802" lon="1.96117">
        <ele>1438.2697753906</ele>
        <time>2013-08-20T08:36:53Z</time>
      </trkpt>
      <trkpt lat="42.64794" lon="1.96117">
        <ele>1436.8276367188</ele>
        <time>2013-08-20T08:36:59Z</time>
      </trkpt>
      <trkpt lat="42.64789" lon="1.9612">
        <ele>1434.4243164062</ele>
        <time>2013-08-20T08:37:04Z</time>
      </trkpt>
      <trkpt lat="42.64779" lon="1.96124">
        <ele>1432.9821777344</ele>
        <time>2013-08-20T08:37:10Z</time>
      </trkpt>
      <trkpt lat="42.6477" lon="1.96127">
        <ele>1432.0209960938</ele>
        <time>2013-08-20T08:37:16Z</time>
      </trkpt>
      <trkpt lat="42.64742" lon="1.96127">
        <ele>1444.9987792969</ele>
        <time>2013-08-20T08:37:29Z</time>
      </trkpt>
      <trkpt lat="42.64729" lon="1.96128">
        <ele>1435.8662109375</ele>
        <time>2013-08-20T08:37:41Z</time>
      </trkpt>
      <trkpt lat="42.64722" lon="1.96129">
        <ele>1432.9821777344</ele>
        <time>2013-08-20T08:37:47Z</time>
      </trkpt>
      <trkpt lat="42.64694" lon="1.96126">
        <ele>1442.1149902344</ele>
        <time>2013-08-20T08:38:04Z</time>
      </trkpt>
      <trkpt lat="42.64682" lon="1.96117">
        <ele>1448.8439941406</ele>
        <time>2013-08-20T08:38:12Z</time>
      </trkpt>
      <trkpt lat="42.64671" lon="1.96103">
        <ele>1452.689453125</ele>
        <time>2013-08-20T08:38:23Z</time>
      </trkpt>
      <trkpt lat="42.64663" lon="1.96102">
        <ele>1450.7666015625</ele>
        <time>2013-08-20T08:38:30Z</time>
      </trkpt>
      <trkpt lat="42.64656" lon="1.96097">
        <ele>1450.7666015625</ele>
        <time>2013-08-20T08:38:37Z</time>
      </trkpt>
      <trkpt lat="42.64652" lon="1.96093">
        <ele>1450.7666015625</ele>
        <time>2013-08-20T08:38:42Z</time>
      </trkpt>
      <trkpt lat="42.64641" lon="1.96082">
        <ele>1451.2473144531</ele>
        <time>2013-08-20T08:38:48Z</time>
      </trkpt>
      <trkpt lat="42.64602" lon="1.96059">
        <ele>1449.8054199219</ele>
        <time>2013-08-20T08:39:20Z</time>
      </trkpt>
      <trkpt lat="42.64589" lon="1.96054">
        <ele>1448.8439941406</ele>
        <time>2013-08-20T08:39:27Z</time>
      </trkpt>
      <trkpt lat="42.64571" lon="1.96046">
        <ele>1449.3247070312</ele>
        <time>2013-08-20T08:39:40Z</time>
      </trkpt>
      <trkpt lat="42.64561" lon="1.96038">
        <ele>1444.9987792969</ele>
        <time>2013-08-20T08:40:09Z</time>
      </trkpt>
      <trkpt lat="42.6452" lon="1.95996">
        <ele>1444.9987792969</ele>
        <time>2013-08-20T08:40:44Z</time>
      </trkpt>
      <trkpt lat="42.6451" lon="1.95992">
        <ele>1445.4794921875</ele>
        <time>2013-08-20T08:40:52Z</time>
      </trkpt>
      <trkpt lat="42.64429" lon="1.95932">
        <ele>1446.9213867188</ele>
        <time>2013-08-20T08:41:44Z</time>
      </trkpt>
      <trkpt lat="42.64246" lon="1.95859">
        <ele>1441.1535644531</ele>
        <time>2013-08-20T08:45:12Z</time>
      </trkpt>
      <trkpt lat="42.64246" lon="1.95856">
        <ele>1441.1535644531</ele>
        <time>2013-08-20T08:45:14Z</time>
      </trkpt>
      <trkpt lat="42.64241" lon="1.95844">
        <ele>1440.6728515625</ele>
        <time>2013-08-20T08:45:21Z</time>
      </trkpt>
      <trkpt lat="42.64184" lon="1.95644">
        <ele>1440.6728515625</ele>
        <time>2013-08-20T08:47:48Z</time>
      </trkpt>
      <trkpt lat="42.64178" lon="1.95641">
        <ele>1439.2309570312</ele>
        <time>2013-08-20T08:47:56Z</time>
      </trkpt>
      <trkpt lat="42.64174" lon="1.95636">
        <ele>1439.7116699219</ele>
        <time>2013-08-20T08:48:00Z</time>
      </trkpt>
      <trkpt lat="42.64165" lon="1.95628">
        <ele>1459.4187011719</ele>
        <time>2013-08-20T08:48:07Z</time>
      </trkpt>
      <trkpt lat="42.64153" lon="1.95619">
        <ele>1479.6062011719</ele>
        <time>2013-08-20T08:48:13Z</time>
      </trkpt>
      <trkpt lat="42.64143" lon="1.95611">
        <ele>1502.6779785156</ele>
        <time>2013-08-20T08:48:17Z</time>
      </trkpt>
      <trkpt lat="42.64133" lon="1.95605">
        <ele>1528.6335449219</ele>
        <time>2013-08-20T08:48:22Z</time>
      </trkpt>
      <trkpt lat="42.64132" lon="1.95603">
        <ele>1528.6335449219</ele>
        <time>2013-08-20T08:48:26Z</time>
      </trkpt>
      <trkpt lat="42.64124" lon="1.95597">
        <ele>1541.611328125</ele>
        <time>2013-08-20T08:48:33Z</time>
      </trkpt>
      <trkpt lat="42.64127" lon="1.956">
        <ele>1532.4790039062</ele>
        <time>2013-08-20T08:48:38Z</time>
      </trkpt>
      <trkpt lat="42.64128" lon="1.95608">
        <ele>1507.4846191406</ele>
        <time>2013-08-20T08:48:50Z</time>
      </trkpt>
      <trkpt lat="42.64122" lon="1.95611">
        <ele>1501.716796875</ele>
        <time>2013-08-20T08:49:02Z</time>
      </trkpt>
      <trkpt lat="42.64121" lon="1.95616">
        <ele>1499.7939453125</ele>
        <time>2013-08-20T08:49:06Z</time>
      </trkpt>
      <trkpt lat="42.64112" lon="1.95621">
        <ele>1494.5065917969</ele>
        <time>2013-08-20T08:49:23Z</time>
      </trkpt>
      <trkpt lat="42.64111" lon="1.95626">
        <ele>1494.0261230469</ele>
        <time>2013-08-20T08:49:28Z</time>
      </trkpt>
      <trkpt lat="42.64111" lon="1.9563">
        <ele>1494.0261230469</ele>
        <time>2013-08-20T08:49:33Z</time>
      </trkpt>
      <trkpt lat="42.64105" lon="1.95629">
        <ele>1502.6779785156</ele>
        <time>2013-08-20T08:49:40Z</time>
      </trkpt>
      <trkpt lat="42.64103" lon="1.95627">
        <ele>1507.4846191406</ele>
        <time>2013-08-20T08:49:46Z</time>
      </trkpt>
      <trkpt lat="42.64103" lon="1.95627">
        <ele>1507.9653320312</ele>
        <time>2013-08-20T08:49:47Z</time>
      </trkpt>
      <trkpt lat="42.64099" lon="1.95626">
        <ele>1509.4072265625</ele>
        <time>2013-08-20T08:49:53Z</time>
      </trkpt>
      <trkpt lat="42.64093" lon="1.95626">
        <ele>1516.6171875</ele>
        <time>2013-08-20T08:50:09Z</time>
      </trkpt>
      <trkpt lat="42.64086" lon="1.95622">
        <ele>1522.3850097656</ele>
        <time>2013-08-20T08:50:16Z</time>
      </trkpt>
      <trkpt lat="42.64084" lon="1.9562">
        <ele>1523.3464355469</ele>
        <time>2013-08-20T08:50:17Z</time>
      </trkpt>
      <trkpt lat="42.64078" lon="1.95609">
        <ele>1528.1528320312</ele>
        <time>2013-08-20T08:50:24Z</time>
      </trkpt>
      <trkpt lat="42.6408" lon="1.95601">
        <ele>1527.1916503906</ele>
        <time>2013-08-20T08:50:29Z</time>
      </trkpt>
      <trkpt lat="42.64079" lon="1.95593">
        <ele>1526.2302246094</ele>
        <time>2013-08-20T08:50:35Z</time>
      </trkpt>
      <trkpt lat="42.6408" lon="1.95586">
        <ele>1521.904296875</ele>
        <time>2013-08-20T08:50:42Z</time>
      </trkpt>
      <trkpt lat="42.64077" lon="1.95577">
        <ele>1522.3850097656</ele>
        <time>2013-08-20T08:50:52Z</time>
      </trkpt>
      <trkpt lat="42.64074" lon="1.95566">
        <ele>1523.3464355469</ele>
        <time>2013-08-20T08:51:14Z</time>
      </trkpt>
      <trkpt lat="42.64072" lon="1.95551">
        <ele>1523.3464355469</ele>
        <time>2013-08-20T08:51:29Z</time>
      </trkpt>
      <trkpt lat="42.64072" lon="1.95549">
        <ele>1523.3464355469</ele>
        <time>2013-08-20T08:51:30Z</time>
      </trkpt>
      <trkpt lat="42.64071" lon="1.95537">
        <ele>1523.3464355469</ele>
        <time>2013-08-20T08:51:37Z</time>
      </trkpt>
      <trkpt lat="42.64071" lon="1.95531">
        <ele>1522.3850097656</ele>
        <time>2013-08-20T08:51:41Z</time>
      </trkpt>
      <trkpt lat="42.6407" lon="1.95528">
        <ele>1524.7883300781</ele>
        <time>2013-08-20T08:51:44Z</time>
      </trkpt>
      <trkpt lat="42.64068" lon="1.95519">
        <ele>1526.2302246094</ele>
        <time>2013-08-20T08:51:50Z</time>
      </trkpt>
      <trkpt lat="42.64067" lon="1.95507">
        <ele>1524.3076171875</ele>
        <time>2013-08-20T08:51:57Z</time>
      </trkpt>
      <trkpt lat="42.64065" lon="1.95504">
        <ele>1524.3076171875</ele>
        <time>2013-08-20T08:52:00Z</time>
      </trkpt>
      <trkpt lat="42.64063" lon="1.95495">
        <ele>1526.2302246094</ele>
        <time>2013-08-20T08:52:05Z</time>
      </trkpt>
      <trkpt lat="42.64061" lon="1.95488">
        <ele>1525.2687988281</ele>
        <time>2013-08-20T08:52:11Z</time>
      </trkpt>
      <trkpt lat="42.64059" lon="1.95481">
        <ele>1526.2302246094</ele>
        <time>2013-08-20T08:52:18Z</time>
      </trkpt>
      <trkpt lat="42.64058" lon="1.95478">
        <ele>1526.7109375</ele>
        <time>2013-08-20T08:52:22Z</time>
      </trkpt>
      <trkpt lat="42.64057" lon="1.95473">
        <ele>1531.998046875</ele>
        <time>2013-08-20T08:52:27Z</time>
      </trkpt>
      <trkpt lat="42.64053" lon="1.95468">
        <ele>1533.4401855469</ele>
        <time>2013-08-20T08:52:31Z</time>
      </trkpt>
      <trkpt lat="42.64053" lon="1.95467">
        <ele>1533.9208984375</ele>
        <time>2013-08-20T08:52:32Z</time>
      </trkpt>
      <trkpt lat="42.6405" lon="1.95459">
        <ele>1533.4401855469</ele>
        <time>2013-08-20T08:52:38Z</time>
      </trkpt>
      <trkpt lat="42.64049" lon="1.95452">
        <ele>1533.4401855469</ele>
        <time>2013-08-20T08:52:43Z</time>
      </trkpt>
      <trkpt lat="42.64047" lon="1.95446">
        <ele>1531.5173339844</ele>
        <time>2013-08-20T08:52:49Z</time>
      </trkpt>
      <trkpt lat="42.64045" lon="1.95442">
        <ele>1532.9594726562</ele>
        <time>2013-08-20T08:52:53Z</time>
      </trkpt>
      <trkpt lat="42.64045" lon="1.95432">
        <ele>1535.3627929688</ele>
        <time>2013-08-20T08:53:04Z</time>
      </trkpt>
      <trkpt lat="42.64044" lon="1.95424">
        <ele>1535.8435058594</ele>
        <time>2013-08-20T08:53:09Z</time>
      </trkpt>
      <trkpt lat="42.64045" lon="1.95422">
        <ele>1535.8435058594</ele>
        <time>2013-08-20T08:53:10Z</time>
      </trkpt>
      <trkpt lat="42.64044" lon="1.95414">
        <ele>1537.2854003906</ele>
        <time>2013-08-20T08:53:16Z</time>
      </trkpt>
      <trkpt lat="42.64044" lon="1.95408">
        <ele>1539.2080078125</ele>
        <time>2013-08-20T08:53:21Z</time>
      </trkpt>
      <trkpt lat="42.64045" lon="1.95403">
        <ele>1542.0920410156</ele>
        <time>2013-08-20T08:53:25Z</time>
      </trkpt>
      <trkpt lat="42.64046" lon="1.954">
        <ele>1542.5727539062</ele>
        <time>2013-08-20T08:53:27Z</time>
      </trkpt>
      <trkpt lat="42.64046" lon="1.95395">
        <ele>1540.6499023438</ele>
        <time>2013-08-20T08:53:30Z</time>
      </trkpt>
      <trkpt lat="42.64048" lon="1.95388">
        <ele>1537.7661132812</ele>
        <time>2013-08-20T08:53:35Z</time>
      </trkpt>
      <trkpt lat="42.64051" lon="1.95382">
        <ele>1536.8046875</ele>
        <time>2013-08-20T08:53:40Z</time>
      </trkpt>
      <trkpt lat="42.64053" lon="1.95377">
        <ele>1536.32421875</ele>
        <time>2013-08-20T08:53:44Z</time>
      </trkpt>
      <trkpt lat="42.64054" lon="1.95371">
        <ele>1537.7661132812</ele>
        <time>2013-08-20T08:53:50Z</time>
      </trkpt>
      <trkpt lat="42.64057" lon="1.9536">
        <ele>1538.2468261719</ele>
        <time>2013-08-20T08:54:11Z</time>
      </trkpt>
      <trkpt lat="42.64053" lon="1.95356">
        <ele>1539.6887207031</ele>
        <time>2013-08-20T08:54:15Z</time>
      </trkpt>
      <trkpt lat="42.6405" lon="1.95351">
        <ele>1543.5339355469</ele>
        <time>2013-08-20T08:54:20Z</time>
      </trkpt>
      <trkpt lat="42.64048" lon="1.95349">
        <ele>1544.9758300781</ele>
        <time>2013-08-20T08:54:24Z</time>
      </trkpt>
      <trkpt lat="42.64045" lon="1.95342">
        <ele>1545.4565429688</ele>
        <time>2013-08-20T08:54:31Z</time>
      </trkpt>
      <trkpt lat="42.64043" lon="1.95337">
        <ele>1546.8984375</ele>
        <time>2013-08-20T08:54:36Z</time>
      </trkpt>
      <trkpt lat="42.64041" lon="1.95333">
        <ele>1546.41796875</ele>
        <time>2013-08-20T08:54:41Z</time>
      </trkpt>
      <trkpt lat="42.64038" lon="1.95331">
        <ele>1545.9372558594</ele>
        <time>2013-08-20T08:54:45Z</time>
      </trkpt>
      <trkpt lat="42.64035" lon="1.95325">
        <ele>1546.8984375</ele>
        <time>2013-08-20T08:54:50Z</time>
      </trkpt>
      <trkpt lat="42.64034" lon="1.95322">
        <ele>1547.8598632812</ele>
        <time>2013-08-20T08:54:52Z</time>
      </trkpt>
      <trkpt lat="42.64031" lon="1.95315">
        <ele>1550.2634277344</ele>
        <time>2013-08-20T08:54:58Z</time>
      </trkpt>
      <trkpt lat="42.64029" lon="1.95312">
        <ele>1551.224609375</ele>
        <time>2013-08-20T08:55:02Z</time>
      </trkpt>
      <trkpt lat="42.64028" lon="1.95308">
        <ele>1552.1857910156</ele>
        <time>2013-08-20T08:55:06Z</time>
      </trkpt>
      <trkpt lat="42.64025" lon="1.95304">
        <ele>1553.1472167969</ele>
        <time>2013-08-20T08:55:12Z</time>
      </trkpt>
      <trkpt lat="42.64024" lon="1.95299">
        <ele>1553.6279296875</ele>
        <time>2013-08-20T08:55:16Z</time>
      </trkpt>
      <trkpt lat="42.64022" lon="1.95294">
        <ele>1554.5891113281</ele>
        <time>2013-08-20T08:55:20Z</time>
      </trkpt>
      <trkpt lat="42.64021" lon="1.95287">
        <ele>1556.0310058594</ele>
        <time>2013-08-20T08:55:26Z</time>
      </trkpt>
      <trkpt lat="42.6402" lon="1.95281">
        <ele>1558.4343261719</ele>
        <time>2013-08-20T08:55:32Z</time>
      </trkpt>
      <trkpt lat="42.64019" lon="1.95274">
        <ele>1558.9150390625</ele>
        <time>2013-08-20T08:55:39Z</time>
      </trkpt>
      <trkpt lat="42.64019" lon="1.95269">
        <ele>1559.8762207031</ele>
        <time>2013-08-20T08:55:45Z</time>
      </trkpt>
      <trkpt lat="42.64017" lon="1.95263">
        <ele>1561.7990722656</ele>
        <time>2013-08-20T08:55:50Z</time>
      </trkpt>
      <trkpt lat="42.64014" lon="1.95261">
        <ele>1561.7990722656</ele>
        <time>2013-08-20T08:55:54Z</time>
      </trkpt>
      <trkpt lat="42.64011" lon="1.95256">
        <ele>1561.318359375</ele>
        <time>2013-08-20T08:56:00Z</time>
      </trkpt>
      <trkpt lat="42.64008" lon="1.95251">
        <ele>1560.8376464844</ele>
        <time>2013-08-20T08:56:05Z</time>
      </trkpt>
      <trkpt lat="42.64006" lon="1.95245">
        <ele>1561.318359375</ele>
        <time>2013-08-20T08:56:10Z</time>
      </trkpt>
      <trkpt lat="42.64005" lon="1.95242">
        <ele>1561.7990722656</ele>
        <time>2013-08-20T08:56:12Z</time>
      </trkpt>
      <trkpt lat="42.64001" lon="1.95234">
        <ele>1563.2409667969</ele>
        <time>2013-08-20T08:56:19Z</time>
      </trkpt>
      <trkpt lat="42.63999" lon="1.95229">
        <ele>1564.2023925781</ele>
        <time>2013-08-20T08:56:24Z</time>
      </trkpt>
      <trkpt lat="42.63998" lon="1.95227">
        <ele>1564.2023925781</ele>
        <time>2013-08-20T08:56:27Z</time>
      </trkpt>
      <trkpt lat="42.63994" lon="1.95227">
        <ele>1565.64453125</ele>
        <time>2013-08-20T08:56:31Z</time>
      </trkpt>
      <trkpt lat="42.63991" lon="1.95231">
        <ele>1565.64453125</ele>
        <time>2013-08-20T08:56:36Z</time>
      </trkpt>
      <trkpt lat="42.63986" lon="1.95236">
        <ele>1566.125</ele>
        <time>2013-08-20T08:56:42Z</time>
      </trkpt>
      <trkpt lat="42.63982" lon="1.9524">
        <ele>1566.125</ele>
        <time>2013-08-20T08:56:48Z</time>
      </trkpt>
      <trkpt lat="42.63981" lon="1.95243">
        <ele>1566.6057128906</ele>
        <time>2013-08-20T08:56:52Z</time>
      </trkpt>
      <trkpt lat="42.63981" lon="1.95253">
        <ele>1567.0864257812</ele>
        <time>2013-08-20T08:56:59Z</time>
      </trkpt>
      <trkpt lat="42.6398" lon="1.95257">
        <ele>1567.0864257812</ele>
        <time>2013-08-20T08:57:02Z</time>
      </trkpt>
      <trkpt lat="42.63981" lon="1.95266">
        <ele>1569.0090332031</ele>
        <time>2013-08-20T08:57:08Z</time>
      </trkpt>
      <trkpt lat="42.63981" lon="1.95272">
        <ele>1571.412109375</ele>
        <time>2013-08-20T08:57:13Z</time>
      </trkpt>
      <trkpt lat="42.63981" lon="1.95277">
        <ele>1572.3735351562</ele>
        <time>2013-08-20T08:57:17Z</time>
      </trkpt>
      <trkpt lat="42.63981" lon="1.95282">
        <ele>1573.8154296875</ele>
        <time>2013-08-20T08:57:21Z</time>
      </trkpt>
      <trkpt lat="42.63982" lon="1.95287">
        <ele>1575.2573242188</ele>
        <time>2013-08-20T08:57:26Z</time>
      </trkpt>
      <trkpt lat="42.63982" lon="1.95292">
        <ele>1576.21875</ele>
        <time>2013-08-20T08:57:30Z</time>
      </trkpt>
      <trkpt lat="42.63982" lon="1.95295">
        <ele>1575.7380371094</ele>
        <time>2013-08-20T08:57:34Z</time>
      </trkpt>
      <trkpt lat="42.63982" lon="1.95299">
        <ele>1575.2573242188</ele>
        <time>2013-08-20T08:57:37Z</time>
      </trkpt>
      <trkpt lat="42.6398" lon="1.95304">
        <ele>1575.7380371094</ele>
        <time>2013-08-20T08:57:41Z</time>
      </trkpt>
      <trkpt lat="42.63978" lon="1.95306">
        <ele>1575.2573242188</ele>
        <time>2013-08-20T08:57:44Z</time>
      </trkpt>
      <trkpt lat="42.63975" lon="1.95303">
        <ele>1577.6606445312</ele>
        <time>2013-08-20T08:57:50Z</time>
      </trkpt>
      <trkpt lat="42.63969" lon="1.95298">
        <ele>1581.0256347656</ele>
        <time>2013-08-20T08:57:58Z</time>
      </trkpt>
      <trkpt lat="42.63966" lon="1.95293">
        <ele>1581.9868164062</ele>
        <time>2013-08-20T08:58:02Z</time>
      </trkpt>
      <trkpt lat="42.63965" lon="1.95291">
        <ele>1585.3513183594</ele>
        <time>2013-08-20T08:58:04Z</time>
      </trkpt>
      <trkpt lat="42.63963" lon="1.95285">
        <ele>1590.1579589844</ele>
        <time>2013-08-20T08:58:10Z</time>
      </trkpt>
      <trkpt lat="42.63962" lon="1.95281">
        <ele>1592.5612792969</ele>
        <time>2013-08-20T08:58:14Z</time>
      </trkpt>
      <trkpt lat="42.63961" lon="1.95275">
        <ele>1593.0417480469</ele>
        <time>2013-08-20T08:58:20Z</time>
      </trkpt>
      <trkpt lat="42.63959" lon="1.95272">
        <ele>1593.5224609375</ele>
        <time>2013-08-20T08:58:25Z</time>
      </trkpt>
      <trkpt lat="42.63958" lon="1.95267">
        <ele>1594.4836425781</ele>
        <time>2013-08-20T08:58:31Z</time>
      </trkpt>
      <trkpt lat="42.63956" lon="1.95264">
        <ele>1596.8872070312</ele>
        <time>2013-08-20T08:58:35Z</time>
      </trkpt>
      <trkpt lat="42.63956" lon="1.95261">
        <ele>1597.3679199219</ele>
        <time>2013-08-20T08:58:40Z</time>
      </trkpt>
      <trkpt lat="42.63955" lon="1.95257">
        <ele>1595.92578125</ele>
        <time>2013-08-20T08:58:45Z</time>
      </trkpt>
      <trkpt lat="42.63952" lon="1.95252">
        <ele>1595.92578125</ele>
        <time>2013-08-20T08:58:54Z</time>
      </trkpt>
      <trkpt lat="42.6395" lon="1.95246">
        <ele>1597.8486328125</ele>
        <time>2013-08-20T08:59:01Z</time>
      </trkpt>
      <trkpt lat="42.63948" lon="1.9524">
        <ele>1599.7712402344</ele>
        <time>2013-08-20T08:59:08Z</time>
      </trkpt>
      <trkpt lat="42.63946" lon="1.95237">
        <ele>1601.2131347656</ele>
        <time>2013-08-20T08:59:13Z</time>
      </trkpt>
      <trkpt lat="42.63944" lon="1.95232">
        <ele>1602.1743164062</ele>
        <time>2013-08-20T08:59:19Z</time>
      </trkpt>
      <trkpt lat="42.63941" lon="1.95228">
        <ele>1602.1743164062</ele>
        <time>2013-08-20T08:59:26Z</time>
      </trkpt>
      <trkpt lat="42.63939" lon="1.95223">
        <ele>1603.6164550781</ele>
        <time>2013-08-20T08:59:32Z</time>
      </trkpt>
      <trkpt lat="42.63937" lon="1.95218">
        <ele>1605.5390625</ele>
        <time>2013-08-20T08:59:38Z</time>
      </trkpt>
      <trkpt lat="42.63934" lon="1.95215">
        <ele>1606.5002441406</ele>
        <time>2013-08-20T08:59:44Z</time>
      </trkpt>
      <trkpt lat="42.63932" lon="1.9521">
        <ele>1608.4228515625</ele>
        <time>2013-08-20T08:59:51Z</time>
      </trkpt>
      <trkpt lat="42.63932" lon="1.95206">
        <ele>1601.2131347656</ele>
        <time>2013-08-20T09:00:11Z</time>
      </trkpt>
      <trkpt lat="42.63929" lon="1.95202">
        <ele>1600.251953125</ele>
        <time>2013-08-20T09:00:16Z</time>
      </trkpt>
      <trkpt lat="42.63924" lon="1.95195">
        <ele>1600.732421875</ele>
        <time>2013-08-20T09:00:23Z</time>
      </trkpt>
      <trkpt lat="42.63919" lon="1.95194">
        <ele>1603.1357421875</ele>
        <time>2013-08-20T09:00:29Z</time>
      </trkpt>
      <trkpt lat="42.63912" lon="1.95191">
        <ele>1606.9809570312</ele>
        <time>2013-08-20T09:00:36Z</time>
      </trkpt>
      <trkpt lat="42.63908" lon="1.95187">
        <ele>1610.3454589844</ele>
        <time>2013-08-20T09:00:41Z</time>
      </trkpt>
      <trkpt lat="42.63904" lon="1.95185">
        <ele>1611.3068847656</ele>
        <time>2013-08-20T09:00:45Z</time>
      </trkpt>
      <trkpt lat="42.63899" lon="1.95179">
        <ele>1613.7102050781</ele>
        <time>2013-08-20T09:00:52Z</time>
      </trkpt>
      <trkpt lat="42.63898" lon="1.95175">
        <ele>1615.15234375</ele>
        <time>2013-08-20T09:00:56Z</time>
      </trkpt>
      <trkpt lat="42.63892" lon="1.95172">
        <ele>1619.9587402344</ele>
        <time>2013-08-20T09:01:02Z</time>
      </trkpt>
      <trkpt lat="42.6389" lon="1.95172">
        <ele>1620.9201660156</ele>
        <time>2013-08-20T09:01:03Z</time>
      </trkpt>
      <trkpt lat="42.6388" lon="1.95167">
        <ele>1626.2072753906</ele>
        <time>2013-08-20T09:01:12Z</time>
      </trkpt>
      <trkpt lat="42.63877" lon="1.9516">
        <ele>1622.8427734375</ele>
        <time>2013-08-20T09:01:19Z</time>
      </trkpt>
      <trkpt lat="42.63872" lon="1.95151">
        <ele>1624.2846679688</ele>
        <time>2013-08-20T09:01:27Z</time>
      </trkpt>
      <trkpt lat="42.63863" lon="1.9514">
        <ele>1627.1687011719</ele>
        <time>2013-08-20T09:01:36Z</time>
      </trkpt>
      <trkpt lat="42.63861" lon="1.95139">
        <ele>1629.0913085938</ele>
        <time>2013-08-20T09:01:37Z</time>
      </trkpt>
      <trkpt lat="42.63857" lon="1.95138">
        <ele>1634.3786621094</ele>
        <time>2013-08-20T09:01:40Z</time>
      </trkpt>
      <trkpt lat="42.63848" lon="1.95131">
        <ele>1635.8205566406</ele>
        <time>2013-08-20T09:01:49Z</time>
      </trkpt>
      <trkpt lat="42.63845" lon="1.9513">
        <ele>1637.7431640625</ele>
        <time>2013-08-20T09:01:52Z</time>
      </trkpt>
      <trkpt lat="42.63839" lon="1.95127">
        <ele>1637.2624511719</ele>
        <time>2013-08-20T09:01:58Z</time>
      </trkpt>
      <trkpt lat="42.63836" lon="1.95127">
        <ele>1636.3012695312</ele>
        <time>2013-08-20T09:02:02Z</time>
      </trkpt>
      <trkpt lat="42.63829" lon="1.95128">
        <ele>1634.3786621094</ele>
        <time>2013-08-20T09:02:09Z</time>
      </trkpt>
      <trkpt lat="42.63824" lon="1.95132">
        <ele>1633.8979492188</ele>
        <time>2013-08-20T09:02:15Z</time>
      </trkpt>
      <trkpt lat="42.6382" lon="1.95137">
        <ele>1633.8979492188</ele>
        <time>2013-08-20T09:02:20Z</time>
      </trkpt>
      <trkpt lat="42.63816" lon="1.95137">
        <ele>1631.9753417969</ele>
        <time>2013-08-20T09:02:24Z</time>
      </trkpt>
      <trkpt lat="42.63811" lon="1.95139">
        <ele>1631.4946289062</ele>
        <time>2013-08-20T09:02:30Z</time>
      </trkpt>
      <trkpt lat="42.63808" lon="1.95144">
        <ele>1631.4946289062</ele>
        <time>2013-08-20T09:02:35Z</time>
      </trkpt>
      <trkpt lat="42.63803" lon="1.95142">
        <ele>1633.4172363281</ele>
        <time>2013-08-20T09:02:40Z</time>
      </trkpt>
      <trkpt lat="42.63798" lon="1.9514">
        <ele>1635.8205566406</ele>
        <time>2013-08-20T09:02:46Z</time>
      </trkpt>
      <trkpt lat="42.63795" lon="1.95141">
        <ele>1635.33984375</ele>
        <time>2013-08-20T09:02:52Z</time>
      </trkpt>
      <trkpt lat="42.63792" lon="1.9514">
        <ele>1636.7817382812</ele>
        <time>2013-08-20T09:02:57Z</time>
      </trkpt>
      <trkpt lat="42.63789" lon="1.9514">
        <ele>1637.2624511719</ele>
        <time>2013-08-20T09:03:02Z</time>
      </trkpt>
      <trkpt lat="42.63786" lon="1.95139">
        <ele>1638.2238769531</ele>
        <time>2013-08-20T09:03:08Z</time>
      </trkpt>
      <trkpt lat="42.63783" lon="1.95135">
        <ele>1636.3012695312</ele>
        <time>2013-08-20T09:03:14Z</time>
      </trkpt>
      <trkpt lat="42.63778" lon="1.95134">
        <ele>1636.7817382812</ele>
        <time>2013-08-20T09:03:19Z</time>
      </trkpt>
      <trkpt lat="42.63775" lon="1.9513">
        <ele>1637.7431640625</ele>
        <time>2013-08-20T09:03:24Z</time>
      </trkpt>
      <trkpt lat="42.6377" lon="1.95128">
        <ele>1640.626953125</ele>
        <time>2013-08-20T09:03:30Z</time>
      </trkpt>
      <trkpt lat="42.63765" lon="1.95125">
        <ele>1643.0302734375</ele>
        <time>2013-08-20T09:03:36Z</time>
      </trkpt>
      <trkpt lat="42.63762" lon="1.95123">
        <ele>1644.953125</ele>
        <time>2013-08-20T09:03:41Z</time>
      </trkpt>
      <trkpt lat="42.63757" lon="1.95123">
        <ele>1647.8371582031</ele>
        <time>2013-08-20T09:03:46Z</time>
      </trkpt>
      <trkpt lat="42.63754" lon="1.95122">
        <ele>1652.6435546875</ele>
        <time>2013-08-20T09:03:52Z</time>
      </trkpt>
      <trkpt lat="42.63749" lon="1.95123">
        <ele>1656.4887695312</ele>
        <time>2013-08-20T09:03:58Z</time>
      </trkpt>
      <trkpt lat="42.63746" lon="1.95119">
        <ele>1656.4887695312</ele>
        <time>2013-08-20T09:04:04Z</time>
      </trkpt>
      <trkpt lat="42.63743" lon="1.95116">
        <ele>1656.9694824219</ele>
        <time>2013-08-20T09:04:10Z</time>
      </trkpt>
      <trkpt lat="42.63741" lon="1.9512">
        <ele>1656.9694824219</ele>
        <time>2013-08-20T09:04:15Z</time>
      </trkpt>
      <trkpt lat="42.63737" lon="1.95117">
        <ele>1656.0080566406</ele>
        <time>2013-08-20T09:04:21Z</time>
      </trkpt>
      <trkpt lat="42.63733" lon="1.95116">
        <ele>1657.9309082031</ele>
        <time>2013-08-20T09:04:26Z</time>
      </trkpt>
      <trkpt lat="42.63729" lon="1.95115">
        <ele>1659.8532714844</ele>
        <time>2013-08-20T09:04:32Z</time>
      </trkpt>
      <trkpt lat="42.63729" lon="1.95117">
        <ele>1661.2956542969</ele>
        <time>2013-08-20T09:04:37Z</time>
      </trkpt>
      <trkpt lat="42.63731" lon="1.95122">
        <ele>1661.7763671875</ele>
        <time>2013-08-20T09:04:41Z</time>
      </trkpt>
      <trkpt lat="42.63733" lon="1.95126">
        <ele>1662.7375488281</ele>
        <time>2013-08-20T09:04:46Z</time>
      </trkpt>
      <trkpt lat="42.63737" lon="1.95132">
        <ele>1663.6987304688</ele>
        <time>2013-08-20T09:04:51Z</time>
      </trkpt>
      <trkpt lat="42.6374" lon="1.95138">
        <ele>1665.1408691406</ele>
        <time>2013-08-20T09:04:56Z</time>
      </trkpt>
      <trkpt lat="42.63745" lon="1.95149">
        <ele>1665.1408691406</ele>
        <time>2013-08-20T09:05:05Z</time>
      </trkpt>
      <trkpt lat="42.63747" lon="1.95158">
        <ele>1666.1020507812</ele>
        <time>2013-08-20T09:05:12Z</time>
      </trkpt>
      <trkpt lat="42.63743" lon="1.95156">
        <ele>1666.5827636719</ele>
        <time>2013-08-20T09:05:17Z</time>
      </trkpt>
      <trkpt lat="42.63741" lon="1.95155">
        <ele>1666.5827636719</ele>
        <time>2013-08-20T09:05:20Z</time>
      </trkpt>
      <trkpt lat="42.63738" lon="1.95152">
        <ele>1667.0634765625</ele>
        <time>2013-08-20T09:05:25Z</time>
      </trkpt>
      <trkpt lat="42.63734" lon="1.9515">
        <ele>1671.3891601562</ele>
        <time>2013-08-20T09:05:31Z</time>
      </trkpt>
      <trkpt lat="42.63732" lon="1.95149">
        <ele>1671.8698730469</ele>
        <time>2013-08-20T09:05:35Z</time>
      </trkpt>
      <trkpt lat="42.63727" lon="1.95146">
        <ele>1672.8312988281</ele>
        <time>2013-08-20T09:05:41Z</time>
      </trkpt>
      <trkpt lat="42.63724" lon="1.95144">
        <ele>1671.3891601562</ele>
        <time>2013-08-20T09:05:45Z</time>
      </trkpt>
      <trkpt lat="42.63719" lon="1.95143">
        <ele>1673.3120117188</ele>
        <time>2013-08-20T09:05:51Z</time>
      </trkpt>
      <trkpt lat="42.63715" lon="1.95141">
        <ele>1676.1960449219</ele>
        <time>2013-08-20T09:05:55Z</time>
      </trkpt>
      <trkpt lat="42.63712" lon="1.95141">
        <ele>1679.560546875</ele>
        <time>2013-08-20T09:06:00Z</time>
      </trkpt>
      <trkpt lat="42.6371" lon="1.95143">
        <ele>1681.4831542969</ele>
        <time>2013-08-20T09:06:05Z</time>
      </trkpt>
      <trkpt lat="42.63708" lon="1.95144">
        <ele>1684.3671875</ele>
        <time>2013-08-20T09:06:10Z</time>
      </trkpt>
      <trkpt lat="42.63705" lon="1.95142">
        <ele>1685.8090820312</ele>
        <time>2013-08-20T09:06:15Z</time>
      </trkpt>
      <trkpt lat="42.63703" lon="1.95141">
        <ele>1686.2897949219</ele>
        <time>2013-08-20T09:06:20Z</time>
      </trkpt>
      <trkpt lat="42.637" lon="1.95139">
        <ele>1686.2897949219</ele>
        <time>2013-08-20T09:06:24Z</time>
      </trkpt>
      <trkpt lat="42.63696" lon="1.95138">
        <ele>1687.7316894531</ele>
        <time>2013-08-20T09:06:29Z</time>
      </trkpt>
      <trkpt lat="42.63694" lon="1.95136">
        <ele>1688.6931152344</ele>
        <time>2013-08-20T09:06:33Z</time>
      </trkpt>
      <trkpt lat="42.63689" lon="1.95134">
        <ele>1691.0961914062</ele>
        <time>2013-08-20T09:06:40Z</time>
      </trkpt>
      <trkpt lat="42.63685" lon="1.95133">
        <ele>1692.5385742188</ele>
        <time>2013-08-20T09:06:45Z</time>
      </trkpt>
      <trkpt lat="42.63681" lon="1.95133">
        <ele>1694.9416503906</ele>
        <time>2013-08-20T09:06:48Z</time>
      </trkpt>
      <trkpt lat="42.63678" lon="1.95132">
        <ele>1694.9416503906</ele>
        <time>2013-08-20T09:06:52Z</time>
      </trkpt>
      <trkpt lat="42.63676" lon="1.95131">
        <ele>1695.9030761719</ele>
        <time>2013-08-20T09:06:56Z</time>
      </trkpt>
      <trkpt lat="42.63673" lon="1.95131">
        <ele>1694.9416503906</ele>
        <time>2013-08-20T09:07:01Z</time>
      </trkpt>
      <trkpt lat="42.63671" lon="1.95128">
        <ele>1694.4609375</ele>
        <time>2013-08-20T09:07:06Z</time>
      </trkpt>
      <trkpt lat="42.63665" lon="1.95124">
        <ele>1696.3837890625</ele>
        <time>2013-08-20T09:07:15Z</time>
      </trkpt>
      <trkpt lat="42.63661" lon="1.95122">
        <ele>1696.8642578125</ele>
        <time>2013-08-20T09:07:20Z</time>
      </trkpt>
      <trkpt lat="42.6366" lon="1.95124">
        <ele>1699.267578125</ele>
        <time>2013-08-20T09:07:28Z</time>
      </trkpt>
      <trkpt lat="42.63662" lon="1.95128">
        <ele>1699.7482910156</ele>
        <time>2013-08-20T09:07:32Z</time>
      </trkpt>
      <trkpt lat="42.6366" lon="1.95131">
        <ele>1700.7094726562</ele>
        <time>2013-08-20T09:07:36Z</time>
      </trkpt>
      <trkpt lat="42.6366" lon="1.95133">
        <ele>1701.1901855469</ele>
        <time>2013-08-20T09:07:40Z</time>
      </trkpt>
      <trkpt lat="42.63661" lon="1.95135">
        <ele>1702.1513671875</ele>
        <time>2013-08-20T09:07:43Z</time>
      </trkpt>
      <trkpt lat="42.63661" lon="1.95139">
        <ele>1702.1513671875</ele>
        <time>2013-08-20T09:07:46Z</time>
      </trkpt>
      <trkpt lat="42.63657" lon="1.95137">
        <ele>1703.1127929688</ele>
        <time>2013-08-20T09:07:50Z</time>
      </trkpt>
      <trkpt lat="42.63655" lon="1.95135">
        <ele>1703.1127929688</ele>
        <time>2013-08-20T09:07:54Z</time>
      </trkpt>
      <trkpt lat="42.63651" lon="1.95135">
        <ele>1703.1127929688</ele>
        <time>2013-08-20T09:08:01Z</time>
      </trkpt>
      <trkpt lat="42.63651" lon="1.95138">
        <ele>1705.5161132812</ele>
        <time>2013-08-20T09:08:06Z</time>
      </trkpt>
      <trkpt lat="42.63651" lon="1.9514">
        <ele>1707.4387207031</ele>
        <time>2013-08-20T09:08:11Z</time>
      </trkpt>
      <trkpt lat="42.63646" lon="1.95138">
        <ele>1708.880859375</ele>
        <time>2013-08-20T09:08:16Z</time>
      </trkpt>
      <trkpt lat="42.63643" lon="1.95135">
        <ele>1710.8034667969</ele>
        <time>2013-08-20T09:08:21Z</time>
      </trkpt>
      <trkpt lat="42.63641" lon="1.95131">
        <ele>1712.2453613281</ele>
        <time>2013-08-20T09:08:26Z</time>
      </trkpt>
      <trkpt lat="42.63639" lon="1.95124">
        <ele>1712.7260742188</ele>
        <time>2013-08-20T09:08:31Z</time>
      </trkpt>
      <trkpt lat="42.63636" lon="1.95123">
        <ele>1712.2453613281</ele>
        <time>2013-08-20T09:08:36Z</time>
      </trkpt>
      <trkpt lat="42.63633" lon="1.9512">
        <ele>1710.8034667969</ele>
        <time>2013-08-20T09:08:41Z</time>
      </trkpt>
      <trkpt lat="42.63629" lon="1.95117">
        <ele>1710.8034667969</ele>
        <time>2013-08-20T09:08:46Z</time>
      </trkpt>
      <trkpt lat="42.63626" lon="1.95115">
        <ele>1712.2453613281</ele>
        <time>2013-08-20T09:08:51Z</time>
      </trkpt>
      <trkpt lat="42.63622" lon="1.95114">
        <ele>1714.16796875</ele>
        <time>2013-08-20T09:08:55Z</time>
      </trkpt>
      <trkpt lat="42.63619" lon="1.95111">
        <ele>1713.6872558594</ele>
        <time>2013-08-20T09:09:00Z</time>
      </trkpt>
      <trkpt lat="42.63615" lon="1.95107">
        <ele>1714.6486816406</ele>
        <time>2013-08-20T09:09:06Z</time>
      </trkpt>
      <trkpt lat="42.63609" lon="1.95106">
        <ele>1717.0520019531</ele>
        <time>2013-08-20T09:09:12Z</time>
      </trkpt>
      <trkpt lat="42.63604" lon="1.95104">
        <ele>1718.0131835938</ele>
        <time>2013-08-20T09:09:18Z</time>
      </trkpt>
      <trkpt lat="42.63597" lon="1.951">
        <ele>1717.5324707031</ele>
        <time>2013-08-20T09:09:25Z</time>
      </trkpt>
      <trkpt lat="42.63595" lon="1.95099">
        <ele>1715.6101074219</ele>
        <time>2013-08-20T09:09:29Z</time>
      </trkpt>
      <trkpt lat="42.63594" lon="1.95096">
        <ele>1715.1293945312</ele>
        <time>2013-08-20T09:09:33Z</time>
      </trkpt>
      <trkpt lat="42.63591" lon="1.95093">
        <ele>1714.16796875</ele>
        <time>2013-08-20T09:09:37Z</time>
      </trkpt>
      <trkpt lat="42.63588" lon="1.95089">
        <ele>1714.6486816406</ele>
        <time>2013-08-20T09:09:40Z</time>
      </trkpt>
      <trkpt lat="42.63582" lon="1.95084">
        <ele>1717.0520019531</ele>
        <time>2013-08-20T09:09:45Z</time>
      </trkpt>
      <trkpt lat="42.63573" lon="1.9508">
        <ele>1719.9357910156</ele>
        <time>2013-08-20T09:09:53Z</time>
      </trkpt>
      <trkpt lat="42.63567" lon="1.95079">
        <ele>1721.3776855469</ele>
        <time>2013-08-20T09:09:59Z</time>
      </trkpt>
      <trkpt lat="42.6356" lon="1.95072">
        <ele>1724.2619628906</ele>
        <time>2013-08-20T09:10:06Z</time>
      </trkpt>
      <trkpt lat="42.63553" lon="1.9507">
        <ele>1728.1071777344</ele>
        <time>2013-08-20T09:10:12Z</time>
      </trkpt>
      <trkpt lat="42.63551" lon="1.95074">
        <ele>1726.6652832031</ele>
        <time>2013-08-20T09:10:17Z</time>
      </trkpt>
      <trkpt lat="42.63548" lon="1.95079">
        <ele>1723.7810058594</ele>
        <time>2013-08-20T09:10:22Z</time>
      </trkpt>
      <trkpt lat="42.63546" lon="1.95084">
        <ele>1723.7810058594</ele>
        <time>2013-08-20T09:10:26Z</time>
      </trkpt>
      <trkpt lat="42.63543" lon="1.95089">
        <ele>1724.2619628906</ele>
        <time>2013-08-20T09:10:32Z</time>
      </trkpt>
      <trkpt lat="42.63539" lon="1.95094">
        <ele>1724.7426757812</ele>
        <time>2013-08-20T09:10:37Z</time>
      </trkpt>
      <trkpt lat="42.63536" lon="1.95094">
        <ele>1725.7038574219</ele>
        <time>2013-08-20T09:10:40Z</time>
      </trkpt>
      <trkpt lat="42.63532" lon="1.95094">
        <ele>1725.7038574219</ele>
        <time>2013-08-20T09:10:44Z</time>
      </trkpt>
      <trkpt lat="42.63527" lon="1.95093">
        <ele>1728.587890625</ele>
        <time>2013-08-20T09:10:49Z</time>
      </trkpt>
      <trkpt lat="42.63521" lon="1.95094">
        <ele>1730.9912109375</ele>
        <time>2013-08-20T09:10:56Z</time>
      </trkpt>
      <trkpt lat="42.63519" lon="1.95097">
        <ele>1732.4331054688</ele>
        <time>2013-08-20T09:11:00Z</time>
      </trkpt>
      <trkpt lat="42.63515" lon="1.95096">
        <ele>1733.3942871094</ele>
        <time>2013-08-20T09:11:07Z</time>
      </trkpt>
      <trkpt lat="42.63511" lon="1.95097">
        <ele>1736.2783203125</ele>
        <time>2013-08-20T09:11:12Z</time>
      </trkpt>
      <trkpt lat="42.63507" lon="1.95094">
        <ele>1738.681640625</ele>
        <time>2013-08-20T09:11:18Z</time>
      </trkpt>
      <trkpt lat="42.63504" lon="1.95089">
        <ele>1739.6428222656</ele>
        <time>2013-08-20T09:11:23Z</time>
      </trkpt>
      <trkpt lat="42.635" lon="1.95084">
        <ele>1740.6042480469</ele>
        <time>2013-08-20T09:11:28Z</time>
      </trkpt>
      <trkpt lat="42.63497" lon="1.9508">
        <ele>1739.162109375</ele>
        <time>2013-08-20T09:11:33Z</time>
      </trkpt>
      <trkpt lat="42.63494" lon="1.95077">
        <ele>1739.6428222656</ele>
        <time>2013-08-20T09:11:39Z</time>
      </trkpt>
      <trkpt lat="42.63491" lon="1.95077">
        <ele>1739.162109375</ele>
        <time>2013-08-20T09:11:44Z</time>
      </trkpt>
      <trkpt lat="42.63489" lon="1.95076">
        <ele>1740.1237792969</ele>
        <time>2013-08-20T09:11:48Z</time>
      </trkpt>
      <trkpt lat="42.63487" lon="1.95074">
        <ele>1739.162109375</ele>
        <time>2013-08-20T09:11:53Z</time>
      </trkpt>
      <trkpt lat="42.63484" lon="1.95069">
        <ele>1739.6428222656</ele>
        <time>2013-08-20T09:12:00Z</time>
      </trkpt>
      <trkpt lat="42.6348" lon="1.95068">
        <ele>1738.2009277344</ele>
        <time>2013-08-20T09:12:06Z</time>
      </trkpt>
      <trkpt lat="42.63477" lon="1.95067">
        <ele>1739.162109375</ele>
        <time>2013-08-20T09:12:10Z</time>
      </trkpt>
      <trkpt lat="42.63468" lon="1.95066">
        <ele>1739.162109375</ele>
        <time>2013-08-20T09:12:17Z</time>
      </trkpt>
      <trkpt lat="42.63459" lon="1.95067">
        <ele>1743.48828125</ele>
        <time>2013-08-20T09:12:24Z</time>
      </trkpt>
      <trkpt lat="42.63456" lon="1.95068">
        <ele>1744.4494628906</ele>
        <time>2013-08-20T09:12:28Z</time>
      </trkpt>
      <trkpt lat="42.63453" lon="1.95069">
        <ele>1744.9301757812</ele>
        <time>2013-08-20T09:12:34Z</time>
      </trkpt>
      <trkpt lat="42.63448" lon="1.95068">
        <ele>1748.775390625</ele>
        <time>2013-08-20T09:12:40Z</time>
      </trkpt>
      <trkpt lat="42.63444" lon="1.95068">
        <ele>1749.7368164062</ele>
        <time>2013-08-20T09:12:44Z</time>
      </trkpt>
      <trkpt lat="42.63442" lon="1.95068">
        <ele>1749.7368164062</ele>
        <time>2013-08-20T09:12:48Z</time>
      </trkpt>
      <trkpt lat="42.63439" lon="1.9507">
        <ele>1749.7368164062</ele>
        <time>2013-08-20T09:12:52Z</time>
      </trkpt>
      <trkpt lat="42.63435" lon="1.9507">
        <ele>1753.1013183594</ele>
        <time>2013-08-20T09:12:58Z</time>
      </trkpt>
      <trkpt lat="42.63432" lon="1.9507">
        <ele>1753.58203125</ele>
        <time>2013-08-20T09:13:03Z</time>
      </trkpt>
      <trkpt lat="42.63428" lon="1.95069">
        <ele>1756.9467773438</ele>
        <time>2013-08-20T09:13:07Z</time>
      </trkpt>
      <trkpt lat="42.63425" lon="1.95069">
        <ele>1756.4660644531</ele>
        <time>2013-08-20T09:13:11Z</time>
      </trkpt>
      <trkpt lat="42.6342" lon="1.95069">
        <ele>1757.908203125</ele>
        <time>2013-08-20T09:13:16Z</time>
      </trkpt>
      <trkpt lat="42.63415" lon="1.9507">
        <ele>1759.8305664062</ele>
        <time>2013-08-20T09:13:21Z</time>
      </trkpt>
      <trkpt lat="42.63414" lon="1.95073">
        <ele>1760.7919921875</ele>
        <time>2013-08-20T09:13:26Z</time>
      </trkpt>
      <trkpt lat="42.63411" lon="1.95076">
        <ele>1759.3500976562</ele>
        <time>2013-08-20T09:13:33Z</time>
      </trkpt>
      <trkpt lat="42.63407" lon="1.95077">
        <ele>1759.3500976562</ele>
        <time>2013-08-20T09:13:38Z</time>
      </trkpt>
      <trkpt lat="42.634" lon="1.95075">
        <ele>1760.7919921875</ele>
        <time>2013-08-20T09:14:09Z</time>
      </trkpt>
      <trkpt lat="42.63396" lon="1.95075">
        <ele>1763.1953125</ele>
        <time>2013-08-20T09:14:13Z</time>
      </trkpt>
      <trkpt lat="42.63393" lon="1.95075">
        <ele>1764.6372070312</ele>
        <time>2013-08-20T09:14:18Z</time>
      </trkpt>
      <trkpt lat="42.63391" lon="1.95076">
        <ele>1764.6372070312</ele>
        <time>2013-08-20T09:14:22Z</time>
      </trkpt>
      <trkpt lat="42.63388" lon="1.95075">
        <ele>1765.1179199219</ele>
        <time>2013-08-20T09:14:26Z</time>
      </trkpt>
      <trkpt lat="42.63386" lon="1.95076">
        <ele>1765.5986328125</ele>
        <time>2013-08-20T09:14:32Z</time>
      </trkpt>
      <trkpt lat="42.63384" lon="1.95077">
        <ele>1765.5986328125</ele>
        <time>2013-08-20T09:14:36Z</time>
      </trkpt>
      <trkpt lat="42.63381" lon="1.95077">
        <ele>1766.5598144531</ele>
        <time>2013-08-20T09:14:42Z</time>
      </trkpt>
      <trkpt lat="42.63377" lon="1.95077">
        <ele>1768.0017089844</ele>
        <time>2013-08-20T09:14:47Z</time>
      </trkpt>
      <trkpt lat="42.63374" lon="1.95078">
        <ele>1767.0405273438</ele>
        <time>2013-08-20T09:14:51Z</time>
      </trkpt>
      <trkpt lat="42.63371" lon="1.95076">
        <ele>1767.0405273438</ele>
        <time>2013-08-20T09:14:57Z</time>
      </trkpt>
      <trkpt lat="42.63367" lon="1.95076">
        <ele>1767.5209960938</ele>
        <time>2013-08-20T09:15:04Z</time>
      </trkpt>
      <trkpt lat="42.6336" lon="1.95076">
        <ele>1769.4438476562</ele>
        <time>2013-08-20T09:15:15Z</time>
      </trkpt>
      <trkpt lat="42.63358" lon="1.95073">
        <ele>1771.8469238281</ele>
        <time>2013-08-20T09:15:22Z</time>
      </trkpt>
      <trkpt lat="42.63353" lon="1.95073">
        <ele>1777.6149902344</ele>
        <time>2013-08-20T09:15:27Z</time>
      </trkpt>
      <trkpt lat="42.63352" lon="1.95072">
        <ele>1776.1730957031</ele>
        <time>2013-08-20T09:15:30Z</time>
      </trkpt>
      <trkpt lat="42.63349" lon="1.95071">
        <ele>1776.6538085938</ele>
        <time>2013-08-20T09:15:35Z</time>
      </trkpt>
      <trkpt lat="42.63351" lon="1.95073">
        <ele>1777.6149902344</ele>
        <time>2013-08-20T09:15:39Z</time>
      </trkpt>
      <trkpt lat="42.63352" lon="1.95077">
        <ele>1778.095703125</ele>
        <time>2013-08-20T09:15:44Z</time>
      </trkpt>
      <trkpt lat="42.63354" lon="1.95083">
        <ele>1778.5764160156</ele>
        <time>2013-08-20T09:15:49Z</time>
      </trkpt>
      <trkpt lat="42.63359" lon="1.95089">
        <ele>1777.6149902344</ele>
        <time>2013-08-20T09:15:55Z</time>
      </trkpt>
      <trkpt lat="42.63361" lon="1.95091">
        <ele>1778.095703125</ele>
        <time>2013-08-20T09:15:57Z</time>
      </trkpt>
      <trkpt lat="42.63358" lon="1.95092">
        <ele>1780.9797363281</ele>
        <time>2013-08-20T09:16:02Z</time>
      </trkpt>
      <trkpt lat="42.63354" lon="1.9509">
        <ele>1782.9020996094</ele>
        <time>2013-08-20T09:16:06Z</time>
      </trkpt>
      <trkpt lat="42.6335" lon="1.95089">
        <ele>1784.8249511719</ele>
        <time>2013-08-20T09:16:12Z</time>
      </trkpt>
      <trkpt lat="42.63347" lon="1.95088">
        <ele>1785.3054199219</ele>
        <time>2013-08-20T09:16:16Z</time>
      </trkpt>
      <trkpt lat="42.63344" lon="1.95087">
        <ele>1785.7861328125</ele>
        <time>2013-08-20T09:16:20Z</time>
      </trkpt>
      <trkpt lat="42.63339" lon="1.95085">
        <ele>1787.7087402344</ele>
        <time>2013-08-20T09:16:26Z</time>
      </trkpt>
      <trkpt lat="42.63335" lon="1.95084">
        <ele>1789.6315917969</ele>
        <time>2013-08-20T09:16:31Z</time>
      </trkpt>
      <trkpt lat="42.63329" lon="1.95086">
        <ele>1794.4379882812</ele>
        <time>2013-08-20T09:16:38Z</time>
      </trkpt>
      <trkpt lat="42.63329" lon="1.95089">
        <ele>1795.8801269531</ele>
        <time>2013-08-20T09:16:42Z</time>
      </trkpt>
      <trkpt lat="42.6333" lon="1.95092">
        <ele>1796.8413085938</ele>
        <time>2013-08-20T09:16:47Z</time>
      </trkpt>
      <trkpt lat="42.63334" lon="1.95095">
        <ele>1796.8413085938</ele>
        <time>2013-08-20T09:16:52Z</time>
      </trkpt>
      <trkpt lat="42.63336" lon="1.95098">
        <ele>1797.3220214844</ele>
        <time>2013-08-20T09:16:56Z</time>
      </trkpt>
      <trkpt lat="42.63339" lon="1.95102">
        <ele>1797.802734375</ele>
        <time>2013-08-20T09:17:00Z</time>
      </trkpt>
      <trkpt lat="42.63343" lon="1.95107">
        <ele>1798.7639160156</ele>
        <time>2013-08-20T09:17:05Z</time>
      </trkpt>
      <trkpt lat="42.63347" lon="1.95113">
        <ele>1799.2446289062</ele>
        <time>2013-08-20T09:17:11Z</time>
      </trkpt>
      <trkpt lat="42.6335" lon="1.95118">
        <ele>1800.2060546875</ele>
        <time>2013-08-20T09:17:16Z</time>
      </trkpt>
      <trkpt lat="42.63348" lon="1.95121">
        <ele>1799.7253417969</ele>
        <time>2013-08-20T09:17:21Z</time>
      </trkpt>
      <trkpt lat="42.63345" lon="1.9512">
        <ele>1799.7253417969</ele>
        <time>2013-08-20T09:17:25Z</time>
      </trkpt>
      <trkpt lat="42.63341" lon="1.95119">
        <ele>1800.6865234375</ele>
        <time>2013-08-20T09:17:32Z</time>
      </trkpt>
      <trkpt lat="42.63337" lon="1.95117">
        <ele>1800.6865234375</ele>
        <time>2013-08-20T09:17:39Z</time>
      </trkpt>
      <trkpt lat="42.63334" lon="1.95117">
        <ele>1800.2060546875</ele>
        <time>2013-08-20T09:17:44Z</time>
      </trkpt>
      <trkpt lat="42.6333" lon="1.95117">
        <ele>1803.08984375</ele>
        <time>2013-08-20T09:17:49Z</time>
      </trkpt>
      <trkpt lat="42.63326" lon="1.95116">
        <ele>1805.4934082031</ele>
        <time>2013-08-20T09:17:54Z</time>
      </trkpt>
      <trkpt lat="42.63324" lon="1.95118">
        <ele>1806.4545898438</ele>
        <time>2013-08-20T09:18:00Z</time>
      </trkpt>
      <trkpt lat="42.63329" lon="1.95121">
        <ele>1808.3771972656</ele>
        <time>2013-08-20T09:18:06Z</time>
      </trkpt>
      <trkpt lat="42.63332" lon="1.95127">
        <ele>1809.8190917969</ele>
        <time>2013-08-20T09:18:11Z</time>
      </trkpt>
      <trkpt lat="42.63335" lon="1.95131">
        <ele>1811.2612304688</ele>
        <time>2013-08-20T09:18:17Z</time>
      </trkpt>
      <trkpt lat="42.63337" lon="1.95134">
        <ele>1811.2612304688</ele>
        <time>2013-08-20T09:18:20Z</time>
      </trkpt>
      <trkpt lat="42.63338" lon="1.95138">
        <ele>1812.2224121094</ele>
        <time>2013-08-20T09:18:24Z</time>
      </trkpt>
      <trkpt lat="42.63338" lon="1.95141">
        <ele>1811.7419433594</ele>
        <time>2013-08-20T09:18:27Z</time>
      </trkpt>
      <trkpt lat="42.63329" lon="1.95139">
        <ele>1814.1450195312</ele>
        <time>2013-08-20T09:18:41Z</time>
      </trkpt>
      <trkpt lat="42.63324" lon="1.95137">
        <ele>1813.6643066406</ele>
        <time>2013-08-20T09:18:48Z</time>
      </trkpt>
      <trkpt lat="42.6332" lon="1.95141">
        <ele>1816.0676269531</ele>
        <time>2013-08-20T09:18:58Z</time>
      </trkpt>
      <trkpt lat="42.63317" lon="1.95141">
        <ele>1817.5095214844</ele>
        <time>2013-08-20T09:19:06Z</time>
      </trkpt>
      <trkpt lat="42.63318" lon="1.95144">
        <ele>1818.9516601562</ele>
        <time>2013-08-20T09:19:10Z</time>
      </trkpt>
      <trkpt lat="42.63319" lon="1.95151">
        <ele>1820.3937988281</ele>
        <time>2013-08-20T09:19:18Z</time>
      </trkpt>
      <trkpt lat="42.63319" lon="1.95156">
        <ele>1821.3549804688</ele>
        <time>2013-08-20T09:19:24Z</time>
      </trkpt>
      <trkpt lat="42.6332" lon="1.95161">
        <ele>1821.8356933594</ele>
        <time>2013-08-20T09:19:30Z</time>
      </trkpt>
      <trkpt lat="42.63321" lon="1.95164">
        <ele>1821.8356933594</ele>
        <time>2013-08-20T09:19:34Z</time>
      </trkpt>
      <trkpt lat="42.63322" lon="1.95167">
        <ele>1821.8356933594</ele>
        <time>2013-08-20T09:19:38Z</time>
      </trkpt>
      <trkpt lat="42.63325" lon="1.95171">
        <ele>1822.7971191406</ele>
        <time>2013-08-20T09:19:43Z</time>
      </trkpt>
      <trkpt lat="42.63328" lon="1.95175">
        <ele>1823.2778320312</ele>
        <time>2013-08-20T09:19:47Z</time>
      </trkpt>
      <trkpt lat="42.63332" lon="1.9518">
        <ele>1823.7583007812</ele>
        <time>2013-08-20T09:19:53Z</time>
      </trkpt>
      <trkpt lat="42.63334" lon="1.95184">
        <ele>1824.7197265625</ele>
        <time>2013-08-20T09:19:58Z</time>
      </trkpt>
      <trkpt lat="42.63336" lon="1.95188">
        <ele>1825.2001953125</ele>
        <time>2013-08-20T09:20:02Z</time>
      </trkpt>
      <trkpt lat="42.63339" lon="1.95195">
        <ele>1826.6423339844</ele>
        <time>2013-08-20T09:20:09Z</time>
      </trkpt>
      <trkpt lat="42.63339" lon="1.952">
        <ele>1828.0842285156</ele>
        <time>2013-08-20T09:20:15Z</time>
      </trkpt>
      <trkpt lat="42.63335" lon="1.95198">
        <ele>1830.9682617188</ele>
        <time>2013-08-20T09:20:20Z</time>
      </trkpt>
      <trkpt lat="42.63331" lon="1.95197">
        <ele>1833.3713378906</ele>
        <time>2013-08-20T09:20:25Z</time>
      </trkpt>
      <trkpt lat="42.63327" lon="1.95198">
        <ele>1835.2939453125</ele>
        <time>2013-08-20T09:20:30Z</time>
      </trkpt>
      <trkpt lat="42.63323" lon="1.95197">
        <ele>1837.216796875</ele>
        <time>2013-08-20T09:20:35Z</time>
      </trkpt>
      <trkpt lat="42.63314" lon="1.95198">
        <ele>1842.5041503906</ele>
        <time>2013-08-20T09:20:49Z</time>
      </trkpt>
      <trkpt lat="42.63311" lon="1.95196">
        <ele>1841.5427246094</ele>
        <time>2013-08-20T09:20:55Z</time>
      </trkpt>
      <trkpt lat="42.63306" lon="1.95192">
        <ele>1841.5427246094</ele>
        <time>2013-08-20T09:21:02Z</time>
      </trkpt>
      <trkpt lat="42.63295" lon="1.95189">
        <ele>1840.5812988281</ele>
        <time>2013-08-20T09:21:22Z</time>
      </trkpt>
      <trkpt lat="42.6329" lon="1.95188">
        <ele>1841.5427246094</ele>
        <time>2013-08-20T09:21:27Z</time>
      </trkpt>
      <trkpt lat="42.63287" lon="1.95188">
        <ele>1842.5041503906</ele>
        <time>2013-08-20T09:21:31Z</time>
      </trkpt>
      <trkpt lat="42.63282" lon="1.95191">
        <ele>1843.4653320312</ele>
        <time>2013-08-20T09:21:36Z</time>
      </trkpt>
      <trkpt lat="42.63277" lon="1.95191">
        <ele>1845.3879394531</ele>
        <time>2013-08-20T09:21:42Z</time>
      </trkpt>
      <trkpt lat="42.63274" lon="1.95191">
        <ele>1846.8298339844</ele>
        <time>2013-08-20T09:21:47Z</time>
      </trkpt>
      <trkpt lat="42.63268" lon="1.95192">
        <ele>1848.2717285156</ele>
        <time>2013-08-20T09:21:56Z</time>
      </trkpt>
      <trkpt lat="42.63263" lon="1.95191">
        <ele>1849.2331542969</ele>
        <time>2013-08-20T09:22:02Z</time>
      </trkpt>
      <trkpt lat="42.63259" lon="1.95192">
        <ele>1851.1557617188</ele>
        <time>2013-08-20T09:22:08Z</time>
      </trkpt>
      <trkpt lat="42.63256" lon="1.95191">
        <ele>1851.6364746094</ele>
        <time>2013-08-20T09:22:12Z</time>
      </trkpt>
      <trkpt lat="42.6325" lon="1.95192">
        <ele>1854.5205078125</ele>
        <time>2013-08-20T09:22:22Z</time>
      </trkpt>
      <trkpt lat="42.63247" lon="1.95192">
        <ele>1856.4431152344</ele>
        <time>2013-08-20T09:22:27Z</time>
      </trkpt>
      <trkpt lat="42.63244" lon="1.95192">
        <ele>1858.8464355469</ele>
        <time>2013-08-20T09:22:33Z</time>
      </trkpt>
      <trkpt lat="42.6324" lon="1.95191">
        <ele>1861.73046875</ele>
        <time>2013-08-20T09:22:40Z</time>
      </trkpt>
      <trkpt lat="42.63237" lon="1.95188">
        <ele>1859.8076171875</ele>
        <time>2013-08-20T09:22:47Z</time>
      </trkpt>
      <trkpt lat="42.63233" lon="1.95187">
        <ele>1859.3271484375</ele>
        <time>2013-08-20T09:22:53Z</time>
      </trkpt>
      <trkpt lat="42.63229" lon="1.95186">
        <ele>1860.2883300781</ele>
        <time>2013-08-20T09:22:58Z</time>
      </trkpt>
      <trkpt lat="42.63227" lon="1.95186">
        <ele>1862.2109375</ele>
        <time>2013-08-20T09:23:03Z</time>
      </trkpt>
      <trkpt lat="42.63222" lon="1.95184">
        <ele>1866.5368652344</ele>
        <time>2013-08-20T09:23:09Z</time>
      </trkpt>
      <trkpt lat="42.63218" lon="1.95182">
        <ele>1867.017578125</ele>
        <time>2013-08-20T09:23:16Z</time>
      </trkpt>
      <trkpt lat="42.63214" lon="1.95182">
        <ele>1867.9787597656</ele>
        <time>2013-08-20T09:23:21Z</time>
      </trkpt>
      <trkpt lat="42.63212" lon="1.95181">
        <ele>1867.498046875</ele>
        <time>2013-08-20T09:23:27Z</time>
      </trkpt>
      <trkpt lat="42.63206" lon="1.95179">
        <ele>1868.9404296875</ele>
        <time>2013-08-20T09:23:36Z</time>
      </trkpt>
      <trkpt lat="42.63203" lon="1.95178">
        <ele>1868.9404296875</ele>
        <time>2013-08-20T09:23:42Z</time>
      </trkpt>
      <trkpt lat="42.632" lon="1.95179">
        <ele>1869.9016113281</ele>
        <time>2013-08-20T09:23:50Z</time>
      </trkpt>
      <trkpt lat="42.63198" lon="1.95176">
        <ele>1867.017578125</ele>
        <time>2013-08-20T09:23:55Z</time>
      </trkpt>
      <trkpt lat="42.63195" lon="1.95175">
        <ele>1867.9787597656</ele>
        <time>2013-08-20T09:24:00Z</time>
      </trkpt>
      <trkpt lat="42.63192" lon="1.95173">
        <ele>1868.4597167969</ele>
        <time>2013-08-20T09:24:05Z</time>
      </trkpt>
      <trkpt lat="42.63188" lon="1.95174">
        <ele>1869.9016113281</ele>
        <time>2013-08-20T09:24:11Z</time>
      </trkpt>
      <trkpt lat="42.63185" lon="1.95173">
        <ele>1871.82421875</ele>
        <time>2013-08-20T09:24:16Z</time>
      </trkpt>
      <trkpt lat="42.63181" lon="1.95173">
        <ele>1874.7082519531</ele>
        <time>2013-08-20T09:24:21Z</time>
      </trkpt>
      <trkpt lat="42.63177" lon="1.95172">
        <ele>1875.1887207031</ele>
        <time>2013-08-20T09:24:27Z</time>
      </trkpt>
      <trkpt lat="42.63176" lon="1.9517">
        <ele>1874.7082519531</ele>
        <time>2013-08-20T09:24:31Z</time>
      </trkpt>
      <trkpt lat="42.63172" lon="1.95168">
        <ele>1875.6694335938</ele>
        <time>2013-08-20T09:24:36Z</time>
      </trkpt>
      <trkpt lat="42.63169" lon="1.95166">
        <ele>1876.1501464844</ele>
        <time>2013-08-20T09:24:42Z</time>
      </trkpt>
      <trkpt lat="42.63164" lon="1.95165">
        <ele>1880.4760742188</ele>
        <time>2013-08-20T09:24:49Z</time>
      </trkpt>
      <trkpt lat="42.6316" lon="1.95162">
        <ele>1882.8791503906</ele>
        <time>2013-08-20T09:24:55Z</time>
      </trkpt>
      <trkpt lat="42.63157" lon="1.95161">
        <ele>1883.3598632812</ele>
        <time>2013-08-20T09:25:00Z</time>
      </trkpt>
      <trkpt lat="42.63153" lon="1.95159">
        <ele>1883.8405761719</ele>
        <time>2013-08-20T09:25:08Z</time>
      </trkpt>
      <trkpt lat="42.63149" lon="1.95157">
        <ele>1886.244140625</ele>
        <time>2013-08-20T09:25:13Z</time>
      </trkpt>
      <trkpt lat="42.63146" lon="1.95157">
        <ele>1887.2053222656</ele>
        <time>2013-08-20T09:25:17Z</time>
      </trkpt>
      <trkpt lat="42.63143" lon="1.95158">
        <ele>1888.1667480469</ele>
        <time>2013-08-20T09:25:21Z</time>
      </trkpt>
      <trkpt lat="42.63141" lon="1.95157">
        <ele>1889.6086425781</ele>
        <time>2013-08-20T09:25:27Z</time>
      </trkpt>
      <trkpt lat="42.63138" lon="1.95157">
        <ele>1891.53125</ele>
        <time>2013-08-20T09:25:32Z</time>
      </trkpt>
      <trkpt lat="42.63132" lon="1.95155">
        <ele>1895.3764648438</ele>
        <time>2013-08-20T09:25:38Z</time>
      </trkpt>
      <trkpt lat="42.6313" lon="1.95155">
        <ele>1894.4150390625</ele>
        <time>2013-08-20T09:25:42Z</time>
      </trkpt>
      <trkpt lat="42.63122" lon="1.95153">
        <ele>1892.9731445312</ele>
        <time>2013-08-20T09:25:55Z</time>
      </trkpt>
      <trkpt lat="42.63118" lon="1.95151">
        <ele>1894.4150390625</ele>
        <time>2013-08-20T09:26:01Z</time>
      </trkpt>
      <trkpt lat="42.63114" lon="1.9515">
        <ele>1896.337890625</ele>
        <time>2013-08-20T09:26:06Z</time>
      </trkpt>
      <trkpt lat="42.6311" lon="1.95147">
        <ele>1897.2990722656</ele>
        <time>2013-08-20T09:26:12Z</time>
      </trkpt>
      <trkpt lat="42.63105" lon="1.95145">
        <ele>1898.2602539062</ele>
        <time>2013-08-20T09:26:18Z</time>
      </trkpt>
      <trkpt lat="42.63101" lon="1.95143">
        <ele>1898.7409667969</ele>
        <time>2013-08-20T09:26:23Z</time>
      </trkpt>
      <trkpt lat="42.63095" lon="1.9514">
        <ele>1899.2216796875</ele>
        <time>2013-08-20T09:26:30Z</time>
      </trkpt>
      <trkpt lat="42.63092" lon="1.95139">
        <ele>1899.7023925781</ele>
        <time>2013-08-20T09:26:34Z</time>
      </trkpt>
      <trkpt lat="42.63088" lon="1.95137">
        <ele>1900.6638183594</ele>
        <time>2013-08-20T09:26:41Z</time>
      </trkpt>
      <trkpt lat="42.63086" lon="1.95136">
        <ele>1901.6252441406</ele>
        <time>2013-08-20T09:26:46Z</time>
      </trkpt>
      <trkpt lat="42.63082" lon="1.95132">
        <ele>1903.0671386719</ele>
        <time>2013-08-20T09:26:52Z</time>
      </trkpt>
      <trkpt lat="42.63078" lon="1.95129">
        <ele>1904.0285644531</ele>
        <time>2013-08-20T09:26:57Z</time>
      </trkpt>
      <trkpt lat="42.63074" lon="1.95128">
        <ele>1905.4704589844</ele>
        <time>2013-08-20T09:27:03Z</time>
      </trkpt>
      <trkpt lat="42.6307" lon="1.95127">
        <ele>1905.4704589844</ele>
        <time>2013-08-20T09:27:08Z</time>
      </trkpt>
      <trkpt lat="42.63068" lon="1.95125">
        <ele>1905.4704589844</ele>
        <time>2013-08-20T09:27:13Z</time>
      </trkpt>
      <trkpt lat="42.63065" lon="1.95124">
        <ele>1904.9897460938</ele>
        <time>2013-08-20T09:27:19Z</time>
      </trkpt>
      <trkpt lat="42.6306" lon="1.95123">
        <ele>1904.9897460938</ele>
        <time>2013-08-20T09:27:29Z</time>
      </trkpt>
      <trkpt lat="42.63055" lon="1.95123">
        <ele>1907.8737792969</ele>
        <time>2013-08-20T09:27:36Z</time>
      </trkpt>
      <trkpt lat="42.63051" lon="1.95122">
        <ele>1909.3156738281</ele>
        <time>2013-08-20T09:27:41Z</time>
      </trkpt>
      <trkpt lat="42.63047" lon="1.95121">
        <ele>1910.2768554688</ele>
        <time>2013-08-20T09:27:46Z</time>
      </trkpt>
      <trkpt lat="42.63043" lon="1.95116">
        <ele>1910.2768554688</ele>
        <time>2013-08-20T09:27:52Z</time>
      </trkpt>
      <trkpt lat="42.63037" lon="1.95114">
        <ele>1911.7189941406</ele>
        <time>2013-08-20T09:28:00Z</time>
      </trkpt>
      <trkpt lat="42.63032" lon="1.9511">
        <ele>1912.1994628906</ele>
        <time>2013-08-20T09:28:08Z</time>
      </trkpt>
      <trkpt lat="42.63027" lon="1.95104">
        <ele>1912.1994628906</ele>
        <time>2013-08-20T09:28:17Z</time>
      </trkpt>
      <trkpt lat="42.63023" lon="1.95101">
        <ele>1913.1608886719</ele>
        <time>2013-08-20T09:28:23Z</time>
      </trkpt>
      <trkpt lat="42.6302" lon="1.95097">
        <ele>1914.1220703125</ele>
        <time>2013-08-20T09:28:28Z</time>
      </trkpt>
      <trkpt lat="42.63016" lon="1.95091">
        <ele>1914.6027832031</ele>
        <time>2013-08-20T09:28:35Z</time>
      </trkpt>
      <trkpt lat="42.63014" lon="1.95086">
        <ele>1914.6027832031</ele>
        <time>2013-08-20T09:28:40Z</time>
      </trkpt>
      <trkpt lat="42.63009" lon="1.95084">
        <ele>1915.5642089844</ele>
        <time>2013-08-20T09:28:46Z</time>
      </trkpt>
      <trkpt lat="42.63005" lon="1.95079">
        <ele>1918.4482421875</ele>
        <time>2013-08-20T09:28:52Z</time>
      </trkpt>
      <trkpt lat="42.63002" lon="1.95078">
        <ele>1920.3708496094</ele>
        <time>2013-08-20T09:28:56Z</time>
      </trkpt>
      <trkpt lat="42.62999" lon="1.95079">
        <ele>1924.2160644531</ele>
        <time>2013-08-20T09:29:02Z</time>
      </trkpt>
      <trkpt lat="42.62996" lon="1.95079">
        <ele>1924.6967773438</ele>
        <time>2013-08-20T09:29:07Z</time>
      </trkpt>
      <trkpt lat="42.62994" lon="1.95079">
        <ele>1924.2160644531</ele>
        <time>2013-08-20T09:29:11Z</time>
      </trkpt>
      <trkpt lat="42.62989" lon="1.95076">
        <ele>1923.7353515625</ele>
        <time>2013-08-20T09:29:18Z</time>
      </trkpt>
      <trkpt lat="42.62986" lon="1.95074">
        <ele>1924.6967773438</ele>
        <time>2013-08-20T09:29:23Z</time>
      </trkpt>
      <trkpt lat="42.62983" lon="1.95075">
        <ele>1924.2160644531</ele>
        <time>2013-08-20T09:29:27Z</time>
      </trkpt>
      <trkpt lat="42.6298" lon="1.95075">
        <ele>1925.6579589844</ele>
        <time>2013-08-20T09:29:34Z</time>
      </trkpt>
      <trkpt lat="42.62981" lon="1.95078">
        <ele>1926.6193847656</ele>
        <time>2013-08-20T09:29:43Z</time>
      </trkpt>
      <trkpt lat="42.62983" lon="1.95082">
        <ele>1928.0612792969</ele>
        <time>2013-08-20T09:29:48Z</time>
      </trkpt>
      <trkpt lat="42.62981" lon="1.95083">
        <ele>1929.0224609375</ele>
        <time>2013-08-20T09:29:52Z</time>
      </trkpt>
      <trkpt lat="42.62976" lon="1.95082">
        <ele>1929.9838867188</ele>
        <time>2013-08-20T09:29:58Z</time>
      </trkpt>
      <trkpt lat="42.62973" lon="1.95081">
        <ele>1929.5031738281</ele>
        <time>2013-08-20T09:30:02Z</time>
      </trkpt>
      <trkpt lat="42.62968" lon="1.9508">
        <ele>1930.9453125</ele>
        <time>2013-08-20T09:30:08Z</time>
      </trkpt>
      <trkpt lat="42.62963" lon="1.95078">
        <ele>1932.3874511719</ele>
        <time>2013-08-20T09:30:14Z</time>
      </trkpt>
      <trkpt lat="42.62959" lon="1.95072">
        <ele>1933.8293457031</ele>
        <time>2013-08-20T09:30:20Z</time>
      </trkpt>
      <trkpt lat="42.62958" lon="1.95071">
        <ele>1933.3486328125</ele>
        <time>2013-08-20T09:30:21Z</time>
      </trkpt>
      <trkpt lat="42.6295" lon="1.9507">
        <ele>1935.751953125</ele>
        <time>2013-08-20T09:30:28Z</time>
      </trkpt>
      <trkpt lat="42.62947" lon="1.9507">
        <ele>1936.7131347656</ele>
        <time>2013-08-20T09:30:30Z</time>
      </trkpt>
      <trkpt lat="42.62945" lon="1.9507">
        <ele>1937.6745605469</ele>
        <time>2013-08-20T09:30:32Z</time>
      </trkpt>
      <trkpt lat="42.62941" lon="1.95071">
        <ele>1938.1552734375</ele>
        <time>2013-08-20T09:30:37Z</time>
      </trkpt>
      <trkpt lat="42.62937" lon="1.95069">
        <ele>1938.6359863281</ele>
        <time>2013-08-20T09:30:42Z</time>
      </trkpt>
      <trkpt lat="42.62931" lon="1.95068">
        <ele>1940.0778808594</ele>
        <time>2013-08-20T09:30:49Z</time>
      </trkpt>
      <trkpt lat="42.62925" lon="1.95068">
        <ele>1942.0004882812</ele>
        <time>2013-08-20T09:30:55Z</time>
      </trkpt>
      <trkpt lat="42.6292" lon="1.95066">
        <ele>1942.4812011719</ele>
        <time>2013-08-20T09:31:01Z</time>
      </trkpt>
      <trkpt lat="42.62915" lon="1.95068">
        <ele>1948.7297363281</ele>
        <time>2013-08-20T09:31:07Z</time>
      </trkpt>
      <trkpt lat="42.62906" lon="1.95069">
        <ele>1962.6687011719</ele>
        <time>2013-08-20T09:31:14Z</time>
      </trkpt>
      <trkpt lat="42.62904" lon="1.95068">
        <ele>1961.2268066406</ele>
        <time>2013-08-20T09:31:17Z</time>
      </trkpt>
      <trkpt lat="42.62898" lon="1.95068">
        <ele>1959.7846679688</ele>
        <time>2013-08-20T09:31:24Z</time>
      </trkpt>
      <trkpt lat="42.62893" lon="1.95067">
        <ele>1957.3815917969</ele>
        <time>2013-08-20T09:31:30Z</time>
      </trkpt>
      <trkpt lat="42.62887" lon="1.95065">
        <ele>1955.458984375</ele>
        <time>2013-08-20T09:31:37Z</time>
      </trkpt>
      <trkpt lat="42.62881" lon="1.95064">
        <ele>1953.5363769531</ele>
        <time>2013-08-20T09:31:44Z</time>
      </trkpt>
      <trkpt lat="42.62876" lon="1.95063">
        <ele>1952.0942382812</ele>
        <time>2013-08-20T09:31:50Z</time>
      </trkpt>
      <trkpt lat="42.62873" lon="1.95062">
        <ele>1951.6137695312</ele>
        <time>2013-08-20T09:31:54Z</time>
      </trkpt>
      <trkpt lat="42.6287" lon="1.95059">
        <ele>1951.1330566406</ele>
        <time>2013-08-20T09:32:00Z</time>
      </trkpt>
      <trkpt lat="42.62866" lon="1.95055">
        <ele>1952.5749511719</ele>
        <time>2013-08-20T09:32:04Z</time>
      </trkpt>
      <trkpt lat="42.62863" lon="1.95049">
        <ele>1950.65234375</ele>
        <time>2013-08-20T09:32:10Z</time>
      </trkpt>
      <trkpt lat="42.62861" lon="1.95046">
        <ele>1948.7297363281</ele>
        <time>2013-08-20T09:32:14Z</time>
      </trkpt>
      <trkpt lat="42.62858" lon="1.95042">
        <ele>1947.2875976562</ele>
        <time>2013-08-20T09:32:18Z</time>
      </trkpt>
      <trkpt lat="42.62856" lon="1.95038">
        <ele>1945.845703125</ele>
        <time>2013-08-20T09:32:22Z</time>
      </trkpt>
      <trkpt lat="42.62852" lon="1.95036">
        <ele>1945.845703125</ele>
        <time>2013-08-20T09:32:27Z</time>
      </trkpt>
      <trkpt lat="42.62847" lon="1.95032">
        <ele>1946.3264160156</ele>
        <time>2013-08-20T09:32:36Z</time>
      </trkpt>
      <trkpt lat="42.62844" lon="1.95027">
        <ele>1946.3264160156</ele>
        <time>2013-08-20T09:32:42Z</time>
      </trkpt>
      <trkpt lat="42.62841" lon="1.95024">
        <ele>1947.2875976562</ele>
        <time>2013-08-20T09:32:48Z</time>
      </trkpt>
      <trkpt lat="42.62838" lon="1.95021">
        <ele>1949.2104492188</ele>
        <time>2013-08-20T09:32:53Z</time>
      </trkpt>
      <trkpt lat="42.62828" lon="1.95014">
        <ele>1955.939453125</ele>
        <time>2013-08-20T09:33:14Z</time>
      </trkpt>
      <trkpt lat="42.62825" lon="1.95013">
        <ele>1956.9008789062</ele>
        <time>2013-08-20T09:33:19Z</time>
      </trkpt>
      <trkpt lat="42.62825" lon="1.95017">
        <ele>1959.7846679688</ele>
        <time>2013-08-20T09:33:30Z</time>
      </trkpt>
      <trkpt lat="42.62823" lon="1.95021">
        <ele>1960.74609375</ele>
        <time>2013-08-20T09:33:36Z</time>
      </trkpt>
      <trkpt lat="42.62819" lon="1.95019">
        <ele>1961.2268066406</ele>
        <time>2013-08-20T09:33:43Z</time>
      </trkpt>
      <trkpt lat="42.62817" lon="1.95018">
        <ele>1960.74609375</ele>
        <time>2013-08-20T09:33:47Z</time>
      </trkpt>
      <trkpt lat="42.62814" lon="1.95013">
        <ele>1960.74609375</ele>
        <time>2013-08-20T09:33:54Z</time>
      </trkpt>
      <trkpt lat="42.62811" lon="1.95008">
        <ele>1959.7846679688</ele>
        <time>2013-08-20T09:34:03Z</time>
      </trkpt>
      <trkpt lat="42.62808" lon="1.94999">
        <ele>1959.7846679688</ele>
        <time>2013-08-20T09:34:14Z</time>
      </trkpt>
      <trkpt lat="42.62806" lon="1.94993">
        <ele>1959.3041992188</ele>
        <time>2013-08-20T09:34:19Z</time>
      </trkpt>
      <trkpt lat="42.62805" lon="1.94985">
        <ele>1959.3041992188</ele>
        <time>2013-08-20T09:34:25Z</time>
      </trkpt>
      <trkpt lat="42.62805" lon="1.94984">
        <ele>1959.3041992188</ele>
        <time>2013-08-20T09:34:26Z</time>
      </trkpt>
      <trkpt lat="42.62804" lon="1.94974">
        <ele>1958.8234863281</ele>
        <time>2013-08-20T09:34:33Z</time>
      </trkpt>
      <trkpt lat="42.62802" lon="1.94964">
        <ele>1958.3427734375</ele>
        <time>2013-08-20T09:34:40Z</time>
      </trkpt>
      <trkpt lat="42.628" lon="1.9495">
        <ele>1956.4201660156</ele>
        <time>2013-08-20T09:34:49Z</time>
      </trkpt>
      <trkpt lat="42.62795" lon="1.94938">
        <ele>1956.4201660156</ele>
        <time>2013-08-20T09:34:57Z</time>
      </trkpt>
      <trkpt lat="42.62793" lon="1.94929">
        <ele>1955.939453125</ele>
        <time>2013-08-20T09:35:04Z</time>
      </trkpt>
      <trkpt lat="42.6279" lon="1.94921">
        <ele>1955.458984375</ele>
        <time>2013-08-20T09:35:10Z</time>
      </trkpt>
      <trkpt lat="42.62788" lon="1.94912">
        <ele>1955.939453125</ele>
        <time>2013-08-20T09:35:17Z</time>
      </trkpt>
      <trkpt lat="42.62788" lon="1.94907">
        <ele>1955.939453125</ele>
        <time>2013-08-20T09:35:21Z</time>
      </trkpt>
      <trkpt lat="42.62786" lon="1.94902">
        <ele>1957.3815917969</ele>
        <time>2013-08-20T09:35:26Z</time>
      </trkpt>
      <trkpt lat="42.62784" lon="1.94895">
        <ele>1959.3041992188</ele>
        <time>2013-08-20T09:35:32Z</time>
      </trkpt>
      <trkpt lat="42.62783" lon="1.9489">
        <ele>1960.2653808594</ele>
        <time>2013-08-20T09:35:36Z</time>
      </trkpt>
      <trkpt lat="42.62782" lon="1.94884">
        <ele>1961.7075195312</ele>
        <time>2013-08-20T09:35:42Z</time>
      </trkpt>
      <trkpt lat="42.6278" lon="1.94874">
        <ele>1962.1879882812</ele>
        <time>2013-08-20T09:35:49Z</time>
      </trkpt>
      <trkpt lat="42.62777" lon="1.94866">
        <ele>1962.1879882812</ele>
        <time>2013-08-20T09:35:56Z</time>
      </trkpt>
      <trkpt lat="42.62776" lon="1.94859">
        <ele>1962.1879882812</ele>
        <time>2013-08-20T09:36:02Z</time>
      </trkpt>
      <trkpt lat="42.62775" lon="1.94852">
        <ele>1962.6687011719</ele>
        <time>2013-08-20T09:36:07Z</time>
      </trkpt>
      <trkpt lat="42.62772" lon="1.94848">
        <ele>1963.6298828125</ele>
        <time>2013-08-20T09:36:11Z</time>
      </trkpt>
      <trkpt lat="42.62769" lon="1.94842">
        <ele>1963.6298828125</ele>
        <time>2013-08-20T09:36:18Z</time>
      </trkpt>
      <trkpt lat="42.62764" lon="1.94835">
        <ele>1965.072265625</ele>
        <time>2013-08-20T09:36:25Z</time>
      </trkpt>
      <trkpt lat="42.6276" lon="1.94827">
        <ele>1965.5529785156</ele>
        <time>2013-08-20T09:36:32Z</time>
      </trkpt>
      <trkpt lat="42.62757" lon="1.9482">
        <ele>1964.5915527344</ele>
        <time>2013-08-20T09:36:38Z</time>
      </trkpt>
      <trkpt lat="42.62756" lon="1.94816">
        <ele>1963.6298828125</ele>
        <time>2013-08-20T09:36:42Z</time>
      </trkpt>
      <trkpt lat="42.62759" lon="1.94811">
        <ele>1962.1879882812</ele>
        <time>2013-08-20T09:36:47Z</time>
      </trkpt>
      <trkpt lat="42.62759" lon="1.94803">
        <ele>1961.2268066406</ele>
        <time>2013-08-20T09:36:53Z</time>
      </trkpt>
      <trkpt lat="42.62756" lon="1.94797">
        <ele>1961.7075195312</ele>
        <time>2013-08-20T09:36:58Z</time>
      </trkpt>
      <trkpt lat="42.62757" lon="1.94792">
        <ele>1961.2268066406</ele>
        <time>2013-08-20T09:37:05Z</time>
      </trkpt>
      <trkpt lat="42.62757" lon="1.94789">
        <ele>1961.7075195312</ele>
        <time>2013-08-20T09:37:17Z</time>
      </trkpt>
      <trkpt lat="42.62755" lon="1.94784">
        <ele>1961.2268066406</ele>
        <time>2013-08-20T09:37:22Z</time>
      </trkpt>
      <trkpt lat="42.62751" lon="1.94776">
        <ele>1959.7846679688</ele>
        <time>2013-08-20T09:37:31Z</time>
      </trkpt>
      <trkpt lat="42.62753" lon="1.9477">
        <ele>1958.8234863281</ele>
        <time>2013-08-20T09:37:37Z</time>
      </trkpt>
      <trkpt lat="42.62755" lon="1.94763">
        <ele>1957.8623046875</ele>
        <time>2013-08-20T09:37:43Z</time>
      </trkpt>
      <trkpt lat="42.62754" lon="1.9476">
        <ele>1957.3815917969</ele>
        <time>2013-08-20T09:37:45Z</time>
      </trkpt>
      <trkpt lat="42.62753" lon="1.94746">
        <ele>1956.9008789062</ele>
        <time>2013-08-20T09:37:54Z</time>
      </trkpt>
      <trkpt lat="42.62753" lon="1.94743">
        <ele>1956.9008789062</ele>
        <time>2013-08-20T09:37:56Z</time>
      </trkpt>
      <trkpt lat="42.62749" lon="1.94735">
        <ele>1962.1879882812</ele>
        <time>2013-08-20T09:38:03Z</time>
      </trkpt>
      <trkpt lat="42.62748" lon="1.94733">
        <ele>1962.6687011719</ele>
        <time>2013-08-20T09:38:04Z</time>
      </trkpt>
      <trkpt lat="42.62745" lon="1.94725">
        <ele>1968.4367675781</ele>
        <time>2013-08-20T09:38:12Z</time>
      </trkpt>
      <trkpt lat="42.62748" lon="1.94722">
        <ele>1970.359375</ele>
        <time>2013-08-20T09:38:17Z</time>
      </trkpt>
      <trkpt lat="42.62751" lon="1.94726">
        <ele>1972.7626953125</ele>
        <time>2013-08-20T09:38:22Z</time>
      </trkpt>
      <trkpt lat="42.62755" lon="1.94728">
        <ele>1974.2045898438</ele>
        <time>2013-08-20T09:38:28Z</time>
      </trkpt>
      <trkpt lat="42.62759" lon="1.94729">
        <ele>1973.2434082031</ele>
        <time>2013-08-20T09:38:33Z</time>
      </trkpt>
      <trkpt lat="42.62758" lon="1.94726">
        <ele>1974.2045898438</ele>
        <time>2013-08-20T09:38:38Z</time>
      </trkpt>
      <trkpt lat="42.62756" lon="1.9472">
        <ele>1976.1271972656</ele>
        <time>2013-08-20T09:38:44Z</time>
      </trkpt>
      <trkpt lat="42.62752" lon="1.94715">
        <ele>1977.5690917969</ele>
        <time>2013-08-20T09:38:49Z</time>
      </trkpt>
      <trkpt lat="42.62748" lon="1.94709">
        <ele>1979.4916992188</ele>
        <time>2013-08-20T09:38:55Z</time>
      </trkpt>
      <trkpt lat="42.62746" lon="1.94706">
        <ele>1981.8952636719</ele>
        <time>2013-08-20T09:39:00Z</time>
      </trkpt>
      <trkpt lat="42.62744" lon="1.94704">
        <ele>1985.259765625</ele>
        <time>2013-08-20T09:39:05Z</time>
      </trkpt>
      <trkpt lat="42.62742" lon="1.94701">
        <ele>1986.2211914062</ele>
        <time>2013-08-20T09:39:08Z</time>
      </trkpt>
      <trkpt lat="42.62739" lon="1.94696">
        <ele>1990.06640625</ele>
        <time>2013-08-20T09:39:14Z</time>
      </trkpt>
      <trkpt lat="42.62736" lon="1.94688">
        <ele>1988.6245117188</ele>
        <time>2013-08-20T09:39:20Z</time>
      </trkpt>
      <trkpt lat="42.62735" lon="1.94679">
        <ele>1988.1437988281</ele>
        <time>2013-08-20T09:39:28Z</time>
      </trkpt>
      <trkpt lat="42.62733" lon="1.94674">
        <ele>1988.1437988281</ele>
        <time>2013-08-20T09:39:33Z</time>
      </trkpt>
      <trkpt lat="42.62731" lon="1.94669">
        <ele>1987.6630859375</ele>
        <time>2013-08-20T09:39:39Z</time>
      </trkpt>
      <trkpt lat="42.62728" lon="1.94662">
        <ele>1989.1049804688</ele>
        <time>2013-08-20T09:39:45Z</time>
      </trkpt>
      <trkpt lat="42.62725" lon="1.94658">
        <ele>1989.5856933594</ele>
        <time>2013-08-20T09:39:50Z</time>
      </trkpt>
      <trkpt lat="42.62723" lon="1.94649">
        <ele>1989.5856933594</ele>
        <time>2013-08-20T09:39:58Z</time>
      </trkpt>
      <trkpt lat="42.62722" lon="1.94641">
        <ele>1989.5856933594</ele>
        <time>2013-08-20T09:40:04Z</time>
      </trkpt>
      <trkpt lat="42.62722" lon="1.94635">
        <ele>1990.06640625</ele>
        <time>2013-08-20T09:40:08Z</time>
      </trkpt>
      <trkpt lat="42.62724" lon="1.94629">
        <ele>1989.5856933594</ele>
        <time>2013-08-20T09:40:15Z</time>
      </trkpt>
      <trkpt lat="42.62723" lon="1.9462">
        <ele>1987.1823730469</ele>
        <time>2013-08-20T09:40:22Z</time>
      </trkpt>
      <trkpt lat="42.62723" lon="1.94612">
        <ele>1985.259765625</ele>
        <time>2013-08-20T09:40:30Z</time>
      </trkpt>
      <trkpt lat="42.62722" lon="1.94609">
        <ele>1984.2985839844</ele>
        <time>2013-08-20T09:40:34Z</time>
      </trkpt>
      <trkpt lat="42.6272" lon="1.94606">
        <ele>1983.3371582031</ele>
        <time>2013-08-20T09:40:40Z</time>
      </trkpt>
      <trkpt lat="42.62715" lon="1.94611">
        <ele>1983.3371582031</ele>
        <time>2013-08-20T09:40:48Z</time>
      </trkpt>
      <trkpt lat="42.62714" lon="1.94612">
        <ele>1983.3371582031</ele>
        <time>2013-08-20T09:40:53Z</time>
      </trkpt>
      <trkpt lat="42.6271" lon="1.94615">
        <ele>1984.779296875</ele>
        <time>2013-08-20T09:41:12Z</time>
      </trkpt>
      <trkpt lat="42.6271" lon="1.94607">
        <ele>1982.8564453125</ele>
        <time>2013-08-20T09:41:18Z</time>
      </trkpt>
      <trkpt lat="42.62707" lon="1.94601">
        <ele>1979.0109863281</ele>
        <time>2013-08-20T09:41:24Z</time>
      </trkpt>
      <trkpt lat="42.627" lon="1.94599">
        <ele>1975.1657714844</ele>
        <time>2013-08-20T09:41:31Z</time>
      </trkpt>
      <trkpt lat="42.62698" lon="1.946">
        <ele>1975.1657714844</ele>
        <time>2013-08-20T09:41:32Z</time>
      </trkpt>
      <trkpt lat="42.62695" lon="1.94598">
        <ele>1973.7238769531</ele>
        <time>2013-08-20T09:41:37Z</time>
      </trkpt>
      <trkpt lat="42.6269" lon="1.94592">
        <ele>1972.7626953125</ele>
        <time>2013-08-20T09:41:43Z</time>
      </trkpt>
      <trkpt lat="42.62688" lon="1.94587">
        <ele>1972.2819824219</ele>
        <time>2013-08-20T09:41:46Z</time>
      </trkpt>
      <trkpt lat="42.62685" lon="1.94576">
        <ele>1970.8400878906</ele>
        <time>2013-08-20T09:41:54Z</time>
      </trkpt>
      <trkpt lat="42.62685" lon="1.94569">
        <ele>1968.9174804688</ele>
        <time>2013-08-20T09:42:01Z</time>
      </trkpt>
      <trkpt lat="42.62684" lon="1.94563">
        <ele>1966.9948730469</ele>
        <time>2013-08-20T09:42:07Z</time>
      </trkpt>
      <trkpt lat="42.62688" lon="1.94556">
        <ele>1963.6298828125</ele>
        <time>2013-08-20T09:42:14Z</time>
      </trkpt>
      <trkpt lat="42.62691" lon="1.94555">
        <ele>1962.6687011719</ele>
        <time>2013-08-20T09:42:19Z</time>
      </trkpt>
      <trkpt lat="42.62696" lon="1.94548">
        <ele>1958.3427734375</ele>
        <time>2013-08-20T09:42:26Z</time>
      </trkpt>
      <trkpt lat="42.62697" lon="1.94546">
        <ele>1956.9008789062</ele>
        <time>2013-08-20T09:42:27Z</time>
      </trkpt>
      <trkpt lat="42.62699" lon="1.9453">
        <ele>1954.9782714844</ele>
        <time>2013-08-20T09:42:36Z</time>
      </trkpt>
      <trkpt lat="42.62694" lon="1.94525">
        <ele>1954.4975585938</ele>
        <time>2013-08-20T09:42:41Z</time>
      </trkpt>
      <trkpt lat="42.62686" lon="1.94522">
        <ele>1956.9008789062</ele>
        <time>2013-08-20T09:42:48Z</time>
      </trkpt>
      <trkpt lat="42.6268" lon="1.9452">
        <ele>1959.3041992188</ele>
        <time>2013-08-20T09:42:55Z</time>
      </trkpt>
      <trkpt lat="42.62678" lon="1.94515">
        <ele>1960.74609375</ele>
        <time>2013-08-20T09:43:00Z</time>
      </trkpt>
      <trkpt lat="42.62675" lon="1.94514">
        <ele>1961.7075195312</ele>
        <time>2013-08-20T09:43:04Z</time>
      </trkpt>
      <trkpt lat="42.62671" lon="1.94507">
        <ele>1962.1879882812</ele>
        <time>2013-08-20T09:43:10Z</time>
      </trkpt>
      <trkpt lat="42.62669" lon="1.94496">
        <ele>1961.7075195312</ele>
        <time>2013-08-20T09:43:17Z</time>
      </trkpt>
      <trkpt lat="42.62668" lon="1.94484">
        <ele>1962.1879882812</ele>
        <time>2013-08-20T09:43:25Z</time>
      </trkpt>
      <trkpt lat="42.62668" lon="1.94483">
        <ele>1962.6687011719</ele>
        <time>2013-08-20T09:43:26Z</time>
      </trkpt>
      <trkpt lat="42.62669" lon="1.9448">
        <ele>1962.1879882812</ele>
        <time>2013-08-20T09:43:29Z</time>
      </trkpt>
      <trkpt lat="42.62665" lon="1.94475">
        <ele>1962.6687011719</ele>
        <time>2013-08-20T09:43:36Z</time>
      </trkpt>
      <trkpt lat="42.62666" lon="1.94465">
        <ele>1962.6687011719</ele>
        <time>2013-08-20T09:43:42Z</time>
      </trkpt>
      <trkpt lat="42.62669" lon="1.94462">
        <ele>1962.1879882812</ele>
        <time>2013-08-20T09:43:45Z</time>
      </trkpt>
      <trkpt lat="42.62674" lon="1.94454">
        <ele>1959.7846679688</ele>
        <time>2013-08-20T09:43:52Z</time>
      </trkpt>
      <trkpt lat="42.62675" lon="1.94449">
        <ele>1959.7846679688</ele>
        <time>2013-08-20T09:43:56Z</time>
      </trkpt>
      <trkpt lat="42.62675" lon="1.94448">
        <ele>1959.7846679688</ele>
        <time>2013-08-20T09:43:57Z</time>
      </trkpt>
      <trkpt lat="42.62672" lon="1.94433">
        <ele>1967.9560546875</ele>
        <time>2013-08-20T09:44:07Z</time>
      </trkpt>
      <trkpt lat="42.62671" lon="1.94429">
        <ele>1968.9174804688</ele>
        <time>2013-08-20T09:44:10Z</time>
      </trkpt>
      <trkpt lat="42.62666" lon="1.94422">
        <ele>1972.2819824219</ele>
        <time>2013-08-20T09:44:18Z</time>
      </trkpt>
      <trkpt lat="42.62662" lon="1.94416">
        <ele>1974.6853027344</ele>
        <time>2013-08-20T09:44:24Z</time>
      </trkpt>
      <trkpt lat="42.62655" lon="1.94406">
        <ele>1967.4753417969</ele>
        <time>2013-08-20T09:51:20Z</time>
      </trkpt>
      <trkpt lat="42.62655" lon="1.94406">
        <ele>1967.4753417969</ele>
        <time>2013-08-20T09:51:21Z</time>
      </trkpt>
      <trkpt lat="42.62653" lon="1.94403">
        <ele>1966.5141601562</ele>
        <time>2013-08-20T09:51:32Z</time>
      </trkpt>
      <trkpt lat="42.6265" lon="1.94399">
        <ele>1965.5529785156</ele>
        <time>2013-08-20T09:51:36Z</time>
      </trkpt>
      <trkpt lat="42.62645" lon="1.94394">
        <ele>1966.9948730469</ele>
        <time>2013-08-20T09:51:44Z</time>
      </trkpt>
      <trkpt lat="42.62644" lon="1.94393">
        <ele>1967.9560546875</ele>
        <time>2013-08-20T09:51:50Z</time>
      </trkpt>
      <trkpt lat="42.6264" lon="1.94394">
        <ele>1969.8786621094</ele>
        <time>2013-08-20T09:51:55Z</time>
      </trkpt>
      <trkpt lat="42.62636" lon="1.94395">
        <ele>1972.2819824219</ele>
        <time>2013-08-20T09:52:01Z</time>
      </trkpt>
      <trkpt lat="42.62629" lon="1.94392">
        <ele>1972.7626953125</ele>
        <time>2013-08-20T09:52:08Z</time>
      </trkpt>
      <trkpt lat="42.62628" lon="1.94389">
        <ele>1972.7626953125</ele>
        <time>2013-08-20T09:52:10Z</time>
      </trkpt>
      <trkpt lat="42.62626" lon="1.94381">
        <ele>1972.2819824219</ele>
        <time>2013-08-20T09:52:19Z</time>
      </trkpt>
      <trkpt lat="42.62625" lon="1.94383">
        <ele>1971.8012695312</ele>
        <time>2013-08-20T09:52:23Z</time>
      </trkpt>
      <trkpt lat="42.62622" lon="1.94381">
        <ele>1970.8400878906</ele>
        <time>2013-08-20T09:52:27Z</time>
      </trkpt>
      <trkpt lat="42.62618" lon="1.94373">
        <ele>1969.8786621094</ele>
        <time>2013-08-20T09:52:34Z</time>
      </trkpt>
      <trkpt lat="42.62617" lon="1.94372">
        <ele>1969.3981933594</ele>
        <time>2013-08-20T09:52:35Z</time>
      </trkpt>
      <trkpt lat="42.62613" lon="1.94363">
        <ele>1968.4367675781</ele>
        <time>2013-08-20T09:52:42Z</time>
      </trkpt>
      <trkpt lat="42.62609" lon="1.94354">
        <ele>1966.9948730469</ele>
        <time>2013-08-20T09:52:48Z</time>
      </trkpt>
      <trkpt lat="42.62604" lon="1.94342">
        <ele>1966.0334472656</ele>
        <time>2013-08-20T09:52:56Z</time>
      </trkpt>
      <trkpt lat="42.62601" lon="1.94331">
        <ele>1966.0334472656</ele>
        <time>2013-08-20T09:53:04Z</time>
      </trkpt>
      <trkpt lat="42.626" lon="1.94325">
        <ele>1966.5141601562</ele>
        <time>2013-08-20T09:53:10Z</time>
      </trkpt>
      <trkpt lat="42.62596" lon="1.94318">
        <ele>1966.0334472656</ele>
        <time>2013-08-20T09:53:16Z</time>
      </trkpt>
      <trkpt lat="42.62592" lon="1.9431">
        <ele>1965.5529785156</ele>
        <time>2013-08-20T09:53:22Z</time>
      </trkpt>
      <trkpt lat="42.62592" lon="1.94308">
        <ele>1965.5529785156</ele>
        <time>2013-08-20T09:53:23Z</time>
      </trkpt>
      <trkpt lat="42.62586" lon="1.94297">
        <ele>1964.1108398438</ele>
        <time>2013-08-20T09:53:30Z</time>
      </trkpt>
      <trkpt lat="42.62583" lon="1.9429">
        <ele>1964.1108398438</ele>
        <time>2013-08-20T09:53:35Z</time>
      </trkpt>
      <trkpt lat="42.6258" lon="1.94281">
        <ele>1963.6298828125</ele>
        <time>2013-08-20T09:53:41Z</time>
      </trkpt>
      <trkpt lat="42.6258" lon="1.94279">
        <ele>1963.6298828125</ele>
        <time>2013-08-20T09:53:42Z</time>
      </trkpt>
      <trkpt lat="42.62576" lon="1.9427">
        <ele>1962.1879882812</ele>
        <time>2013-08-20T09:53:49Z</time>
      </trkpt>
      <trkpt lat="42.62574" lon="1.94264">
        <ele>1961.7075195312</ele>
        <time>2013-08-20T09:53:53Z</time>
      </trkpt>
      <trkpt lat="42.62569" lon="1.94249">
        <ele>1961.2268066406</ele>
        <time>2013-08-20T09:54:02Z</time>
      </trkpt>
      <trkpt lat="42.62568" lon="1.94242">
        <ele>1960.74609375</ele>
        <time>2013-08-20T09:54:06Z</time>
      </trkpt>
      <trkpt lat="42.62569" lon="1.94235">
        <ele>1962.1879882812</ele>
        <time>2013-08-20T09:54:12Z</time>
      </trkpt>
      <trkpt lat="42.62566" lon="1.94228">
        <ele>1962.6687011719</ele>
        <time>2013-08-20T09:54:17Z</time>
      </trkpt>
      <trkpt lat="42.62566" lon="1.94225">
        <ele>1962.1879882812</ele>
        <time>2013-08-20T09:54:19Z</time>
      </trkpt>
      <trkpt lat="42.62563" lon="1.94213">
        <ele>1960.2653808594</ele>
        <time>2013-08-20T09:54:26Z</time>
      </trkpt>
      <trkpt lat="42.62563" lon="1.94206">
        <ele>1959.3041992188</ele>
        <time>2013-08-20T09:54:29Z</time>
      </trkpt>
      <trkpt lat="42.62561" lon="1.94194">
        <ele>1957.3815917969</ele>
        <time>2013-08-20T09:54:36Z</time>
      </trkpt>
      <trkpt lat="42.62562" lon="1.94184">
        <ele>1956.4201660156</ele>
        <time>2013-08-20T09:54:42Z</time>
      </trkpt>
      <trkpt lat="42.62563" lon="1.94174">
        <ele>1956.9008789062</ele>
        <time>2013-08-20T09:54:49Z</time>
      </trkpt>
      <trkpt lat="42.62563" lon="1.9416">
        <ele>1957.3815917969</ele>
        <time>2013-08-20T09:54:57Z</time>
      </trkpt>
      <trkpt lat="42.62562" lon="1.94148">
        <ele>1956.4201660156</ele>
        <time>2013-08-20T09:55:04Z</time>
      </trkpt>
      <trkpt lat="42.62563" lon="1.94138">
        <ele>1956.4201660156</ele>
        <time>2013-08-20T09:55:10Z</time>
      </trkpt>
      <trkpt lat="42.62563" lon="1.94128">
        <ele>1957.3815917969</ele>
        <time>2013-08-20T09:55:17Z</time>
      </trkpt>
      <trkpt lat="42.62563" lon="1.94125">
        <ele>1957.3815917969</ele>
        <time>2013-08-20T09:55:19Z</time>
      </trkpt>
      <trkpt lat="42.6256" lon="1.94117">
        <ele>1955.939453125</ele>
        <time>2013-08-20T09:55:26Z</time>
      </trkpt>
      <trkpt lat="42.6256" lon="1.94111">
        <ele>1956.4201660156</ele>
        <time>2013-08-20T09:55:30Z</time>
      </trkpt>
      <trkpt lat="42.62561" lon="1.94101">
        <ele>1957.3815917969</ele>
        <time>2013-08-20T09:55:37Z</time>
      </trkpt>
      <trkpt lat="42.62559" lon="1.94097">
        <ele>1956.9008789062</ele>
        <time>2013-08-20T09:55:43Z</time>
      </trkpt>
      <trkpt lat="42.62558" lon="1.9409">
        <ele>1955.939453125</ele>
        <time>2013-08-20T09:55:49Z</time>
      </trkpt>
      <trkpt lat="42.62558" lon="1.94081">
        <ele>1955.939453125</ele>
        <time>2013-08-20T09:55:56Z</time>
      </trkpt>
      <trkpt lat="42.62559" lon="1.94074">
        <ele>1955.939453125</ele>
        <time>2013-08-20T09:56:02Z</time>
      </trkpt>
      <trkpt lat="42.62558" lon="1.94069">
        <ele>1956.9008789062</ele>
        <time>2013-08-20T09:56:08Z</time>
      </trkpt>
      <trkpt lat="42.62556" lon="1.94063">
        <ele>1958.3427734375</ele>
        <time>2013-08-20T09:56:13Z</time>
      </trkpt>
      <trkpt lat="42.62553" lon="1.94058">
        <ele>1959.7846679688</ele>
        <time>2013-08-20T09:56:19Z</time>
      </trkpt>
      <trkpt lat="42.6255" lon="1.94053">
        <ele>1961.2268066406</ele>
        <time>2013-08-20T09:56:25Z</time>
      </trkpt>
      <trkpt lat="42.62548" lon="1.94047">
        <ele>1962.1879882812</ele>
        <time>2013-08-20T09:56:32Z</time>
      </trkpt>
      <trkpt lat="42.62546" lon="1.94041">
        <ele>1963.6298828125</ele>
        <time>2013-08-20T09:56:39Z</time>
      </trkpt>
      <trkpt lat="42.62547" lon="1.94037">
        <ele>1964.5915527344</ele>
        <time>2013-08-20T09:56:45Z</time>
      </trkpt>
      <trkpt lat="42.62547" lon="1.94032">
        <ele>1965.072265625</ele>
        <time>2013-08-20T09:56:49Z</time>
      </trkpt>
      <trkpt lat="42.62547" lon="1.94029">
        <ele>1965.072265625</ele>
        <time>2013-08-20T09:56:53Z</time>
      </trkpt>
      <trkpt lat="42.62546" lon="1.94023">
        <ele>1965.072265625</ele>
        <time>2013-08-20T09:56:57Z</time>
      </trkpt>
      <trkpt lat="42.62541" lon="1.94006">
        <ele>1965.072265625</ele>
        <time>2013-08-20T09:57:07Z</time>
      </trkpt>
      <trkpt lat="42.6254" lon="1.93997">
        <ele>1966.0334472656</ele>
        <time>2013-08-20T09:57:13Z</time>
      </trkpt>
      <trkpt lat="42.62537" lon="1.93988">
        <ele>1965.5529785156</ele>
        <time>2013-08-20T09:57:19Z</time>
      </trkpt>
      <trkpt lat="42.62533" lon="1.93976">
        <ele>1966.0334472656</ele>
        <time>2013-08-20T09:57:27Z</time>
      </trkpt>
      <trkpt lat="42.62529" lon="1.93966">
        <ele>1966.0334472656</ele>
        <time>2013-08-20T09:57:34Z</time>
      </trkpt>
      <trkpt lat="42.62528" lon="1.93961">
        <ele>1965.072265625</ele>
        <time>2013-08-20T09:57:40Z</time>
      </trkpt>
      <trkpt lat="42.62528" lon="1.93956">
        <ele>1965.5529785156</ele>
        <time>2013-08-20T09:57:59Z</time>
      </trkpt>
      <trkpt lat="42.62526" lon="1.93947">
        <ele>1966.9948730469</ele>
        <time>2013-08-20T09:58:06Z</time>
      </trkpt>
      <trkpt lat="42.62524" lon="1.93939">
        <ele>1966.9948730469</ele>
        <time>2013-08-20T09:58:13Z</time>
      </trkpt>
      <trkpt lat="42.62522" lon="1.9393">
        <ele>1966.0334472656</ele>
        <time>2013-08-20T09:58:20Z</time>
      </trkpt>
      <trkpt lat="42.62521" lon="1.93921">
        <ele>1965.5529785156</ele>
        <time>2013-08-20T09:58:27Z</time>
      </trkpt>
      <trkpt lat="42.62519" lon="1.93915">
        <ele>1965.072265625</ele>
        <time>2013-08-20T09:58:34Z</time>
      </trkpt>
      <trkpt lat="42.62518" lon="1.93913">
        <ele>1964.1108398438</ele>
        <time>2013-08-20T09:58:39Z</time>
      </trkpt>
      <trkpt lat="42.62515" lon="1.93909">
        <ele>1964.1108398438</ele>
        <time>2013-08-20T09:58:45Z</time>
      </trkpt>
      <trkpt lat="42.62513" lon="1.93905">
        <ele>1963.1494140625</ele>
        <time>2013-08-20T09:58:51Z</time>
      </trkpt>
      <trkpt lat="42.62508" lon="1.939">
        <ele>1962.1879882812</ele>
        <time>2013-08-20T09:58:59Z</time>
      </trkpt>
      <trkpt lat="42.62505" lon="1.93894">
        <ele>1960.2653808594</ele>
        <time>2013-08-20T09:59:04Z</time>
      </trkpt>
      <trkpt lat="42.62504" lon="1.93893">
        <ele>1959.7846679688</ele>
        <time>2013-08-20T09:59:05Z</time>
      </trkpt>
      <trkpt lat="42.62498" lon="1.93881">
        <ele>1957.8623046875</ele>
        <time>2013-08-20T09:59:13Z</time>
      </trkpt>
      <trkpt lat="42.62495" lon="1.93872">
        <ele>1957.3815917969</ele>
        <time>2013-08-20T09:59:20Z</time>
      </trkpt>
      <trkpt lat="42.62491" lon="1.93867">
        <ele>1956.9008789062</ele>
        <time>2013-08-20T09:59:26Z</time>
      </trkpt>
      <trkpt lat="42.62487" lon="1.93855">
        <ele>1956.4201660156</ele>
        <time>2013-08-20T09:59:34Z</time>
      </trkpt>
      <trkpt lat="42.62484" lon="1.93849">
        <ele>1956.4201660156</ele>
        <time>2013-08-20T09:59:40Z</time>
      </trkpt>
      <trkpt lat="42.62481" lon="1.93844">
        <ele>1955.939453125</ele>
        <time>2013-08-20T09:59:44Z</time>
      </trkpt>
      <trkpt lat="42.62479" lon="1.93842">
        <ele>1955.939453125</ele>
        <time>2013-08-20T09:59:47Z</time>
      </trkpt>
      <trkpt lat="42.62477" lon="1.93837">
        <ele>1955.458984375</ele>
        <time>2013-08-20T09:59:52Z</time>
      </trkpt>
      <trkpt lat="42.62471" lon="1.93833">
        <ele>1954.9782714844</ele>
        <time>2013-08-20T09:59:58Z</time>
      </trkpt>
      <trkpt lat="42.62468" lon="1.9383">
        <ele>1954.9782714844</ele>
        <time>2013-08-20T10:00:02Z</time>
      </trkpt>
      <trkpt lat="42.62463" lon="1.93822">
        <ele>1954.9782714844</ele>
        <time>2013-08-20T10:00:10Z</time>
      </trkpt>
      <trkpt lat="42.62462" lon="1.93821">
        <ele>1954.9782714844</ele>
        <time>2013-08-20T10:00:11Z</time>
      </trkpt>
      <trkpt lat="42.6246" lon="1.93812">
        <ele>1955.458984375</ele>
        <time>2013-08-20T10:00:19Z</time>
      </trkpt>
      <trkpt lat="42.6246" lon="1.93809">
        <ele>1954.9782714844</ele>
        <time>2013-08-20T10:00:26Z</time>
      </trkpt>
      <trkpt lat="42.62458" lon="1.93805">
        <ele>1954.4975585938</ele>
        <time>2013-08-20T10:00:31Z</time>
      </trkpt>
      <trkpt lat="42.62455" lon="1.938">
        <ele>1954.9782714844</ele>
        <time>2013-08-20T10:00:37Z</time>
      </trkpt>
      <trkpt lat="42.62453" lon="1.93797">
        <ele>1954.9782714844</ele>
        <time>2013-08-20T10:00:42Z</time>
      </trkpt>
      <trkpt lat="42.6245" lon="1.93794">
        <ele>1955.458984375</ele>
        <time>2013-08-20T10:00:47Z</time>
      </trkpt>
      <trkpt lat="42.62447" lon="1.93788">
        <ele>1954.9782714844</ele>
        <time>2013-08-20T10:00:53Z</time>
      </trkpt>
      <trkpt lat="42.62446" lon="1.93783">
        <ele>1954.9782714844</ele>
        <time>2013-08-20T10:00:56Z</time>
      </trkpt>
      <trkpt lat="42.62441" lon="1.93772">
        <ele>1954.0170898438</ele>
        <time>2013-08-20T10:01:03Z</time>
      </trkpt>
      <trkpt lat="42.62438" lon="1.93764">
        <ele>1954.0170898438</ele>
        <time>2013-08-20T10:01:09Z</time>
      </trkpt>
      <trkpt lat="42.62431" lon="1.93752">
        <ele>1954.0170898438</ele>
        <time>2013-08-20T10:01:18Z</time>
      </trkpt>
      <trkpt lat="42.62429" lon="1.93745">
        <ele>1954.0170898438</ele>
        <time>2013-08-20T10:01:24Z</time>
      </trkpt>
      <trkpt lat="42.62427" lon="1.93742">
        <ele>1954.4975585938</ele>
        <time>2013-08-20T10:01:31Z</time>
      </trkpt>
      <trkpt lat="42.62423" lon="1.93738">
        <ele>1954.4975585938</ele>
        <time>2013-08-20T10:01:36Z</time>
      </trkpt>
      <trkpt lat="42.62421" lon="1.93736">
        <ele>1954.4975585938</ele>
        <time>2013-08-20T10:01:38Z</time>
      </trkpt>
      <trkpt lat="42.62413" lon="1.93726">
        <ele>1954.0170898438</ele>
        <time>2013-08-20T10:01:46Z</time>
      </trkpt>
      <trkpt lat="42.62407" lon="1.93717">
        <ele>1954.4975585938</ele>
        <time>2013-08-20T10:01:53Z</time>
      </trkpt>
      <trkpt lat="42.62402" lon="1.93706">
        <ele>1954.4975585938</ele>
        <time>2013-08-20T10:02:01Z</time>
      </trkpt>
      <trkpt lat="42.62395" lon="1.93696">
        <ele>1954.9782714844</ele>
        <time>2013-08-20T10:02:09Z</time>
      </trkpt>
      <trkpt lat="42.6239" lon="1.9369">
        <ele>1954.9782714844</ele>
        <time>2013-08-20T10:02:15Z</time>
      </trkpt>
      <trkpt lat="42.62386" lon="1.93686">
        <ele>1955.458984375</ele>
        <time>2013-08-20T10:02:20Z</time>
      </trkpt>
      <trkpt lat="42.62383" lon="1.93685">
        <ele>1955.458984375</ele>
        <time>2013-08-20T10:02:23Z</time>
      </trkpt>
      <trkpt lat="42.6238" lon="1.93682">
        <ele>1955.458984375</ele>
        <time>2013-08-20T10:02:26Z</time>
      </trkpt>
      <trkpt lat="42.62374" lon="1.93678">
        <ele>1956.4201660156</ele>
        <time>2013-08-20T10:02:32Z</time>
      </trkpt>
      <trkpt lat="42.62367" lon="1.93671">
        <ele>1956.9008789062</ele>
        <time>2013-08-20T10:02:40Z</time>
      </trkpt>
      <trkpt lat="42.62363" lon="1.93666">
        <ele>1958.3427734375</ele>
        <time>2013-08-20T10:02:46Z</time>
      </trkpt>
      <trkpt lat="42.62359" lon="1.93658">
        <ele>1959.3041992188</ele>
        <time>2013-08-20T10:02:52Z</time>
      </trkpt>
      <trkpt lat="42.62355" lon="1.93649">
        <ele>1959.7846679688</ele>
        <time>2013-08-20T10:02:59Z</time>
      </trkpt>
      <trkpt lat="42.62352" lon="1.93641">
        <ele>1959.7846679688</ele>
        <time>2013-08-20T10:03:06Z</time>
      </trkpt>
      <trkpt lat="42.6235" lon="1.93637">
        <ele>1959.7846679688</ele>
        <time>2013-08-20T10:03:09Z</time>
      </trkpt>
      <trkpt lat="42.62348" lon="1.93627">
        <ele>1959.7846679688</ele>
        <time>2013-08-20T10:03:16Z</time>
      </trkpt>
      <trkpt lat="42.62346" lon="1.93619">
        <ele>1960.74609375</ele>
        <time>2013-08-20T10:03:22Z</time>
      </trkpt>
      <trkpt lat="42.62344" lon="1.93609">
        <ele>1960.74609375</ele>
        <time>2013-08-20T10:03:29Z</time>
      </trkpt>
      <trkpt lat="42.62342" lon="1.93602">
        <ele>1961.2268066406</ele>
        <time>2013-08-20T10:03:35Z</time>
      </trkpt>
      <trkpt lat="42.62338" lon="1.93596">
        <ele>1962.1879882812</ele>
        <time>2013-08-20T10:03:41Z</time>
      </trkpt>
      <trkpt lat="42.62336" lon="1.9359">
        <ele>1962.6687011719</ele>
        <time>2013-08-20T10:03:46Z</time>
      </trkpt>
      <trkpt lat="42.62334" lon="1.9358">
        <ele>1963.6298828125</ele>
        <time>2013-08-20T10:03:53Z</time>
      </trkpt>
      <trkpt lat="42.6233" lon="1.93571">
        <ele>1964.5915527344</ele>
        <time>2013-08-20T10:04:00Z</time>
      </trkpt>
      <trkpt lat="42.62327" lon="1.93562">
        <ele>1966.0334472656</ele>
        <time>2013-08-20T10:04:06Z</time>
      </trkpt>
      <trkpt lat="42.62323" lon="1.93556">
        <ele>1966.5141601562</ele>
        <time>2013-08-20T10:04:12Z</time>
      </trkpt>
      <trkpt lat="42.62319" lon="1.93553">
        <ele>1966.5141601562</ele>
        <time>2013-08-20T10:04:18Z</time>
      </trkpt>
      <trkpt lat="42.62314" lon="1.93547">
        <ele>1967.4753417969</ele>
        <time>2013-08-20T10:04:25Z</time>
      </trkpt>
      <trkpt lat="42.62309" lon="1.93538">
        <ele>1968.4367675781</ele>
        <time>2013-08-20T10:04:33Z</time>
      </trkpt>
      <trkpt lat="42.62307" lon="1.93529">
        <ele>1968.9174804688</ele>
        <time>2013-08-20T10:04:39Z</time>
      </trkpt>
      <trkpt lat="42.62305" lon="1.93518">
        <ele>1967.9560546875</ele>
        <time>2013-08-20T10:04:46Z</time>
      </trkpt>
      <trkpt lat="42.62302" lon="1.93515">
        <ele>1967.9560546875</ele>
        <time>2013-08-20T10:04:50Z</time>
      </trkpt>
      <trkpt lat="42.623" lon="1.93508">
        <ele>1968.9174804688</ele>
        <time>2013-08-20T10:04:55Z</time>
      </trkpt>
      <trkpt lat="42.62298" lon="1.935">
        <ele>1970.8400878906</ele>
        <time>2013-08-20T10:05:02Z</time>
      </trkpt>
      <trkpt lat="42.62298" lon="1.93494">
        <ele>1972.2819824219</ele>
        <time>2013-08-20T10:05:08Z</time>
      </trkpt>
      <trkpt lat="42.62297" lon="1.93487">
        <ele>1972.2819824219</ele>
        <time>2013-08-20T10:05:14Z</time>
      </trkpt>
      <trkpt lat="42.62299" lon="1.93478">
        <ele>1971.8012695312</ele>
        <time>2013-08-20T10:05:21Z</time>
      </trkpt>
      <trkpt lat="42.62301" lon="1.93471">
        <ele>1972.2819824219</ele>
        <time>2013-08-20T10:05:27Z</time>
      </trkpt>
      <trkpt lat="42.62304" lon="1.93468">
        <ele>1972.7626953125</ele>
        <time>2013-08-20T10:05:33Z</time>
      </trkpt>
      <trkpt lat="42.62304" lon="1.93466">
        <ele>1974.2045898438</ele>
        <time>2013-08-20T10:05:43Z</time>
      </trkpt>
      <trkpt lat="42.62304" lon="1.93466">
        <ele>1973.7238769531</ele>
        <time>2013-08-20T10:05:49Z</time>
      </trkpt>
      <trkpt lat="42.62302" lon="1.93462">
        <ele>1974.2045898438</ele>
        <time>2013-08-20T10:05:59Z</time>
      </trkpt>
      <trkpt lat="42.623" lon="1.9346">
        <ele>1974.6853027344</ele>
        <time>2013-08-20T10:06:04Z</time>
      </trkpt>
      <trkpt lat="42.62299" lon="1.93455">
        <ele>1974.2045898438</ele>
        <time>2013-08-20T10:06:09Z</time>
      </trkpt>
      <trkpt lat="42.62295" lon="1.93451">
        <ele>1974.6853027344</ele>
        <time>2013-08-20T10:06:15Z</time>
      </trkpt>
      <trkpt lat="42.62296" lon="1.93447">
        <ele>1974.6853027344</ele>
        <time>2013-08-20T10:06:20Z</time>
      </trkpt>
      <trkpt lat="42.62299" lon="1.93443">
        <ele>1973.7238769531</ele>
        <time>2013-08-20T10:06:25Z</time>
      </trkpt>
      <trkpt lat="42.62299" lon="1.93435">
        <ele>1973.7238769531</ele>
        <time>2013-08-20T10:06:31Z</time>
      </trkpt>
      <trkpt lat="42.62296" lon="1.93429">
        <ele>1973.2434082031</ele>
        <time>2013-08-20T10:06:36Z</time>
      </trkpt>
      <trkpt lat="42.62296" lon="1.93428">
        <ele>1973.7238769531</ele>
        <time>2013-08-20T10:06:37Z</time>
      </trkpt>
      <trkpt lat="42.62291" lon="1.93419">
        <ele>1975.1657714844</ele>
        <time>2013-08-20T10:06:45Z</time>
      </trkpt>
      <trkpt lat="42.62292" lon="1.9341">
        <ele>1974.6853027344</ele>
        <time>2013-08-20T10:06:51Z</time>
      </trkpt>
      <trkpt lat="42.62292" lon="1.93403">
        <ele>1974.6853027344</ele>
        <time>2013-08-20T10:06:56Z</time>
      </trkpt>
      <trkpt lat="42.62287" lon="1.93392">
        <ele>1975.1657714844</ele>
        <time>2013-08-20T10:07:05Z</time>
      </trkpt>
      <trkpt lat="42.62285" lon="1.93383">
        <ele>1975.646484375</ele>
        <time>2013-08-20T10:07:11Z</time>
      </trkpt>
      <trkpt lat="42.6228" lon="1.93372">
        <ele>1977.0886230469</ele>
        <time>2013-08-20T10:07:19Z</time>
      </trkpt>
      <trkpt lat="42.62279" lon="1.93369">
        <ele>1977.0886230469</ele>
        <time>2013-08-20T10:07:21Z</time>
      </trkpt>
      <trkpt lat="42.62273" lon="1.9336">
        <ele>1977.5690917969</ele>
        <time>2013-08-20T10:07:29Z</time>
      </trkpt>
      <trkpt lat="42.62269" lon="1.93352">
        <ele>1978.5305175781</ele>
        <time>2013-08-20T10:07:36Z</time>
      </trkpt>
      <trkpt lat="42.62264" lon="1.93348">
        <ele>1978.0498046875</ele>
        <time>2013-08-20T10:07:42Z</time>
      </trkpt>
      <trkpt lat="42.6226" lon="1.93347">
        <ele>1978.0498046875</ele>
        <time>2013-08-20T10:07:47Z</time>
      </trkpt>
      <trkpt lat="42.62253" lon="1.93345">
        <ele>1978.0498046875</ele>
        <time>2013-08-20T10:07:54Z</time>
      </trkpt>
      <trkpt lat="42.62246" lon="1.93341">
        <ele>1979.4916992188</ele>
        <time>2013-08-20T10:08:01Z</time>
      </trkpt>
      <trkpt lat="42.62244" lon="1.93336">
        <ele>1981.4145507812</ele>
        <time>2013-08-20T10:08:08Z</time>
      </trkpt>
      <trkpt lat="42.62241" lon="1.93331">
        <ele>1982.3759765625</ele>
        <time>2013-08-20T10:08:14Z</time>
      </trkpt>
      <trkpt lat="42.62237" lon="1.93328">
        <ele>1982.8564453125</ele>
        <time>2013-08-20T10:08:20Z</time>
      </trkpt>
      <trkpt lat="42.62234" lon="1.93325">
        <ele>1983.8178710938</ele>
        <time>2013-08-20T10:08:25Z</time>
      </trkpt>
      <trkpt lat="42.62231" lon="1.9332">
        <ele>1984.2985839844</ele>
        <time>2013-08-20T10:08:31Z</time>
      </trkpt>
      <trkpt lat="42.62228" lon="1.93314">
        <ele>1984.2985839844</ele>
        <time>2013-08-20T10:08:36Z</time>
      </trkpt>
      <trkpt lat="42.62226" lon="1.93309">
        <ele>1984.779296875</ele>
        <time>2013-08-20T10:08:41Z</time>
      </trkpt>
      <trkpt lat="42.62225" lon="1.93306">
        <ele>1985.7404785156</ele>
        <time>2013-08-20T10:08:47Z</time>
      </trkpt>
      <trkpt lat="42.62225" lon="1.93307">
        <ele>1985.259765625</ele>
        <time>2013-08-20T10:08:51Z</time>
      </trkpt>
      <trkpt lat="42.62221" lon="1.93306">
        <ele>1979.9724121094</ele>
        <time>2013-08-20T10:11:29Z</time>
      </trkpt>
      <trkpt lat="42.62226" lon="1.93299">
        <ele>1983.3371582031</ele>
        <time>2013-08-20T10:11:52Z</time>
      </trkpt>
      <trkpt lat="42.62228" lon="1.93295">
        <ele>1984.2985839844</ele>
        <time>2013-08-20T10:11:57Z</time>
      </trkpt>
      <trkpt lat="42.62228" lon="1.9329">
        <ele>1984.779296875</ele>
        <time>2013-08-20T10:12:02Z</time>
      </trkpt>
      <trkpt lat="42.6223" lon="1.93285">
        <ele>1986.2211914062</ele>
        <time>2013-08-20T10:12:08Z</time>
      </trkpt>
      <trkpt lat="42.62231" lon="1.93281">
        <ele>1986.7016601562</ele>
        <time>2013-08-20T10:12:12Z</time>
      </trkpt>
      <trkpt lat="42.62233" lon="1.93276">
        <ele>1987.6630859375</ele>
        <time>2013-08-20T10:12:18Z</time>
      </trkpt>
      <trkpt lat="42.62236" lon="1.93266">
        <ele>1988.6245117188</ele>
        <time>2013-08-20T10:12:26Z</time>
      </trkpt>
      <trkpt lat="42.62239" lon="1.93259">
        <ele>1988.1437988281</ele>
        <time>2013-08-20T10:12:32Z</time>
      </trkpt>
      <trkpt lat="42.6224" lon="1.93255">
        <ele>1989.5856933594</ele>
        <time>2013-08-20T10:12:38Z</time>
      </trkpt>
      <trkpt lat="42.62238" lon="1.93252">
        <ele>1990.06640625</ele>
        <time>2013-08-20T10:12:47Z</time>
      </trkpt>
      <trkpt lat="42.62239" lon="1.93242">
        <ele>1991.9890136719</ele>
        <time>2013-08-20T10:13:05Z</time>
      </trkpt>
      <trkpt lat="42.62239" lon="1.93242">
        <ele>1996.7956542969</ele>
        <time>2013-08-20T10:13:13Z</time>
      </trkpt>
      <trkpt lat="42.62243" lon="1.9323">
        <ele>2003.0441894531</ele>
        <time>2013-08-20T10:13:42Z</time>
      </trkpt>
      <trkpt lat="42.62243" lon="1.93227">
        <ele>2005.4475097656</ele>
        <time>2013-08-20T10:13:50Z</time>
      </trkpt>
      <trkpt lat="42.62244" lon="1.93222">
        <ele>2006.8894042969</ele>
        <time>2013-08-20T10:14:15Z</time>
      </trkpt>
      <trkpt lat="42.62244" lon="1.93217">
        <ele>2007.3701171875</ele>
        <time>2013-08-20T10:14:21Z</time>
      </trkpt>
      <trkpt lat="42.62243" lon="1.93213">
        <ele>2006.8894042969</ele>
        <time>2013-08-20T10:14:26Z</time>
      </trkpt>
      <trkpt lat="42.62244" lon="1.93209">
        <ele>2006.8894042969</ele>
        <time>2013-08-20T10:14:31Z</time>
      </trkpt>
      <trkpt lat="42.62245" lon="1.93206">
        <ele>2007.3701171875</ele>
        <time>2013-08-20T10:14:36Z</time>
      </trkpt>
      <trkpt lat="42.62244" lon="1.93202">
        <ele>2008.3312988281</ele>
        <time>2013-08-20T10:14:42Z</time>
      </trkpt>
      <trkpt lat="42.62246" lon="1.93198">
        <ele>2009.2927246094</ele>
        <time>2013-08-20T10:14:47Z</time>
      </trkpt>
      <trkpt lat="42.6225" lon="1.93197">
        <ele>2011.2153320312</ele>
        <time>2013-08-20T10:14:55Z</time>
      </trkpt>
      <trkpt lat="42.62251" lon="1.93194">
        <ele>2011.6960449219</ele>
        <time>2013-08-20T10:15:01Z</time>
      </trkpt>
      <trkpt lat="42.62249" lon="1.93191">
        <ele>2013.1381835938</ele>
        <time>2013-08-20T10:15:08Z</time>
      </trkpt>
      <trkpt lat="42.62249" lon="1.93186">
        <ele>2015.5415039062</ele>
        <time>2013-08-20T10:15:21Z</time>
      </trkpt>
      <trkpt lat="42.6225" lon="1.93182">
        <ele>2016.9833984375</ele>
        <time>2013-08-20T10:15:26Z</time>
      </trkpt>
      <trkpt lat="42.62252" lon="1.93177">
        <ele>2019.38671875</ele>
        <time>2013-08-20T10:15:35Z</time>
      </trkpt>
      <trkpt lat="42.62252" lon="1.93173">
        <ele>2020.8286132812</ele>
        <time>2013-08-20T10:15:41Z</time>
      </trkpt>
      <trkpt lat="42.62251" lon="1.9317">
        <ele>2022.2705078125</ele>
        <time>2013-08-20T10:15:49Z</time>
      </trkpt>
      <trkpt lat="42.62251" lon="1.93162">
        <ele>2026.1157226562</ele>
        <time>2013-08-20T10:16:13Z</time>
      </trkpt>
      <trkpt lat="42.62253" lon="1.93158">
        <ele>2028.9997558594</ele>
        <time>2013-08-20T10:16:21Z</time>
      </trkpt>
      <trkpt lat="42.62252" lon="1.93154">
        <ele>2030.4418945312</ele>
        <time>2013-08-20T10:16:29Z</time>
      </trkpt>
      <trkpt lat="42.62253" lon="1.93151">
        <ele>2031.8837890625</ele>
        <time>2013-08-20T10:16:35Z</time>
      </trkpt>
      <trkpt lat="42.62252" lon="1.93147">
        <ele>2033.3256835938</ele>
        <time>2013-08-20T10:16:43Z</time>
      </trkpt>
      <trkpt lat="42.62254" lon="1.93146">
        <ele>2034.287109375</ele>
        <time>2013-08-20T10:16:48Z</time>
      </trkpt>
      <trkpt lat="42.62254" lon="1.93144">
        <ele>2035.7290039062</ele>
        <time>2013-08-20T10:16:54Z</time>
      </trkpt>
      <trkpt lat="42.62251" lon="1.93142">
        <ele>2038.1323242188</ele>
        <time>2013-08-20T10:17:01Z</time>
      </trkpt>
      <trkpt lat="42.62252" lon="1.93138">
        <ele>2039.57421875</ele>
        <time>2013-08-20T10:17:06Z</time>
      </trkpt>
      <trkpt lat="42.62254" lon="1.93135">
        <ele>2041.9775390625</ele>
        <time>2013-08-20T10:17:13Z</time>
      </trkpt>
      <trkpt lat="42.62254" lon="1.93132">
        <ele>2042.9387207031</ele>
        <time>2013-08-20T10:17:18Z</time>
      </trkpt>
      <trkpt lat="42.62253" lon="1.9313">
        <ele>2042.9387207031</ele>
        <time>2013-08-20T10:17:23Z</time>
      </trkpt>
      <trkpt lat="42.62253" lon="1.93127">
        <ele>2043.9001464844</ele>
        <time>2013-08-20T10:17:29Z</time>
      </trkpt>
      <trkpt lat="42.62253" lon="1.93122">
        <ele>2044.8615722656</ele>
        <time>2013-08-20T10:17:36Z</time>
      </trkpt>
      <trkpt lat="42.62254" lon="1.93119">
        <ele>2045.8229980469</ele>
        <time>2013-08-20T10:17:42Z</time>
      </trkpt>
      <trkpt lat="42.62252" lon="1.93121">
        <ele>2047.7456054688</ele>
        <time>2013-08-20T10:17:49Z</time>
      </trkpt>
      <trkpt lat="42.62251" lon="1.93123">
        <ele>2049.6682128906</ele>
        <time>2013-08-20T10:17:56Z</time>
      </trkpt>
      <trkpt lat="42.62249" lon="1.93126">
        <ele>2052.5520019531</ele>
        <time>2013-08-20T10:18:09Z</time>
      </trkpt>
      <trkpt lat="42.62247" lon="1.93128">
        <ele>2052.5520019531</ele>
        <time>2013-08-20T10:18:14Z</time>
      </trkpt>
      <trkpt lat="42.62245" lon="1.93127">
        <ele>2053.0327148438</ele>
        <time>2013-08-20T10:18:19Z</time>
      </trkpt>
      <trkpt lat="42.62244" lon="1.93125">
        <ele>2053.0327148438</ele>
        <time>2013-08-20T10:18:23Z</time>
      </trkpt>
      <trkpt lat="42.62244" lon="1.9312">
        <ele>2053.5134277344</ele>
        <time>2013-08-20T10:18:28Z</time>
      </trkpt>
      <trkpt lat="42.62245" lon="1.93116">
        <ele>2054.474609375</ele>
        <time>2013-08-20T10:18:33Z</time>
      </trkpt>
      <trkpt lat="42.62246" lon="1.93113">
        <ele>2054.474609375</ele>
        <time>2013-08-20T10:18:38Z</time>
      </trkpt>
      <trkpt lat="42.62245" lon="1.9311">
        <ele>2055.4360351562</ele>
        <time>2013-08-20T10:18:43Z</time>
      </trkpt>
      <trkpt lat="42.62246" lon="1.93104">
        <ele>2056.3972167969</ele>
        <time>2013-08-20T10:18:50Z</time>
      </trkpt>
      <trkpt lat="42.62244" lon="1.93101">
        <ele>2056.8779296875</ele>
        <time>2013-08-20T10:18:55Z</time>
      </trkpt>
      <trkpt lat="42.62243" lon="1.93098">
        <ele>2057.3586425781</ele>
        <time>2013-08-20T10:19:00Z</time>
      </trkpt>
      <trkpt lat="42.62244" lon="1.93095">
        <ele>2057.8393554688</ele>
        <time>2013-08-20T10:19:06Z</time>
      </trkpt>
      <trkpt lat="42.62245" lon="1.93089">
        <ele>2058.3198242188</ele>
        <time>2013-08-20T10:19:12Z</time>
      </trkpt>
      <trkpt lat="42.62245" lon="1.93085">
        <ele>2060.2426757812</ele>
        <time>2013-08-20T10:19:19Z</time>
      </trkpt>
      <trkpt lat="42.62245" lon="1.93079">
        <ele>2061.6848144531</ele>
        <time>2013-08-20T10:19:25Z</time>
      </trkpt>
      <trkpt lat="42.62246" lon="1.93076">
        <ele>2063.1267089844</ele>
        <time>2013-08-20T10:19:30Z</time>
      </trkpt>
      <trkpt lat="42.62246" lon="1.93069">
        <ele>2064.087890625</ele>
        <time>2013-08-20T10:19:37Z</time>
      </trkpt>
      <trkpt lat="42.62245" lon="1.93063">
        <ele>2065.0493164062</ele>
        <time>2013-08-20T10:19:43Z</time>
      </trkpt>
      <trkpt lat="42.62246" lon="1.93056">
        <ele>2066.4912109375</ele>
        <time>2013-08-20T10:19:51Z</time>
      </trkpt>
      <trkpt lat="42.62245" lon="1.93053">
        <ele>2066.9719238281</ele>
        <time>2013-08-20T10:19:57Z</time>
      </trkpt>
      <trkpt lat="42.62245" lon="1.93053">
        <ele>2067.4523925781</ele>
        <time>2013-08-20T10:20:00Z</time>
      </trkpt>
      <trkpt lat="42.62245" lon="1.93053">
        <ele>2067.9331054688</ele>
        <time>2013-08-20T10:20:01Z</time>
      </trkpt>
      <trkpt lat="42.62244" lon="1.93052">
        <ele>2068.89453125</ele>
        <time>2013-08-20T10:20:05Z</time>
      </trkpt>
      <trkpt lat="42.62243" lon="1.93048">
        <ele>2069.3752441406</ele>
        <time>2013-08-20T10:20:11Z</time>
      </trkpt>
      <trkpt lat="42.62243" lon="1.93043">
        <ele>2069.3752441406</ele>
        <time>2013-08-20T10:20:17Z</time>
      </trkpt>
      <trkpt lat="42.62242" lon="1.93038">
        <ele>2070.3364257812</ele>
        <time>2013-08-20T10:20:24Z</time>
      </trkpt>
      <trkpt lat="42.62242" lon="1.93035">
        <ele>2070.3364257812</ele>
        <time>2013-08-20T10:20:30Z</time>
      </trkpt>
      <trkpt lat="42.62241" lon="1.93031">
        <ele>2070.8171386719</ele>
        <time>2013-08-20T10:20:36Z</time>
      </trkpt>
      <trkpt lat="42.6224" lon="1.93028">
        <ele>2071.2976074219</ele>
        <time>2013-08-20T10:20:41Z</time>
      </trkpt>
      <trkpt lat="42.62241" lon="1.93024">
        <ele>2071.7783203125</ele>
        <time>2013-08-20T10:20:46Z</time>
      </trkpt>
      <trkpt lat="42.62241" lon="1.9302">
        <ele>2072.2590332031</ele>
        <time>2013-08-20T10:20:52Z</time>
      </trkpt>
      <trkpt lat="42.62239" lon="1.93017">
        <ele>2073.2204589844</ele>
        <time>2013-08-20T10:20:58Z</time>
      </trkpt>
      <trkpt lat="42.62239" lon="1.93013">
        <ele>2073.2204589844</ele>
        <time>2013-08-20T10:21:03Z</time>
      </trkpt>
      <trkpt lat="42.62237" lon="1.93011">
        <ele>2074.181640625</ele>
        <time>2013-08-20T10:21:07Z</time>
      </trkpt>
      <trkpt lat="42.62238" lon="1.93007">
        <ele>2076.1044921875</ele>
        <time>2013-08-20T10:21:13Z</time>
      </trkpt>
      <trkpt lat="42.62239" lon="1.93004">
        <ele>2077.5463867188</ele>
        <time>2013-08-20T10:21:19Z</time>
      </trkpt>
      <trkpt lat="42.62239" lon="1.93">
        <ele>2078.98828125</ele>
        <time>2013-08-20T10:21:25Z</time>
      </trkpt>
      <trkpt lat="42.62238" lon="1.92998">
        <ele>2080.4304199219</ele>
        <time>2013-08-20T10:21:31Z</time>
      </trkpt>
      <trkpt lat="42.62238" lon="1.92994">
        <ele>2081.3916015625</ele>
        <time>2013-08-20T10:21:38Z</time>
      </trkpt>
      <trkpt lat="42.62239" lon="1.92989">
        <ele>2082.8334960938</ele>
        <time>2013-08-20T10:21:44Z</time>
      </trkpt>
      <trkpt lat="42.6224" lon="1.92983">
        <ele>2082.8334960938</ele>
        <time>2013-08-20T10:21:52Z</time>
      </trkpt>
      <trkpt lat="42.62242" lon="1.92978">
        <ele>2083.794921875</ele>
        <time>2013-08-20T10:22:00Z</time>
      </trkpt>
      <trkpt lat="42.62244" lon="1.92974">
        <ele>2084.2756347656</ele>
        <time>2013-08-20T10:22:05Z</time>
      </trkpt>
      <trkpt lat="42.62245" lon="1.92966">
        <ele>2084.7563476562</ele>
        <time>2013-08-20T10:22:12Z</time>
      </trkpt>
      <trkpt lat="42.62244" lon="1.92959">
        <ele>2085.2368164062</ele>
        <time>2013-08-20T10:22:18Z</time>
      </trkpt>
      <trkpt lat="42.62244" lon="1.92955">
        <ele>2085.7175292969</ele>
        <time>2013-08-20T10:22:23Z</time>
      </trkpt>
      <trkpt lat="42.62243" lon="1.92951">
        <ele>2086.1982421875</ele>
        <time>2013-08-20T10:22:29Z</time>
      </trkpt>
      <trkpt lat="42.62243" lon="1.92945">
        <ele>2086.1982421875</ele>
        <time>2013-08-20T10:22:35Z</time>
      </trkpt>
      <trkpt lat="42.62243" lon="1.9294">
        <ele>2086.1982421875</ele>
        <time>2013-08-20T10:22:40Z</time>
      </trkpt>
      <trkpt lat="42.62245" lon="1.92935">
        <ele>2086.6787109375</ele>
        <time>2013-08-20T10:22:46Z</time>
      </trkpt>
      <trkpt lat="42.62248" lon="1.92934">
        <ele>2088.1208496094</ele>
        <time>2013-08-20T10:22:51Z</time>
      </trkpt>
      <trkpt lat="42.6225" lon="1.92935">
        <ele>2089.08203125</ele>
        <time>2013-08-20T10:22:56Z</time>
      </trkpt>
      <trkpt lat="42.62253" lon="1.92936">
        <ele>2089.5627441406</ele>
        <time>2013-08-20T10:23:02Z</time>
      </trkpt>
      <trkpt lat="42.62254" lon="1.92933">
        <ele>2090.5239257812</ele>
        <time>2013-08-20T10:23:07Z</time>
      </trkpt>
      <trkpt lat="42.62257" lon="1.92929">
        <ele>2091.9660644531</ele>
        <time>2013-08-20T10:23:13Z</time>
      </trkpt>
      <trkpt lat="42.62258" lon="1.92926">
        <ele>2093.8889160156</ele>
        <time>2013-08-20T10:23:20Z</time>
      </trkpt>
      <trkpt lat="42.62259" lon="1.92922">
        <ele>2094.8500976562</ele>
        <time>2013-08-20T10:23:26Z</time>
      </trkpt>
      <trkpt lat="42.62259" lon="1.92917">
        <ele>2095.8115234375</ele>
        <time>2013-08-20T10:23:32Z</time>
      </trkpt>
      <trkpt lat="42.62261" lon="1.92912">
        <ele>2098.2145996094</ele>
        <time>2013-08-20T10:23:38Z</time>
      </trkpt>
      <trkpt lat="42.62263" lon="1.92908">
        <ele>2100.1374511719</ele>
        <time>2013-08-20T10:23:44Z</time>
      </trkpt>
      <trkpt lat="42.62265" lon="1.92906">
        <ele>2101.0986328125</ele>
        <time>2013-08-20T10:23:49Z</time>
      </trkpt>
      <trkpt lat="42.62265" lon="1.92904">
        <ele>2102.5405273438</ele>
        <time>2013-08-20T10:23:55Z</time>
      </trkpt>
      <trkpt lat="42.62266" lon="1.92902">
        <ele>2103.501953125</ele>
        <time>2013-08-20T10:24:02Z</time>
      </trkpt>
      <trkpt lat="42.62266" lon="1.92898">
        <ele>2103.9826660156</ele>
        <time>2013-08-20T10:24:09Z</time>
      </trkpt>
      <trkpt lat="42.62267" lon="1.92894">
        <ele>2106.3857421875</ele>
        <time>2013-08-20T10:24:17Z</time>
      </trkpt>
      <trkpt lat="42.62269" lon="1.92891">
        <ele>2107.3471679688</ele>
        <time>2013-08-20T10:24:22Z</time>
      </trkpt>
      <trkpt lat="42.62271" lon="1.92891">
        <ele>2108.30859375</ele>
        <time>2013-08-20T10:24:29Z</time>
      </trkpt>
      <trkpt lat="42.62271" lon="1.92889">
        <ele>2109.7504882812</ele>
        <time>2013-08-20T10:24:35Z</time>
      </trkpt>
      <trkpt lat="42.62273" lon="1.92888">
        <ele>2111.1926269531</ele>
        <time>2013-08-20T10:24:39Z</time>
      </trkpt>
      <trkpt lat="42.62276" lon="1.92886">
        <ele>2112.1538085938</ele>
        <time>2013-08-20T10:24:45Z</time>
      </trkpt>
      <trkpt lat="42.62276" lon="1.92884">
        <ele>2113.115234375</ele>
        <time>2013-08-20T10:24:50Z</time>
      </trkpt>
      <trkpt lat="42.62278" lon="1.92883">
        <ele>2114.0764160156</ele>
        <time>2013-08-20T10:24:55Z</time>
      </trkpt>
      <trkpt lat="42.6228" lon="1.92884">
        <ele>2115.5185546875</ele>
        <time>2013-08-20T10:25:01Z</time>
      </trkpt>
      <trkpt lat="42.62283" lon="1.92882">
        <ele>2115.9990234375</ele>
        <time>2013-08-20T10:25:07Z</time>
      </trkpt>
      <trkpt lat="42.62285" lon="1.92882">
        <ele>2116.9604492188</ele>
        <time>2013-08-20T10:25:12Z</time>
      </trkpt>
      <trkpt lat="42.62286" lon="1.92881">
        <ele>2118.8830566406</ele>
        <time>2013-08-20T10:25:18Z</time>
      </trkpt>
      <trkpt lat="42.62288" lon="1.92881">
        <ele>2119.8442382812</ele>
        <time>2013-08-20T10:25:24Z</time>
      </trkpt>
      <trkpt lat="42.6229" lon="1.92881">
        <ele>2120.8056640625</ele>
        <time>2013-08-20T10:25:29Z</time>
      </trkpt>
      <trkpt lat="42.6229" lon="1.92878">
        <ele>2122.2475585938</ele>
        <time>2013-08-20T10:25:35Z</time>
      </trkpt>
      <trkpt lat="42.62292" lon="1.92878">
        <ele>2122.2475585938</ele>
        <time>2013-08-20T10:25:40Z</time>
      </trkpt>
      <trkpt lat="42.62294" lon="1.92878">
        <ele>2123.689453125</ele>
        <time>2013-08-20T10:25:46Z</time>
      </trkpt>
      <trkpt lat="42.62296" lon="1.92877">
        <ele>2124.6511230469</ele>
        <time>2013-08-20T10:25:52Z</time>
      </trkpt>
      <trkpt lat="42.62298" lon="1.92879">
        <ele>2125.1315917969</ele>
        <time>2013-08-20T10:25:56Z</time>
      </trkpt>
      <trkpt lat="42.62299" lon="1.9288">
        <ele>2126.0930175781</ele>
        <time>2013-08-20T10:26:02Z</time>
      </trkpt>
      <trkpt lat="42.62299" lon="1.92882">
        <ele>2127.0544433594</ele>
        <time>2013-08-20T10:26:16Z</time>
      </trkpt>
      <trkpt lat="42.62303" lon="1.92884">
        <ele>2128.015625</ele>
        <time>2013-08-20T10:26:21Z</time>
      </trkpt>
      <trkpt lat="42.62307" lon="1.92884">
        <ele>2129.4575195312</ele>
        <time>2013-08-20T10:26:27Z</time>
      </trkpt>
      <trkpt lat="42.6231" lon="1.92883">
        <ele>2130.4189453125</ele>
        <time>2013-08-20T10:26:32Z</time>
      </trkpt>
      <trkpt lat="42.62313" lon="1.92883">
        <ele>2131.3801269531</ele>
        <time>2013-08-20T10:26:38Z</time>
      </trkpt>
      <trkpt lat="42.62315" lon="1.92884">
        <ele>2132.3415527344</ele>
        <time>2013-08-20T10:26:43Z</time>
      </trkpt>
      <trkpt lat="42.62318" lon="1.9288">
        <ele>2133.7834472656</ele>
        <time>2013-08-20T10:26:49Z</time>
      </trkpt>
      <trkpt lat="42.62319" lon="1.92877">
        <ele>2134.7448730469</ele>
        <time>2013-08-20T10:26:55Z</time>
      </trkpt>
      <trkpt lat="42.62321" lon="1.92873">
        <ele>2136.1867675781</ele>
        <time>2013-08-20T10:27:00Z</time>
      </trkpt>
      <trkpt lat="42.62324" lon="1.9287">
        <ele>2137.1479492188</ele>
        <time>2013-08-20T10:27:06Z</time>
      </trkpt>
      <trkpt lat="42.62327" lon="1.92868">
        <ele>2138.5900878906</ele>
        <time>2013-08-20T10:27:12Z</time>
      </trkpt>
      <trkpt lat="42.62328" lon="1.92862">
        <ele>2139.0705566406</ele>
        <time>2013-08-20T10:27:18Z</time>
      </trkpt>
      <trkpt lat="42.62329" lon="1.92856">
        <ele>2139.5512695312</ele>
        <time>2013-08-20T10:27:23Z</time>
      </trkpt>
      <trkpt lat="42.6233" lon="1.92849">
        <ele>2140.9934082031</ele>
        <time>2013-08-20T10:27:29Z</time>
      </trkpt>
      <trkpt lat="42.62334" lon="1.92841">
        <ele>2142.435546875</ele>
        <time>2013-08-20T10:27:37Z</time>
      </trkpt>
      <trkpt lat="42.62337" lon="1.92833">
        <ele>2143.3967285156</ele>
        <time>2013-08-20T10:27:45Z</time>
      </trkpt>
      <trkpt lat="42.62341" lon="1.92829">
        <ele>2144.3579101562</ele>
        <time>2013-08-20T10:27:51Z</time>
      </trkpt>
      <trkpt lat="42.62346" lon="1.92831">
        <ele>2145.3193359375</ele>
        <time>2013-08-20T10:27:58Z</time>
      </trkpt>
      <trkpt lat="42.6235" lon="1.9283">
        <ele>2146.2807617188</ele>
        <time>2013-08-20T10:28:04Z</time>
      </trkpt>
      <trkpt lat="42.62354" lon="1.92831">
        <ele>2147.2419433594</ele>
        <time>2013-08-20T10:28:10Z</time>
      </trkpt>
      <trkpt lat="42.62357" lon="1.92832">
        <ele>2148.6838378906</ele>
        <time>2013-08-20T10:28:16Z</time>
      </trkpt>
      <trkpt lat="42.62361" lon="1.92834">
        <ele>2150.1259765625</ele>
        <time>2013-08-20T10:28:22Z</time>
      </trkpt>
      <trkpt lat="42.62365" lon="1.92837">
        <ele>2150.6064453125</ele>
        <time>2013-08-20T10:28:28Z</time>
      </trkpt>
      <trkpt lat="42.62368" lon="1.9284">
        <ele>2151.5678710938</ele>
        <time>2013-08-20T10:28:33Z</time>
      </trkpt>
      <trkpt lat="42.62372" lon="1.92841">
        <ele>2153.4904785156</ele>
        <time>2013-08-20T10:28:40Z</time>
      </trkpt>
      <trkpt lat="42.62375" lon="1.92842">
        <ele>2154.4516601562</ele>
        <time>2013-08-20T10:28:46Z</time>
      </trkpt>
      <trkpt lat="42.62378" lon="1.92843">
        <ele>2155.8935546875</ele>
        <time>2013-08-20T10:28:53Z</time>
      </trkpt>
      <trkpt lat="42.62381" lon="1.92843">
        <ele>2157.3359375</ele>
        <time>2013-08-20T10:28:58Z</time>
      </trkpt>
      <trkpt lat="42.62384" lon="1.92841">
        <ele>2158.2971191406</ele>
        <time>2013-08-20T10:29:04Z</time>
      </trkpt>
      <trkpt lat="42.62387" lon="1.9284">
        <ele>2159.2585449219</ele>
        <time>2013-08-20T10:29:12Z</time>
      </trkpt>
      <trkpt lat="42.6239" lon="1.92842">
        <ele>2160.2197265625</ele>
        <time>2013-08-20T10:29:17Z</time>
      </trkpt>
      <trkpt lat="42.62394" lon="1.92846">
        <ele>2161.6618652344</ele>
        <time>2013-08-20T10:29:24Z</time>
      </trkpt>
      <trkpt lat="42.62397" lon="1.92844">
        <ele>2162.1423339844</ele>
        <time>2013-08-20T10:29:30Z</time>
      </trkpt>
      <trkpt lat="42.62396" lon="1.92849">
        <ele>2163.1037597656</ele>
        <time>2013-08-20T10:29:36Z</time>
      </trkpt>
      <trkpt lat="42.62398" lon="1.92852">
        <ele>2165.5070800781</ele>
        <time>2013-08-20T10:29:43Z</time>
      </trkpt>
      <trkpt lat="42.624" lon="1.92855">
        <ele>2166.4682617188</ele>
        <time>2013-08-20T10:29:49Z</time>
      </trkpt>
      <trkpt lat="42.62401" lon="1.92857">
        <ele>2167.91015625</ele>
        <time>2013-08-20T10:29:55Z</time>
      </trkpt>
      <trkpt lat="42.62402" lon="1.9286">
        <ele>2169.3522949219</ele>
        <time>2013-08-20T10:30:01Z</time>
      </trkpt>
      <trkpt lat="42.62403" lon="1.92864">
        <ele>2170.3134765625</ele>
        <time>2013-08-20T10:30:07Z</time>
      </trkpt>
      <trkpt lat="42.62405" lon="1.92866">
        <ele>2171.2746582031</ele>
        <time>2013-08-20T10:30:13Z</time>
      </trkpt>
      <trkpt lat="42.62407" lon="1.9287">
        <ele>2172.236328125</ele>
        <time>2013-08-20T10:30:19Z</time>
      </trkpt>
      <trkpt lat="42.6241" lon="1.92875">
        <ele>2172.7170410156</ele>
        <time>2013-08-20T10:30:26Z</time>
      </trkpt>
      <trkpt lat="42.62411" lon="1.92878">
        <ele>2172.236328125</ele>
        <time>2013-08-20T10:30:31Z</time>
      </trkpt>
      <trkpt lat="42.62411" lon="1.9288">
        <ele>2173.1977539062</ele>
        <time>2013-08-20T10:30:36Z</time>
      </trkpt>
      <trkpt lat="42.62411" lon="1.92883">
        <ele>2174.6396484375</ele>
        <time>2013-08-20T10:30:43Z</time>
      </trkpt>
      <trkpt lat="42.62413" lon="1.92884">
        <ele>2176.5622558594</ele>
        <time>2013-08-20T10:30:52Z</time>
      </trkpt>
      <trkpt lat="42.62415" lon="1.92886">
        <ele>2178.0041503906</ele>
        <time>2013-08-20T10:30:59Z</time>
      </trkpt>
      <trkpt lat="42.62419" lon="1.92884">
        <ele>2179.9267578125</ele>
        <time>2013-08-20T10:31:09Z</time>
      </trkpt>
      <trkpt lat="42.62422" lon="1.92884">
        <ele>2179.9267578125</ele>
        <time>2013-08-20T10:31:15Z</time>
      </trkpt>
      <trkpt lat="42.62424" lon="1.92882">
        <ele>2181.8493652344</ele>
        <time>2013-08-20T10:31:21Z</time>
      </trkpt>
      <trkpt lat="42.62427" lon="1.92879">
        <ele>2182.810546875</ele>
        <time>2013-08-20T10:31:26Z</time>
      </trkpt>
      <trkpt lat="42.62431" lon="1.92877">
        <ele>2183.7719726562</ele>
        <time>2013-08-20T10:31:32Z</time>
      </trkpt>
      <trkpt lat="42.62432" lon="1.92878">
        <ele>2184.2526855469</ele>
        <time>2013-08-20T10:31:38Z</time>
      </trkpt>
      <trkpt lat="42.62435" lon="1.9288">
        <ele>2185.6945800781</ele>
        <time>2013-08-20T10:31:45Z</time>
      </trkpt>
      <trkpt lat="42.62437" lon="1.92881">
        <ele>2186.1752929688</ele>
        <time>2013-08-20T10:31:50Z</time>
      </trkpt>
      <trkpt lat="42.6244" lon="1.92881">
        <ele>2189.0593261719</ele>
        <time>2013-08-20T10:31:59Z</time>
      </trkpt>
      <trkpt lat="42.62441" lon="1.92882">
        <ele>2190.5012207031</ele>
        <time>2013-08-20T10:32:04Z</time>
      </trkpt>
      <trkpt lat="42.62442" lon="1.9288">
        <ele>2191.943359375</ele>
        <time>2013-08-20T10:32:09Z</time>
      </trkpt>
      <trkpt lat="42.62445" lon="1.92875">
        <ele>2194.3464355469</ele>
        <time>2013-08-20T10:32:16Z</time>
      </trkpt>
      <trkpt lat="42.6245" lon="1.92871">
        <ele>2195.3078613281</ele>
        <time>2013-08-20T10:32:23Z</time>
      </trkpt>
      <trkpt lat="42.62452" lon="1.92868">
        <ele>2195.7885742188</ele>
        <time>2013-08-20T10:32:29Z</time>
      </trkpt>
      <trkpt lat="42.62455" lon="1.92864">
        <ele>2196.7497558594</ele>
        <time>2013-08-20T10:32:35Z</time>
      </trkpt>
      <trkpt lat="42.62459" lon="1.92861">
        <ele>2199.6337890625</ele>
        <time>2013-08-20T10:32:43Z</time>
      </trkpt>
      <trkpt lat="42.62461" lon="1.92861">
        <ele>2200.1145019531</ele>
        <time>2013-08-20T10:32:48Z</time>
      </trkpt>
      <trkpt lat="42.62464" lon="1.92861">
        <ele>2202.0368652344</ele>
        <time>2013-08-20T10:32:56Z</time>
      </trkpt>
      <trkpt lat="42.62468" lon="1.92857">
        <ele>2203.4790039062</ele>
        <time>2013-08-20T10:33:04Z</time>
      </trkpt>
      <trkpt lat="42.62471" lon="1.92855">
        <ele>2203.9597167969</ele>
        <time>2013-08-20T10:33:09Z</time>
      </trkpt>
      <trkpt lat="42.62474" lon="1.92856">
        <ele>2204.4404296875</ele>
        <time>2013-08-20T10:33:16Z</time>
      </trkpt>
      <trkpt lat="42.62475" lon="1.92859">
        <ele>2204.9211425781</ele>
        <time>2013-08-20T10:33:22Z</time>
      </trkpt>
      <trkpt lat="42.62477" lon="1.9286">
        <ele>2205.8823242188</ele>
        <time>2013-08-20T10:33:29Z</time>
      </trkpt>
      <trkpt lat="42.62477" lon="1.92858">
        <ele>2206.84375</ele>
        <time>2013-08-20T10:33:34Z</time>
      </trkpt>
      <trkpt lat="42.62479" lon="1.92858">
        <ele>2207.8051757812</ele>
        <time>2013-08-20T10:33:39Z</time>
      </trkpt>
      <trkpt lat="42.62481" lon="1.92857">
        <ele>2208.7663574219</ele>
        <time>2013-08-20T10:33:45Z</time>
      </trkpt>
      <trkpt lat="42.62482" lon="1.92858">
        <ele>2210.2082519531</ele>
        <time>2013-08-20T10:33:51Z</time>
      </trkpt>
      <trkpt lat="42.62485" lon="1.92858">
        <ele>2211.650390625</ele>
        <time>2013-08-20T10:33:57Z</time>
      </trkpt>
      <trkpt lat="42.62487" lon="1.92861">
        <ele>2212.6115722656</ele>
        <time>2013-08-20T10:34:03Z</time>
      </trkpt>
      <trkpt lat="42.62488" lon="1.92864">
        <ele>2213.0922851562</ele>
        <time>2013-08-20T10:34:10Z</time>
      </trkpt>
      <trkpt lat="42.62491" lon="1.92862">
        <ele>2213.5727539062</ele>
        <time>2013-08-20T10:34:16Z</time>
      </trkpt>
      <trkpt lat="42.62493" lon="1.92862">
        <ele>2214.5341796875</ele>
        <time>2013-08-20T10:34:22Z</time>
      </trkpt>
      <trkpt lat="42.62495" lon="1.92861">
        <ele>2215.9760742188</ele>
        <time>2013-08-20T10:34:27Z</time>
      </trkpt>
      <trkpt lat="42.62498" lon="1.92857">
        <ele>2216.4567871094</ele>
        <time>2013-08-20T10:34:34Z</time>
      </trkpt>
      <trkpt lat="42.625" lon="1.9286">
        <ele>2216.4567871094</ele>
        <time>2013-08-20T10:34:40Z</time>
      </trkpt>
      <trkpt lat="42.62501" lon="1.92863">
        <ele>2217.8986816406</ele>
        <time>2013-08-20T10:34:47Z</time>
      </trkpt>
      <trkpt lat="42.62502" lon="1.92866">
        <ele>2218.8601074219</ele>
        <time>2013-08-20T10:34:51Z</time>
      </trkpt>
      <trkpt lat="42.62503" lon="1.92867">
        <ele>2219.8212890625</ele>
        <time>2013-08-20T10:34:57Z</time>
      </trkpt>
      <trkpt lat="42.62506" lon="1.92866">
        <ele>2220.7829589844</ele>
        <time>2013-08-20T10:35:06Z</time>
      </trkpt>
      <trkpt lat="42.62508" lon="1.92865">
        <ele>2221.2634277344</ele>
        <time>2013-08-20T10:35:10Z</time>
      </trkpt>
      <trkpt lat="42.6251" lon="1.92859">
        <ele>2221.744140625</ele>
        <time>2013-08-20T10:35:17Z</time>
      </trkpt>
      <trkpt lat="42.62511" lon="1.92854">
        <ele>2222.7055664062</ele>
        <time>2013-08-20T10:35:23Z</time>
      </trkpt>
      <trkpt lat="42.62514" lon="1.92851">
        <ele>2223.6667480469</ele>
        <time>2013-08-20T10:35:29Z</time>
      </trkpt>
      <trkpt lat="42.62518" lon="1.92849">
        <ele>2225.1086425781</ele>
        <time>2013-08-20T10:35:36Z</time>
      </trkpt>
      <trkpt lat="42.6252" lon="1.92849">
        <ele>2227.0314941406</ele>
        <time>2013-08-20T10:35:44Z</time>
      </trkpt>
      <trkpt lat="42.62522" lon="1.92848">
        <ele>2227.0314941406</ele>
        <time>2013-08-20T10:36:03Z</time>
      </trkpt>
      <trkpt lat="42.62524" lon="1.9285">
        <ele>2228.4733886719</ele>
        <time>2013-08-20T10:36:17Z</time>
      </trkpt>
      <trkpt lat="42.62526" lon="1.92851">
        <ele>2229.4345703125</ele>
        <time>2013-08-20T10:36:22Z</time>
      </trkpt>
      <trkpt lat="42.62526" lon="1.92855">
        <ele>2230.3959960938</ele>
        <time>2013-08-20T10:36:29Z</time>
      </trkpt>
      <trkpt lat="42.62528" lon="1.92857">
        <ele>2231.837890625</ele>
        <time>2013-08-20T10:36:36Z</time>
      </trkpt>
      <trkpt lat="42.6253" lon="1.92857">
        <ele>2233.2797851562</ele>
        <time>2013-08-20T10:36:42Z</time>
      </trkpt>
      <trkpt lat="42.62532" lon="1.92858">
        <ele>2234.2412109375</ele>
        <time>2013-08-20T10:36:49Z</time>
      </trkpt>
      <trkpt lat="42.62532" lon="1.9286">
        <ele>2235.2023925781</ele>
        <time>2013-08-20T10:36:56Z</time>
      </trkpt>
      <trkpt lat="42.62534" lon="1.92861">
        <ele>2236.64453125</ele>
        <time>2013-08-20T10:37:02Z</time>
      </trkpt>
      <trkpt lat="42.62536" lon="1.92861">
        <ele>2237.6059570312</ele>
        <time>2013-08-20T10:37:07Z</time>
      </trkpt>
      <trkpt lat="42.62538" lon="1.92862">
        <ele>2238.0866699219</ele>
        <time>2013-08-20T10:37:13Z</time>
      </trkpt>
      <trkpt lat="42.6254" lon="1.92865">
        <ele>2239.5285644531</ele>
        <time>2013-08-20T10:37:19Z</time>
      </trkpt>
      <trkpt lat="42.62542" lon="1.92866">
        <ele>2240.0092773438</ele>
        <time>2013-08-20T10:37:25Z</time>
      </trkpt>
      <trkpt lat="42.62543" lon="1.92868">
        <ele>2240.9704589844</ele>
        <time>2013-08-20T10:37:31Z</time>
      </trkpt>
      <trkpt lat="42.62545" lon="1.9287">
        <ele>2241.9318847656</ele>
        <time>2013-08-20T10:37:37Z</time>
      </trkpt>
      <trkpt lat="42.62545" lon="1.92871">
        <ele>2243.3737792969</ele>
        <time>2013-08-20T10:37:45Z</time>
      </trkpt>
      <trkpt lat="42.62545" lon="1.92872">
        <ele>2242.8930664062</ele>
        <time>2013-08-20T10:37:52Z</time>
      </trkpt>
      <trkpt lat="42.62548" lon="1.92871">
        <ele>2244.3349609375</ele>
        <time>2013-08-20T10:38:01Z</time>
      </trkpt>
      <trkpt lat="42.6255" lon="1.92872">
        <ele>2245.7770996094</ele>
        <time>2013-08-20T10:38:06Z</time>
      </trkpt>
      <trkpt lat="42.62551" lon="1.92873">
        <ele>2246.73828125</ele>
        <time>2013-08-20T10:38:12Z</time>
      </trkpt>
      <trkpt lat="42.62554" lon="1.92873">
        <ele>2249.6223144531</ele>
        <time>2013-08-20T10:38:19Z</time>
      </trkpt>
      <trkpt lat="42.62557" lon="1.92873">
        <ele>2251.0642089844</ele>
        <time>2013-08-20T10:38:25Z</time>
      </trkpt>
      <trkpt lat="42.62559" lon="1.92871">
        <ele>2252.5063476562</ele>
        <time>2013-08-20T10:38:30Z</time>
      </trkpt>
      <trkpt lat="42.62562" lon="1.92871">
        <ele>2254.4289550781</ele>
        <time>2013-08-20T10:38:36Z</time>
      </trkpt>
      <trkpt lat="42.62564" lon="1.92872">
        <ele>2254.9096679688</ele>
        <time>2013-08-20T10:38:40Z</time>
      </trkpt>
      <trkpt lat="42.62568" lon="1.92873">
        <ele>2254.9096679688</ele>
        <time>2013-08-20T10:38:46Z</time>
      </trkpt>
      <trkpt lat="42.62571" lon="1.92873">
        <ele>2255.8708496094</ele>
        <time>2013-08-20T10:38:53Z</time>
      </trkpt>
      <trkpt lat="42.62574" lon="1.92874">
        <ele>2256.8322753906</ele>
        <time>2013-08-20T10:39:00Z</time>
      </trkpt>
      <trkpt lat="42.62578" lon="1.92875">
        <ele>2256.8322753906</ele>
        <time>2013-08-20T10:39:07Z</time>
      </trkpt>
      <trkpt lat="42.62583" lon="1.9287">
        <ele>2256.8322753906</ele>
        <time>2013-08-20T10:39:15Z</time>
      </trkpt>
      <trkpt lat="42.62586" lon="1.92862">
        <ele>2257.3129882812</ele>
        <time>2013-08-20T10:39:22Z</time>
      </trkpt>
      <trkpt lat="42.62589" lon="1.92863">
        <ele>2257.3129882812</ele>
        <time>2013-08-20T10:39:26Z</time>
      </trkpt>
      <trkpt lat="42.62593" lon="1.92864">
        <ele>2259.2355957031</ele>
        <time>2013-08-20T10:39:33Z</time>
      </trkpt>
      <trkpt lat="42.62597" lon="1.92865">
        <ele>2259.7160644531</ele>
        <time>2013-08-20T10:39:39Z</time>
      </trkpt>
      <trkpt lat="42.62599" lon="1.92866">
        <ele>2260.6774902344</ele>
        <time>2013-08-20T10:39:44Z</time>
      </trkpt>
      <trkpt lat="42.62602" lon="1.92865">
        <ele>2261.158203125</ele>
        <time>2013-08-20T10:39:49Z</time>
      </trkpt>
      <trkpt lat="42.62607" lon="1.92865">
        <ele>2261.158203125</ele>
        <time>2013-08-20T10:39:55Z</time>
      </trkpt>
      <trkpt lat="42.62613" lon="1.92867">
        <ele>2261.6389160156</ele>
        <time>2013-08-20T10:40:02Z</time>
      </trkpt>
      <trkpt lat="42.62617" lon="1.92864">
        <ele>2262.6000976562</ele>
        <time>2013-08-20T10:40:08Z</time>
      </trkpt>
      <trkpt lat="42.6262" lon="1.9286">
        <ele>2263.5612792969</ele>
        <time>2013-08-20T10:40:14Z</time>
      </trkpt>
      <trkpt lat="42.62623" lon="1.92859">
        <ele>2264.5227050781</ele>
        <time>2013-08-20T10:40:20Z</time>
      </trkpt>
      <trkpt lat="42.62624" lon="1.92855">
        <ele>2265.4841308594</ele>
        <time>2013-08-20T10:40:25Z</time>
      </trkpt>
      <trkpt lat="42.62626" lon="1.92852">
        <ele>2266.4453125</ele>
        <time>2013-08-20T10:40:31Z</time>
      </trkpt>
      <trkpt lat="42.62631" lon="1.92852">
        <ele>2267.4064941406</ele>
        <time>2013-08-20T10:40:38Z</time>
      </trkpt>
      <trkpt lat="42.62634" lon="1.9285">
        <ele>2268.8488769531</ele>
        <time>2013-08-20T10:40:45Z</time>
      </trkpt>
      <trkpt lat="42.62637" lon="1.92848">
        <ele>2270.771484375</ele>
        <time>2013-08-20T10:40:50Z</time>
      </trkpt>
      <trkpt lat="42.6264" lon="1.92848">
        <ele>2271.7326660156</ele>
        <time>2013-08-20T10:40:55Z</time>
      </trkpt>
      <trkpt lat="42.6264" lon="1.92849">
        <ele>2271.251953125</ele>
        <time>2013-08-20T10:41:05Z</time>
      </trkpt>
      <trkpt lat="42.62643" lon="1.92854">
        <ele>2271.251953125</ele>
        <time>2013-08-20T10:41:19Z</time>
      </trkpt>
      <trkpt lat="42.62645" lon="1.92857">
        <ele>2271.251953125</ele>
        <time>2013-08-20T10:41:25Z</time>
      </trkpt>
      <trkpt lat="42.62648" lon="1.92857">
        <ele>2272.2133789062</ele>
        <time>2013-08-20T10:41:31Z</time>
      </trkpt>
      <trkpt lat="42.62651" lon="1.9286">
        <ele>2273.6552734375</ele>
        <time>2013-08-20T10:41:37Z</time>
      </trkpt>
      <trkpt lat="42.62653" lon="1.92857">
        <ele>2275.0971679688</ele>
        <time>2013-08-20T10:41:44Z</time>
      </trkpt>
      <trkpt lat="42.62656" lon="1.92859">
        <ele>2275.5778808594</ele>
        <time>2013-08-20T10:41:50Z</time>
      </trkpt>
      <trkpt lat="42.62658" lon="1.92859">
        <ele>2276.5393066406</ele>
        <time>2013-08-20T10:41:55Z</time>
      </trkpt>
      <trkpt lat="42.62659" lon="1.92856">
        <ele>2278.9423828125</ele>
        <time>2013-08-20T10:42:01Z</time>
      </trkpt>
      <trkpt lat="42.62662" lon="1.92856">
        <ele>2280.3845214844</ele>
        <time>2013-08-20T10:42:08Z</time>
      </trkpt>
      <trkpt lat="42.62664" lon="1.92858">
        <ele>2280.865234375</ele>
        <time>2013-08-20T10:42:15Z</time>
      </trkpt>
      <trkpt lat="42.62667" lon="1.92858">
        <ele>2283.2683105469</ele>
        <time>2013-08-20T10:42:21Z</time>
      </trkpt>
      <trkpt lat="42.62668" lon="1.92858">
        <ele>2284.7106933594</ele>
        <time>2013-08-20T10:42:27Z</time>
      </trkpt>
      <trkpt lat="42.62667" lon="1.92854">
        <ele>2286.1525878906</ele>
        <time>2013-08-20T10:42:32Z</time>
      </trkpt>
      <trkpt lat="42.62668" lon="1.92851">
        <ele>2287.1137695312</ele>
        <time>2013-08-20T10:42:39Z</time>
      </trkpt>
      <trkpt lat="42.62669" lon="1.92847">
        <ele>2289.0363769531</ele>
        <time>2013-08-20T10:42:46Z</time>
      </trkpt>
      <trkpt lat="42.62673" lon="1.92848">
        <ele>2289.9978027344</ele>
        <time>2013-08-20T10:42:53Z</time>
      </trkpt>
      <trkpt lat="42.62675" lon="1.92849">
        <ele>2289.9978027344</ele>
        <time>2013-08-20T10:42:58Z</time>
      </trkpt>
      <trkpt lat="42.62677" lon="1.9285">
        <ele>2291.4396972656</ele>
        <time>2013-08-20T10:43:04Z</time>
      </trkpt>
      <trkpt lat="42.62678" lon="1.92847">
        <ele>2292.4011230469</ele>
        <time>2013-08-20T10:43:10Z</time>
      </trkpt>
      <trkpt lat="42.62679" lon="1.92846">
        <ele>2292.8815917969</ele>
        <time>2013-08-20T10:43:16Z</time>
      </trkpt>
      <trkpt lat="42.6268" lon="1.92845">
        <ele>2293.3623046875</ele>
        <time>2013-08-20T10:43:24Z</time>
      </trkpt>
      <trkpt lat="42.62681" lon="1.92843">
        <ele>2294.3234863281</ele>
        <time>2013-08-20T10:43:30Z</time>
      </trkpt>
      <trkpt lat="42.6268" lon="1.9284">
        <ele>2294.8041992188</ele>
        <time>2013-08-20T10:43:35Z</time>
      </trkpt>
      <trkpt lat="42.6268" lon="1.92836">
        <ele>2295.765625</ele>
        <time>2013-08-20T10:43:40Z</time>
      </trkpt>
      <trkpt lat="42.62682" lon="1.92837">
        <ele>2295.765625</ele>
        <time>2013-08-20T10:43:45Z</time>
      </trkpt>
      <trkpt lat="42.62685" lon="1.92838">
        <ele>2297.6882324219</ele>
        <time>2013-08-20T10:43:51Z</time>
      </trkpt>
      <trkpt lat="42.62687" lon="1.92837">
        <ele>2299.1301269531</ele>
        <time>2013-08-20T10:43:57Z</time>
      </trkpt>
      <trkpt lat="42.62687" lon="1.92833">
        <ele>2300.091796875</ele>
        <time>2013-08-20T10:44:03Z</time>
      </trkpt>
      <trkpt lat="42.62687" lon="1.92831">
        <ele>2302.0141601562</ele>
        <time>2013-08-20T10:44:09Z</time>
      </trkpt>
      <trkpt lat="42.62687" lon="1.92828">
        <ele>2302.9755859375</ele>
        <time>2013-08-20T10:44:14Z</time>
      </trkpt>
      <trkpt lat="42.62686" lon="1.92823">
        <ele>2303.9370117188</ele>
        <time>2013-08-20T10:44:20Z</time>
      </trkpt>
      <trkpt lat="42.62686" lon="1.9282">
        <ele>2305.37890625</ele>
        <time>2013-08-20T10:44:24Z</time>
      </trkpt>
      <trkpt lat="42.62685" lon="1.92816">
        <ele>2307.7822265625</ele>
        <time>2013-08-20T10:44:31Z</time>
      </trkpt>
      <trkpt lat="42.62685" lon="1.92814">
        <ele>2309.2241210938</ele>
        <time>2013-08-20T10:44:36Z</time>
      </trkpt>
      <trkpt lat="42.62686" lon="1.92811">
        <ele>2310.666015625</ele>
        <time>2013-08-20T10:44:41Z</time>
      </trkpt>
      <trkpt lat="42.62685" lon="1.92808">
        <ele>2311.6274414062</ele>
        <time>2013-08-20T10:44:46Z</time>
      </trkpt>
      <trkpt lat="42.62686" lon="1.92806">
        <ele>2311.1467285156</ele>
        <time>2013-08-20T10:44:51Z</time>
      </trkpt>
      <trkpt lat="42.62687" lon="1.92805">
        <ele>2311.6274414062</ele>
        <time>2013-08-20T10:44:59Z</time>
      </trkpt>
      <trkpt lat="42.62688" lon="1.92803">
        <ele>2312.5886230469</ele>
        <time>2013-08-20T10:45:05Z</time>
      </trkpt>
      <trkpt lat="42.62691" lon="1.92805">
        <ele>2313.5498046875</ele>
        <time>2013-08-20T10:45:11Z</time>
      </trkpt>
      <trkpt lat="42.62694" lon="1.92805">
        <ele>2314.5112304688</ele>
        <time>2013-08-20T10:45:16Z</time>
      </trkpt>
      <trkpt lat="42.62696" lon="1.92805">
        <ele>2315.953125</ele>
        <time>2013-08-20T10:45:23Z</time>
      </trkpt>
      <trkpt lat="42.62698" lon="1.92804">
        <ele>2317.3952636719</ele>
        <time>2013-08-20T10:45:30Z</time>
      </trkpt>
      <trkpt lat="42.62701" lon="1.92805">
        <ele>2319.3181152344</ele>
        <time>2013-08-20T10:45:36Z</time>
      </trkpt>
      <trkpt lat="42.62704" lon="1.92806">
        <ele>2320.279296875</ele>
        <time>2013-08-20T10:45:43Z</time>
      </trkpt>
      <trkpt lat="42.62705" lon="1.92806">
        <ele>2320.279296875</ele>
        <time>2013-08-20T10:45:47Z</time>
      </trkpt>
      <trkpt lat="42.62704" lon="1.92807">
        <ele>2321.7211914062</ele>
        <time>2013-08-20T10:45:51Z</time>
      </trkpt>
      <trkpt lat="42.62707" lon="1.92808">
        <ele>2323.1633300781</ele>
        <time>2013-08-20T10:45:56Z</time>
      </trkpt>
      <trkpt lat="42.62708" lon="1.92806">
        <ele>2324.1245117188</ele>
        <time>2013-08-20T10:46:01Z</time>
      </trkpt>
      <trkpt lat="42.62711" lon="1.92804">
        <ele>2325.56640625</ele>
        <time>2013-08-20T10:46:08Z</time>
      </trkpt>
      <trkpt lat="42.62713" lon="1.92804">
        <ele>2327.0085449219</ele>
        <time>2013-08-20T10:46:14Z</time>
      </trkpt>
      <trkpt lat="42.62716" lon="1.92804">
        <ele>2327.9697265625</ele>
        <time>2013-08-20T10:46:21Z</time>
      </trkpt>
      <trkpt lat="42.62716" lon="1.92802">
        <ele>2328.9309082031</ele>
        <time>2013-08-20T10:46:29Z</time>
      </trkpt>
      <trkpt lat="42.62717" lon="1.928">
        <ele>2329.4116210938</ele>
        <time>2013-08-20T10:46:35Z</time>
      </trkpt>
      <trkpt lat="42.62717" lon="1.92797">
        <ele>2329.8923339844</ele>
        <time>2013-08-20T10:46:39Z</time>
      </trkpt>
      <trkpt lat="42.62716" lon="1.92793">
        <ele>2331.3342285156</ele>
        <time>2013-08-20T10:46:45Z</time>
      </trkpt>
      <trkpt lat="42.62714" lon="1.92789">
        <ele>2332.2958984375</ele>
        <time>2013-08-20T10:46:50Z</time>
      </trkpt>
      <trkpt lat="42.62716" lon="1.92787">
        <ele>2333.2570800781</ele>
        <time>2013-08-20T10:46:56Z</time>
      </trkpt>
      <trkpt lat="42.62718" lon="1.92786">
        <ele>2334.2185058594</ele>
        <time>2013-08-20T10:47:02Z</time>
      </trkpt>
      <trkpt lat="42.6272" lon="1.92786">
        <ele>2335.6604003906</ele>
        <time>2013-08-20T10:47:08Z</time>
      </trkpt>
      <trkpt lat="42.62723" lon="1.92785">
        <ele>2336.6215820312</ele>
        <time>2013-08-20T10:47:14Z</time>
      </trkpt>
      <trkpt lat="42.62724" lon="1.92786">
        <ele>2337.5830078125</ele>
        <time>2013-08-20T10:47:19Z</time>
      </trkpt>
      <trkpt lat="42.62725" lon="1.92784">
        <ele>2334.69921875</ele>
        <time>2013-08-20T10:47:38Z</time>
      </trkpt>
      <trkpt lat="42.62725" lon="1.92784">
        <ele>2334.69921875</ele>
        <time>2013-08-20T10:47:48Z</time>
      </trkpt>
      <trkpt lat="42.62728" lon="1.92784">
        <ele>2335.6604003906</ele>
        <time>2013-08-20T10:47:59Z</time>
      </trkpt>
      <trkpt lat="42.62731" lon="1.92784">
        <ele>2337.1022949219</ele>
        <time>2013-08-20T10:48:05Z</time>
      </trkpt>
      <trkpt lat="42.62733" lon="1.92782">
        <ele>2339.0249023438</ele>
        <time>2013-08-20T10:48:11Z</time>
      </trkpt>
      <trkpt lat="42.62733" lon="1.92779">
        <ele>2341.4282226562</ele>
        <time>2013-08-20T10:48:18Z</time>
      </trkpt>
      <trkpt lat="42.62734" lon="1.92776">
        <ele>2342.8701171875</ele>
        <time>2013-08-20T10:48:24Z</time>
      </trkpt>
      <trkpt lat="42.62733" lon="1.92773">
        <ele>2344.3120117188</ele>
        <time>2013-08-20T10:48:29Z</time>
      </trkpt>
      <trkpt lat="42.62732" lon="1.92769">
        <ele>2345.2734375</ele>
        <time>2013-08-20T10:48:35Z</time>
      </trkpt>
      <trkpt lat="42.6273" lon="1.92768">
        <ele>2346.7153320312</ele>
        <time>2013-08-20T10:48:41Z</time>
      </trkpt>
      <trkpt lat="42.6273" lon="1.92765">
        <ele>2347.6767578125</ele>
        <time>2013-08-20T10:48:49Z</time>
      </trkpt>
      <trkpt lat="42.62729" lon="1.92763">
        <ele>2348.6381835938</ele>
        <time>2013-08-20T10:48:54Z</time>
      </trkpt>
      <trkpt lat="42.6273" lon="1.9276">
        <ele>2350.5607910156</ele>
        <time>2013-08-20T10:49:00Z</time>
      </trkpt>
      <trkpt lat="42.62729" lon="1.92757">
        <ele>2351.5222167969</ele>
        <time>2013-08-20T10:49:07Z</time>
      </trkpt>
      <trkpt lat="42.6273" lon="1.92755">
        <ele>2352.0026855469</ele>
        <time>2013-08-20T10:49:13Z</time>
      </trkpt>
      <trkpt lat="42.62731" lon="1.92753">
        <ele>2352.9641113281</ele>
        <time>2013-08-20T10:49:19Z</time>
      </trkpt>
      <trkpt lat="42.6273" lon="1.9275">
        <ele>2354.88671875</ele>
        <time>2013-08-20T10:49:25Z</time>
      </trkpt>
      <trkpt lat="42.62729" lon="1.92749">
        <ele>2355.8479003906</ele>
        <time>2013-08-20T10:49:30Z</time>
      </trkpt>
      <trkpt lat="42.62729" lon="1.92747">
        <ele>2356.3286132812</ele>
        <time>2013-08-20T10:49:38Z</time>
      </trkpt>
      <trkpt lat="42.62725" lon="1.92746">
        <ele>2356.8093261719</ele>
        <time>2013-08-20T10:49:57Z</time>
      </trkpt>
      <trkpt lat="42.62725" lon="1.92742">
        <ele>2357.7707519531</ele>
        <time>2013-08-20T10:50:02Z</time>
      </trkpt>
      <trkpt lat="42.62725" lon="1.92738">
        <ele>2358.2512207031</ele>
        <time>2013-08-20T10:50:10Z</time>
      </trkpt>
      <trkpt lat="42.62723" lon="1.92733">
        <ele>2359.6931152344</ele>
        <time>2013-08-20T10:50:16Z</time>
      </trkpt>
      <trkpt lat="42.62723" lon="1.92727">
        <ele>2360.173828125</ele>
        <time>2013-08-20T10:50:22Z</time>
      </trkpt>
      <trkpt lat="42.62723" lon="1.92723">
        <ele>2360.6545410156</ele>
        <time>2013-08-20T10:50:27Z</time>
      </trkpt>
      <trkpt lat="42.62724" lon="1.9272">
        <ele>2361.6159667969</ele>
        <time>2013-08-20T10:50:32Z</time>
      </trkpt>
      <trkpt lat="42.62722" lon="1.92718">
        <ele>2363.0578613281</ele>
        <time>2013-08-20T10:50:36Z</time>
      </trkpt>
      <trkpt lat="42.62721" lon="1.92714">
        <ele>2364.5</ele>
        <time>2013-08-20T10:50:42Z</time>
      </trkpt>
      <trkpt lat="42.6272" lon="1.92711">
        <ele>2364.9807128906</ele>
        <time>2013-08-20T10:50:47Z</time>
      </trkpt>
      <trkpt lat="42.6272" lon="1.92706">
        <ele>2366.4226074219</ele>
        <time>2013-08-20T10:50:52Z</time>
      </trkpt>
      <trkpt lat="42.62722" lon="1.92702">
        <ele>2367.3837890625</ele>
        <time>2013-08-20T10:50:57Z</time>
      </trkpt>
      <trkpt lat="42.62722" lon="1.927">
        <ele>2369.306640625</ele>
        <time>2013-08-20T10:51:03Z</time>
      </trkpt>
      <trkpt lat="42.62723" lon="1.92698">
        <ele>2369.787109375</ele>
        <time>2013-08-20T10:51:08Z</time>
      </trkpt>
      <trkpt lat="42.62724" lon="1.92695">
        <ele>2371.2290039062</ele>
        <time>2013-08-20T10:51:14Z</time>
      </trkpt>
      <trkpt lat="42.62725" lon="1.92691">
        <ele>2372.1904296875</ele>
        <time>2013-08-20T10:51:20Z</time>
      </trkpt>
      <trkpt lat="42.62725" lon="1.92688">
        <ele>2372.6711425781</ele>
        <time>2013-08-20T10:51:26Z</time>
      </trkpt>
      <trkpt lat="42.62726" lon="1.92685">
        <ele>2373.1518554688</ele>
        <time>2013-08-20T10:51:31Z</time>
      </trkpt>
      <trkpt lat="42.62727" lon="1.92683">
        <ele>2373.1518554688</ele>
        <time>2013-08-20T10:51:35Z</time>
      </trkpt>
      <trkpt lat="42.62728" lon="1.9268">
        <ele>2374.1130371094</ele>
        <time>2013-08-20T10:51:42Z</time>
      </trkpt>
      <trkpt lat="42.62726" lon="1.92677">
        <ele>2374.1130371094</ele>
        <time>2013-08-20T10:51:48Z</time>
      </trkpt>
      <trkpt lat="42.62727" lon="1.92674">
        <ele>2374.1130371094</ele>
        <time>2013-08-20T10:52:05Z</time>
      </trkpt>
      <trkpt lat="42.62728" lon="1.92669">
        <ele>2374.59375</ele>
        <time>2013-08-20T10:52:11Z</time>
      </trkpt>
      <trkpt lat="42.62727" lon="1.92663">
        <ele>2376.9970703125</ele>
        <time>2013-08-20T10:52:18Z</time>
      </trkpt>
      <trkpt lat="42.62727" lon="1.92657">
        <ele>2376.5163574219</ele>
        <time>2013-08-20T10:52:24Z</time>
      </trkpt>
      <trkpt lat="42.62727" lon="1.92649">
        <ele>2377.4775390625</ele>
        <time>2013-08-20T10:52:30Z</time>
      </trkpt>
      <trkpt lat="42.62727" lon="1.92645">
        <ele>2378.4389648438</ele>
        <time>2013-08-20T10:52:35Z</time>
      </trkpt>
      <trkpt lat="42.62723" lon="1.92643">
        <ele>2382.7648925781</ele>
        <time>2013-08-20T10:52:42Z</time>
      </trkpt>
      <trkpt lat="42.62722" lon="1.92637">
        <ele>2385.1682128906</ele>
        <time>2013-08-20T10:52:49Z</time>
      </trkpt>
      <trkpt lat="42.62723" lon="1.92629">
        <ele>2388.0522460938</ele>
        <time>2013-08-20T10:52:57Z</time>
      </trkpt>
      <trkpt lat="42.62722" lon="1.92623">
        <ele>2389.494140625</ele>
        <time>2013-08-20T10:53:05Z</time>
      </trkpt>
      <trkpt lat="42.62723" lon="1.92618">
        <ele>2390.4553222656</ele>
        <time>2013-08-20T10:53:10Z</time>
      </trkpt>
      <trkpt lat="42.62723" lon="1.92616">
        <ele>2391.4167480469</ele>
        <time>2013-08-20T10:53:16Z</time>
      </trkpt>
      <trkpt lat="42.62723" lon="1.92615">
        <ele>2391.8974609375</ele>
        <time>2013-08-20T10:53:32Z</time>
      </trkpt>
      <trkpt lat="42.62723" lon="1.92612">
        <ele>2391.8974609375</ele>
        <time>2013-08-20T10:53:37Z</time>
      </trkpt>
      <trkpt lat="42.62725" lon="1.9261">
        <ele>2389.0134277344</ele>
        <time>2013-08-20T10:54:00Z</time>
      </trkpt>
      <trkpt lat="42.62725" lon="1.9261">
        <ele>2389.494140625</ele>
        <time>2013-08-20T10:54:01Z</time>
      </trkpt>
      <trkpt lat="42.62724" lon="1.92607">
        <ele>2389.0134277344</ele>
        <time>2013-08-20T10:54:09Z</time>
      </trkpt>
      <trkpt lat="42.62726" lon="1.92604">
        <ele>2388.0522460938</ele>
        <time>2013-08-20T10:54:17Z</time>
      </trkpt>
      <trkpt lat="42.62727" lon="1.92602">
        <ele>2387.5715332031</ele>
        <time>2013-08-20T10:54:24Z</time>
      </trkpt>
      <trkpt lat="42.62726" lon="1.926">
        <ele>2386.6101074219</ele>
        <time>2013-08-20T10:54:30Z</time>
      </trkpt>
      <trkpt lat="42.62726" lon="1.92598">
        <ele>2386.6101074219</ele>
        <time>2013-08-20T10:54:34Z</time>
      </trkpt>
      <trkpt lat="42.62726" lon="1.92596">
        <ele>2385.6489257812</ele>
        <time>2013-08-20T10:54:41Z</time>
      </trkpt>
      <trkpt lat="42.62725" lon="1.92593">
        <ele>2385.1682128906</ele>
        <time>2013-08-20T10:54:46Z</time>
      </trkpt>
      <trkpt lat="42.62727" lon="1.92592">
        <ele>2384.6877441406</ele>
        <time>2013-08-20T10:54:52Z</time>
      </trkpt>
      <trkpt lat="42.62726" lon="1.92589">
        <ele>2383.7263183594</ele>
        <time>2013-08-20T10:54:58Z</time>
      </trkpt>
      <trkpt lat="42.62728" lon="1.92586">
        <ele>2383.2456054688</ele>
        <time>2013-08-20T10:55:05Z</time>
      </trkpt>
      <trkpt lat="42.6273" lon="1.92582">
        <ele>2381.8037109375</ele>
        <time>2013-08-20T10:55:13Z</time>
      </trkpt>
      <trkpt lat="42.62732" lon="1.92582">
        <ele>2381.3229980469</ele>
        <time>2013-08-20T10:55:19Z</time>
      </trkpt>
      <trkpt lat="42.62729" lon="1.92584">
        <ele>2382.2844238281</ele>
        <time>2013-08-20T10:55:51Z</time>
      </trkpt>
      <trkpt lat="42.62724" lon="1.92586">
        <ele>2382.7648925781</ele>
        <time>2013-08-20T10:55:57Z</time>
      </trkpt>
      <trkpt lat="42.62722" lon="1.92585">
        <ele>2381.8037109375</ele>
        <time>2013-08-20T10:56:01Z</time>
      </trkpt>
      <trkpt lat="42.62717" lon="1.92585">
        <ele>2379.880859375</ele>
        <time>2013-08-20T10:56:09Z</time>
      </trkpt>
      <trkpt lat="42.62717" lon="1.92582">
        <ele>2377.9582519531</ele>
        <time>2013-08-20T10:56:14Z</time>
      </trkpt>
      <trkpt lat="42.62713" lon="1.9258">
        <ele>2376.5163574219</ele>
        <time>2013-08-20T10:56:19Z</time>
      </trkpt>
      <trkpt lat="42.62711" lon="1.92577">
        <ele>2375.5549316406</ele>
        <time>2013-08-20T10:56:23Z</time>
      </trkpt>
      <trkpt lat="42.62707" lon="1.92573">
        <ele>2374.59375</ele>
        <time>2013-08-20T10:56:29Z</time>
      </trkpt>
      <trkpt lat="42.62712" lon="1.9257">
        <ele>2368.8259277344</ele>
        <time>2013-08-20T10:56:43Z</time>
      </trkpt>
      <trkpt lat="42.6271" lon="1.92565">
        <ele>2364.0192871094</ele>
        <time>2013-08-20T10:56:56Z</time>
      </trkpt>
      <trkpt lat="42.62709" lon="1.92561">
        <ele>2362.0964355469</ele>
        <time>2013-08-20T10:57:00Z</time>
      </trkpt>
      <trkpt lat="42.62706" lon="1.92559">
        <ele>2362.5771484375</ele>
        <time>2013-08-20T10:57:04Z</time>
      </trkpt>
      <trkpt lat="42.62703" lon="1.92556">
        <ele>2361.1352539062</ele>
        <time>2013-08-20T10:57:11Z</time>
      </trkpt>
      <trkpt lat="42.62699" lon="1.92555">
        <ele>2360.6545410156</ele>
        <time>2013-08-20T10:57:17Z</time>
      </trkpt>
      <trkpt lat="42.62697" lon="1.92551">
        <ele>2360.6545410156</ele>
        <time>2013-08-20T10:57:25Z</time>
      </trkpt>
      <trkpt lat="42.62697" lon="1.92547">
        <ele>2359.6931152344</ele>
        <time>2013-08-20T10:57:32Z</time>
      </trkpt>
      <trkpt lat="42.62696" lon="1.92544">
        <ele>2359.6931152344</ele>
        <time>2013-08-20T10:57:37Z</time>
      </trkpt>
      <trkpt lat="42.62696" lon="1.92542">
        <ele>2356.8093261719</ele>
        <time>2013-08-20T10:57:42Z</time>
      </trkpt>
      <trkpt lat="42.627" lon="1.9254">
        <ele>2351.0415039062</ele>
        <time>2013-08-20T10:58:14Z</time>
      </trkpt>
      <trkpt lat="42.62705" lon="1.92537">
        <ele>2348.1574707031</ele>
        <time>2013-08-20T10:58:35Z</time>
      </trkpt>
      <trkpt lat="42.62714" lon="1.92541">
        <ele>2346.7153320312</ele>
        <time>2013-08-20T10:58:59Z</time>
      </trkpt>
      <trkpt lat="42.62717" lon="1.92542">
        <ele>2345.7541503906</ele>
        <time>2013-08-20T10:59:03Z</time>
      </trkpt>
      <trkpt lat="42.62728" lon="1.92545">
        <ele>2340.466796875</ele>
        <time>2013-08-20T10:59:32Z</time>
      </trkpt>
      <trkpt lat="42.62733" lon="1.92548">
        <ele>2339.0249023438</ele>
        <time>2013-08-20T10:59:38Z</time>
      </trkpt>
      <trkpt lat="42.62738" lon="1.92552">
        <ele>2336.1411132812</ele>
        <time>2013-08-20T10:59:45Z</time>
      </trkpt>
      <trkpt lat="42.62742" lon="1.92552">
        <ele>2334.2185058594</ele>
        <time>2013-08-20T10:59:50Z</time>
      </trkpt>
      <trkpt lat="42.62745" lon="1.92553">
        <ele>2333.2570800781</ele>
        <time>2013-08-20T10:59:54Z</time>
      </trkpt>
      <trkpt lat="42.62751" lon="1.92556">
        <ele>2331.8149414062</ele>
        <time>2013-08-20T10:59:58Z</time>
      </trkpt>
      <trkpt lat="42.62756" lon="1.92558">
        <ele>2330.8537597656</ele>
        <time>2013-08-20T11:00:04Z</time>
      </trkpt>
      <trkpt lat="42.62763" lon="1.92563">
        <ele>2329.8923339844</ele>
        <time>2013-08-20T11:00:11Z</time>
      </trkpt>
      <trkpt lat="42.62769" lon="1.92567">
        <ele>2329.8923339844</ele>
        <time>2013-08-20T11:00:17Z</time>
      </trkpt>
      <trkpt lat="42.62772" lon="1.9257">
        <ele>2330.373046875</ele>
        <time>2013-08-20T11:00:22Z</time>
      </trkpt>
      <trkpt lat="42.62778" lon="1.92573">
        <ele>2329.4116210938</ele>
        <time>2013-08-20T11:00:33Z</time>
      </trkpt>
      <trkpt lat="42.62781" lon="1.92574">
        <ele>2328.4504394531</ele>
        <time>2013-08-20T11:00:37Z</time>
      </trkpt>
      <trkpt lat="42.62785" lon="1.92576">
        <ele>2327.9697265625</ele>
        <time>2013-08-20T11:00:41Z</time>
      </trkpt>
      <trkpt lat="42.62789" lon="1.92579">
        <ele>2327.9697265625</ele>
        <time>2013-08-20T11:00:47Z</time>
      </trkpt>
      <trkpt lat="42.62792" lon="1.92581">
        <ele>2327.9697265625</ele>
        <time>2013-08-20T11:00:59Z</time>
      </trkpt>
      <trkpt lat="42.62797" lon="1.92582">
        <ele>2327.9697265625</ele>
        <time>2013-08-20T11:01:05Z</time>
      </trkpt>
      <trkpt lat="42.62803" lon="1.92585">
        <ele>2327.9697265625</ele>
        <time>2013-08-20T11:01:12Z</time>
      </trkpt>
      <trkpt lat="42.62811" lon="1.92586">
        <ele>2327.4890136719</ele>
        <time>2013-08-20T11:01:20Z</time>
      </trkpt>
      <trkpt lat="42.62813" lon="1.92588">
        <ele>2327.9697265625</ele>
        <time>2013-08-20T11:01:24Z</time>
      </trkpt>
      <trkpt lat="42.62816" lon="1.92588">
        <ele>2329.8923339844</ele>
        <time>2013-08-20T11:01:28Z</time>
      </trkpt>
      <trkpt lat="42.62821" lon="1.9259">
        <ele>2329.4116210938</ele>
        <time>2013-08-20T11:01:33Z</time>
      </trkpt>
      <trkpt lat="42.62829" lon="1.92592">
        <ele>2327.9697265625</ele>
        <time>2013-08-20T11:01:40Z</time>
      </trkpt>
      <trkpt lat="42.62835" lon="1.92593">
        <ele>2324.1245117188</ele>
        <time>2013-08-20T11:01:48Z</time>
      </trkpt>
      <trkpt lat="42.62844" lon="1.92595">
        <ele>2321.7211914062</ele>
        <time>2013-08-20T11:01:55Z</time>
      </trkpt>
      <trkpt lat="42.62849" lon="1.92596">
        <ele>2320.279296875</ele>
        <time>2013-08-20T11:02:01Z</time>
      </trkpt>
      <trkpt lat="42.62852" lon="1.92593">
        <ele>2319.3181152344</ele>
        <time>2013-08-20T11:02:06Z</time>
      </trkpt>
      <trkpt lat="42.62856" lon="1.92593">
        <ele>2318.3566894531</ele>
        <time>2013-08-20T11:02:12Z</time>
      </trkpt>
      <trkpt lat="42.62858" lon="1.92596">
        <ele>2316.9147949219</ele>
        <time>2013-08-20T11:02:17Z</time>
      </trkpt>
      <trkpt lat="42.62861" lon="1.92599">
        <ele>2315.953125</ele>
        <time>2013-08-20T11:02:21Z</time>
      </trkpt>
      <trkpt lat="42.62866" lon="1.92601">
        <ele>2315.47265625</ele>
        <time>2013-08-20T11:02:26Z</time>
      </trkpt>
      <trkpt lat="42.62868" lon="1.92601">
        <ele>2315.47265625</ele>
        <time>2013-08-20T11:02:28Z</time>
      </trkpt>
      <trkpt lat="42.62873" lon="1.926">
        <ele>2316.9147949219</ele>
        <time>2013-08-20T11:02:32Z</time>
      </trkpt>
      <trkpt lat="42.62877" lon="1.92601">
        <ele>2316.9147949219</ele>
        <time>2013-08-20T11:02:38Z</time>
      </trkpt>
      <trkpt lat="42.6288" lon="1.92603">
        <ele>2315.47265625</ele>
        <time>2013-08-20T11:02:44Z</time>
      </trkpt>
      <trkpt lat="42.62883" lon="1.92604">
        <ele>2314.5112304688</ele>
        <time>2013-08-20T11:02:51Z</time>
      </trkpt>
      <trkpt lat="42.62886" lon="1.92604">
        <ele>2313.0693359375</ele>
        <time>2013-08-20T11:02:57Z</time>
      </trkpt>
      <trkpt lat="42.62888" lon="1.92601">
        <ele>2313.5498046875</ele>
        <time>2013-08-20T11:03:02Z</time>
      </trkpt>
      <trkpt lat="42.62891" lon="1.92599">
        <ele>2313.0693359375</ele>
        <time>2013-08-20T11:03:06Z</time>
      </trkpt>
      <trkpt lat="42.62893" lon="1.92587">
        <ele>2308.2626953125</ele>
        <time>2013-08-20T11:03:32Z</time>
      </trkpt>
      <trkpt lat="42.62895" lon="1.92583">
        <ele>2306.3400878906</ele>
        <time>2013-08-20T11:03:39Z</time>
      </trkpt>
      <trkpt lat="42.62894" lon="1.9258">
        <ele>2303.9370117188</ele>
        <time>2013-08-20T11:03:47Z</time>
      </trkpt>
      <trkpt lat="42.62894" lon="1.92576">
        <ele>2302.4948730469</ele>
        <time>2013-08-20T11:03:52Z</time>
      </trkpt>
      <trkpt lat="42.629" lon="1.92576">
        <ele>2300.572265625</ele>
        <time>2013-08-20T11:03:58Z</time>
      </trkpt>
      <trkpt lat="42.62903" lon="1.92577">
        <ele>2299.1301269531</ele>
        <time>2013-08-20T11:04:03Z</time>
      </trkpt>
      <trkpt lat="42.62906" lon="1.92576">
        <ele>2297.6882324219</ele>
        <time>2013-08-20T11:04:07Z</time>
      </trkpt>
      <trkpt lat="42.62911" lon="1.92576">
        <ele>2296.2463378906</ele>
        <time>2013-08-20T11:04:11Z</time>
      </trkpt>
      <trkpt lat="42.62917" lon="1.92579">
        <ele>2294.3234863281</ele>
        <time>2013-08-20T11:04:17Z</time>
      </trkpt>
      <trkpt lat="42.62921" lon="1.92579">
        <ele>2292.8815917969</ele>
        <time>2013-08-20T11:04:22Z</time>
      </trkpt>
      <trkpt lat="42.62924" lon="1.9258">
        <ele>2292.4011230469</ele>
        <time>2013-08-20T11:04:25Z</time>
      </trkpt>
      <trkpt lat="42.62928" lon="1.92582">
        <ele>2291.9204101562</ele>
        <time>2013-08-20T11:04:29Z</time>
      </trkpt>
      <trkpt lat="42.62932" lon="1.92585">
        <ele>2291.4396972656</ele>
        <time>2013-08-20T11:04:34Z</time>
      </trkpt>
      <trkpt lat="42.62936" lon="1.92586">
        <ele>2291.4396972656</ele>
        <time>2013-08-20T11:04:39Z</time>
      </trkpt>
      <trkpt lat="42.62939" lon="1.92588">
        <ele>2290.958984375</ele>
        <time>2013-08-20T11:04:43Z</time>
      </trkpt>
      <trkpt lat="42.62945" lon="1.92589">
        <ele>2289.5170898438</ele>
        <time>2013-08-20T11:04:48Z</time>
      </trkpt>
      <trkpt lat="42.62949" lon="1.9259">
        <ele>2288.0751953125</ele>
        <time>2013-08-20T11:04:54Z</time>
      </trkpt>
      <trkpt lat="42.62954" lon="1.92592">
        <ele>2288.0751953125</ele>
        <time>2013-08-20T11:05:00Z</time>
      </trkpt>
      <trkpt lat="42.62957" lon="1.92595">
        <ele>2287.5944824219</ele>
        <time>2013-08-20T11:05:07Z</time>
      </trkpt>
      <trkpt lat="42.62959" lon="1.92598">
        <ele>2287.5944824219</ele>
        <time>2013-08-20T11:05:12Z</time>
      </trkpt>
      <trkpt lat="42.62962" lon="1.92599">
        <ele>2286.6330566406</ele>
        <time>2013-08-20T11:05:16Z</time>
      </trkpt>
      <trkpt lat="42.62966" lon="1.926">
        <ele>2284.7106933594</ele>
        <time>2013-08-20T11:05:23Z</time>
      </trkpt>
      <trkpt lat="42.62971" lon="1.92604">
        <ele>2283.7490234375</ele>
        <time>2013-08-20T11:05:30Z</time>
      </trkpt>
      <trkpt lat="42.62975" lon="1.92607">
        <ele>2283.2683105469</ele>
        <time>2013-08-20T11:05:37Z</time>
      </trkpt>
      <trkpt lat="42.62978" lon="1.9261">
        <ele>2281.8264160156</ele>
        <time>2013-08-20T11:05:43Z</time>
      </trkpt>
      <trkpt lat="42.6298" lon="1.92612">
        <ele>2280.865234375</ele>
        <time>2013-08-20T11:05:49Z</time>
      </trkpt>
      <trkpt lat="42.62982" lon="1.92612">
        <ele>2279.9038085938</ele>
        <time>2013-08-20T11:05:56Z</time>
      </trkpt>
      <trkpt lat="42.62986" lon="1.92608">
        <ele>2277.9812011719</ele>
        <time>2013-08-20T11:06:04Z</time>
      </trkpt>
      <trkpt lat="42.62988" lon="1.9261">
        <ele>2277.5004882812</ele>
        <time>2013-08-20T11:06:08Z</time>
      </trkpt>
      <trkpt lat="42.6299" lon="1.92613">
        <ele>2276.5393066406</ele>
        <time>2013-08-20T11:06:14Z</time>
      </trkpt>
      <trkpt lat="42.62992" lon="1.92615">
        <ele>2275.0971679688</ele>
        <time>2013-08-20T11:06:20Z</time>
      </trkpt>
      <trkpt lat="42.62996" lon="1.92617">
        <ele>2273.1748046875</ele>
        <time>2013-08-20T11:06:27Z</time>
      </trkpt>
      <trkpt lat="42.62998" lon="1.92619">
        <ele>2272.2133789062</ele>
        <time>2013-08-20T11:06:32Z</time>
      </trkpt>
      <trkpt lat="42.63" lon="1.92623">
        <ele>2272.2133789062</ele>
        <time>2013-08-20T11:06:36Z</time>
      </trkpt>
      <trkpt lat="42.63003" lon="1.92625">
        <ele>2272.2133789062</ele>
        <time>2013-08-20T11:06:41Z</time>
      </trkpt>
      <trkpt lat="42.63005" lon="1.92627">
        <ele>2272.2133789062</ele>
        <time>2013-08-20T11:06:45Z</time>
      </trkpt>
      <trkpt lat="42.63012" lon="1.92626">
        <ele>2271.251953125</ele>
        <time>2013-08-20T11:07:03Z</time>
      </trkpt>
      <trkpt lat="42.63015" lon="1.92625">
        <ele>2271.251953125</ele>
        <time>2013-08-20T11:07:06Z</time>
      </trkpt>
      <trkpt lat="42.63017" lon="1.92621">
        <ele>2271.251953125</ele>
        <time>2013-08-20T11:07:09Z</time>
      </trkpt>
      <trkpt lat="42.63021" lon="1.92617">
        <ele>2270.2907714844</ele>
        <time>2013-08-20T11:07:15Z</time>
      </trkpt>
      <trkpt lat="42.63025" lon="1.92614">
        <ele>2270.771484375</ele>
        <time>2013-08-20T11:07:19Z</time>
      </trkpt>
      <trkpt lat="42.63028" lon="1.9261">
        <ele>2270.771484375</ele>
        <time>2013-08-20T11:07:26Z</time>
      </trkpt>
      <trkpt lat="42.63034" lon="1.92609">
        <ele>2269.8100585938</ele>
        <time>2013-08-20T11:07:31Z</time>
      </trkpt>
      <trkpt lat="42.63036" lon="1.9261">
        <ele>2269.8100585938</ele>
        <time>2013-08-20T11:07:32Z</time>
      </trkpt>
      <trkpt lat="42.63041" lon="1.92611">
        <ele>2269.8100585938</ele>
        <time>2013-08-20T11:07:37Z</time>
      </trkpt>
      <trkpt lat="42.63044" lon="1.92615">
        <ele>2269.8100585938</ele>
        <time>2013-08-20T11:07:42Z</time>
      </trkpt>
      <trkpt lat="42.63049" lon="1.92616">
        <ele>2270.2907714844</ele>
        <time>2013-08-20T11:07:47Z</time>
      </trkpt>
      <trkpt lat="42.63054" lon="1.92616">
        <ele>2270.2907714844</ele>
        <time>2013-08-20T11:07:52Z</time>
      </trkpt>
      <trkpt lat="42.63054" lon="1.92615">
        <ele>2270.2907714844</ele>
        <time>2013-08-20T11:07:53Z</time>
      </trkpt>
      <trkpt lat="42.63059" lon="1.92608">
        <ele>2271.251953125</ele>
        <time>2013-08-20T11:07:59Z</time>
      </trkpt>
      <trkpt lat="42.63061" lon="1.92608">
        <ele>2270.771484375</ele>
        <time>2013-08-20T11:08:01Z</time>
      </trkpt>
      <trkpt lat="42.63071" lon="1.92607">
        <ele>2271.251953125</ele>
        <time>2013-08-20T11:08:10Z</time>
      </trkpt>
      <trkpt lat="42.63074" lon="1.92607">
        <ele>2269.3295898438</ele>
        <time>2013-08-20T11:08:15Z</time>
      </trkpt>
      <trkpt lat="42.63079" lon="1.92605">
        <ele>2267.8872070312</ele>
        <time>2013-08-20T11:08:20Z</time>
      </trkpt>
      <trkpt lat="42.63081" lon="1.92602">
        <ele>2267.8872070312</ele>
        <time>2013-08-20T11:08:23Z</time>
      </trkpt>
      <trkpt lat="42.6309" lon="1.92602">
        <ele>2267.4064941406</ele>
        <time>2013-08-20T11:08:30Z</time>
      </trkpt>
      <trkpt lat="42.63093" lon="1.92604">
        <ele>2266.9260253906</ele>
        <time>2013-08-20T11:08:35Z</time>
      </trkpt>
      <trkpt lat="42.63096" lon="1.92603">
        <ele>2266.9260253906</ele>
        <time>2013-08-20T11:08:39Z</time>
      </trkpt>
      <trkpt lat="42.631" lon="1.92603">
        <ele>2266.4453125</ele>
        <time>2013-08-20T11:08:44Z</time>
      </trkpt>
      <trkpt lat="42.63105" lon="1.92601">
        <ele>2266.9260253906</ele>
        <time>2013-08-20T11:08:52Z</time>
      </trkpt>
      <trkpt lat="42.63108" lon="1.92594">
        <ele>2267.8872070312</ele>
        <time>2013-08-20T11:09:00Z</time>
      </trkpt>
      <trkpt lat="42.63111" lon="1.92588">
        <ele>2268.3681640625</ele>
        <time>2013-08-20T11:09:06Z</time>
      </trkpt>
      <trkpt lat="42.63114" lon="1.92583">
        <ele>2269.3295898438</ele>
        <time>2013-08-20T11:09:10Z</time>
      </trkpt>
      <trkpt lat="42.63118" lon="1.92579">
        <ele>2269.3295898438</ele>
        <time>2013-08-20T11:09:16Z</time>
      </trkpt>
      <trkpt lat="42.63122" lon="1.92575">
        <ele>2270.2907714844</ele>
        <time>2013-08-20T11:09:21Z</time>
      </trkpt>
      <trkpt lat="42.63126" lon="1.92574">
        <ele>2270.771484375</ele>
        <time>2013-08-20T11:09:26Z</time>
      </trkpt>
      <trkpt lat="42.6313" lon="1.92576">
        <ele>2269.8100585938</ele>
        <time>2013-08-20T11:09:32Z</time>
      </trkpt>
      <trkpt lat="42.63134" lon="1.92575">
        <ele>2269.8100585938</ele>
        <time>2013-08-20T11:09:37Z</time>
      </trkpt>
      <trkpt lat="42.63141" lon="1.9257">
        <ele>2268.8488769531</ele>
        <time>2013-08-20T11:09:47Z</time>
      </trkpt>
      <trkpt lat="42.63145" lon="1.92567">
        <ele>2268.3681640625</ele>
        <time>2013-08-20T11:09:52Z</time>
      </trkpt>
      <trkpt lat="42.63148" lon="1.92564">
        <ele>2268.3681640625</ele>
        <time>2013-08-20T11:09:58Z</time>
      </trkpt>
      <trkpt lat="42.6315" lon="1.92559">
        <ele>2270.2907714844</ele>
        <time>2013-08-20T11:10:05Z</time>
      </trkpt>
      <trkpt lat="42.63151" lon="1.92555">
        <ele>2270.771484375</ele>
        <time>2013-08-20T11:10:15Z</time>
      </trkpt>
      <trkpt lat="42.63154" lon="1.92552">
        <ele>2272.2133789062</ele>
        <time>2013-08-20T11:10:21Z</time>
      </trkpt>
      <trkpt lat="42.63158" lon="1.92549">
        <ele>2273.1748046875</ele>
        <time>2013-08-20T11:10:26Z</time>
      </trkpt>
      <trkpt lat="42.63163" lon="1.92545">
        <ele>2271.7326660156</ele>
        <time>2013-08-20T11:10:32Z</time>
      </trkpt>
      <trkpt lat="42.63165" lon="1.92544">
        <ele>2271.7326660156</ele>
        <time>2013-08-20T11:10:34Z</time>
      </trkpt>
      <trkpt lat="42.63173" lon="1.92542">
        <ele>2270.771484375</ele>
        <time>2013-08-20T11:10:41Z</time>
      </trkpt>
      <trkpt lat="42.63179" lon="1.92538">
        <ele>2270.2907714844</ele>
        <time>2013-08-20T11:10:47Z</time>
      </trkpt>
      <trkpt lat="42.63183" lon="1.92535">
        <ele>2270.2907714844</ele>
        <time>2013-08-20T11:10:51Z</time>
      </trkpt>
      <trkpt lat="42.6319" lon="1.92534">
        <ele>2270.2907714844</ele>
        <time>2013-08-20T11:10:58Z</time>
      </trkpt>
      <trkpt lat="42.63194" lon="1.92531">
        <ele>2271.251953125</ele>
        <time>2013-08-20T11:11:04Z</time>
      </trkpt>
      <trkpt lat="42.63197" lon="1.92528">
        <ele>2271.7326660156</ele>
        <time>2013-08-20T11:11:09Z</time>
      </trkpt>
      <trkpt lat="42.63202" lon="1.9253">
        <ele>2272.6940917969</ele>
        <time>2013-08-20T11:11:15Z</time>
      </trkpt>
      <trkpt lat="42.63205" lon="1.92534">
        <ele>2273.1748046875</ele>
        <time>2013-08-20T11:11:21Z</time>
      </trkpt>
      <trkpt lat="42.63209" lon="1.92538">
        <ele>2273.1748046875</ele>
        <time>2013-08-20T11:11:26Z</time>
      </trkpt>
      <trkpt lat="42.63213" lon="1.92544">
        <ele>2273.6552734375</ele>
        <time>2013-08-20T11:11:33Z</time>
      </trkpt>
      <trkpt lat="42.63218" lon="1.92548">
        <ele>2274.1359863281</ele>
        <time>2013-08-20T11:11:39Z</time>
      </trkpt>
      <trkpt lat="42.63221" lon="1.92549">
        <ele>2274.6166992188</ele>
        <time>2013-08-20T11:11:42Z</time>
      </trkpt>
      <trkpt lat="42.6323" lon="1.92553">
        <ele>2274.6166992188</ele>
        <time>2013-08-20T11:11:49Z</time>
      </trkpt>
      <trkpt lat="42.63238" lon="1.92555">
        <ele>2274.6166992188</ele>
        <time>2013-08-20T11:11:56Z</time>
      </trkpt>
      <trkpt lat="42.63246" lon="1.92556">
        <ele>2275.0971679688</ele>
        <time>2013-08-20T11:12:03Z</time>
      </trkpt>
      <trkpt lat="42.63253" lon="1.92557">
        <ele>2274.6166992188</ele>
        <time>2013-08-20T11:12:09Z</time>
      </trkpt>
      <trkpt lat="42.6326" lon="1.92561">
        <ele>2274.6166992188</ele>
        <time>2013-08-20T11:12:15Z</time>
      </trkpt>
      <trkpt lat="42.63268" lon="1.92564">
        <ele>2274.6166992188</ele>
        <time>2013-08-20T11:12:22Z</time>
      </trkpt>
      <trkpt lat="42.63273" lon="1.92567">
        <ele>2275.0971679688</ele>
        <time>2013-08-20T11:12:27Z</time>
      </trkpt>
      <trkpt lat="42.63275" lon="1.9257">
        <ele>2275.5778808594</ele>
        <time>2013-08-20T11:12:30Z</time>
      </trkpt>
      <trkpt lat="42.63283" lon="1.92572">
        <ele>2276.5393066406</ele>
        <time>2013-08-20T11:12:38Z</time>
      </trkpt>
      <trkpt lat="42.63284" lon="1.92572">
        <ele>2276.5393066406</ele>
        <time>2013-08-20T11:12:39Z</time>
      </trkpt>
      <trkpt lat="42.63288" lon="1.92575">
        <ele>2276.5393066406</ele>
        <time>2013-08-20T11:12:43Z</time>
      </trkpt>
      <trkpt lat="42.63298" lon="1.92581">
        <ele>2277.0200195312</ele>
        <time>2013-08-20T11:12:52Z</time>
      </trkpt>
      <trkpt lat="42.63307" lon="1.92587">
        <ele>2277.0200195312</ele>
        <time>2013-08-20T11:13:00Z</time>
      </trkpt>
      <trkpt lat="42.63314" lon="1.9259">
        <ele>2276.05859375</ele>
        <time>2013-08-20T11:13:07Z</time>
      </trkpt>
      <trkpt lat="42.63321" lon="1.9259">
        <ele>2274.6166992188</ele>
        <time>2013-08-20T11:13:14Z</time>
      </trkpt>
      <trkpt lat="42.63324" lon="1.92595">
        <ele>2273.1748046875</ele>
        <time>2013-08-20T11:13:21Z</time>
      </trkpt>
      <trkpt lat="42.6333" lon="1.926">
        <ele>2272.2133789062</ele>
        <time>2013-08-20T11:13:28Z</time>
      </trkpt>
      <trkpt lat="42.63332" lon="1.92597">
        <ele>2271.7326660156</ele>
        <time>2013-08-20T11:13:30Z</time>
      </trkpt>
      <trkpt lat="42.63339" lon="1.92597">
        <ele>2270.771484375</ele>
        <time>2013-08-20T11:13:36Z</time>
      </trkpt>
      <trkpt lat="42.63341" lon="1.92599">
        <ele>2270.771484375</ele>
        <time>2013-08-20T11:13:38Z</time>
      </trkpt>
      <trkpt lat="42.63349" lon="1.92603">
        <ele>2270.771484375</ele>
        <time>2013-08-20T11:13:45Z</time>
      </trkpt>
      <trkpt lat="42.63354" lon="1.92605">
        <ele>2270.2907714844</ele>
        <time>2013-08-20T11:13:49Z</time>
      </trkpt>
      <trkpt lat="42.63359" lon="1.92611">
        <ele>2270.2907714844</ele>
        <time>2013-08-20T11:13:55Z</time>
      </trkpt>
      <trkpt lat="42.63364" lon="1.92618">
        <ele>2269.8100585938</ele>
        <time>2013-08-20T11:14:01Z</time>
      </trkpt>
      <trkpt lat="42.63367" lon="1.92622">
        <ele>2269.8100585938</ele>
        <time>2013-08-20T11:14:06Z</time>
      </trkpt>
      <trkpt lat="42.63371" lon="1.92626">
        <ele>2269.3295898438</ele>
        <time>2013-08-20T11:14:14Z</time>
      </trkpt>
      <trkpt lat="42.63375" lon="1.92628">
        <ele>2268.8488769531</ele>
        <time>2013-08-20T11:14:21Z</time>
      </trkpt>
      <trkpt lat="42.63382" lon="1.92625">
        <ele>2268.3681640625</ele>
        <time>2013-08-20T11:14:27Z</time>
      </trkpt>
      <trkpt lat="42.63385" lon="1.92623">
        <ele>2268.3681640625</ele>
        <time>2013-08-20T11:14:30Z</time>
      </trkpt>
      <trkpt lat="42.63387" lon="1.92626">
        <ele>2268.3681640625</ele>
        <time>2013-08-20T11:14:33Z</time>
      </trkpt>
      <trkpt lat="42.63391" lon="1.92629">
        <ele>2267.8872070312</ele>
        <time>2013-08-20T11:14:38Z</time>
      </trkpt>
      <trkpt lat="42.63398" lon="1.92636">
        <ele>2268.3681640625</ele>
        <time>2013-08-20T11:14:46Z</time>
      </trkpt>
      <trkpt lat="42.63399" lon="1.92636">
        <ele>2268.3681640625</ele>
        <time>2013-08-20T11:14:52Z</time>
      </trkpt>
      <trkpt lat="42.63402" lon="1.9264">
        <ele>2268.3681640625</ele>
        <time>2013-08-20T11:14:58Z</time>
      </trkpt>
      <trkpt lat="42.63405" lon="1.92642">
        <ele>2267.4064941406</ele>
        <time>2013-08-20T11:15:04Z</time>
      </trkpt>
      <trkpt lat="42.63406" lon="1.92646">
        <ele>2266.4453125</ele>
        <time>2013-08-20T11:15:09Z</time>
      </trkpt>
      <trkpt lat="42.63406" lon="1.92649">
        <ele>2265.0034179688</ele>
        <time>2013-08-20T11:15:14Z</time>
      </trkpt>
      <trkpt lat="42.63407" lon="1.92649">
        <ele>2265.0034179688</ele>
        <time>2013-08-20T11:15:15Z</time>
      </trkpt>
      <trkpt lat="42.63413" lon="1.92652">
        <ele>2263.5612792969</ele>
        <time>2013-08-20T11:15:22Z</time>
      </trkpt>
      <trkpt lat="42.63415" lon="1.92657">
        <ele>2263.5612792969</ele>
        <time>2013-08-20T11:15:26Z</time>
      </trkpt>
      <trkpt lat="42.63416" lon="1.9266">
        <ele>2263.5612792969</ele>
        <time>2013-08-20T11:15:29Z</time>
      </trkpt>
      <trkpt lat="42.63419" lon="1.92669">
        <ele>2262.6000976562</ele>
        <time>2013-08-20T11:15:34Z</time>
      </trkpt>
      <trkpt lat="42.63424" lon="1.92675">
        <ele>2262.1193847656</ele>
        <time>2013-08-20T11:15:40Z</time>
      </trkpt>
      <trkpt lat="42.63432" lon="1.92677">
        <ele>2259.7160644531</ele>
        <time>2013-08-20T11:15:48Z</time>
      </trkpt>
      <trkpt lat="42.6344" lon="1.92674">
        <ele>2258.2741699219</ele>
        <time>2013-08-20T11:15:54Z</time>
      </trkpt>
      <trkpt lat="42.63449" lon="1.92668">
        <ele>2257.3129882812</ele>
        <time>2013-08-20T11:16:01Z</time>
      </trkpt>
      <trkpt lat="42.63456" lon="1.92667">
        <ele>2257.3129882812</ele>
        <time>2013-08-20T11:16:07Z</time>
      </trkpt>
      <trkpt lat="42.63464" lon="1.92669">
        <ele>2257.3129882812</ele>
        <time>2013-08-20T11:16:14Z</time>
      </trkpt>
      <trkpt lat="42.63465" lon="1.9267">
        <ele>2257.3129882812</ele>
        <time>2013-08-20T11:16:15Z</time>
      </trkpt>
      <trkpt lat="42.63469" lon="1.92669">
        <ele>2256.8322753906</ele>
        <time>2013-08-20T11:16:18Z</time>
      </trkpt>
      <trkpt lat="42.63474" lon="1.92671">
        <ele>2255.8708496094</ele>
        <time>2013-08-20T11:16:25Z</time>
      </trkpt>
      <trkpt lat="42.63477" lon="1.92667">
        <ele>2255.8708496094</ele>
        <time>2013-08-20T11:16:32Z</time>
      </trkpt>
      <trkpt lat="42.63483" lon="1.92668">
        <ele>2254.9096679688</ele>
        <time>2013-08-20T11:16:37Z</time>
      </trkpt>
      <trkpt lat="42.6349" lon="1.92668">
        <ele>2254.4289550781</ele>
        <time>2013-08-20T11:16:43Z</time>
      </trkpt>
      <trkpt lat="42.63496" lon="1.92663">
        <ele>2252.5063476562</ele>
        <time>2013-08-20T11:16:50Z</time>
      </trkpt>
      <trkpt lat="42.63495" lon="1.92658">
        <ele>2250.1030273438</ele>
        <time>2013-08-20T11:16:56Z</time>
      </trkpt>
      <trkpt lat="42.63494" lon="1.92656">
        <ele>2249.6223144531</ele>
        <time>2013-08-20T11:16:57Z</time>
      </trkpt>
      <trkpt lat="42.63496" lon="1.92646">
        <ele>2248.6608886719</ele>
        <time>2013-08-20T11:17:03Z</time>
      </trkpt>
      <trkpt lat="42.63499" lon="1.92644">
        <ele>2248.6608886719</ele>
        <time>2013-08-20T11:17:06Z</time>
      </trkpt>
      <trkpt lat="42.63507" lon="1.92647">
        <ele>2248.6608886719</ele>
        <time>2013-08-20T11:17:13Z</time>
      </trkpt>
      <trkpt lat="42.63516" lon="1.9265">
        <ele>2247.6997070312</ele>
        <time>2013-08-20T11:17:21Z</time>
      </trkpt>
      <trkpt lat="42.63517" lon="1.92651">
        <ele>2247.6997070312</ele>
        <time>2013-08-20T11:17:22Z</time>
      </trkpt>
      <trkpt lat="42.63522" lon="1.92652">
        <ele>2247.2189941406</ele>
        <time>2013-08-20T11:17:26Z</time>
      </trkpt>
      <trkpt lat="42.63523" lon="1.92656">
        <ele>2246.73828125</ele>
        <time>2013-08-20T11:17:30Z</time>
      </trkpt>
      <trkpt lat="42.6352" lon="1.92664">
        <ele>2245.2963867188</ele>
        <time>2013-08-20T11:17:36Z</time>
      </trkpt>
      <trkpt lat="42.63523" lon="1.9267">
        <ele>2243.8544921875</ele>
        <time>2013-08-20T11:17:42Z</time>
      </trkpt>
      <trkpt lat="42.63527" lon="1.92676">
        <ele>2242.4125976562</ele>
        <time>2013-08-20T11:17:47Z</time>
      </trkpt>
      <trkpt lat="42.63528" lon="1.92677">
        <ele>2242.4125976562</ele>
        <time>2013-08-20T11:17:48Z</time>
      </trkpt>
      <trkpt lat="42.63533" lon="1.9269">
        <ele>2240.9704589844</ele>
        <time>2013-08-20T11:17:56Z</time>
      </trkpt>
      <trkpt lat="42.63536" lon="1.92695">
        <ele>2240.0092773438</ele>
        <time>2013-08-20T11:18:00Z</time>
      </trkpt>
      <trkpt lat="42.63542" lon="1.92705">
        <ele>2238.0866699219</ele>
        <time>2013-08-20T11:18:08Z</time>
      </trkpt>
      <trkpt lat="42.63545" lon="1.92707">
        <ele>2237.1252441406</ele>
        <time>2013-08-20T11:18:12Z</time>
      </trkpt>
      <trkpt lat="42.63552" lon="1.92717">
        <ele>2235.2023925781</ele>
        <time>2013-08-20T11:18:21Z</time>
      </trkpt>
      <trkpt lat="42.63554" lon="1.92721">
        <ele>2234.7219238281</ele>
        <time>2013-08-20T11:18:24Z</time>
      </trkpt>
      <trkpt lat="42.6356" lon="1.92727">
        <ele>2232.3186035156</ele>
        <time>2013-08-20T11:18:31Z</time>
      </trkpt>
      <trkpt lat="42.63565" lon="1.92731">
        <ele>2230.8767089844</ele>
        <time>2013-08-20T11:18:36Z</time>
      </trkpt>
      <trkpt lat="42.63571" lon="1.92736">
        <ele>2229.4345703125</ele>
        <time>2013-08-20T11:18:42Z</time>
      </trkpt>
      <trkpt lat="42.63574" lon="1.92739">
        <ele>2228.4733886719</ele>
        <time>2013-08-20T11:18:46Z</time>
      </trkpt>
      <trkpt lat="42.6358" lon="1.9274">
        <ele>2226.0700683594</ele>
        <time>2013-08-20T11:18:53Z</time>
      </trkpt>
      <trkpt lat="42.63584" lon="1.92745">
        <ele>2224.6281738281</ele>
        <time>2013-08-20T11:18:58Z</time>
      </trkpt>
      <trkpt lat="42.63585" lon="1.92749">
        <ele>2223.6667480469</ele>
        <time>2013-08-20T11:19:02Z</time>
      </trkpt>
      <trkpt lat="42.63586" lon="1.92751">
        <ele>2222.2248535156</ele>
        <time>2013-08-20T11:19:06Z</time>
      </trkpt>
      <trkpt lat="42.6359" lon="1.92753">
        <ele>2221.2634277344</ele>
        <time>2013-08-20T11:19:11Z</time>
      </trkpt>
      <trkpt lat="42.63593" lon="1.92755">
        <ele>2220.7829589844</ele>
        <time>2013-08-20T11:19:15Z</time>
      </trkpt>
      <trkpt lat="42.63595" lon="1.92757">
        <ele>2218.8601074219</ele>
        <time>2013-08-20T11:19:19Z</time>
      </trkpt>
      <trkpt lat="42.63601" lon="1.92758">
        <ele>2216.9375</ele>
        <time>2013-08-20T11:19:26Z</time>
      </trkpt>
      <trkpt lat="42.63604" lon="1.92759">
        <ele>2216.4567871094</ele>
        <time>2013-08-20T11:19:30Z</time>
      </trkpt>
      <trkpt lat="42.63607" lon="1.92761">
        <ele>2216.9375</ele>
        <time>2013-08-20T11:19:34Z</time>
      </trkpt>
      <trkpt lat="42.63609" lon="1.92761">
        <ele>2216.9375</ele>
        <time>2013-08-20T11:19:39Z</time>
      </trkpt>
      <trkpt lat="42.63611" lon="1.9276">
        <ele>2216.9375</ele>
        <time>2013-08-20T11:19:44Z</time>
      </trkpt>
      <trkpt lat="42.63614" lon="1.9276">
        <ele>2216.9375</ele>
        <time>2013-08-20T11:19:49Z</time>
      </trkpt>
      <trkpt lat="42.63619" lon="1.92761">
        <ele>2216.9375</ele>
        <time>2013-08-20T11:19:57Z</time>
      </trkpt>
      <trkpt lat="42.63623" lon="1.92767">
        <ele>2216.9375</ele>
        <time>2013-08-20T11:20:08Z</time>
      </trkpt>
      <trkpt lat="42.63626" lon="1.9277">
        <ele>2217.41796875</ele>
        <time>2013-08-20T11:20:14Z</time>
      </trkpt>
      <trkpt lat="42.6363" lon="1.92771">
        <ele>2217.41796875</ele>
        <time>2013-08-20T11:20:21Z</time>
      </trkpt>
      <trkpt lat="42.63633" lon="1.92772">
        <ele>2216.9375</ele>
        <time>2013-08-20T11:20:25Z</time>
      </trkpt>
      <trkpt lat="42.63637" lon="1.92772">
        <ele>2216.9375</ele>
        <time>2013-08-20T11:20:32Z</time>
      </trkpt>
      <trkpt lat="42.6364" lon="1.92774">
        <ele>2216.9375</ele>
        <time>2013-08-20T11:20:36Z</time>
      </trkpt>
      <trkpt lat="42.63644" lon="1.92777">
        <ele>2216.9375</ele>
        <time>2013-08-20T11:20:40Z</time>
      </trkpt>
      <trkpt lat="42.63646" lon="1.92778">
        <ele>2216.4567871094</ele>
        <time>2013-08-20T11:20:44Z</time>
      </trkpt>
      <trkpt lat="42.63652" lon="1.92777">
        <ele>2215.4956054688</ele>
        <time>2013-08-20T11:20:58Z</time>
      </trkpt>
      <trkpt lat="42.63657" lon="1.92777">
        <ele>2215.0148925781</ele>
        <time>2013-08-20T11:21:06Z</time>
      </trkpt>
      <trkpt lat="42.63661" lon="1.92776">
        <ele>2215.4956054688</ele>
        <time>2013-08-20T11:21:10Z</time>
      </trkpt>
      <trkpt lat="42.63671" lon="1.9278">
        <ele>2206.3630371094</ele>
        <time>2013-08-20T11:22:03Z</time>
      </trkpt>
      <trkpt lat="42.63681" lon="1.92782">
        <ele>2210.2082519531</ele>
        <time>2013-08-20T11:22:15Z</time>
      </trkpt>
      <trkpt lat="42.63693" lon="1.92786">
        <ele>2215.0148925781</ele>
        <time>2013-08-20T11:22:22Z</time>
      </trkpt>
      <trkpt lat="42.63694" lon="1.92789">
        <ele>2216.9375</ele>
        <time>2013-08-20T11:22:26Z</time>
      </trkpt>
      <trkpt lat="42.63693" lon="1.92792">
        <ele>2218.3793945312</ele>
        <time>2013-08-20T11:22:31Z</time>
      </trkpt>
      <trkpt lat="42.63692" lon="1.92793">
        <ele>2216.9375</ele>
        <time>2013-08-20T11:22:34Z</time>
      </trkpt>
      <trkpt lat="42.63694" lon="1.92793">
        <ele>2214.0534667969</ele>
        <time>2013-08-20T11:22:38Z</time>
      </trkpt>
      <trkpt lat="42.63693" lon="1.92792">
        <ele>2210.2082519531</ele>
        <time>2013-08-20T11:22:44Z</time>
      </trkpt>
      <trkpt lat="42.63931" lon="1.92867">
        <ele>2208.2856445312</ele>
        <time>2013-08-20T11:26:14Z</time>
      </trkpt>
      <trkpt lat="42.63932" lon="1.92867">
        <ele>2206.84375</ele>
        <time>2013-08-20T11:26:16Z</time>
      </trkpt>
      <trkpt lat="42.6394" lon="1.92867">
        <ele>2206.3630371094</ele>
        <time>2013-08-20T11:26:21Z</time>
      </trkpt>
      <trkpt lat="42.63942" lon="1.92866">
        <ele>2206.3630371094</ele>
        <time>2013-08-20T11:26:25Z</time>
      </trkpt>
      <trkpt lat="42.639" lon="1.92801">
        <ele>2144.8386230469</ele>
        <time>2013-08-20T11:43:55Z</time>
      </trkpt>
      <trkpt lat="42.63909" lon="1.92799">
        <ele>2137.6286621094</ele>
        <time>2013-08-20T11:44:05Z</time>
      </trkpt>
      <trkpt lat="42.63914" lon="1.92798">
        <ele>2134.7448730469</ele>
        <time>2013-08-20T11:44:11Z</time>
      </trkpt>
      <trkpt lat="42.63919" lon="1.92796">
        <ele>2133.302734375</ele>
        <time>2013-08-20T11:44:16Z</time>
      </trkpt>
      <trkpt lat="42.63924" lon="1.92794">
        <ele>2132.3415527344</ele>
        <time>2013-08-20T11:44:21Z</time>
      </trkpt>
      <trkpt lat="42.63932" lon="1.92789">
        <ele>2130.4189453125</ele>
        <time>2013-08-20T11:44:29Z</time>
      </trkpt>
      <trkpt lat="42.6394" lon="1.92786">
        <ele>2129.4575195312</ele>
        <time>2013-08-20T11:44:37Z</time>
      </trkpt>
      <trkpt lat="42.63947" lon="1.92785">
        <ele>2128.9768066406</ele>
        <time>2013-08-20T11:44:45Z</time>
      </trkpt>
      <trkpt lat="42.63952" lon="1.92786">
        <ele>2128.4963378906</ele>
        <time>2013-08-20T11:44:50Z</time>
      </trkpt>
      <trkpt lat="42.63958" lon="1.92789">
        <ele>2126.0930175781</ele>
        <time>2013-08-20T11:44:56Z</time>
      </trkpt>
      <trkpt lat="42.63962" lon="1.92789">
        <ele>2125.1315917969</ele>
        <time>2013-08-20T11:45:00Z</time>
      </trkpt>
      <trkpt lat="42.63966" lon="1.92788">
        <ele>2124.1704101562</ele>
        <time>2013-08-20T11:45:05Z</time>
      </trkpt>
      <trkpt lat="42.6397" lon="1.92787">
        <ele>2123.689453125</ele>
        <time>2013-08-20T11:45:09Z</time>
      </trkpt>
      <trkpt lat="42.63978" lon="1.92787">
        <ele>2122.2475585938</ele>
        <time>2013-08-20T11:45:16Z</time>
      </trkpt>
      <trkpt lat="42.63985" lon="1.92785">
        <ele>2121.7668457031</ele>
        <time>2013-08-20T11:45:23Z</time>
      </trkpt>
      <trkpt lat="42.6399" lon="1.92782">
        <ele>2121.2861328125</ele>
        <time>2013-08-20T11:45:29Z</time>
      </trkpt>
      <trkpt lat="42.63995" lon="1.92778">
        <ele>2121.2861328125</ele>
        <time>2013-08-20T11:45:36Z</time>
      </trkpt>
      <trkpt lat="42.64" lon="1.92773">
        <ele>2121.2861328125</ele>
        <time>2013-08-20T11:45:42Z</time>
      </trkpt>
      <trkpt lat="42.64003" lon="1.92771">
        <ele>2121.2861328125</ele>
        <time>2013-08-20T11:45:47Z</time>
      </trkpt>
      <trkpt lat="42.64006" lon="1.9277">
        <ele>2121.7668457031</ele>
        <time>2013-08-20T11:45:50Z</time>
      </trkpt>
      <trkpt lat="42.64008" lon="1.92767">
        <ele>2121.7668457031</ele>
        <time>2013-08-20T11:45:54Z</time>
      </trkpt>
      <trkpt lat="42.64011" lon="1.92764">
        <ele>2123.689453125</ele>
        <time>2013-08-20T11:45:59Z</time>
      </trkpt>
      <trkpt lat="42.64014" lon="1.92762">
        <ele>2125.1315917969</ele>
        <time>2013-08-20T11:46:03Z</time>
      </trkpt>
      <trkpt lat="42.64017" lon="1.9276">
        <ele>2126.0930175781</ele>
        <time>2013-08-20T11:46:08Z</time>
      </trkpt>
      <trkpt lat="42.64019" lon="1.92759">
        <ele>2127.0544433594</ele>
        <time>2013-08-20T11:46:13Z</time>
      </trkpt>
      <trkpt lat="42.64022" lon="1.92759">
        <ele>2128.015625</ele>
        <time>2013-08-20T11:46:18Z</time>
      </trkpt>
      <trkpt lat="42.64025" lon="1.92758">
        <ele>2128.4963378906</ele>
        <time>2013-08-20T11:46:21Z</time>
      </trkpt>
      <trkpt lat="42.64028" lon="1.92758">
        <ele>2129.4575195312</ele>
        <time>2013-08-20T11:46:25Z</time>
      </trkpt>
      <trkpt lat="42.64032" lon="1.92756">
        <ele>2129.9382324219</ele>
        <time>2013-08-20T11:46:31Z</time>
      </trkpt>
      <trkpt lat="42.64036" lon="1.92756">
        <ele>2131.3801269531</ele>
        <time>2013-08-20T11:46:37Z</time>
      </trkpt>
      <trkpt lat="42.64038" lon="1.92756">
        <ele>2132.3415527344</ele>
        <time>2013-08-20T11:46:41Z</time>
      </trkpt>
      <trkpt lat="42.64042" lon="1.92756">
        <ele>2132.8220214844</ele>
        <time>2013-08-20T11:46:46Z</time>
      </trkpt>
      <trkpt lat="42.64046" lon="1.92757">
        <ele>2135.2253417969</ele>
        <time>2013-08-20T11:46:56Z</time>
      </trkpt>
      <trkpt lat="42.64048" lon="1.92756">
        <ele>2136.6672363281</ele>
        <time>2013-08-20T11:47:00Z</time>
      </trkpt>
      <trkpt lat="42.64052" lon="1.92755">
        <ele>2137.1479492188</ele>
        <time>2013-08-20T11:47:05Z</time>
      </trkpt>
      <trkpt lat="42.64054" lon="1.92755">
        <ele>2138.5900878906</ele>
        <time>2013-08-20T11:47:11Z</time>
      </trkpt>
      <trkpt lat="42.64057" lon="1.92753">
        <ele>2140.9934082031</ele>
        <time>2013-08-20T11:47:18Z</time>
      </trkpt>
      <trkpt lat="42.64059" lon="1.92753">
        <ele>2143.3967285156</ele>
        <time>2013-08-20T11:47:24Z</time>
      </trkpt>
      <trkpt lat="42.64061" lon="1.92753">
        <ele>2144.8386230469</ele>
        <time>2013-08-20T11:47:28Z</time>
      </trkpt>
      <trkpt lat="42.64064" lon="1.92755">
        <ele>2145.8000488281</ele>
        <time>2013-08-20T11:47:33Z</time>
      </trkpt>
      <trkpt lat="42.64067" lon="1.92757">
        <ele>2147.2419433594</ele>
        <time>2013-08-20T11:47:39Z</time>
      </trkpt>
      <trkpt lat="42.64068" lon="1.92759">
        <ele>2147.72265625</ele>
        <time>2013-08-20T11:47:43Z</time>
      </trkpt>
      <trkpt lat="42.64074" lon="1.92765">
        <ele>2144.3579101562</ele>
        <time>2013-08-20T11:48:02Z</time>
      </trkpt>
      <trkpt lat="42.64074" lon="1.92772">
        <ele>2143.8774414062</ele>
        <time>2013-08-20T11:48:15Z</time>
      </trkpt>
      <trkpt lat="42.64072" lon="1.92774">
        <ele>2157.8166503906</ele>
        <time>2013-08-20T11:49:00Z</time>
      </trkpt>
      <trkpt lat="42.64074" lon="1.92772">
        <ele>2159.2585449219</ele>
        <time>2013-08-20T11:49:04Z</time>
      </trkpt>
      <trkpt lat="42.64077" lon="1.92771">
        <ele>2160.2197265625</ele>
        <time>2013-08-20T11:49:08Z</time>
      </trkpt>
      <trkpt lat="42.64081" lon="1.92768">
        <ele>2162.1423339844</ele>
        <time>2013-08-20T11:49:15Z</time>
      </trkpt>
      <trkpt lat="42.64083" lon="1.92766">
        <ele>2161.1811523438</ele>
        <time>2013-08-20T11:49:19Z</time>
      </trkpt>
      <trkpt lat="42.64085" lon="1.92764">
        <ele>2160.7004394531</ele>
        <time>2013-08-20T11:49:22Z</time>
      </trkpt>
      <trkpt lat="42.64087" lon="1.92762">
        <ele>2160.2197265625</ele>
        <time>2013-08-20T11:49:26Z</time>
      </trkpt>
      <trkpt lat="42.64089" lon="1.9276">
        <ele>2160.2197265625</ele>
        <time>2013-08-20T11:49:29Z</time>
      </trkpt>
      <trkpt lat="42.64091" lon="1.92758">
        <ele>2160.2197265625</ele>
        <time>2013-08-20T11:49:35Z</time>
      </trkpt>
      <trkpt lat="42.64093" lon="1.92757">
        <ele>2161.1811523438</ele>
        <time>2013-08-20T11:49:41Z</time>
      </trkpt>
      <trkpt lat="42.64094" lon="1.92753">
        <ele>2161.1811523438</ele>
        <time>2013-08-20T11:49:46Z</time>
      </trkpt>
      <trkpt lat="42.64096" lon="1.92754">
        <ele>2161.6618652344</ele>
        <time>2013-08-20T11:49:51Z</time>
      </trkpt>
      <trkpt lat="42.64097" lon="1.92758">
        <ele>2161.6618652344</ele>
        <time>2013-08-20T11:49:58Z</time>
      </trkpt>
      <trkpt lat="42.64097" lon="1.92761">
        <ele>2162.1423339844</ele>
        <time>2013-08-20T11:50:03Z</time>
      </trkpt>
      <trkpt lat="42.64097" lon="1.92764">
        <ele>2161.6618652344</ele>
        <time>2013-08-20T11:50:07Z</time>
      </trkpt>
      <trkpt lat="42.64098" lon="1.92768">
        <ele>2160.7004394531</ele>
        <time>2013-08-20T11:50:12Z</time>
      </trkpt>
      <trkpt lat="42.64099" lon="1.92769">
        <ele>2162.623046875</ele>
        <time>2013-08-20T11:50:19Z</time>
      </trkpt>
      <trkpt lat="42.641" lon="1.92769">
        <ele>2163.5842285156</ele>
        <time>2013-08-20T11:50:24Z</time>
      </trkpt>
      <trkpt lat="42.64103" lon="1.92767">
        <ele>2164.5456542969</ele>
        <time>2013-08-20T11:50:30Z</time>
      </trkpt>
      <trkpt lat="42.64103" lon="1.92767">
        <ele>2164.5456542969</ele>
        <time>2013-08-20T11:50:31Z</time>
      </trkpt>
      <trkpt lat="42.64114" lon="1.92763">
        <ele>2140.0322265625</ele>
        <time>2013-08-20T11:50:36Z</time>
      </trkpt>
      <trkpt lat="42.64118" lon="1.92761">
        <ele>2136.6672363281</ele>
        <time>2013-08-20T11:50:41Z</time>
      </trkpt>
      <trkpt lat="42.6412" lon="1.92761">
        <ele>2135.7060546875</ele>
        <time>2013-08-20T11:50:47Z</time>
      </trkpt>
      <trkpt lat="42.64123" lon="1.9276">
        <ele>2136.1867675781</ele>
        <time>2013-08-20T11:50:53Z</time>
      </trkpt>
      <trkpt lat="42.64124" lon="1.92759">
        <ele>2136.6672363281</ele>
        <time>2013-08-20T11:50:57Z</time>
      </trkpt>
      <trkpt lat="42.64127" lon="1.92759">
        <ele>2137.1479492188</ele>
        <time>2013-08-20T11:51:04Z</time>
      </trkpt>
      <trkpt lat="42.6413" lon="1.92759">
        <ele>2138.109375</ele>
        <time>2013-08-20T11:51:09Z</time>
      </trkpt>
      <trkpt lat="42.64132" lon="1.92761">
        <ele>2139.0705566406</ele>
        <time>2013-08-20T11:51:14Z</time>
      </trkpt>
      <trkpt lat="42.64135" lon="1.92764">
        <ele>2140.0322265625</ele>
        <time>2013-08-20T11:51:21Z</time>
      </trkpt>
      <trkpt lat="42.64135" lon="1.92767">
        <ele>2140.5126953125</ele>
        <time>2013-08-20T11:51:26Z</time>
      </trkpt>
      <trkpt lat="42.64136" lon="1.92771">
        <ele>2141.9548339844</ele>
        <time>2013-08-20T11:51:32Z</time>
      </trkpt>
      <trkpt lat="42.64136" lon="1.92775">
        <ele>2142.435546875</ele>
        <time>2013-08-20T11:51:40Z</time>
      </trkpt>
      <trkpt lat="42.64135" lon="1.92777">
        <ele>2142.916015625</ele>
        <time>2013-08-20T11:51:45Z</time>
      </trkpt>
      <trkpt lat="42.64135" lon="1.9278">
        <ele>2142.435546875</ele>
        <time>2013-08-20T11:51:49Z</time>
      </trkpt>
      <trkpt lat="42.64135" lon="1.92784">
        <ele>2142.916015625</ele>
        <time>2013-08-20T11:51:56Z</time>
      </trkpt>
      <trkpt lat="42.64135" lon="1.92787">
        <ele>2143.3967285156</ele>
        <time>2013-08-20T11:52:01Z</time>
      </trkpt>
      <trkpt lat="42.64135" lon="1.92789">
        <ele>2143.8774414062</ele>
        <time>2013-08-20T11:52:05Z</time>
      </trkpt>
      <trkpt lat="42.64137" lon="1.92791">
        <ele>2146.2807617188</ele>
        <time>2013-08-20T11:52:15Z</time>
      </trkpt>
      <trkpt lat="42.64141" lon="1.92789">
        <ele>2151.0871582031</ele>
        <time>2013-08-20T11:52:30Z</time>
      </trkpt>
      <trkpt lat="42.64142" lon="1.92786">
        <ele>2153.009765625</ele>
        <time>2013-08-20T11:52:38Z</time>
      </trkpt>
      <trkpt lat="42.64144" lon="1.92785">
        <ele>2153.9711914062</ele>
        <time>2013-08-20T11:52:43Z</time>
      </trkpt>
      <trkpt lat="42.64145" lon="1.92785">
        <ele>2155.4130859375</ele>
        <time>2013-08-20T11:52:49Z</time>
      </trkpt>
      <trkpt lat="42.64146" lon="1.92784">
        <ele>2156.3745117188</ele>
        <time>2013-08-20T11:52:55Z</time>
      </trkpt>
      <trkpt lat="42.64148" lon="1.92782">
        <ele>2157.8166503906</ele>
        <time>2013-08-20T11:53:03Z</time>
      </trkpt>
      <trkpt lat="42.64151" lon="1.92778">
        <ele>2159.2585449219</ele>
        <time>2013-08-20T11:53:17Z</time>
      </trkpt>
      <trkpt lat="42.64153" lon="1.92775">
        <ele>2159.7390136719</ele>
        <time>2013-08-20T11:53:27Z</time>
      </trkpt>
      <trkpt lat="42.64155" lon="1.92775">
        <ele>2160.2197265625</ele>
        <time>2013-08-20T11:53:35Z</time>
      </trkpt>
      <trkpt lat="42.64158" lon="1.92777">
        <ele>2163.5842285156</ele>
        <time>2013-08-20T11:54:17Z</time>
      </trkpt>
      <trkpt lat="42.64157" lon="1.92774">
        <ele>2161.1811523438</ele>
        <time>2013-08-20T11:54:34Z</time>
      </trkpt>
      <trkpt lat="42.64158" lon="1.92774">
        <ele>2161.1811523438</ele>
        <time>2013-08-20T11:54:41Z</time>
      </trkpt>
      <trkpt lat="42.64158" lon="1.92774">
        <ele>2160.7004394531</ele>
        <time>2013-08-20T11:54:47Z</time>
      </trkpt>
      <trkpt lat="42.64159" lon="1.92775">
        <ele>2161.6618652344</ele>
        <time>2013-08-20T11:54:56Z</time>
      </trkpt>
      <trkpt lat="42.64158" lon="1.92776">
        <ele>2162.1423339844</ele>
        <time>2013-08-20T11:55:05Z</time>
      </trkpt>
      <trkpt lat="42.64157" lon="1.92778">
        <ele>2164.5456542969</ele>
        <time>2013-08-20T11:55:32Z</time>
      </trkpt>
      <trkpt lat="42.64157" lon="1.92775">
        <ele>2164.0649414062</ele>
        <time>2013-08-20T11:55:37Z</time>
      </trkpt>
      <trkpt lat="42.64157" lon="1.92773">
        <ele>2163.5842285156</ele>
        <time>2013-08-20T11:55:44Z</time>
      </trkpt>
      <trkpt lat="42.64159" lon="1.92772">
        <ele>2163.5842285156</ele>
        <time>2013-08-20T11:55:50Z</time>
      </trkpt>
      <trkpt lat="42.64161" lon="1.92772">
        <ele>2163.5842285156</ele>
        <time>2013-08-20T11:55:57Z</time>
      </trkpt>
      <trkpt lat="42.64165" lon="1.92772">
        <ele>2165.0263671875</ele>
        <time>2013-08-20T11:56:14Z</time>
      </trkpt>
      <trkpt lat="42.64166" lon="1.92771">
        <ele>2165.9875488281</ele>
        <time>2013-08-20T11:56:22Z</time>
      </trkpt>
      <trkpt lat="42.64166" lon="1.9277">
        <ele>2167.4294433594</ele>
        <time>2013-08-20T11:56:29Z</time>
      </trkpt>
      <trkpt lat="42.64167" lon="1.92769">
        <ele>2168.8715820312</ele>
        <time>2013-08-20T11:56:34Z</time>
      </trkpt>
      <trkpt lat="42.64169" lon="1.9277">
        <ele>2170.7941894531</ele>
        <time>2013-08-20T11:56:44Z</time>
      </trkpt>
      <trkpt lat="42.6417" lon="1.92771">
        <ele>2171.7553710938</ele>
        <time>2013-08-20T11:56:51Z</time>
      </trkpt>
      <trkpt lat="42.64171" lon="1.92769">
        <ele>2172.7170410156</ele>
        <time>2013-08-20T11:56:57Z</time>
      </trkpt>
      <trkpt lat="42.64173" lon="1.92766">
        <ele>2173.6782226562</ele>
        <time>2013-08-20T11:57:05Z</time>
      </trkpt>
      <trkpt lat="42.64175" lon="1.92763">
        <ele>2174.1589355469</ele>
        <time>2013-08-20T11:57:09Z</time>
      </trkpt>
      <trkpt lat="42.64177" lon="1.92762">
        <ele>2175.1201171875</ele>
        <time>2013-08-20T11:57:14Z</time>
      </trkpt>
      <trkpt lat="42.6418" lon="1.92762">
        <ele>2177.04296875</ele>
        <time>2013-08-20T11:57:19Z</time>
      </trkpt>
      <trkpt lat="42.64182" lon="1.92763">
        <ele>2178.0041503906</ele>
        <time>2013-08-20T11:57:26Z</time>
      </trkpt>
      <trkpt lat="42.64184" lon="1.92763">
        <ele>2179.4460449219</ele>
        <time>2013-08-20T11:57:32Z</time>
      </trkpt>
      <trkpt lat="42.64186" lon="1.92763">
        <ele>2180.8881835938</ele>
        <time>2013-08-20T11:57:38Z</time>
      </trkpt>
      <trkpt lat="42.6419" lon="1.92762">
        <ele>2182.330078125</ele>
        <time>2013-08-20T11:57:47Z</time>
      </trkpt>
      <trkpt lat="42.64193" lon="1.92764">
        <ele>2183.2912597656</ele>
        <time>2013-08-20T11:57:52Z</time>
      </trkpt>
      <trkpt lat="42.64194" lon="1.92766">
        <ele>2185.2138671875</ele>
        <time>2013-08-20T11:57:57Z</time>
      </trkpt>
      <trkpt lat="42.64196" lon="1.92767">
        <ele>2186.1752929688</ele>
        <time>2013-08-20T11:58:03Z</time>
      </trkpt>
      <trkpt lat="42.64197" lon="1.92767">
        <ele>2187.6171875</ele>
        <time>2013-08-20T11:58:08Z</time>
      </trkpt>
      <trkpt lat="42.64199" lon="1.92767">
        <ele>2188.0981445312</ele>
        <time>2013-08-20T11:58:13Z</time>
      </trkpt>
      <trkpt lat="42.64201" lon="1.92767">
        <ele>2189.5400390625</ele>
        <time>2013-08-20T11:58:19Z</time>
      </trkpt>
      <trkpt lat="42.64203" lon="1.92769">
        <ele>2190.5012207031</ele>
        <time>2013-08-20T11:58:24Z</time>
      </trkpt>
      <trkpt lat="42.64206" lon="1.9277">
        <ele>2190.5012207031</ele>
        <time>2013-08-20T11:58:45Z</time>
      </trkpt>
      <trkpt lat="42.64208" lon="1.92769">
        <ele>2191.943359375</ele>
        <time>2013-08-20T11:58:50Z</time>
      </trkpt>
      <trkpt lat="42.64211" lon="1.92768">
        <ele>2192.9045410156</ele>
        <time>2013-08-20T11:58:56Z</time>
      </trkpt>
      <trkpt lat="42.64213" lon="1.92766">
        <ele>2193.8659667969</ele>
        <time>2013-08-20T11:59:01Z</time>
      </trkpt>
      <trkpt lat="42.64214" lon="1.92766">
        <ele>2194.8271484375</ele>
        <time>2013-08-20T11:59:06Z</time>
      </trkpt>
      <trkpt lat="42.64216" lon="1.92764">
        <ele>2194.8271484375</ele>
        <time>2013-08-20T11:59:13Z</time>
      </trkpt>
      <trkpt lat="42.64218" lon="1.92763">
        <ele>2195.7885742188</ele>
        <time>2013-08-20T11:59:17Z</time>
      </trkpt>
      <trkpt lat="42.64221" lon="1.92765">
        <ele>2197.23046875</ele>
        <time>2013-08-20T11:59:23Z</time>
      </trkpt>
      <trkpt lat="42.64222" lon="1.92766">
        <ele>2197.7111816406</ele>
        <time>2013-08-20T11:59:29Z</time>
      </trkpt>
      <trkpt lat="42.64225" lon="1.92768">
        <ele>2199.1530761719</ele>
        <time>2013-08-20T11:59:38Z</time>
      </trkpt>
      <trkpt lat="42.64226" lon="1.92769">
        <ele>2200.5949707031</ele>
        <time>2013-08-20T11:59:47Z</time>
      </trkpt>
      <trkpt lat="42.64228" lon="1.92771">
        <ele>2201.5563964844</ele>
        <time>2013-08-20T11:59:54Z</time>
      </trkpt>
      <trkpt lat="42.64229" lon="1.92773">
        <ele>2202.517578125</ele>
        <time>2013-08-20T11:59:59Z</time>
      </trkpt>
      <trkpt lat="42.64229" lon="1.92775">
        <ele>2203.4790039062</ele>
        <time>2013-08-20T12:00:04Z</time>
      </trkpt>
      <trkpt lat="42.6423" lon="1.92778">
        <ele>2204.4404296875</ele>
        <time>2013-08-20T12:00:11Z</time>
      </trkpt>
      <trkpt lat="42.64232" lon="1.92781">
        <ele>2205.8823242188</ele>
        <time>2013-08-20T12:00:18Z</time>
      </trkpt>
      <trkpt lat="42.64234" lon="1.92783">
        <ele>2206.3630371094</ele>
        <time>2013-08-20T12:00:23Z</time>
      </trkpt>
      <trkpt lat="42.64235" lon="1.92785">
        <ele>2207.8051757812</ele>
        <time>2013-08-20T12:00:28Z</time>
      </trkpt>
      <trkpt lat="42.64235" lon="1.92788">
        <ele>2209.2470703125</ele>
        <time>2013-08-20T12:00:35Z</time>
      </trkpt>
      <trkpt lat="42.64236" lon="1.92791">
        <ele>2209.7275390625</ele>
        <time>2013-08-20T12:00:39Z</time>
      </trkpt>
      <trkpt lat="42.64236" lon="1.92793">
        <ele>2210.6889648438</ele>
        <time>2013-08-20T12:00:44Z</time>
      </trkpt>
      <trkpt lat="42.64237" lon="1.92796">
        <ele>2211.1696777344</ele>
        <time>2013-08-20T12:00:50Z</time>
      </trkpt>
      <trkpt lat="42.64236" lon="1.928">
        <ele>2211.1696777344</ele>
        <time>2013-08-20T12:00:56Z</time>
      </trkpt>
      <trkpt lat="42.64236" lon="1.92803">
        <ele>2211.650390625</ele>
        <time>2013-08-20T12:01:01Z</time>
      </trkpt>
      <trkpt lat="42.64235" lon="1.92804">
        <ele>2211.650390625</ele>
        <time>2013-08-20T12:01:05Z</time>
      </trkpt>
      <trkpt lat="42.64235" lon="1.92807">
        <ele>2212.6115722656</ele>
        <time>2013-08-20T12:01:12Z</time>
      </trkpt>
      <trkpt lat="42.64236" lon="1.9281">
        <ele>2213.5727539062</ele>
        <time>2013-08-20T12:01:19Z</time>
      </trkpt>
      <trkpt lat="42.64236" lon="1.92813">
        <ele>2214.0534667969</ele>
        <time>2013-08-20T12:01:24Z</time>
      </trkpt>
      <trkpt lat="42.64236" lon="1.92814">
        <ele>2215.0148925781</ele>
        <time>2013-08-20T12:01:34Z</time>
      </trkpt>
      <trkpt lat="42.64236" lon="1.92819">
        <ele>2215.4956054688</ele>
        <time>2013-08-20T12:01:40Z</time>
      </trkpt>
      <trkpt lat="42.64236" lon="1.92824">
        <ele>2215.9760742188</ele>
        <time>2013-08-20T12:01:47Z</time>
      </trkpt>
      <trkpt lat="42.64238" lon="1.92826">
        <ele>2216.4567871094</ele>
        <time>2013-08-20T12:01:54Z</time>
      </trkpt>
      <trkpt lat="42.64238" lon="1.9283">
        <ele>2217.41796875</ele>
        <time>2013-08-20T12:02:00Z</time>
      </trkpt>
      <trkpt lat="42.64239" lon="1.92832">
        <ele>2218.8601074219</ele>
        <time>2013-08-20T12:02:06Z</time>
      </trkpt>
      <trkpt lat="42.6424" lon="1.92833">
        <ele>2220.3022460938</ele>
        <time>2013-08-20T12:02:20Z</time>
      </trkpt>
      <trkpt lat="42.64243" lon="1.92833">
        <ele>2221.744140625</ele>
        <time>2013-08-20T12:02:25Z</time>
      </trkpt>
      <trkpt lat="42.64245" lon="1.92833">
        <ele>2223.6667480469</ele>
        <time>2013-08-20T12:02:29Z</time>
      </trkpt>
      <trkpt lat="42.64247" lon="1.92832">
        <ele>2224.6281738281</ele>
        <time>2013-08-20T12:02:33Z</time>
      </trkpt>
      <trkpt lat="42.64249" lon="1.92833">
        <ele>2226.55078125</ele>
        <time>2013-08-20T12:02:39Z</time>
      </trkpt>
      <trkpt lat="42.64251" lon="1.92832">
        <ele>2228.4733886719</ele>
        <time>2013-08-20T12:02:48Z</time>
      </trkpt>
      <trkpt lat="42.64252" lon="1.92832">
        <ele>2229.4345703125</ele>
        <time>2013-08-20T12:02:55Z</time>
      </trkpt>
      <trkpt lat="42.64256" lon="1.92831">
        <ele>2230.3959960938</ele>
        <time>2013-08-20T12:03:02Z</time>
      </trkpt>
      <trkpt lat="42.64258" lon="1.9283">
        <ele>2231.837890625</ele>
        <time>2013-08-20T12:03:07Z</time>
      </trkpt>
      <trkpt lat="42.6426" lon="1.92828">
        <ele>2232.7990722656</ele>
        <time>2013-08-20T12:03:13Z</time>
      </trkpt>
      <trkpt lat="42.64261" lon="1.92828">
        <ele>2233.2797851562</ele>
        <time>2013-08-20T12:03:18Z</time>
      </trkpt>
      <trkpt lat="42.64264" lon="1.92826">
        <ele>2234.7219238281</ele>
        <time>2013-08-20T12:03:25Z</time>
      </trkpt>
      <trkpt lat="42.64265" lon="1.92824">
        <ele>2234.7219238281</ele>
        <time>2013-08-20T12:03:30Z</time>
      </trkpt>
      <trkpt lat="42.64267" lon="1.92823">
        <ele>2236.1640625</ele>
        <time>2013-08-20T12:03:35Z</time>
      </trkpt>
      <trkpt lat="42.64268" lon="1.92823">
        <ele>2237.1252441406</ele>
        <time>2013-08-20T12:03:40Z</time>
      </trkpt>
      <trkpt lat="42.64271" lon="1.92821">
        <ele>2238.0866699219</ele>
        <time>2013-08-20T12:03:45Z</time>
      </trkpt>
      <trkpt lat="42.64273" lon="1.9282">
        <ele>2239.0478515625</ele>
        <time>2013-08-20T12:03:51Z</time>
      </trkpt>
      <trkpt lat="42.64276" lon="1.92821">
        <ele>2240.0092773438</ele>
        <time>2013-08-20T12:03:57Z</time>
      </trkpt>
      <trkpt lat="42.64278" lon="1.92822">
        <ele>2240.4897460938</ele>
        <time>2013-08-20T12:04:02Z</time>
      </trkpt>
      <trkpt lat="42.6428" lon="1.92825">
        <ele>2241.451171875</ele>
        <time>2013-08-20T12:04:07Z</time>
      </trkpt>
      <trkpt lat="42.6428" lon="1.92828">
        <ele>2241.9318847656</ele>
        <time>2013-08-20T12:04:11Z</time>
      </trkpt>
      <trkpt lat="42.64281" lon="1.92832">
        <ele>2243.3737792969</ele>
        <time>2013-08-20T12:04:17Z</time>
      </trkpt>
      <trkpt lat="42.64283" lon="1.92833">
        <ele>2244.8156738281</ele>
        <time>2013-08-20T12:04:22Z</time>
      </trkpt>
      <trkpt lat="42.64284" lon="1.92834">
        <ele>2245.7770996094</ele>
        <time>2013-08-20T12:04:27Z</time>
      </trkpt>
      <trkpt lat="42.64286" lon="1.92836">
        <ele>2246.73828125</ele>
        <time>2013-08-20T12:04:32Z</time>
      </trkpt>
      <trkpt lat="42.64289" lon="1.92842">
        <ele>2248.6608886719</ele>
        <time>2013-08-20T12:05:15Z</time>
      </trkpt>
      <trkpt lat="42.64291" lon="1.92845">
        <ele>2247.6997070312</ele>
        <time>2013-08-20T12:05:20Z</time>
      </trkpt>
      <trkpt lat="42.64291" lon="1.92848">
        <ele>2247.6997070312</ele>
        <time>2013-08-20T12:05:25Z</time>
      </trkpt>
      <trkpt lat="42.64291" lon="1.92852">
        <ele>2248.6608886719</ele>
        <time>2013-08-20T12:05:33Z</time>
      </trkpt>
      <trkpt lat="42.64291" lon="1.92855">
        <ele>2249.1416015625</ele>
        <time>2013-08-20T12:05:38Z</time>
      </trkpt>
      <trkpt lat="42.6429" lon="1.92859">
        <ele>2250.1030273438</ele>
        <time>2013-08-20T12:05:44Z</time>
      </trkpt>
      <trkpt lat="42.64289" lon="1.92862">
        <ele>2251.544921875</ele>
        <time>2013-08-20T12:05:50Z</time>
      </trkpt>
      <trkpt lat="42.64289" lon="1.92865">
        <ele>2252.9870605469</ele>
        <time>2013-08-20T12:05:55Z</time>
      </trkpt>
      <trkpt lat="42.6429" lon="1.92869">
        <ele>2254.4289550781</ele>
        <time>2013-08-20T12:06:01Z</time>
      </trkpt>
      <trkpt lat="42.6429" lon="1.92872">
        <ele>2254.9096679688</ele>
        <time>2013-08-20T12:06:10Z</time>
      </trkpt>
      <trkpt lat="42.64291" lon="1.92876">
        <ele>2256.3515625</ele>
        <time>2013-08-20T12:06:16Z</time>
      </trkpt>
      <trkpt lat="42.64293" lon="1.92879">
        <ele>2258.2741699219</ele>
        <time>2013-08-20T12:06:23Z</time>
      </trkpt>
      <trkpt lat="42.64293" lon="1.92881">
        <ele>2258.7548828125</ele>
        <time>2013-08-20T12:06:29Z</time>
      </trkpt>
      <trkpt lat="42.64293" lon="1.92884">
        <ele>2259.7160644531</ele>
        <time>2013-08-20T12:06:35Z</time>
      </trkpt>
      <trkpt lat="42.64293" lon="1.92885">
        <ele>2260.6774902344</ele>
        <time>2013-08-20T12:06:42Z</time>
      </trkpt>
      <trkpt lat="42.64296" lon="1.92884">
        <ele>2262.6000976562</ele>
        <time>2013-08-20T12:06:49Z</time>
      </trkpt>
      <trkpt lat="42.64297" lon="1.92884">
        <ele>2264.5227050781</ele>
        <time>2013-08-20T12:06:55Z</time>
      </trkpt>
      <trkpt lat="42.64299" lon="1.92882">
        <ele>2265.4841308594</ele>
        <time>2013-08-20T12:07:03Z</time>
      </trkpt>
      <trkpt lat="42.643" lon="1.92879">
        <ele>2265.9645996094</ele>
        <time>2013-08-20T12:07:09Z</time>
      </trkpt>
      <trkpt lat="42.64302" lon="1.92879">
        <ele>2267.4064941406</ele>
        <time>2013-08-20T12:07:15Z</time>
      </trkpt>
      <trkpt lat="42.64303" lon="1.92879">
        <ele>2268.8488769531</ele>
        <time>2013-08-20T12:07:20Z</time>
      </trkpt>
      <trkpt lat="42.64304" lon="1.92878">
        <ele>2270.2907714844</ele>
        <time>2013-08-20T12:07:28Z</time>
      </trkpt>
      <trkpt lat="42.64307" lon="1.92875">
        <ele>2272.2133789062</ele>
        <time>2013-08-20T12:07:37Z</time>
      </trkpt>
      <trkpt lat="42.64309" lon="1.92873">
        <ele>2272.6940917969</ele>
        <time>2013-08-20T12:07:42Z</time>
      </trkpt>
      <trkpt lat="42.64312" lon="1.92872">
        <ele>2273.6552734375</ele>
        <time>2013-08-20T12:07:49Z</time>
      </trkpt>
      <trkpt lat="42.64314" lon="1.92871">
        <ele>2274.6166992188</ele>
        <time>2013-08-20T12:07:54Z</time>
      </trkpt>
      <trkpt lat="42.64317" lon="1.92872">
        <ele>2275.5778808594</ele>
        <time>2013-08-20T12:08:00Z</time>
      </trkpt>
      <trkpt lat="42.6432" lon="1.92873">
        <ele>2276.05859375</ele>
        <time>2013-08-20T12:08:06Z</time>
      </trkpt>
      <trkpt lat="42.64323" lon="1.92875">
        <ele>2277.5004882812</ele>
        <time>2013-08-20T12:08:14Z</time>
      </trkpt>
      <trkpt lat="42.64325" lon="1.92875">
        <ele>2278.4619140625</ele>
        <time>2013-08-20T12:08:20Z</time>
      </trkpt>
      <trkpt lat="42.64326" lon="1.92876">
        <ele>2279.4230957031</ele>
        <time>2013-08-20T12:08:25Z</time>
      </trkpt>
      <trkpt lat="42.64328" lon="1.92876">
        <ele>2280.3845214844</ele>
        <time>2013-08-20T12:08:30Z</time>
      </trkpt>
      <trkpt lat="42.64331" lon="1.92877">
        <ele>2282.3071289062</ele>
        <time>2013-08-20T12:08:36Z</time>
      </trkpt>
      <trkpt lat="42.64333" lon="1.92877">
        <ele>2283.7490234375</ele>
        <time>2013-08-20T12:08:42Z</time>
      </trkpt>
      <trkpt lat="42.64335" lon="1.92876">
        <ele>2285.1911621094</ele>
        <time>2013-08-20T12:08:50Z</time>
      </trkpt>
      <trkpt lat="42.64337" lon="1.92875">
        <ele>2286.6330566406</ele>
        <time>2013-08-20T12:08:56Z</time>
      </trkpt>
      <trkpt lat="42.64339" lon="1.92875">
        <ele>2287.5944824219</ele>
        <time>2013-08-20T12:09:03Z</time>
      </trkpt>
      <trkpt lat="42.64342" lon="1.92871">
        <ele>2289.0363769531</ele>
        <time>2013-08-20T12:09:20Z</time>
      </trkpt>
      <trkpt lat="42.64345" lon="1.9287">
        <ele>2290.958984375</ele>
        <time>2013-08-20T12:09:40Z</time>
      </trkpt>
      <trkpt lat="42.64346" lon="1.92866">
        <ele>2290.4782714844</ele>
        <time>2013-08-20T12:09:45Z</time>
      </trkpt>
      <trkpt lat="42.64347" lon="1.9286">
        <ele>2290.4782714844</ele>
        <time>2013-08-20T12:09:52Z</time>
      </trkpt>
      <trkpt lat="42.64347" lon="1.92856">
        <ele>2290.4782714844</ele>
        <time>2013-08-20T12:09:59Z</time>
      </trkpt>
      <trkpt lat="42.64349" lon="1.92854">
        <ele>2290.958984375</ele>
        <time>2013-08-20T12:10:03Z</time>
      </trkpt>
      <trkpt lat="42.64351" lon="1.9285">
        <ele>2290.958984375</ele>
        <time>2013-08-20T12:10:08Z</time>
      </trkpt>
      <trkpt lat="42.64353" lon="1.92845">
        <ele>2289.5170898438</ele>
        <time>2013-08-20T12:10:15Z</time>
      </trkpt>
      <trkpt lat="42.64356" lon="1.9284">
        <ele>2289.9978027344</ele>
        <time>2013-08-20T12:10:22Z</time>
      </trkpt>
      <trkpt lat="42.6436" lon="1.92836">
        <ele>2290.958984375</ele>
        <time>2013-08-20T12:10:28Z</time>
      </trkpt>
      <trkpt lat="42.64362" lon="1.92833">
        <ele>2292.4011230469</ele>
        <time>2013-08-20T12:10:33Z</time>
      </trkpt>
      <trkpt lat="42.64365" lon="1.9283">
        <ele>2294.3234863281</ele>
        <time>2013-08-20T12:10:40Z</time>
      </trkpt>
      <trkpt lat="42.64367" lon="1.92826">
        <ele>2294.8041992188</ele>
        <time>2013-08-20T12:10:46Z</time>
      </trkpt>
      <trkpt lat="42.6437" lon="1.92822">
        <ele>2295.2849121094</ele>
        <time>2013-08-20T12:10:52Z</time>
      </trkpt>
      <trkpt lat="42.64373" lon="1.92819">
        <ele>2296.2463378906</ele>
        <time>2013-08-20T12:10:58Z</time>
      </trkpt>
      <trkpt lat="42.64376" lon="1.92817">
        <ele>2297.2075195312</ele>
        <time>2013-08-20T12:11:04Z</time>
      </trkpt>
      <trkpt lat="42.6438" lon="1.92814">
        <ele>2298.1687011719</ele>
        <time>2013-08-20T12:11:10Z</time>
      </trkpt>
      <trkpt lat="42.64383" lon="1.92812">
        <ele>2299.1301269531</ele>
        <time>2013-08-20T12:11:15Z</time>
      </trkpt>
      <trkpt lat="42.64387" lon="1.92811">
        <ele>2300.572265625</ele>
        <time>2013-08-20T12:11:21Z</time>
      </trkpt>
      <trkpt lat="42.64389" lon="1.9281">
        <ele>2301.5336914062</ele>
        <time>2013-08-20T12:11:26Z</time>
      </trkpt>
      <trkpt lat="42.6439" lon="1.92809">
        <ele>2302.4948730469</ele>
        <time>2013-08-20T12:11:30Z</time>
      </trkpt>
      <trkpt lat="42.64391" lon="1.92809">
        <ele>2302.9755859375</ele>
        <time>2013-08-20T12:11:35Z</time>
      </trkpt>
      <trkpt lat="42.64394" lon="1.9281">
        <ele>2303.9370117188</ele>
        <time>2013-08-20T12:11:40Z</time>
      </trkpt>
      <trkpt lat="42.64394" lon="1.92811">
        <ele>2305.37890625</ele>
        <time>2013-08-20T12:11:48Z</time>
      </trkpt>
      <trkpt lat="42.64395" lon="1.92815">
        <ele>2305.859375</ele>
        <time>2013-08-20T12:12:16Z</time>
      </trkpt>
      <trkpt lat="42.64394" lon="1.92819">
        <ele>2306.3400878906</ele>
        <time>2013-08-20T12:12:21Z</time>
      </trkpt>
      <trkpt lat="42.64394" lon="1.92822">
        <ele>2307.7822265625</ele>
        <time>2013-08-20T12:12:27Z</time>
      </trkpt>
      <trkpt lat="42.64394" lon="1.92825">
        <ele>2308.7434082031</ele>
        <time>2013-08-20T12:12:34Z</time>
      </trkpt>
      <trkpt lat="42.64395" lon="1.92827">
        <ele>2309.2241210938</ele>
        <time>2013-08-20T12:12:37Z</time>
      </trkpt>
      <trkpt lat="42.64394" lon="1.9283">
        <ele>2309.7045898438</ele>
        <time>2013-08-20T12:12:42Z</time>
      </trkpt>
      <trkpt lat="42.64394" lon="1.92833">
        <ele>2310.1853027344</ele>
        <time>2013-08-20T12:12:48Z</time>
      </trkpt>
      <trkpt lat="42.64393" lon="1.92837">
        <ele>2311.1467285156</ele>
        <time>2013-08-20T12:12:53Z</time>
      </trkpt>
      <trkpt lat="42.64393" lon="1.92838">
        <ele>2312.1079101562</ele>
        <time>2013-08-20T12:12:59Z</time>
      </trkpt>
      <trkpt lat="42.64393" lon="1.92841">
        <ele>2312.5886230469</ele>
        <time>2013-08-20T12:13:11Z</time>
      </trkpt>
      <trkpt lat="42.64392" lon="1.9284">
        <ele>2313.5498046875</ele>
        <time>2013-08-20T12:13:24Z</time>
      </trkpt>
      <trkpt lat="42.64395" lon="1.92839">
        <ele>2314.0305175781</ele>
        <time>2013-08-20T12:13:31Z</time>
      </trkpt>
      <trkpt lat="42.64397" lon="1.92839">
        <ele>2315.47265625</ele>
        <time>2013-08-20T12:13:36Z</time>
      </trkpt>
      <trkpt lat="42.644" lon="1.9284">
        <ele>2317.3952636719</ele>
        <time>2013-08-20T12:13:41Z</time>
      </trkpt>
      <trkpt lat="42.64403" lon="1.92841">
        <ele>2318.3566894531</ele>
        <time>2013-08-20T12:13:46Z</time>
      </trkpt>
      <trkpt lat="42.64406" lon="1.92841">
        <ele>2320.279296875</ele>
        <time>2013-08-20T12:13:52Z</time>
      </trkpt>
      <trkpt lat="42.64408" lon="1.92838">
        <ele>2321.2404785156</ele>
        <time>2013-08-20T12:13:58Z</time>
      </trkpt>
      <trkpt lat="42.6441" lon="1.92834">
        <ele>2322.6826171875</ele>
        <time>2013-08-20T12:14:04Z</time>
      </trkpt>
      <trkpt lat="42.64412" lon="1.9283">
        <ele>2324.1245117188</ele>
        <time>2013-08-20T12:14:11Z</time>
      </trkpt>
      <trkpt lat="42.64415" lon="1.92827">
        <ele>2324.6052246094</ele>
        <time>2013-08-20T12:14:16Z</time>
      </trkpt>
      <trkpt lat="42.64418" lon="1.92823">
        <ele>2326.5278320312</ele>
        <time>2013-08-20T12:14:23Z</time>
      </trkpt>
      <trkpt lat="42.64421" lon="1.92821">
        <ele>2327.4890136719</ele>
        <time>2013-08-20T12:14:30Z</time>
      </trkpt>
      <trkpt lat="42.64423" lon="1.9282">
        <ele>2328.4504394531</ele>
        <time>2013-08-20T12:14:35Z</time>
      </trkpt>
      <trkpt lat="42.64425" lon="1.92818">
        <ele>2329.8923339844</ele>
        <time>2013-08-20T12:14:41Z</time>
      </trkpt>
      <trkpt lat="42.64427" lon="1.92821">
        <ele>2330.373046875</ele>
        <time>2013-08-20T12:14:46Z</time>
      </trkpt>
      <trkpt lat="42.64428" lon="1.92823">
        <ele>2330.8537597656</ele>
        <time>2013-08-20T12:14:52Z</time>
      </trkpt>
      <trkpt lat="42.64429" lon="1.92823">
        <ele>2332.2958984375</ele>
        <time>2013-08-20T12:15:01Z</time>
      </trkpt>
      <trkpt lat="42.64431" lon="1.92821">
        <ele>2333.7377929688</ele>
        <time>2013-08-20T12:15:08Z</time>
      </trkpt>
      <trkpt lat="42.64432" lon="1.92821">
        <ele>2335.1796875</ele>
        <time>2013-08-20T12:15:15Z</time>
      </trkpt>
      <trkpt lat="42.64435" lon="1.92821">
        <ele>2336.1411132812</ele>
        <time>2013-08-20T12:15:21Z</time>
      </trkpt>
      <trkpt lat="42.64437" lon="1.92823">
        <ele>2337.1022949219</ele>
        <time>2013-08-20T12:15:26Z</time>
      </trkpt>
      <trkpt lat="42.64439" lon="1.92822">
        <ele>2338.5444335938</ele>
        <time>2013-08-20T12:15:31Z</time>
      </trkpt>
      <trkpt lat="42.64441" lon="1.92824">
        <ele>2339.5056152344</ele>
        <time>2013-08-20T12:15:37Z</time>
      </trkpt>
      <trkpt lat="42.64442" lon="1.92826">
        <ele>2340.466796875</ele>
        <time>2013-08-20T12:15:41Z</time>
      </trkpt>
      <trkpt lat="42.64443" lon="1.92827">
        <ele>2339.5056152344</ele>
        <time>2013-08-20T12:16:01Z</time>
      </trkpt>
      <trkpt lat="42.64444" lon="1.92828">
        <ele>2337.5830078125</ele>
        <time>2013-08-20T12:16:18Z</time>
      </trkpt>
      <trkpt lat="42.64445" lon="1.9283">
        <ele>2338.5444335938</ele>
        <time>2013-08-20T12:16:25Z</time>
      </trkpt>
      <trkpt lat="42.64447" lon="1.92832">
        <ele>2339.5056152344</ele>
        <time>2013-08-20T12:16:28Z</time>
      </trkpt>
      <trkpt lat="42.64447" lon="1.92835">
        <ele>2340.9475097656</ele>
        <time>2013-08-20T12:16:33Z</time>
      </trkpt>
      <trkpt lat="42.64447" lon="1.92841">
        <ele>2342.3896484375</ele>
        <time>2013-08-20T12:16:40Z</time>
      </trkpt>
      <trkpt lat="42.64449" lon="1.92845">
        <ele>2343.3508300781</ele>
        <time>2013-08-20T12:16:46Z</time>
      </trkpt>
      <trkpt lat="42.64449" lon="1.92849">
        <ele>2344.3120117188</ele>
        <time>2013-08-20T12:16:52Z</time>
      </trkpt>
      <trkpt lat="42.64449" lon="1.92854">
        <ele>2345.7541503906</ele>
        <time>2013-08-20T12:16:58Z</time>
      </trkpt>
      <trkpt lat="42.64449" lon="1.92859">
        <ele>2346.2348632812</ele>
        <time>2013-08-20T12:17:03Z</time>
      </trkpt>
      <trkpt lat="42.6445" lon="1.92864">
        <ele>2348.1574707031</ele>
        <time>2013-08-20T12:17:09Z</time>
      </trkpt>
      <trkpt lat="42.6445" lon="1.92869">
        <ele>2349.1188964844</ele>
        <time>2013-08-20T12:17:14Z</time>
      </trkpt>
      <trkpt lat="42.64451" lon="1.92872">
        <ele>2350.0803222656</ele>
        <time>2013-08-20T12:17:19Z</time>
      </trkpt>
      <trkpt lat="42.6445" lon="1.92875">
        <ele>2349.599609375</ele>
        <time>2013-08-20T12:17:29Z</time>
      </trkpt>
      <trkpt lat="42.64451" lon="1.92882">
        <ele>2350.0803222656</ele>
        <time>2013-08-20T12:17:36Z</time>
      </trkpt>
      <trkpt lat="42.64451" lon="1.92888">
        <ele>2350.5607910156</ele>
        <time>2013-08-20T12:17:42Z</time>
      </trkpt>
      <trkpt lat="42.64452" lon="1.92892">
        <ele>2352.0026855469</ele>
        <time>2013-08-20T12:17:47Z</time>
      </trkpt>
      <trkpt lat="42.64454" lon="1.92895">
        <ele>2353.9255371094</ele>
        <time>2013-08-20T12:17:53Z</time>
      </trkpt>
      <trkpt lat="42.64454" lon="1.92898">
        <ele>2355.3674316406</ele>
        <time>2013-08-20T12:17:59Z</time>
      </trkpt>
      <trkpt lat="42.64454" lon="1.929">
        <ele>2355.8479003906</ele>
        <time>2013-08-20T12:18:03Z</time>
      </trkpt>
      <trkpt lat="42.64455" lon="1.92905">
        <ele>2358.2512207031</ele>
        <time>2013-08-20T12:18:09Z</time>
      </trkpt>
      <trkpt lat="42.64456" lon="1.92908">
        <ele>2359.6931152344</ele>
        <time>2013-08-20T12:18:16Z</time>
      </trkpt>
      <trkpt lat="42.64455" lon="1.92913">
        <ele>2360.173828125</ele>
        <time>2013-08-20T12:18:22Z</time>
      </trkpt>
      <trkpt lat="42.64454" lon="1.92914">
        <ele>2361.1352539062</ele>
        <time>2013-08-20T12:18:32Z</time>
      </trkpt>
      <trkpt lat="42.64454" lon="1.92913">
        <ele>2362.5771484375</ele>
        <time>2013-08-20T12:18:54Z</time>
      </trkpt>
      <trkpt lat="42.64453" lon="1.92917">
        <ele>2363.5383300781</ele>
        <time>2013-08-20T12:19:08Z</time>
      </trkpt>
      <trkpt lat="42.64454" lon="1.92922">
        <ele>2365.4614257812</ele>
        <time>2013-08-20T12:19:14Z</time>
      </trkpt>
      <trkpt lat="42.64455" lon="1.92926">
        <ele>2365.9418945312</ele>
        <time>2013-08-20T12:19:19Z</time>
      </trkpt>
      <trkpt lat="42.64457" lon="1.92927">
        <ele>2367.3837890625</ele>
        <time>2013-08-20T12:19:24Z</time>
      </trkpt>
      <trkpt lat="42.64459" lon="1.92929">
        <ele>2367.8645019531</ele>
        <time>2013-08-20T12:19:29Z</time>
      </trkpt>
      <trkpt lat="42.6446" lon="1.92933">
        <ele>2368.8259277344</ele>
        <time>2013-08-20T12:19:35Z</time>
      </trkpt>
      <trkpt lat="42.64462" lon="1.92937">
        <ele>2370.2678222656</ele>
        <time>2013-08-20T12:19:42Z</time>
      </trkpt>
      <trkpt lat="42.64463" lon="1.9294">
        <ele>2370.7485351562</ele>
        <time>2013-08-20T12:19:47Z</time>
      </trkpt>
      <trkpt lat="42.64464" lon="1.92944">
        <ele>2371.2290039062</ele>
        <time>2013-08-20T12:19:53Z</time>
      </trkpt>
      <trkpt lat="42.64466" lon="1.92945">
        <ele>2371.7097167969</ele>
        <time>2013-08-20T12:19:58Z</time>
      </trkpt>
      <trkpt lat="42.64469" lon="1.92948">
        <ele>2373.1518554688</ele>
        <time>2013-08-20T12:20:04Z</time>
      </trkpt>
      <trkpt lat="42.6447" lon="1.92948">
        <ele>2373.6323242188</ele>
        <time>2013-08-20T12:20:23Z</time>
      </trkpt>
      <trkpt lat="42.6447" lon="1.92949">
        <ele>2374.1130371094</ele>
        <time>2013-08-20T12:20:43Z</time>
      </trkpt>
      <trkpt lat="42.6447" lon="1.92949">
        <ele>2375.07421875</ele>
        <time>2013-08-20T12:21:01Z</time>
      </trkpt>
      <trkpt lat="42.64471" lon="1.92948">
        <ele>2375.07421875</ele>
        <time>2013-08-20T12:21:16Z</time>
      </trkpt>
      <trkpt lat="42.64469" lon="1.9295">
        <ele>2375.07421875</ele>
        <time>2013-08-20T12:21:24Z</time>
      </trkpt>
      <trkpt lat="42.64467" lon="1.92954">
        <ele>2375.5549316406</ele>
        <time>2013-08-20T12:21:30Z</time>
      </trkpt>
      <trkpt lat="42.64465" lon="1.92959">
        <ele>2376.9970703125</ele>
        <time>2013-08-20T12:21:36Z</time>
      </trkpt>
      <trkpt lat="42.64463" lon="1.92962">
        <ele>2376.9970703125</ele>
        <time>2013-08-20T12:21:41Z</time>
      </trkpt>
      <trkpt lat="42.64462" lon="1.92965">
        <ele>2377.4775390625</ele>
        <time>2013-08-20T12:21:47Z</time>
      </trkpt>
      <trkpt lat="42.6446" lon="1.9297">
        <ele>2378.9194335938</ele>
        <time>2013-08-20T12:21:55Z</time>
      </trkpt>
      <trkpt lat="42.6446" lon="1.92973">
        <ele>2378.9194335938</ele>
        <time>2013-08-20T12:22:02Z</time>
      </trkpt>
      <trkpt lat="42.64458" lon="1.92976">
        <ele>2380.3618164062</ele>
        <time>2013-08-20T12:22:09Z</time>
      </trkpt>
      <trkpt lat="42.64457" lon="1.92978">
        <ele>2381.3229980469</ele>
        <time>2013-08-20T12:22:14Z</time>
      </trkpt>
      <trkpt lat="42.64455" lon="1.9298">
        <ele>2382.2844238281</ele>
        <time>2013-08-20T12:22:20Z</time>
      </trkpt>
      <trkpt lat="42.64454" lon="1.92981">
        <ele>2383.2456054688</ele>
        <time>2013-08-20T12:22:25Z</time>
      </trkpt>
      <trkpt lat="42.64452" lon="1.92983">
        <ele>2384.20703125</ele>
        <time>2013-08-20T12:22:30Z</time>
      </trkpt>
      <trkpt lat="42.6445" lon="1.92983">
        <ele>2385.6489257812</ele>
        <time>2013-08-20T12:22:35Z</time>
      </trkpt>
      <trkpt lat="42.64449" lon="1.92981">
        <ele>2386.6101074219</ele>
        <time>2013-08-20T12:22:40Z</time>
      </trkpt>
      <trkpt lat="42.64447" lon="1.92981">
        <ele>2387.5715332031</ele>
        <time>2013-08-20T12:22:46Z</time>
      </trkpt>
      <trkpt lat="42.64445" lon="1.92985">
        <ele>2388.5329589844</ele>
        <time>2013-08-20T12:22:52Z</time>
      </trkpt>
      <trkpt lat="42.64443" lon="1.92987">
        <ele>2389.0134277344</ele>
        <time>2013-08-20T12:22:57Z</time>
      </trkpt>
      <trkpt lat="42.64441" lon="1.92989">
        <ele>2389.494140625</ele>
        <time>2013-08-20T12:23:03Z</time>
      </trkpt>
      <trkpt lat="42.64439" lon="1.92991">
        <ele>2390.9360351562</ele>
        <time>2013-08-20T12:23:08Z</time>
      </trkpt>
      <trkpt lat="42.64437" lon="1.92994">
        <ele>2391.4167480469</ele>
        <time>2013-08-20T12:23:13Z</time>
      </trkpt>
      <trkpt lat="42.64436" lon="1.92996">
        <ele>2392.8586425781</ele>
        <time>2013-08-20T12:23:19Z</time>
      </trkpt>
      <trkpt lat="42.64434" lon="1.92999">
        <ele>2393.8200683594</ele>
        <time>2013-08-20T12:23:25Z</time>
      </trkpt>
      <trkpt lat="42.64433" lon="1.93">
        <ele>2394.78125</ele>
        <time>2013-08-20T12:23:32Z</time>
      </trkpt>
      <trkpt lat="42.64431" lon="1.93002">
        <ele>2395.7426757812</ele>
        <time>2013-08-20T12:23:39Z</time>
      </trkpt>
      <trkpt lat="42.64428" lon="1.93004">
        <ele>2397.1848144531</ele>
        <time>2013-08-20T12:23:46Z</time>
      </trkpt>
      <trkpt lat="42.64426" lon="1.93008">
        <ele>2398.1459960938</ele>
        <time>2013-08-20T12:23:52Z</time>
      </trkpt>
      <trkpt lat="42.64425" lon="1.93012">
        <ele>2399.107421875</ele>
        <time>2013-08-20T12:23:58Z</time>
      </trkpt>
      <trkpt lat="42.64423" lon="1.93014">
        <ele>2400.0688476562</ele>
        <time>2013-08-20T12:24:04Z</time>
      </trkpt>
      <trkpt lat="42.64421" lon="1.93017">
        <ele>2401.0300292969</ele>
        <time>2013-08-20T12:24:09Z</time>
      </trkpt>
      <trkpt lat="42.6442" lon="1.93019">
        <ele>2401.5107421875</ele>
        <time>2013-08-20T12:24:14Z</time>
      </trkpt>
      <trkpt lat="42.64418" lon="1.93023">
        <ele>2402.9526367188</ele>
        <time>2013-08-20T12:24:20Z</time>
      </trkpt>
      <trkpt lat="42.64416" lon="1.93025">
        <ele>2403.9140625</ele>
        <time>2013-08-20T12:24:26Z</time>
      </trkpt>
      <trkpt lat="42.64415" lon="1.93027">
        <ele>2404.8752441406</ele>
        <time>2013-08-20T12:24:31Z</time>
      </trkpt>
      <trkpt lat="42.64413" lon="1.9303">
        <ele>2405.8364257812</ele>
        <time>2013-08-20T12:24:36Z</time>
      </trkpt>
      <trkpt lat="42.64412" lon="1.93033">
        <ele>2406.7978515625</ele>
        <time>2013-08-20T12:24:44Z</time>
      </trkpt>
      <trkpt lat="42.64411" lon="1.93037">
        <ele>2406.3171386719</ele>
        <time>2013-08-20T12:24:49Z</time>
      </trkpt>
      <trkpt lat="42.64409" lon="1.93042">
        <ele>2406.3171386719</ele>
        <time>2013-08-20T12:24:55Z</time>
      </trkpt>
      <trkpt lat="42.64407" lon="1.93044">
        <ele>2407.2785644531</ele>
        <time>2013-08-20T12:24:59Z</time>
      </trkpt>
      <trkpt lat="42.64404" lon="1.93047">
        <ele>2407.7592773438</ele>
        <time>2013-08-20T12:25:05Z</time>
      </trkpt>
      <trkpt lat="42.64402" lon="1.93051">
        <ele>2409.681640625</ele>
        <time>2013-08-20T12:25:11Z</time>
      </trkpt>
      <trkpt lat="42.644" lon="1.93052">
        <ele>2411.1237792969</ele>
        <time>2013-08-20T12:25:17Z</time>
      </trkpt>
      <trkpt lat="42.644" lon="1.93052">
        <ele>2411.6044921875</ele>
        <time>2013-08-20T12:25:24Z</time>
      </trkpt>
      <trkpt lat="42.644" lon="1.93053">
        <ele>2413.0466308594</ele>
        <time>2013-08-20T12:25:42Z</time>
      </trkpt>
      <trkpt lat="42.64399" lon="1.93054">
        <ele>2414.4885253906</ele>
        <time>2013-08-20T12:26:00Z</time>
      </trkpt>
      <trkpt lat="42.64398" lon="1.93057">
        <ele>2414.9692382812</ele>
        <time>2013-08-20T12:26:06Z</time>
      </trkpt>
      <trkpt lat="42.64396" lon="1.9306">
        <ele>2415.9304199219</ele>
        <time>2013-08-20T12:26:12Z</time>
      </trkpt>
      <trkpt lat="42.64395" lon="1.93064">
        <ele>2417.3723144531</ele>
        <time>2013-08-20T12:26:19Z</time>
      </trkpt>
      <trkpt lat="42.64391" lon="1.93068">
        <ele>2418.3337402344</ele>
        <time>2013-08-20T12:26:26Z</time>
      </trkpt>
      <trkpt lat="42.64389" lon="1.9307">
        <ele>2418.814453125</ele>
        <time>2013-08-20T12:26:33Z</time>
      </trkpt>
      <trkpt lat="42.64389" lon="1.93073">
        <ele>2420.2563476562</ele>
        <time>2013-08-20T12:26:38Z</time>
      </trkpt>
      <trkpt lat="42.64388" lon="1.93076">
        <ele>2422.1789550781</ele>
        <time>2013-08-20T12:26:45Z</time>
      </trkpt>
      <trkpt lat="42.64386" lon="1.93079">
        <ele>2423.1403808594</ele>
        <time>2013-08-20T12:26:51Z</time>
      </trkpt>
      <trkpt lat="42.64384" lon="1.93081">
        <ele>2424.5822753906</ele>
        <time>2013-08-20T12:26:57Z</time>
      </trkpt>
      <trkpt lat="42.64383" lon="1.93084">
        <ele>2424.1015625</ele>
        <time>2013-08-20T12:27:05Z</time>
      </trkpt>
      <trkpt lat="42.64382" lon="1.93085">
        <ele>2424.5822753906</ele>
        <time>2013-08-20T12:27:15Z</time>
      </trkpt>
      <trkpt lat="42.6438" lon="1.93086">
        <ele>2425.0627441406</ele>
        <time>2013-08-20T12:27:21Z</time>
      </trkpt>
      <trkpt lat="42.64379" lon="1.93088">
        <ele>2425.0627441406</ele>
        <time>2013-08-20T12:27:28Z</time>
      </trkpt>
      <trkpt lat="42.64377" lon="1.9309">
        <ele>2426.0241699219</ele>
        <time>2013-08-20T12:27:33Z</time>
      </trkpt>
      <trkpt lat="42.64375" lon="1.93091">
        <ele>2426.0241699219</ele>
        <time>2013-08-20T12:27:38Z</time>
      </trkpt>
      <trkpt lat="42.64374" lon="1.93095">
        <ele>2425.5434570312</ele>
        <time>2013-08-20T12:27:45Z</time>
      </trkpt>
      <trkpt lat="42.64373" lon="1.93098">
        <ele>2426.0241699219</ele>
        <time>2013-08-20T12:27:51Z</time>
      </trkpt>
      <trkpt lat="42.64373" lon="1.93101">
        <ele>2426.5048828125</ele>
        <time>2013-08-20T12:27:55Z</time>
      </trkpt>
      <trkpt lat="42.64373" lon="1.93103">
        <ele>2427.9467773438</ele>
        <time>2013-08-20T12:28:00Z</time>
      </trkpt>
      <trkpt lat="42.64373" lon="1.93105">
        <ele>2429.3889160156</ele>
        <time>2013-08-20T12:28:07Z</time>
      </trkpt>
      <trkpt lat="42.64373" lon="1.93108">
        <ele>2432.2729492188</ele>
        <time>2013-08-20T12:28:14Z</time>
      </trkpt>
      <trkpt lat="42.64371" lon="1.93111">
        <ele>2433.2341308594</ele>
        <time>2013-08-20T12:28:21Z</time>
      </trkpt>
      <trkpt lat="42.64369" lon="1.93113">
        <ele>2434.1955566406</ele>
        <time>2013-08-20T12:28:27Z</time>
      </trkpt>
      <trkpt lat="42.64368" lon="1.93116">
        <ele>2435.1567382812</ele>
        <time>2013-08-20T12:28:35Z</time>
      </trkpt>
      <trkpt lat="42.64367" lon="1.93118">
        <ele>2436.5986328125</ele>
        <time>2013-08-20T12:28:41Z</time>
      </trkpt>
      <trkpt lat="42.64366" lon="1.9312">
        <ele>2438.0407714844</ele>
        <time>2013-08-20T12:28:49Z</time>
      </trkpt>
      <trkpt lat="42.64367" lon="1.93121">
        <ele>2439.4826660156</ele>
        <time>2013-08-20T12:28:55Z</time>
      </trkpt>
      <trkpt lat="42.64364" lon="1.93124">
        <ele>2440.4438476562</ele>
        <time>2013-08-20T12:29:04Z</time>
      </trkpt>
      <trkpt lat="42.64364" lon="1.93125">
        <ele>2441.8859863281</ele>
        <time>2013-08-20T12:29:10Z</time>
      </trkpt>
      <trkpt lat="42.64364" lon="1.93128">
        <ele>2443.80859375</ele>
        <time>2013-08-20T12:29:17Z</time>
      </trkpt>
      <trkpt lat="42.64364" lon="1.9313">
        <ele>2445.2507324219</ele>
        <time>2013-08-20T12:29:23Z</time>
      </trkpt>
      <trkpt lat="42.64363" lon="1.93132">
        <ele>2446.2121582031</ele>
        <time>2013-08-20T12:29:31Z</time>
      </trkpt>
      <trkpt lat="42.64363" lon="1.93133">
        <ele>2446.6926269531</ele>
        <time>2013-08-20T12:29:36Z</time>
      </trkpt>
      <trkpt lat="42.64363" lon="1.93136">
        <ele>2447.6540527344</ele>
        <time>2013-08-20T12:29:43Z</time>
      </trkpt>
      <trkpt lat="42.64362" lon="1.93137">
        <ele>2449.0959472656</ele>
        <time>2013-08-20T12:29:50Z</time>
      </trkpt>
      <trkpt lat="42.64362" lon="1.93139">
        <ele>2450.0573730469</ele>
        <time>2013-08-20T12:29:56Z</time>
      </trkpt>
      <trkpt lat="42.64362" lon="1.93141">
        <ele>2451.0185546875</ele>
        <time>2013-08-20T12:30:03Z</time>
      </trkpt>
      <trkpt lat="42.64361" lon="1.93141">
        <ele>2451.9797363281</ele>
        <time>2013-08-20T12:30:10Z</time>
      </trkpt>
      <trkpt lat="42.64362" lon="1.93143">
        <ele>2452.9411621094</ele>
        <time>2013-08-20T12:30:16Z</time>
      </trkpt>
      <trkpt lat="42.64363" lon="1.93145">
        <ele>2453.9025878906</ele>
        <time>2013-08-20T12:30:22Z</time>
      </trkpt>
      <trkpt lat="42.64364" lon="1.93148">
        <ele>2453.9025878906</ele>
        <time>2013-08-20T12:30:28Z</time>
      </trkpt>
      <trkpt lat="42.64363" lon="1.93152">
        <ele>2455.8249511719</ele>
        <time>2013-08-20T12:30:35Z</time>
      </trkpt>
      <trkpt lat="42.64362" lon="1.93156">
        <ele>2455.8249511719</ele>
        <time>2013-08-20T12:30:40Z</time>
      </trkpt>
      <trkpt lat="42.6436" lon="1.93158">
        <ele>2456.7863769531</ele>
        <time>2013-08-20T12:30:45Z</time>
      </trkpt>
      <trkpt lat="42.6436" lon="1.93159">
        <ele>2457.2670898438</ele>
        <time>2013-08-20T12:30:52Z</time>
      </trkpt>
      <trkpt lat="42.64361" lon="1.93159">
        <ele>2458.2282714844</ele>
        <time>2013-08-20T12:31:06Z</time>
      </trkpt>
      <trkpt lat="42.6436" lon="1.93162">
        <ele>2458.708984375</ele>
        <time>2013-08-20T12:31:11Z</time>
      </trkpt>
      <trkpt lat="42.64359" lon="1.93166">
        <ele>2460.1511230469</ele>
        <time>2013-08-20T12:31:17Z</time>
      </trkpt>
      <trkpt lat="42.64357" lon="1.93169">
        <ele>2460.6318359375</ele>
        <time>2013-08-20T12:31:22Z</time>
      </trkpt>
      <trkpt lat="42.64356" lon="1.93172">
        <ele>2461.1125488281</ele>
        <time>2013-08-20T12:31:29Z</time>
      </trkpt>
      <trkpt lat="42.64355" lon="1.93174">
        <ele>2463.03515625</ele>
        <time>2013-08-20T12:31:35Z</time>
      </trkpt>
      <trkpt lat="42.64354" lon="1.93175">
        <ele>2463.515625</ele>
        <time>2013-08-20T12:31:41Z</time>
      </trkpt>
      <trkpt lat="42.64354" lon="1.93176">
        <ele>2463.9963378906</ele>
        <time>2013-08-20T12:31:47Z</time>
      </trkpt>
      <trkpt lat="42.64353" lon="1.93176">
        <ele>2463.9963378906</ele>
        <time>2013-08-20T12:31:54Z</time>
      </trkpt>
      <trkpt lat="42.64353" lon="1.93176">
        <ele>2463.9963378906</ele>
        <time>2013-08-20T12:32:07Z</time>
      </trkpt>
      <trkpt lat="42.64352" lon="1.93178">
        <ele>2463.9963378906</ele>
        <time>2013-08-20T12:32:28Z</time>
      </trkpt>
      <trkpt lat="42.64351" lon="1.93179">
        <ele>2465.4384765625</ele>
        <time>2013-08-20T12:32:33Z</time>
      </trkpt>
      <trkpt lat="42.6435" lon="1.93182">
        <ele>2466.8803710938</ele>
        <time>2013-08-20T12:32:40Z</time>
      </trkpt>
      <trkpt lat="42.64349" lon="1.93185">
        <ele>2468.322265625</ele>
        <time>2013-08-20T12:32:46Z</time>
      </trkpt>
      <trkpt lat="42.64348" lon="1.93189">
        <ele>2470.2448730469</ele>
        <time>2013-08-20T12:32:52Z</time>
      </trkpt>
      <trkpt lat="42.64347" lon="1.93193">
        <ele>2470.7255859375</ele>
        <time>2013-08-20T12:33:01Z</time>
      </trkpt>
      <trkpt lat="42.64347" lon="1.93194">
        <ele>2470.7255859375</ele>
        <time>2013-08-20T12:33:11Z</time>
      </trkpt>
      <trkpt lat="42.64348" lon="1.93196">
        <ele>2469.2836914062</ele>
        <time>2013-08-20T12:33:32Z</time>
      </trkpt>
      <trkpt lat="42.64347" lon="1.93198">
        <ele>2469.2836914062</ele>
        <time>2013-08-20T12:33:38Z</time>
      </trkpt>
      <trkpt lat="42.64346" lon="1.93201">
        <ele>2469.7641601562</ele>
        <time>2013-08-20T12:33:41Z</time>
      </trkpt>
      <trkpt lat="42.64344" lon="1.93203">
        <ele>2470.2448730469</ele>
        <time>2013-08-20T12:33:46Z</time>
      </trkpt>
      <trkpt lat="42.64344" lon="1.93207">
        <ele>2470.7255859375</ele>
        <time>2013-08-20T12:33:53Z</time>
      </trkpt>
      <trkpt lat="42.64344" lon="1.93208">
        <ele>2470.2448730469</ele>
        <time>2013-08-20T12:34:00Z</time>
      </trkpt>
      <trkpt lat="42.64344" lon="1.9321">
        <ele>2469.7641601562</ele>
        <time>2013-08-20T12:34:05Z</time>
      </trkpt>
      <trkpt lat="42.64344" lon="1.93212">
        <ele>2470.2448730469</ele>
        <time>2013-08-20T12:34:11Z</time>
      </trkpt>
      <trkpt lat="42.64342" lon="1.93216">
        <ele>2471.2060546875</ele>
        <time>2013-08-20T12:34:19Z</time>
      </trkpt>
      <trkpt lat="42.64341" lon="1.93217">
        <ele>2471.6867675781</ele>
        <time>2013-08-20T12:34:25Z</time>
      </trkpt>
      <trkpt lat="42.64341" lon="1.93219">
        <ele>2473.12890625</ele>
        <time>2013-08-20T12:34:32Z</time>
      </trkpt>
      <trkpt lat="42.64341" lon="1.9322">
        <ele>2473.12890625</ele>
        <time>2013-08-20T12:34:39Z</time>
      </trkpt>
      <trkpt lat="42.64341" lon="1.93226">
        <ele>2472.6481933594</ele>
        <time>2013-08-20T12:34:45Z</time>
      </trkpt>
      <trkpt lat="42.6434" lon="1.93228">
        <ele>2473.609375</ele>
        <time>2013-08-20T12:34:51Z</time>
      </trkpt>
      <trkpt lat="42.64339" lon="1.93232">
        <ele>2475.0512695312</ele>
        <time>2013-08-20T12:34:57Z</time>
      </trkpt>
      <trkpt lat="42.64337" lon="1.93236">
        <ele>2476.0129394531</ele>
        <time>2013-08-20T12:35:03Z</time>
      </trkpt>
      <trkpt lat="42.64336" lon="1.93238">
        <ele>2476.4936523438</ele>
        <time>2013-08-20T12:35:09Z</time>
      </trkpt>
      <trkpt lat="42.64337" lon="1.93239">
        <ele>2477.4548339844</ele>
        <time>2013-08-20T12:35:21Z</time>
      </trkpt>
      <trkpt lat="42.64334" lon="1.93243">
        <ele>2479.3774414062</ele>
        <time>2013-08-20T12:35:29Z</time>
      </trkpt>
      <trkpt lat="42.64333" lon="1.93248">
        <ele>2480.8195800781</ele>
        <time>2013-08-20T12:35:36Z</time>
      </trkpt>
      <trkpt lat="42.64331" lon="1.93251">
        <ele>2481.7807617188</ele>
        <time>2013-08-20T12:35:41Z</time>
      </trkpt>
      <trkpt lat="42.64329" lon="1.93256">
        <ele>2483.22265625</ele>
        <time>2013-08-20T12:35:47Z</time>
      </trkpt>
      <trkpt lat="42.64327" lon="1.93259">
        <ele>2484.6647949219</ele>
        <time>2013-08-20T12:35:53Z</time>
      </trkpt>
      <trkpt lat="42.64326" lon="1.93262">
        <ele>2485.6259765625</ele>
        <time>2013-08-20T12:35:59Z</time>
      </trkpt>
      <trkpt lat="42.64324" lon="1.93264">
        <ele>2486.5871582031</ele>
        <time>2013-08-20T12:36:04Z</time>
      </trkpt>
      <trkpt lat="42.64323" lon="1.93265">
        <ele>2487.5485839844</ele>
        <time>2013-08-20T12:36:11Z</time>
      </trkpt>
      <trkpt lat="42.64322" lon="1.93267">
        <ele>2488.5100097656</ele>
        <time>2013-08-20T12:36:19Z</time>
      </trkpt>
      <trkpt lat="42.64319" lon="1.93269">
        <ele>2488.5100097656</ele>
        <time>2013-08-20T12:36:26Z</time>
      </trkpt>
      <trkpt lat="42.64319" lon="1.93269">
        <ele>2488.5100097656</ele>
        <time>2013-08-20T12:36:34Z</time>
      </trkpt>
      <trkpt lat="42.6432" lon="1.93273">
        <ele>2489.4711914062</ele>
        <time>2013-08-20T12:36:43Z</time>
      </trkpt>
      <trkpt lat="42.64319" lon="1.93276">
        <ele>2490.9130859375</ele>
        <time>2013-08-20T12:36:49Z</time>
      </trkpt>
      <trkpt lat="42.64317" lon="1.93276">
        <ele>2492.35546875</ele>
        <time>2013-08-20T12:36:56Z</time>
      </trkpt>
      <trkpt lat="42.64314" lon="1.93278">
        <ele>2493.3166503906</ele>
        <time>2013-08-20T12:37:03Z</time>
      </trkpt>
      <trkpt lat="42.64313" lon="1.93281">
        <ele>2494.2778320312</ele>
        <time>2013-08-20T12:37:10Z</time>
      </trkpt>
      <trkpt lat="42.6431" lon="1.93284">
        <ele>2495.7199707031</ele>
        <time>2013-08-20T12:37:17Z</time>
      </trkpt>
      <trkpt lat="42.64309" lon="1.93288">
        <ele>2496.6811523438</ele>
        <time>2013-08-20T12:37:24Z</time>
      </trkpt>
      <trkpt lat="42.64307" lon="1.9329">
        <ele>2497.1618652344</ele>
        <time>2013-08-20T12:37:30Z</time>
      </trkpt>
      <trkpt lat="42.64305" lon="1.93292">
        <ele>2497.642578125</ele>
        <time>2013-08-20T12:37:36Z</time>
      </trkpt>
      <trkpt lat="42.64305" lon="1.93294">
        <ele>2498.6037597656</ele>
        <time>2013-08-20T12:37:42Z</time>
      </trkpt>
      <trkpt lat="42.64305" lon="1.93297">
        <ele>2500.0458984375</ele>
        <time>2013-08-20T12:37:48Z</time>
      </trkpt>
      <trkpt lat="42.64307" lon="1.93299">
        <ele>2501.4877929688</ele>
        <time>2013-08-20T12:37:53Z</time>
      </trkpt>
      <trkpt lat="42.64307" lon="1.93301">
        <ele>2502.9296875</ele>
        <time>2013-08-20T12:37:58Z</time>
      </trkpt>
      <trkpt lat="42.64309" lon="1.93302">
        <ele>2504.3715820312</ele>
        <time>2013-08-20T12:38:04Z</time>
      </trkpt>
      <trkpt lat="42.64307" lon="1.93304">
        <ele>2505.3330078125</ele>
        <time>2013-08-20T12:38:12Z</time>
      </trkpt>
      <trkpt lat="42.64305" lon="1.93307">
        <ele>2506.2941894531</ele>
        <time>2013-08-20T12:38:19Z</time>
      </trkpt>
      <trkpt lat="42.64304" lon="1.93309">
        <ele>2507.2556152344</ele>
        <time>2013-08-20T12:38:27Z</time>
      </trkpt>
      <trkpt lat="42.64303" lon="1.9331">
        <ele>2508.2170410156</ele>
        <time>2013-08-20T12:38:34Z</time>
      </trkpt>
      <trkpt lat="42.64301" lon="1.93311">
        <ele>2510.6203613281</ele>
        <time>2013-08-20T12:38:43Z</time>
      </trkpt>
      <trkpt lat="42.64299" lon="1.93312">
        <ele>2510.1396484375</ele>
        <time>2013-08-20T12:38:50Z</time>
      </trkpt>
      <trkpt lat="42.64297" lon="1.93316">
        <ele>2509.1784667969</ele>
        <time>2013-08-20T12:38:56Z</time>
      </trkpt>
      <trkpt lat="42.64295" lon="1.9332">
        <ele>2508.6977539062</ele>
        <time>2013-08-20T12:39:03Z</time>
      </trkpt>
      <trkpt lat="42.64293" lon="1.93322">
        <ele>2509.1784667969</ele>
        <time>2013-08-20T12:39:09Z</time>
      </trkpt>
      <trkpt lat="42.64293" lon="1.93325">
        <ele>2510.1396484375</ele>
        <time>2013-08-20T12:39:16Z</time>
      </trkpt>
      <trkpt lat="42.64293" lon="1.93327">
        <ele>2511.5817871094</ele>
        <time>2013-08-20T12:39:21Z</time>
      </trkpt>
      <trkpt lat="42.64292" lon="1.9333">
        <ele>2512.0622558594</ele>
        <time>2013-08-20T12:39:26Z</time>
      </trkpt>
      <trkpt lat="42.64291" lon="1.93333">
        <ele>2513.0236816406</ele>
        <time>2013-08-20T12:39:33Z</time>
      </trkpt>
      <trkpt lat="42.6429" lon="1.93333">
        <ele>2513.5041503906</ele>
        <time>2013-08-20T12:39:39Z</time>
      </trkpt>
      <trkpt lat="42.64289" lon="1.93333">
        <ele>2513.9848632812</ele>
        <time>2013-08-20T12:39:44Z</time>
      </trkpt>
      <trkpt lat="42.64287" lon="1.93336">
        <ele>2513.9848632812</ele>
        <time>2013-08-20T12:39:51Z</time>
      </trkpt>
      <trkpt lat="42.64286" lon="1.93338">
        <ele>2515.4270019531</ele>
        <time>2013-08-20T12:39:58Z</time>
      </trkpt>
      <trkpt lat="42.64287" lon="1.9334">
        <ele>2517.830078125</ele>
        <time>2013-08-20T12:40:04Z</time>
      </trkpt>
      <trkpt lat="42.64289" lon="1.93341">
        <ele>2519.2722167969</ele>
        <time>2013-08-20T12:40:10Z</time>
      </trkpt>
      <trkpt lat="42.64288" lon="1.93345">
        <ele>2520.2333984375</ele>
        <time>2013-08-20T12:40:16Z</time>
      </trkpt>
      <trkpt lat="42.64288" lon="1.93346">
        <ele>2520.2333984375</ele>
        <time>2013-08-20T12:40:21Z</time>
      </trkpt>
      <trkpt lat="42.6429" lon="1.93346">
        <ele>2520.2333984375</ele>
        <time>2013-08-20T13:12:20Z</time>
      </trkpt>
      <trkpt lat="42.6429" lon="1.93346">
        <ele>2520.2333984375</ele>
        <time>2013-08-20T13:12:21Z</time>
      </trkpt>
      <trkpt lat="42.64291" lon="1.93348">
        <ele>2519.7526855469</ele>
        <time>2013-08-20T13:12:27Z</time>
      </trkpt>
      <trkpt lat="42.64292" lon="1.93352">
        <ele>2517.830078125</ele>
        <time>2013-08-20T13:12:34Z</time>
      </trkpt>
      <trkpt lat="42.64294" lon="1.93356">
        <ele>2515.9074707031</ele>
        <time>2013-08-20T13:12:41Z</time>
      </trkpt>
      <trkpt lat="42.64295" lon="1.9336">
        <ele>2514.4655761719</ele>
        <time>2013-08-20T13:12:48Z</time>
      </trkpt>
      <trkpt lat="42.64296" lon="1.93363">
        <ele>2513.0236816406</ele>
        <time>2013-08-20T13:12:55Z</time>
      </trkpt>
      <trkpt lat="42.64297" lon="1.93367">
        <ele>2511.5817871094</ele>
        <time>2013-08-20T13:13:03Z</time>
      </trkpt>
      <trkpt lat="42.64298" lon="1.93369">
        <ele>2510.6203613281</ele>
        <time>2013-08-20T13:13:10Z</time>
      </trkpt>
      <trkpt lat="42.64299" lon="1.9337">
        <ele>2508.6977539062</ele>
        <time>2013-08-20T13:13:27Z</time>
      </trkpt>
      <trkpt lat="42.64301" lon="1.93376">
        <ele>2506.7749023438</ele>
        <time>2013-08-20T13:13:35Z</time>
      </trkpt>
      <trkpt lat="42.64302" lon="1.93379">
        <ele>2505.8134765625</ele>
        <time>2013-08-20T13:13:40Z</time>
      </trkpt>
      <trkpt lat="42.64302" lon="1.93384">
        <ele>2504.8522949219</ele>
        <time>2013-08-20T13:13:46Z</time>
      </trkpt>
      <trkpt lat="42.64304" lon="1.93393">
        <ele>2502.4489746094</ele>
        <time>2013-08-20T13:13:54Z</time>
      </trkpt>
      <trkpt lat="42.64306" lon="1.93399">
        <ele>2500.0458984375</ele>
        <time>2013-08-20T13:14:01Z</time>
      </trkpt>
      <trkpt lat="42.64309" lon="1.93402">
        <ele>2498.123046875</ele>
        <time>2013-08-20T13:14:07Z</time>
      </trkpt>
      <trkpt lat="42.64312" lon="1.93403">
        <ele>2496.6811523438</ele>
        <time>2013-08-20T13:14:11Z</time>
      </trkpt>
      <trkpt lat="42.64314" lon="1.93407">
        <ele>2494.2778320312</ele>
        <time>2013-08-20T13:14:18Z</time>
      </trkpt>
      <trkpt lat="42.64319" lon="1.93406">
        <ele>2492.35546875</ele>
        <time>2013-08-20T13:14:24Z</time>
      </trkpt>
      <trkpt lat="42.64323" lon="1.93408">
        <ele>2490.4323730469</ele>
        <time>2013-08-20T13:14:30Z</time>
      </trkpt>
      <trkpt lat="42.64328" lon="1.93409">
        <ele>2488.029296875</ele>
        <time>2013-08-20T13:14:37Z</time>
      </trkpt>
      <trkpt lat="42.6433" lon="1.93415">
        <ele>2485.6259765625</ele>
        <time>2013-08-20T13:14:43Z</time>
      </trkpt>
      <trkpt lat="42.64332" lon="1.93419">
        <ele>2484.1840820312</ele>
        <time>2013-08-20T13:14:49Z</time>
      </trkpt>
      <trkpt lat="42.64337" lon="1.93417">
        <ele>2482.7419433594</ele>
        <time>2013-08-20T13:14:55Z</time>
      </trkpt>
      <trkpt lat="42.64343" lon="1.93415">
        <ele>2480.3388671875</ele>
        <time>2013-08-20T13:15:02Z</time>
      </trkpt>
      <trkpt lat="42.64349" lon="1.93416">
        <ele>2477.4548339844</ele>
        <time>2013-08-20T13:15:10Z</time>
      </trkpt>
      <trkpt lat="42.64352" lon="1.93421">
        <ele>2475.5319824219</ele>
        <time>2013-08-20T13:15:16Z</time>
      </trkpt>
      <trkpt lat="42.64357" lon="1.93423">
        <ele>2473.609375</ele>
        <time>2013-08-20T13:15:22Z</time>
      </trkpt>
      <trkpt lat="42.64363" lon="1.93425">
        <ele>2471.2060546875</ele>
        <time>2013-08-20T13:15:29Z</time>
      </trkpt>
      <trkpt lat="42.6437" lon="1.9343">
        <ele>2469.2836914062</ele>
        <time>2013-08-20T13:15:37Z</time>
      </trkpt>
      <trkpt lat="42.64373" lon="1.93434">
        <ele>2467.8415527344</ele>
        <time>2013-08-20T13:15:41Z</time>
      </trkpt>
      <trkpt lat="42.64378" lon="1.93437">
        <ele>2465.9189453125</ele>
        <time>2013-08-20T13:15:46Z</time>
      </trkpt>
      <trkpt lat="42.64382" lon="1.93438">
        <ele>2464.9577636719</ele>
        <time>2013-08-20T13:15:53Z</time>
      </trkpt>
      <trkpt lat="42.64388" lon="1.93438">
        <ele>2462.5544433594</ele>
        <time>2013-08-20T13:16:00Z</time>
      </trkpt>
      <trkpt lat="42.64392" lon="1.93437">
        <ele>2461.5932617188</ele>
        <time>2013-08-20T13:16:06Z</time>
      </trkpt>
      <trkpt lat="42.64397" lon="1.93436">
        <ele>2461.5932617188</ele>
        <time>2013-08-20T13:16:14Z</time>
      </trkpt>
      <trkpt lat="42.644" lon="1.93436">
        <ele>2462.5544433594</ele>
        <time>2013-08-20T13:16:21Z</time>
      </trkpt>
      <trkpt lat="42.64402" lon="1.93436">
        <ele>2461.1125488281</ele>
        <time>2013-08-20T13:16:28Z</time>
      </trkpt>
      <trkpt lat="42.64404" lon="1.93435">
        <ele>2460.1511230469</ele>
        <time>2013-08-20T13:16:35Z</time>
      </trkpt>
      <trkpt lat="42.64405" lon="1.93434">
        <ele>2459.1896972656</ele>
        <time>2013-08-20T13:16:40Z</time>
      </trkpt>
      <trkpt lat="42.64408" lon="1.93436">
        <ele>2458.2282714844</ele>
        <time>2013-08-20T13:16:46Z</time>
      </trkpt>
      <trkpt lat="42.64413" lon="1.93438">
        <ele>2455.3444824219</ele>
        <time>2013-08-20T13:16:55Z</time>
      </trkpt>
      <trkpt lat="42.64415" lon="1.9344">
        <ele>2453.9025878906</ele>
        <time>2013-08-20T13:17:00Z</time>
      </trkpt>
      <trkpt lat="42.64418" lon="1.93444">
        <ele>2452.4604492188</ele>
        <time>2013-08-20T13:17:05Z</time>
      </trkpt>
      <trkpt lat="42.64421" lon="1.93453">
        <ele>2450.0573730469</ele>
        <time>2013-08-20T13:17:13Z</time>
      </trkpt>
      <trkpt lat="42.64422" lon="1.93458">
        <ele>2448.615234375</ele>
        <time>2013-08-20T13:17:19Z</time>
      </trkpt>
      <trkpt lat="42.64426" lon="1.93463">
        <ele>2446.6926269531</ele>
        <time>2013-08-20T13:17:26Z</time>
      </trkpt>
      <trkpt lat="42.64432" lon="1.93466">
        <ele>2444.2893066406</ele>
        <time>2013-08-20T13:17:33Z</time>
      </trkpt>
      <trkpt lat="42.64437" lon="1.93466">
        <ele>2441.8859863281</ele>
        <time>2013-08-20T13:17:40Z</time>
      </trkpt>
      <trkpt lat="42.64444" lon="1.93469">
        <ele>2439.4826660156</ele>
        <time>2013-08-20T13:17:48Z</time>
      </trkpt>
      <trkpt lat="42.64449" lon="1.93468">
        <ele>2436.5986328125</ele>
        <time>2013-08-20T13:17:55Z</time>
      </trkpt>
      <trkpt lat="42.64454" lon="1.93468">
        <ele>2434.1955566406</ele>
        <time>2013-08-20T13:18:02Z</time>
      </trkpt>
      <trkpt lat="42.64459" lon="1.93468">
        <ele>2432.2729492188</ele>
        <time>2013-08-20T13:18:09Z</time>
      </trkpt>
      <trkpt lat="42.64464" lon="1.9347">
        <ele>2430.8310546875</ele>
        <time>2013-08-20T13:18:16Z</time>
      </trkpt>
      <trkpt lat="42.64469" lon="1.93471">
        <ele>2428.427734375</ele>
        <time>2013-08-20T13:18:23Z</time>
      </trkpt>
      <trkpt lat="42.64472" lon="1.93472">
        <ele>2427.4660644531</ele>
        <time>2013-08-20T13:18:30Z</time>
      </trkpt>
      <trkpt lat="42.64474" lon="1.93473">
        <ele>2426.5048828125</ele>
        <time>2013-08-20T13:18:36Z</time>
      </trkpt>
      <trkpt lat="42.64478" lon="1.93476">
        <ele>2425.5434570312</ele>
        <time>2013-08-20T13:18:44Z</time>
      </trkpt>
      <trkpt lat="42.64481" lon="1.93477">
        <ele>2423.6208496094</ele>
        <time>2013-08-20T13:18:51Z</time>
      </trkpt>
      <trkpt lat="42.64481" lon="1.9348">
        <ele>2423.1403808594</ele>
        <time>2013-08-20T13:18:55Z</time>
      </trkpt>
      <trkpt lat="42.64484" lon="1.93479">
        <ele>2421.6982421875</ele>
        <time>2013-08-20T13:19:01Z</time>
      </trkpt>
      <trkpt lat="42.64486" lon="1.93481">
        <ele>2420.7370605469</ele>
        <time>2013-08-20T13:19:06Z</time>
      </trkpt>
      <trkpt lat="42.64488" lon="1.93483">
        <ele>2418.3337402344</ele>
        <time>2013-08-20T13:19:14Z</time>
      </trkpt>
      <trkpt lat="42.64491" lon="1.93483">
        <ele>2416.4111328125</ele>
        <time>2013-08-20T13:19:22Z</time>
      </trkpt>
      <trkpt lat="42.64492" lon="1.93484">
        <ele>2414.9692382812</ele>
        <time>2013-08-20T13:19:28Z</time>
      </trkpt>
      <trkpt lat="42.64493" lon="1.93486">
        <ele>2414.4885253906</ele>
        <time>2013-08-20T13:19:35Z</time>
      </trkpt>
      <trkpt lat="42.64494" lon="1.93487">
        <ele>2412.5659179688</ele>
        <time>2013-08-20T13:19:43Z</time>
      </trkpt>
      <trkpt lat="42.64495" lon="1.93488">
        <ele>2410.1623535156</ele>
        <time>2013-08-20T13:19:51Z</time>
      </trkpt>
      <trkpt lat="42.64496" lon="1.9349">
        <ele>2409.681640625</ele>
        <time>2013-08-20T13:19:58Z</time>
      </trkpt>
      <trkpt lat="42.64496" lon="1.93492">
        <ele>2408.2397460938</ele>
        <time>2013-08-20T13:20:10Z</time>
      </trkpt>
      <trkpt lat="42.64496" lon="1.93492">
        <ele>2406.7978515625</ele>
        <time>2013-08-20T13:20:16Z</time>
      </trkpt>
      <trkpt lat="42.64497" lon="1.93491">
        <ele>2405.8364257812</ele>
        <time>2013-08-20T13:20:26Z</time>
      </trkpt>
      <trkpt lat="42.64499" lon="1.93492">
        <ele>2404.8752441406</ele>
        <time>2013-08-20T13:20:32Z</time>
      </trkpt>
      <trkpt lat="42.64498" lon="1.93492">
        <ele>2401.5107421875</ele>
        <time>2013-08-20T13:20:39Z</time>
      </trkpt>
      <trkpt lat="42.64499" lon="1.93492">
        <ele>2399.5881347656</ele>
        <time>2013-08-20T13:20:47Z</time>
      </trkpt>
      <trkpt lat="42.64499" lon="1.93491">
        <ele>2398.6267089844</ele>
        <time>2013-08-20T13:20:54Z</time>
      </trkpt>
      <trkpt lat="42.64501" lon="1.93492">
        <ele>2398.1459960938</ele>
        <time>2013-08-20T13:21:00Z</time>
      </trkpt>
      <trkpt lat="42.64503" lon="1.93498">
        <ele>2398.6267089844</ele>
        <time>2013-08-20T13:21:09Z</time>
      </trkpt>
      <trkpt lat="42.64506" lon="1.93501">
        <ele>2398.6267089844</ele>
        <time>2013-08-20T13:21:16Z</time>
      </trkpt>
      <trkpt lat="42.64509" lon="1.93497">
        <ele>2397.1848144531</ele>
        <time>2013-08-20T13:21:23Z</time>
      </trkpt>
      <trkpt lat="42.64511" lon="1.93493">
        <ele>2396.2236328125</ele>
        <time>2013-08-20T13:21:28Z</time>
      </trkpt>
      <trkpt lat="42.64515" lon="1.93492">
        <ele>2393.8200683594</ele>
        <time>2013-08-20T13:21:35Z</time>
      </trkpt>
      <trkpt lat="42.64518" lon="1.9349">
        <ele>2392.3781738281</ele>
        <time>2013-08-20T13:21:40Z</time>
      </trkpt>
      <trkpt lat="42.64521" lon="1.93488">
        <ele>2390.4553222656</ele>
        <time>2013-08-20T13:21:47Z</time>
      </trkpt>
      <trkpt lat="42.64524" lon="1.93486">
        <ele>2388.5329589844</ele>
        <time>2013-08-20T13:21:53Z</time>
      </trkpt>
      <trkpt lat="42.64525" lon="1.93485">
        <ele>2387.0908203125</ele>
        <time>2013-08-20T13:21:58Z</time>
      </trkpt>
      <trkpt lat="42.64526" lon="1.93483">
        <ele>2385.6489257812</ele>
        <time>2013-08-20T13:22:03Z</time>
      </trkpt>
      <trkpt lat="42.64528" lon="1.93479">
        <ele>2384.6877441406</ele>
        <time>2013-08-20T13:22:08Z</time>
      </trkpt>
      <trkpt lat="42.64529" lon="1.93476">
        <ele>2383.2456054688</ele>
        <time>2013-08-20T13:22:13Z</time>
      </trkpt>
      <trkpt lat="42.64531" lon="1.93477">
        <ele>2380.8425292969</ele>
        <time>2013-08-20T13:22:21Z</time>
      </trkpt>
      <trkpt lat="42.64534" lon="1.93477">
        <ele>2378.9194335938</ele>
        <time>2013-08-20T13:22:30Z</time>
      </trkpt>
      <trkpt lat="42.64536" lon="1.93474">
        <ele>2376.0356445312</ele>
        <time>2013-08-20T13:22:38Z</time>
      </trkpt>
      <trkpt lat="42.64536" lon="1.93473">
        <ele>2375.07421875</ele>
        <time>2013-08-20T13:22:45Z</time>
      </trkpt>
      <trkpt lat="42.64537" lon="1.93474">
        <ele>2376.9970703125</ele>
        <time>2013-08-20T13:23:01Z</time>
      </trkpt>
      <trkpt lat="42.64541" lon="1.93474">
        <ele>2374.59375</ele>
        <time>2013-08-20T13:23:09Z</time>
      </trkpt>
      <trkpt lat="42.6454" lon="1.93471">
        <ele>2373.6323242188</ele>
        <time>2013-08-20T13:23:15Z</time>
      </trkpt>
      <trkpt lat="42.64539" lon="1.93466">
        <ele>2372.6711425781</ele>
        <time>2013-08-20T13:23:21Z</time>
      </trkpt>
      <trkpt lat="42.64538" lon="1.93459">
        <ele>2370.7485351562</ele>
        <time>2013-08-20T13:23:28Z</time>
      </trkpt>
      <trkpt lat="42.6454" lon="1.93454">
        <ele>2367.8645019531</ele>
        <time>2013-08-20T13:23:34Z</time>
      </trkpt>
      <trkpt lat="42.64541" lon="1.93451">
        <ele>2364.9807128906</ele>
        <time>2013-08-20T13:23:40Z</time>
      </trkpt>
      <trkpt lat="42.64544" lon="1.9345">
        <ele>2364.0192871094</ele>
        <time>2013-08-20T13:23:46Z</time>
      </trkpt>
      <trkpt lat="42.64546" lon="1.93449">
        <ele>2362.5771484375</ele>
        <time>2013-08-20T13:23:53Z</time>
      </trkpt>
      <trkpt lat="42.64547" lon="1.93446">
        <ele>2360.173828125</ele>
        <time>2013-08-20T13:23:59Z</time>
      </trkpt>
      <trkpt lat="42.64549" lon="1.93444">
        <ele>2358.2512207031</ele>
        <time>2013-08-20T13:24:05Z</time>
      </trkpt>
      <trkpt lat="42.6455" lon="1.93438">
        <ele>2355.8479003906</ele>
        <time>2013-08-20T13:24:12Z</time>
      </trkpt>
      <trkpt lat="42.64552" lon="1.93433">
        <ele>2353.9255371094</ele>
        <time>2013-08-20T13:24:20Z</time>
      </trkpt>
      <trkpt lat="42.64554" lon="1.93431">
        <ele>2351.5222167969</ele>
        <time>2013-08-20T13:24:27Z</time>
      </trkpt>
      <trkpt lat="42.64557" lon="1.93429">
        <ele>2349.599609375</ele>
        <time>2013-08-20T13:24:33Z</time>
      </trkpt>
      <trkpt lat="42.64561" lon="1.93431">
        <ele>2348.6381835938</ele>
        <time>2013-08-20T13:24:38Z</time>
      </trkpt>
      <trkpt lat="42.64565" lon="1.93433">
        <ele>2346.7153320312</ele>
        <time>2013-08-20T13:24:45Z</time>
      </trkpt>
      <trkpt lat="42.64568" lon="1.93433">
        <ele>2344.3120117188</ele>
        <time>2013-08-20T13:24:51Z</time>
      </trkpt>
      <trkpt lat="42.64573" lon="1.93434">
        <ele>2341.4282226562</ele>
        <time>2013-08-20T13:24:59Z</time>
      </trkpt>
      <trkpt lat="42.64576" lon="1.93437">
        <ele>2339.5056152344</ele>
        <time>2013-08-20T13:25:06Z</time>
      </trkpt>
      <trkpt lat="42.6458" lon="1.93439">
        <ele>2337.5830078125</ele>
        <time>2013-08-20T13:25:13Z</time>
      </trkpt>
      <trkpt lat="42.64584" lon="1.93445">
        <ele>2336.6215820312</ele>
        <time>2013-08-20T13:25:20Z</time>
      </trkpt>
      <trkpt lat="42.64587" lon="1.93445">
        <ele>2334.69921875</ele>
        <time>2013-08-20T13:25:27Z</time>
      </trkpt>
      <trkpt lat="42.6459" lon="1.93448">
        <ele>2333.7377929688</ele>
        <time>2013-08-20T13:25:33Z</time>
      </trkpt>
      <trkpt lat="42.64592" lon="1.93449">
        <ele>2332.2958984375</ele>
        <time>2013-08-20T13:25:39Z</time>
      </trkpt>
      <trkpt lat="42.64596" lon="1.9345">
        <ele>2331.3342285156</ele>
        <time>2013-08-20T13:25:44Z</time>
      </trkpt>
      <trkpt lat="42.64599" lon="1.93451">
        <ele>2329.8923339844</ele>
        <time>2013-08-20T13:25:50Z</time>
      </trkpt>
      <trkpt lat="42.64603" lon="1.93453">
        <ele>2327.9697265625</ele>
        <time>2013-08-20T13:25:57Z</time>
      </trkpt>
      <trkpt lat="42.64608" lon="1.93456">
        <ele>2327.0085449219</ele>
        <time>2013-08-20T13:26:03Z</time>
      </trkpt>
      <trkpt lat="42.64612" lon="1.93458">
        <ele>2325.0856933594</ele>
        <time>2013-08-20T13:26:09Z</time>
      </trkpt>
      <trkpt lat="42.64616" lon="1.9346">
        <ele>2323.1633300781</ele>
        <time>2013-08-20T13:26:17Z</time>
      </trkpt>
      <trkpt lat="42.64622" lon="1.9346">
        <ele>2320.7600097656</ele>
        <time>2013-08-20T13:26:24Z</time>
      </trkpt>
      <trkpt lat="42.64629" lon="1.9346">
        <ele>2319.3181152344</ele>
        <time>2013-08-20T13:26:32Z</time>
      </trkpt>
      <trkpt lat="42.64635" lon="1.93462">
        <ele>2318.3566894531</ele>
        <time>2013-08-20T13:26:38Z</time>
      </trkpt>
      <trkpt lat="42.64641" lon="1.93466">
        <ele>2316.4340820312</ele>
        <time>2013-08-20T13:26:45Z</time>
      </trkpt>
      <trkpt lat="42.64642" lon="1.93466">
        <ele>2316.4340820312</ele>
        <time>2013-08-20T13:26:46Z</time>
      </trkpt>
      <trkpt lat="42.64648" lon="1.9347">
        <ele>2316.4340820312</ele>
        <time>2013-08-20T13:26:52Z</time>
      </trkpt>
      <trkpt lat="42.64653" lon="1.93475">
        <ele>2315.953125</ele>
        <time>2013-08-20T13:26:59Z</time>
      </trkpt>
      <trkpt lat="42.64656" lon="1.9348">
        <ele>2314.9919433594</ele>
        <time>2013-08-20T13:27:05Z</time>
      </trkpt>
      <trkpt lat="42.64659" lon="1.93485">
        <ele>2313.5498046875</ele>
        <time>2013-08-20T13:27:11Z</time>
      </trkpt>
      <trkpt lat="42.64661" lon="1.93487">
        <ele>2312.5886230469</ele>
        <time>2013-08-20T13:27:16Z</time>
      </trkpt>
      <trkpt lat="42.64665" lon="1.93492">
        <ele>2311.1467285156</ele>
        <time>2013-08-20T13:27:21Z</time>
      </trkpt>
      <trkpt lat="42.6467" lon="1.93497">
        <ele>2310.1853027344</ele>
        <time>2013-08-20T13:27:27Z</time>
      </trkpt>
      <trkpt lat="42.64674" lon="1.935">
        <ele>2308.7434082031</ele>
        <time>2013-08-20T13:27:34Z</time>
      </trkpt>
      <trkpt lat="42.64677" lon="1.93505">
        <ele>2308.2626953125</ele>
        <time>2013-08-20T13:27:40Z</time>
      </trkpt>
      <trkpt lat="42.64684" lon="1.93512">
        <ele>2307.7822265625</ele>
        <time>2013-08-20T13:27:48Z</time>
      </trkpt>
      <trkpt lat="42.64687" lon="1.93517">
        <ele>2307.7822265625</ele>
        <time>2013-08-20T13:27:54Z</time>
      </trkpt>
      <trkpt lat="42.64691" lon="1.93519">
        <ele>2307.3015136719</ele>
        <time>2013-08-20T13:28:00Z</time>
      </trkpt>
      <trkpt lat="42.64695" lon="1.93523">
        <ele>2306.3400878906</ele>
        <time>2013-08-20T13:28:07Z</time>
      </trkpt>
      <trkpt lat="42.64699" lon="1.93527">
        <ele>2306.3400878906</ele>
        <time>2013-08-20T13:28:12Z</time>
      </trkpt>
      <trkpt lat="42.64703" lon="1.9353">
        <ele>2305.37890625</ele>
        <time>2013-08-20T13:28:18Z</time>
      </trkpt>
      <trkpt lat="42.64706" lon="1.93535">
        <ele>2305.37890625</ele>
        <time>2013-08-20T13:28:25Z</time>
      </trkpt>
      <trkpt lat="42.64708" lon="1.9354">
        <ele>2305.859375</ele>
        <time>2013-08-20T13:28:31Z</time>
      </trkpt>
      <trkpt lat="42.64708" lon="1.93543">
        <ele>2305.859375</ele>
        <time>2013-08-20T13:28:37Z</time>
      </trkpt>
      <trkpt lat="42.64708" lon="1.93546">
        <ele>2305.37890625</ele>
        <time>2013-08-20T13:28:43Z</time>
      </trkpt>
      <trkpt lat="42.64709" lon="1.93549">
        <ele>2304.4174804688</ele>
        <time>2013-08-20T13:28:50Z</time>
      </trkpt>
      <trkpt lat="42.6471" lon="1.93554">
        <ele>2302.9755859375</ele>
        <time>2013-08-20T13:28:57Z</time>
      </trkpt>
      <trkpt lat="42.64709" lon="1.93559">
        <ele>2302.0141601562</ele>
        <time>2013-08-20T13:29:03Z</time>
      </trkpt>
      <trkpt lat="42.64708" lon="1.93565">
        <ele>2302.0141601562</ele>
        <time>2013-08-20T13:29:09Z</time>
      </trkpt>
      <trkpt lat="42.64707" lon="1.93569">
        <ele>2301.0529785156</ele>
        <time>2013-08-20T13:29:15Z</time>
      </trkpt>
      <trkpt lat="42.64706" lon="1.93573">
        <ele>2299.6108398438</ele>
        <time>2013-08-20T13:29:22Z</time>
      </trkpt>
      <trkpt lat="42.64706" lon="1.93575">
        <ele>2299.1301269531</ele>
        <time>2013-08-20T13:29:29Z</time>
      </trkpt>
      <trkpt lat="42.64706" lon="1.93578">
        <ele>2299.1301269531</ele>
        <time>2013-08-20T13:29:35Z</time>
      </trkpt>
      <trkpt lat="42.64707" lon="1.93581">
        <ele>2299.6108398438</ele>
        <time>2013-08-20T13:29:39Z</time>
      </trkpt>
      <trkpt lat="42.64711" lon="1.93584">
        <ele>2298.6494140625</ele>
        <time>2013-08-20T13:29:45Z</time>
      </trkpt>
      <trkpt lat="42.64715" lon="1.93581">
        <ele>2296.7268066406</ele>
        <time>2013-08-20T13:29:51Z</time>
      </trkpt>
      <trkpt lat="42.64719" lon="1.93579">
        <ele>2294.8041992188</ele>
        <time>2013-08-20T13:29:58Z</time>
      </trkpt>
      <trkpt lat="42.64721" lon="1.93577">
        <ele>2293.8430175781</ele>
        <time>2013-08-20T13:30:04Z</time>
      </trkpt>
      <trkpt lat="42.64721" lon="1.93577">
        <ele>2291.4396972656</ele>
        <time>2013-08-20T13:30:08Z</time>
      </trkpt>
      <trkpt lat="42.64722" lon="1.93577">
        <ele>2289.9978027344</ele>
        <time>2013-08-20T13:30:14Z</time>
      </trkpt>
      <trkpt lat="42.64724" lon="1.93574">
        <ele>2288.5559082031</ele>
        <time>2013-08-20T13:30:20Z</time>
      </trkpt>
      <trkpt lat="42.64727" lon="1.93571">
        <ele>2287.1137695312</ele>
        <time>2013-08-20T13:30:27Z</time>
      </trkpt>
      <trkpt lat="42.64729" lon="1.93568">
        <ele>2286.1525878906</ele>
        <time>2013-08-20T13:30:32Z</time>
      </trkpt>
      <trkpt lat="42.6473" lon="1.93565">
        <ele>2283.7490234375</ele>
        <time>2013-08-20T13:30:39Z</time>
      </trkpt>
      <trkpt lat="42.64731" lon="1.93561">
        <ele>2281.8264160156</ele>
        <time>2013-08-20T13:30:45Z</time>
      </trkpt>
      <trkpt lat="42.64732" lon="1.93556">
        <ele>2280.865234375</ele>
        <time>2013-08-20T13:30:51Z</time>
      </trkpt>
      <trkpt lat="42.64734" lon="1.93552">
        <ele>2278.4619140625</ele>
        <time>2013-08-20T13:30:56Z</time>
      </trkpt>
      <trkpt lat="42.64737" lon="1.9355">
        <ele>2276.05859375</ele>
        <time>2013-08-20T13:31:00Z</time>
      </trkpt>
      <trkpt lat="42.64739" lon="1.93548">
        <ele>2274.6166992188</ele>
        <time>2013-08-20T13:31:06Z</time>
      </trkpt>
      <trkpt lat="42.64741" lon="1.93544">
        <ele>2272.2133789062</ele>
        <time>2013-08-20T13:31:13Z</time>
      </trkpt>
      <trkpt lat="42.64743" lon="1.93539">
        <ele>2270.2907714844</ele>
        <time>2013-08-20T13:31:19Z</time>
      </trkpt>
      <trkpt lat="42.64745" lon="1.93536">
        <ele>2268.8488769531</ele>
        <time>2013-08-20T13:31:25Z</time>
      </trkpt>
      <trkpt lat="42.64747" lon="1.93533">
        <ele>2267.4064941406</ele>
        <time>2013-08-20T13:31:31Z</time>
      </trkpt>
      <trkpt lat="42.64751" lon="1.93527">
        <ele>2265.9645996094</ele>
        <time>2013-08-20T13:31:39Z</time>
      </trkpt>
      <trkpt lat="42.64754" lon="1.93524">
        <ele>2264.5227050781</ele>
        <time>2013-08-20T13:31:46Z</time>
      </trkpt>
      <trkpt lat="42.64758" lon="1.93523">
        <ele>2264.5227050781</ele>
        <time>2013-08-20T13:31:52Z</time>
      </trkpt>
      <trkpt lat="42.64762" lon="1.93521">
        <ele>2262.6000976562</ele>
        <time>2013-08-20T13:31:59Z</time>
      </trkpt>
      <trkpt lat="42.64767" lon="1.9352">
        <ele>2261.6389160156</ele>
        <time>2013-08-20T13:32:04Z</time>
      </trkpt>
      <trkpt lat="42.64772" lon="1.93516">
        <ele>2260.1967773438</ele>
        <time>2013-08-20T13:32:10Z</time>
      </trkpt>
      <trkpt lat="42.64777" lon="1.93512">
        <ele>2259.2355957031</ele>
        <time>2013-08-20T13:32:16Z</time>
      </trkpt>
      <trkpt lat="42.64785" lon="1.93509">
        <ele>2258.2741699219</ele>
        <time>2013-08-20T13:32:24Z</time>
      </trkpt>
      <trkpt lat="42.64791" lon="1.93507">
        <ele>2257.3129882812</ele>
        <time>2013-08-20T13:32:31Z</time>
      </trkpt>
      <trkpt lat="42.64793" lon="1.93507">
        <ele>2256.8322753906</ele>
        <time>2013-08-20T13:32:32Z</time>
      </trkpt>
      <trkpt lat="42.64801" lon="1.93504">
        <ele>2255.8708496094</ele>
        <time>2013-08-20T13:32:40Z</time>
      </trkpt>
      <trkpt lat="42.64808" lon="1.93501">
        <ele>2253.9484863281</ele>
        <time>2013-08-20T13:32:47Z</time>
      </trkpt>
      <trkpt lat="42.64815" lon="1.93499">
        <ele>2252.5063476562</ele>
        <time>2013-08-20T13:32:53Z</time>
      </trkpt>
      <trkpt lat="42.64825" lon="1.93499">
        <ele>2251.0642089844</ele>
        <time>2013-08-20T13:33:01Z</time>
      </trkpt>
      <trkpt lat="42.64835" lon="1.935">
        <ele>2250.1030273438</ele>
        <time>2013-08-20T13:33:09Z</time>
      </trkpt>
      <trkpt lat="42.64842" lon="1.93502">
        <ele>2249.6223144531</ele>
        <time>2013-08-20T13:33:15Z</time>
      </trkpt>
      <trkpt lat="42.6485" lon="1.93505">
        <ele>2249.6223144531</ele>
        <time>2013-08-20T13:33:22Z</time>
      </trkpt>
      <trkpt lat="42.6486" lon="1.93508">
        <ele>2250.5834960938</ele>
        <time>2013-08-20T13:33:30Z</time>
      </trkpt>
      <trkpt lat="42.64867" lon="1.93511">
        <ele>2251.544921875</ele>
        <time>2013-08-20T13:33:37Z</time>
      </trkpt>
      <trkpt lat="42.64874" lon="1.93512">
        <ele>2251.544921875</ele>
        <time>2013-08-20T13:33:43Z</time>
      </trkpt>
      <trkpt lat="42.64881" lon="1.93516">
        <ele>2251.544921875</ele>
        <time>2013-08-20T13:33:50Z</time>
      </trkpt>
      <trkpt lat="42.6489" lon="1.93519">
        <ele>2250.1030273438</ele>
        <time>2013-08-20T13:33:58Z</time>
      </trkpt>
      <trkpt lat="42.64899" lon="1.93522">
        <ele>2247.6997070312</ele>
        <time>2013-08-20T13:34:06Z</time>
      </trkpt>
      <trkpt lat="42.64908" lon="1.93526">
        <ele>2246.2578125</ele>
        <time>2013-08-20T13:34:13Z</time>
      </trkpt>
      <trkpt lat="42.64917" lon="1.93528">
        <ele>2243.8544921875</ele>
        <time>2013-08-20T13:34:20Z</time>
      </trkpt>
      <trkpt lat="42.64925" lon="1.93528">
        <ele>2242.8930664062</ele>
        <time>2013-08-20T13:34:27Z</time>
      </trkpt>
      <trkpt lat="42.64933" lon="1.93531">
        <ele>2242.4125976562</ele>
        <time>2013-08-20T13:34:34Z</time>
      </trkpt>
      <trkpt lat="42.64941" lon="1.93536">
        <ele>2241.451171875</ele>
        <time>2013-08-20T13:34:42Z</time>
      </trkpt>
      <trkpt lat="42.64947" lon="1.93538">
        <ele>2240.9704589844</ele>
        <time>2013-08-20T13:34:48Z</time>
      </trkpt>
      <trkpt lat="42.64954" lon="1.93541">
        <ele>2239.5285644531</ele>
        <time>2013-08-20T13:34:55Z</time>
      </trkpt>
      <trkpt lat="42.64962" lon="1.93544">
        <ele>2238.0866699219</ele>
        <time>2013-08-20T13:35:02Z</time>
      </trkpt>
      <trkpt lat="42.64964" lon="1.93547">
        <ele>2237.1252441406</ele>
        <time>2013-08-20T13:35:05Z</time>
      </trkpt>
      <trkpt lat="42.64973" lon="1.93551">
        <ele>2235.6831054688</ele>
        <time>2013-08-20T13:35:13Z</time>
      </trkpt>
      <trkpt lat="42.64983" lon="1.93556">
        <ele>2234.2412109375</ele>
        <time>2013-08-20T13:35:21Z</time>
      </trkpt>
      <trkpt lat="42.64988" lon="1.93557">
        <ele>2233.2797851562</ele>
        <time>2013-08-20T13:35:25Z</time>
      </trkpt>
      <trkpt lat="42.64995" lon="1.9356">
        <ele>2231.837890625</ele>
        <time>2013-08-20T13:35:32Z</time>
      </trkpt>
      <trkpt lat="42.65003" lon="1.93564">
        <ele>2229.9152832031</ele>
        <time>2013-08-20T13:35:39Z</time>
      </trkpt>
      <trkpt lat="42.65006" lon="1.93565">
        <ele>2229.9152832031</ele>
        <time>2013-08-20T13:35:45Z</time>
      </trkpt>
      <trkpt lat="42.65014" lon="1.93567">
        <ele>2230.3959960938</ele>
        <time>2013-08-20T13:35:51Z</time>
      </trkpt>
      <trkpt lat="42.65021" lon="1.93567">
        <ele>2230.3959960938</ele>
        <time>2013-08-20T13:35:57Z</time>
      </trkpt>
      <trkpt lat="42.65031" lon="1.93565">
        <ele>2228.4733886719</ele>
        <time>2013-08-20T13:36:06Z</time>
      </trkpt>
      <trkpt lat="42.65041" lon="1.93562">
        <ele>2226.55078125</ele>
        <time>2013-08-20T13:36:14Z</time>
      </trkpt>
      <trkpt lat="42.65052" lon="1.93561">
        <ele>2225.5893554688</ele>
        <time>2013-08-20T13:36:24Z</time>
      </trkpt>
      <trkpt lat="42.65054" lon="1.93562">
        <ele>2225.5893554688</ele>
        <time>2013-08-20T13:36:26Z</time>
      </trkpt>
      <trkpt lat="42.65057" lon="1.93565">
        <ele>2226.0700683594</ele>
        <time>2013-08-20T13:36:30Z</time>
      </trkpt>
      <trkpt lat="42.65068" lon="1.93566">
        <ele>2226.55078125</ele>
        <time>2013-08-20T13:36:39Z</time>
      </trkpt>
      <trkpt lat="42.65077" lon="1.93563">
        <ele>2226.0700683594</ele>
        <time>2013-08-20T13:36:46Z</time>
      </trkpt>
      <trkpt lat="42.65088" lon="1.9356">
        <ele>2226.55078125</ele>
        <time>2013-08-20T13:36:55Z</time>
      </trkpt>
      <trkpt lat="42.65098" lon="1.93562">
        <ele>2227.0314941406</ele>
        <time>2013-08-20T13:37:03Z</time>
      </trkpt>
      <trkpt lat="42.65105" lon="1.93567">
        <ele>2227.0314941406</ele>
        <time>2013-08-20T13:37:11Z</time>
      </trkpt>
      <trkpt lat="42.65115" lon="1.93565">
        <ele>2227.0314941406</ele>
        <time>2013-08-20T13:37:19Z</time>
      </trkpt>
      <trkpt lat="42.65123" lon="1.93566">
        <ele>2228.4733886719</ele>
        <time>2013-08-20T13:37:27Z</time>
      </trkpt>
      <trkpt lat="42.65125" lon="1.93567">
        <ele>2228.4733886719</ele>
        <time>2013-08-20T13:37:28Z</time>
      </trkpt>
      <trkpt lat="42.65127" lon="1.93571">
        <ele>2228.9538574219</ele>
        <time>2013-08-20T13:37:34Z</time>
      </trkpt>
      <trkpt lat="42.65129" lon="1.93575">
        <ele>2230.3959960938</ele>
        <time>2013-08-20T13:37:39Z</time>
      </trkpt>
      <trkpt lat="42.65132" lon="1.93578">
        <ele>2230.8767089844</ele>
        <time>2013-08-20T13:37:44Z</time>
      </trkpt>
      <trkpt lat="42.65134" lon="1.9358">
        <ele>2231.3571777344</ele>
        <time>2013-08-20T13:37:48Z</time>
      </trkpt>
      <trkpt lat="42.65137" lon="1.93581">
        <ele>2231.3571777344</ele>
        <time>2013-08-20T13:37:53Z</time>
      </trkpt>
      <trkpt lat="42.6514" lon="1.93582">
        <ele>2231.837890625</ele>
        <time>2013-08-20T13:37:59Z</time>
      </trkpt>
      <trkpt lat="42.65144" lon="1.93583">
        <ele>2231.837890625</ele>
        <time>2013-08-20T13:38:04Z</time>
      </trkpt>
      <trkpt lat="42.65151" lon="1.93585">
        <ele>2231.837890625</ele>
        <time>2013-08-20T13:38:11Z</time>
      </trkpt>
      <trkpt lat="42.65153" lon="1.93587">
        <ele>2231.837890625</ele>
        <time>2013-08-20T13:38:13Z</time>
      </trkpt>
      <trkpt lat="42.65157" lon="1.93594">
        <ele>2231.837890625</ele>
        <time>2013-08-20T13:38:20Z</time>
      </trkpt>
      <trkpt lat="42.65158" lon="1.93597">
        <ele>2232.3186035156</ele>
        <time>2013-08-20T13:38:22Z</time>
      </trkpt>
      <trkpt lat="42.65161" lon="1.93607">
        <ele>2233.2797851562</ele>
        <time>2013-08-20T13:38:30Z</time>
      </trkpt>
      <trkpt lat="42.65162" lon="1.93614">
        <ele>2234.7219238281</ele>
        <time>2013-08-20T13:38:37Z</time>
      </trkpt>
      <trkpt lat="42.65163" lon="1.93619">
        <ele>2234.7219238281</ele>
        <time>2013-08-20T13:38:41Z</time>
      </trkpt>
      <trkpt lat="42.65168" lon="1.93632">
        <ele>2235.2023925781</ele>
        <time>2013-08-20T13:38:51Z</time>
      </trkpt>
      <trkpt lat="42.65171" lon="1.93642">
        <ele>2236.1640625</ele>
        <time>2013-08-20T13:38:59Z</time>
      </trkpt>
      <trkpt lat="42.65173" lon="1.9365">
        <ele>2236.1640625</ele>
        <time>2013-08-20T13:39:07Z</time>
      </trkpt>
      <trkpt lat="42.65172" lon="1.93652">
        <ele>2236.1640625</ele>
        <time>2013-08-20T13:39:14Z</time>
      </trkpt>
      <trkpt lat="42.65173" lon="1.93657">
        <ele>2236.1640625</ele>
        <time>2013-08-20T13:39:25Z</time>
      </trkpt>
      <trkpt lat="42.65174" lon="1.93657">
        <ele>2235.6831054688</ele>
        <time>2013-08-20T13:39:33Z</time>
      </trkpt>
      <trkpt lat="42.65174" lon="1.93662">
        <ele>2234.2412109375</ele>
        <time>2013-08-20T13:39:43Z</time>
      </trkpt>
      <trkpt lat="42.65176" lon="1.93667">
        <ele>2232.7990722656</ele>
        <time>2013-08-20T13:39:49Z</time>
      </trkpt>
      <trkpt lat="42.65178" lon="1.93672">
        <ele>2230.3959960938</ele>
        <time>2013-08-20T13:39:55Z</time>
      </trkpt>
      <trkpt lat="42.65178" lon="1.93677">
        <ele>2228.4733886719</ele>
        <time>2013-08-20T13:40:01Z</time>
      </trkpt>
      <trkpt lat="42.65179" lon="1.93679">
        <ele>2227.5119628906</ele>
        <time>2013-08-20T13:40:05Z</time>
      </trkpt>
      <trkpt lat="42.65178" lon="1.93681">
        <ele>2227.0314941406</ele>
        <time>2013-08-20T13:40:11Z</time>
      </trkpt>
      <trkpt lat="42.65178" lon="1.93684">
        <ele>2226.0700683594</ele>
        <time>2013-08-20T13:40:17Z</time>
      </trkpt>
      <trkpt lat="42.65178" lon="1.93687">
        <ele>2225.1086425781</ele>
        <time>2013-08-20T13:40:23Z</time>
      </trkpt>
      <trkpt lat="42.6518" lon="1.93692">
        <ele>2223.6667480469</ele>
        <time>2013-08-20T13:40:32Z</time>
      </trkpt>
      <trkpt lat="42.65184" lon="1.93692">
        <ele>2222.7055664062</ele>
        <time>2013-08-20T13:40:40Z</time>
      </trkpt>
      <trkpt lat="42.65189" lon="1.93692">
        <ele>2220.7829589844</ele>
        <time>2013-08-20T13:40:47Z</time>
      </trkpt>
      <trkpt lat="42.65193" lon="1.93693">
        <ele>2219.3408203125</ele>
        <time>2013-08-20T13:40:54Z</time>
      </trkpt>
      <trkpt lat="42.65196" lon="1.93696">
        <ele>2217.41796875</ele>
        <time>2013-08-20T13:41:00Z</time>
      </trkpt>
      <trkpt lat="42.65198" lon="1.937">
        <ele>2215.0148925781</ele>
        <time>2013-08-20T13:41:07Z</time>
      </trkpt>
      <trkpt lat="42.65202" lon="1.937">
        <ele>2213.5727539062</ele>
        <time>2013-08-20T13:41:13Z</time>
      </trkpt>
      <trkpt lat="42.65209" lon="1.93702">
        <ele>2212.130859375</ele>
        <time>2013-08-20T13:41:20Z</time>
      </trkpt>
      <trkpt lat="42.65215" lon="1.93702">
        <ele>2210.2082519531</ele>
        <time>2013-08-20T13:41:26Z</time>
      </trkpt>
      <trkpt lat="42.65222" lon="1.93704">
        <ele>2208.2856445312</ele>
        <time>2013-08-20T13:41:32Z</time>
      </trkpt>
      <trkpt lat="42.65232" lon="1.9371">
        <ele>2205.8823242188</ele>
        <time>2013-08-20T13:41:42Z</time>
      </trkpt>
      <trkpt lat="42.65238" lon="1.93711">
        <ele>2203.9597167969</ele>
        <time>2013-08-20T13:41:50Z</time>
      </trkpt>
      <trkpt lat="42.65243" lon="1.93711">
        <ele>2202.0368652344</ele>
        <time>2013-08-20T13:41:57Z</time>
      </trkpt>
      <trkpt lat="42.65247" lon="1.9371">
        <ele>2201.0756835938</ele>
        <time>2013-08-20T13:42:02Z</time>
      </trkpt>
      <trkpt lat="42.65254" lon="1.93709">
        <ele>2198.6723632812</ele>
        <time>2013-08-20T13:42:10Z</time>
      </trkpt>
      <trkpt lat="42.65257" lon="1.93712">
        <ele>2196.2692871094</ele>
        <time>2013-08-20T13:42:16Z</time>
      </trkpt>
      <trkpt lat="42.65261" lon="1.93717">
        <ele>2192.9045410156</ele>
        <time>2013-08-20T13:42:24Z</time>
      </trkpt>
      <trkpt lat="42.65266" lon="1.93716">
        <ele>2190.5012207031</ele>
        <time>2013-08-20T13:42:31Z</time>
      </trkpt>
      <trkpt lat="42.65271" lon="1.93716">
        <ele>2189.0593261719</ele>
        <time>2013-08-20T13:42:37Z</time>
      </trkpt>
      <trkpt lat="42.65276" lon="1.93716">
        <ele>2187.6171875</ele>
        <time>2013-08-20T13:42:45Z</time>
      </trkpt>
      <trkpt lat="42.65279" lon="1.93718">
        <ele>2185.6945800781</ele>
        <time>2013-08-20T13:42:52Z</time>
      </trkpt>
      <trkpt lat="42.65284" lon="1.9372">
        <ele>2183.7719726562</ele>
        <time>2013-08-20T13:42:58Z</time>
      </trkpt>
      <trkpt lat="42.65291" lon="1.93718">
        <ele>2181.8493652344</ele>
        <time>2013-08-20T13:43:05Z</time>
      </trkpt>
      <trkpt lat="42.65296" lon="1.93715">
        <ele>2180.8881835938</ele>
        <time>2013-08-20T13:43:12Z</time>
      </trkpt>
      <trkpt lat="42.65298" lon="1.93713">
        <ele>2178.0041503906</ele>
        <time>2013-08-20T13:43:16Z</time>
      </trkpt>
      <trkpt lat="42.65301" lon="1.9371">
        <ele>2177.04296875</ele>
        <time>2013-08-20T13:43:23Z</time>
      </trkpt>
      <trkpt lat="42.65302" lon="1.93714">
        <ele>2175.6008300781</ele>
        <time>2013-08-20T13:43:29Z</time>
      </trkpt>
      <trkpt lat="42.65303" lon="1.93715">
        <ele>2173.1977539062</ele>
        <time>2013-08-20T13:43:35Z</time>
      </trkpt>
      <trkpt lat="42.65309" lon="1.93714">
        <ele>2171.2746582031</ele>
        <time>2013-08-20T13:43:42Z</time>
      </trkpt>
      <trkpt lat="42.65314" lon="1.93713">
        <ele>2169.8327636719</ele>
        <time>2013-08-20T13:43:48Z</time>
      </trkpt>
      <trkpt lat="42.65322" lon="1.93714">
        <ele>2167.4294433594</ele>
        <time>2013-08-20T13:43:55Z</time>
      </trkpt>
      <trkpt lat="42.65332" lon="1.93719">
        <ele>2164.0649414062</ele>
        <time>2013-08-20T13:44:04Z</time>
      </trkpt>
      <trkpt lat="42.65334" lon="1.93719">
        <ele>2164.0649414062</ele>
        <time>2013-08-20T13:44:05Z</time>
      </trkpt>
      <trkpt lat="42.65345" lon="1.93724">
        <ele>2162.1423339844</ele>
        <time>2013-08-20T13:44:16Z</time>
      </trkpt>
      <trkpt lat="42.65351" lon="1.93725">
        <ele>2160.2197265625</ele>
        <time>2013-08-20T13:44:22Z</time>
      </trkpt>
      <trkpt lat="42.65358" lon="1.93726">
        <ele>2158.7778320312</ele>
        <time>2013-08-20T13:44:29Z</time>
      </trkpt>
      <trkpt lat="42.65365" lon="1.93728">
        <ele>2155.8935546875</ele>
        <time>2013-08-20T13:44:35Z</time>
      </trkpt>
      <trkpt lat="42.65371" lon="1.93731">
        <ele>2154.9323730469</ele>
        <time>2013-08-20T13:44:41Z</time>
      </trkpt>
      <trkpt lat="42.65379" lon="1.93732">
        <ele>2154.9323730469</ele>
        <time>2013-08-20T13:44:49Z</time>
      </trkpt>
      <trkpt lat="42.65384" lon="1.93732">
        <ele>2155.8935546875</ele>
        <time>2013-08-20T13:44:53Z</time>
      </trkpt>
      <trkpt lat="42.65387" lon="1.93732">
        <ele>2156.3745117188</ele>
        <time>2013-08-20T13:44:56Z</time>
      </trkpt>
      <trkpt lat="42.65394" lon="1.93736">
        <ele>2155.4130859375</ele>
        <time>2013-08-20T13:45:04Z</time>
      </trkpt>
      <trkpt lat="42.65403" lon="1.9374">
        <ele>2153.9711914062</ele>
        <time>2013-08-20T13:45:12Z</time>
      </trkpt>
      <trkpt lat="42.65411" lon="1.93744">
        <ele>2152.5290527344</ele>
        <time>2013-08-20T13:45:20Z</time>
      </trkpt>
      <trkpt lat="42.65416" lon="1.93744">
        <ele>2151.5678710938</ele>
        <time>2013-08-20T13:45:24Z</time>
      </trkpt>
      <trkpt lat="42.65417" lon="1.93745">
        <ele>2150.6064453125</ele>
        <time>2013-08-20T13:45:26Z</time>
      </trkpt>
      <trkpt lat="42.65427" lon="1.93746">
        <ele>2148.6838378906</ele>
        <time>2013-08-20T13:45:35Z</time>
      </trkpt>
      <trkpt lat="42.65438" lon="1.93749">
        <ele>2146.7612304688</ele>
        <time>2013-08-20T13:45:44Z</time>
      </trkpt>
      <trkpt lat="42.65447" lon="1.93752">
        <ele>2145.3193359375</ele>
        <time>2013-08-20T13:45:52Z</time>
      </trkpt>
      <trkpt lat="42.65453" lon="1.93754">
        <ele>2144.8386230469</ele>
        <time>2013-08-20T13:45:58Z</time>
      </trkpt>
      <trkpt lat="42.65456" lon="1.93754">
        <ele>2144.8386230469</ele>
        <time>2013-08-20T13:46:04Z</time>
      </trkpt>
      <trkpt lat="42.65458" lon="1.93752">
        <ele>2145.3193359375</ele>
        <time>2013-08-20T13:46:24Z</time>
      </trkpt>
      <trkpt lat="42.65462" lon="1.9375">
        <ele>2145.8000488281</ele>
        <time>2013-08-20T13:46:30Z</time>
      </trkpt>
      <trkpt lat="42.65464" lon="1.93748">
        <ele>2145.3193359375</ele>
        <time>2013-08-20T13:46:35Z</time>
      </trkpt>
      <trkpt lat="42.65468" lon="1.93743">
        <ele>2143.3967285156</ele>
        <time>2013-08-20T13:46:41Z</time>
      </trkpt>
      <trkpt lat="42.65472" lon="1.93737">
        <ele>2140.9934082031</ele>
        <time>2013-08-20T13:46:48Z</time>
      </trkpt>
      <trkpt lat="42.65477" lon="1.93734">
        <ele>2140.0322265625</ele>
        <time>2013-08-20T13:46:55Z</time>
      </trkpt>
      <trkpt lat="42.65484" lon="1.93734">
        <ele>2137.6286621094</ele>
        <time>2013-08-20T13:47:03Z</time>
      </trkpt>
      <trkpt lat="42.6549" lon="1.93736">
        <ele>2135.2253417969</ele>
        <time>2013-08-20T13:47:10Z</time>
      </trkpt>
      <trkpt lat="42.65499" lon="1.93734">
        <ele>2134.2641601562</ele>
        <time>2013-08-20T13:47:18Z</time>
      </trkpt>
      <trkpt lat="42.65506" lon="1.93733">
        <ele>2133.302734375</ele>
        <time>2013-08-20T13:47:24Z</time>
      </trkpt>
      <trkpt lat="42.65514" lon="1.93731">
        <ele>2130.8996582031</ele>
        <time>2013-08-20T13:47:32Z</time>
      </trkpt>
      <trkpt lat="42.65521" lon="1.93728">
        <ele>2128.9768066406</ele>
        <time>2013-08-20T13:47:38Z</time>
      </trkpt>
      <trkpt lat="42.65523" lon="1.93727">
        <ele>2128.4963378906</ele>
        <time>2013-08-20T13:47:40Z</time>
      </trkpt>
      <trkpt lat="42.65529" lon="1.93723">
        <ele>2126.5737304688</ele>
        <time>2013-08-20T13:47:45Z</time>
      </trkpt>
      <trkpt lat="42.65537" lon="1.9372">
        <ele>2124.1704101562</ele>
        <time>2013-08-20T13:47:52Z</time>
      </trkpt>
      <trkpt lat="42.65538" lon="1.9372">
        <ele>2124.1704101562</ele>
        <time>2013-08-20T13:47:53Z</time>
      </trkpt>
      <trkpt lat="42.65547" lon="1.93719">
        <ele>2121.7668457031</ele>
        <time>2013-08-20T13:48:01Z</time>
      </trkpt>
      <trkpt lat="42.65554" lon="1.9372">
        <ele>2120.3249511719</ele>
        <time>2013-08-20T13:48:07Z</time>
      </trkpt>
      <trkpt lat="42.65557" lon="1.93719">
        <ele>2119.3637695312</ele>
        <time>2013-08-20T13:48:11Z</time>
      </trkpt>
      <trkpt lat="42.65562" lon="1.93718">
        <ele>2118.8830566406</ele>
        <time>2013-08-20T13:48:15Z</time>
      </trkpt>
      <trkpt lat="42.65566" lon="1.93717">
        <ele>2116.9604492188</ele>
        <time>2013-08-20T13:48:19Z</time>
      </trkpt>
      <trkpt lat="42.65572" lon="1.93716">
        <ele>2115.5185546875</ele>
        <time>2013-08-20T13:48:24Z</time>
      </trkpt>
      <trkpt lat="42.65582" lon="1.93715">
        <ele>2113.115234375</ele>
        <time>2013-08-20T13:48:33Z</time>
      </trkpt>
      <trkpt lat="42.65585" lon="1.93714">
        <ele>2112.1538085938</ele>
        <time>2013-08-20T13:48:36Z</time>
      </trkpt>
      <trkpt lat="42.65591" lon="1.93714">
        <ele>2110.7119140625</ele>
        <time>2013-08-20T13:48:42Z</time>
      </trkpt>
      <trkpt lat="42.65596" lon="1.93715">
        <ele>2108.7893066406</ele>
        <time>2013-08-20T13:48:49Z</time>
      </trkpt>
      <trkpt lat="42.65601" lon="1.93721">
        <ele>2104.4631347656</ele>
        <time>2013-08-20T13:48:57Z</time>
      </trkpt>
      <trkpt lat="42.65602" lon="1.93729">
        <ele>2102.0598144531</ele>
        <time>2013-08-20T13:49:03Z</time>
      </trkpt>
      <trkpt lat="42.65602" lon="1.93734">
        <ele>2100.1374511719</ele>
        <time>2013-08-20T13:49:06Z</time>
      </trkpt>
      <trkpt lat="42.65604" lon="1.93741">
        <ele>2097.2534179688</ele>
        <time>2013-08-20T13:49:12Z</time>
      </trkpt>
      <trkpt lat="42.65606" lon="1.93748">
        <ele>2095.3308105469</ele>
        <time>2013-08-20T13:49:17Z</time>
      </trkpt>
      <trkpt lat="42.65607" lon="1.93758">
        <ele>2092.9274902344</ele>
        <time>2013-08-20T13:49:24Z</time>
      </trkpt>
      <trkpt lat="42.65607" lon="1.9376">
        <ele>2092.9274902344</ele>
        <time>2013-08-20T13:49:25Z</time>
      </trkpt>
      <trkpt lat="42.65609" lon="1.93771">
        <ele>2090.5239257812</ele>
        <time>2013-08-20T13:49:33Z</time>
      </trkpt>
      <trkpt lat="42.65611" lon="1.93779">
        <ele>2088.6015625</ele>
        <time>2013-08-20T13:49:39Z</time>
      </trkpt>
      <trkpt lat="42.65613" lon="1.93786">
        <ele>2086.6787109375</ele>
        <time>2013-08-20T13:49:44Z</time>
      </trkpt>
      <trkpt lat="42.65615" lon="1.93796">
        <ele>2084.7563476562</ele>
        <time>2013-08-20T13:49:50Z</time>
      </trkpt>
      <trkpt lat="42.65617" lon="1.93799">
        <ele>2084.2756347656</ele>
        <time>2013-08-20T13:49:52Z</time>
      </trkpt>
      <trkpt lat="42.65619" lon="1.93812">
        <ele>2081.8723144531</ele>
        <time>2013-08-20T13:49:59Z</time>
      </trkpt>
      <trkpt lat="42.65621" lon="1.93822">
        <ele>2080.4304199219</ele>
        <time>2013-08-20T13:50:05Z</time>
      </trkpt>
      <trkpt lat="42.65623" lon="1.93834">
        <ele>2079.4689941406</ele>
        <time>2013-08-20T13:50:12Z</time>
      </trkpt>
      <trkpt lat="42.65624" lon="1.93836">
        <ele>2079.4689941406</ele>
        <time>2013-08-20T13:50:13Z</time>
      </trkpt>
      <trkpt lat="42.65628" lon="1.93846">
        <ele>2078.98828125</ele>
        <time>2013-08-20T13:50:20Z</time>
      </trkpt>
      <trkpt lat="42.65637" lon="1.93854">
        <ele>2077.5463867188</ele>
        <time>2013-08-20T13:50:28Z</time>
      </trkpt>
      <trkpt lat="42.65645" lon="1.93863">
        <ele>2076.1044921875</ele>
        <time>2013-08-20T13:50:36Z</time>
      </trkpt>
      <trkpt lat="42.65649" lon="1.93866">
        <ele>2075.6235351562</ele>
        <time>2013-08-20T13:50:40Z</time>
      </trkpt>
      <trkpt lat="42.65653" lon="1.9387">
        <ele>2074.6623535156</ele>
        <time>2013-08-20T13:50:45Z</time>
      </trkpt>
      <trkpt lat="42.65663" lon="1.93879">
        <ele>2071.2976074219</ele>
        <time>2013-08-20T13:50:55Z</time>
      </trkpt>
      <trkpt lat="42.65669" lon="1.93882">
        <ele>2070.3364257812</ele>
        <time>2013-08-20T13:51:01Z</time>
      </trkpt>
      <trkpt lat="42.65673" lon="1.93882">
        <ele>2069.8557128906</ele>
        <time>2013-08-20T13:51:05Z</time>
      </trkpt>
      <trkpt lat="42.65681" lon="1.93883">
        <ele>2068.89453125</ele>
        <time>2013-08-20T13:51:12Z</time>
      </trkpt>
      <trkpt lat="42.65689" lon="1.93884">
        <ele>2066.0104980469</ele>
        <time>2013-08-20T13:51:19Z</time>
      </trkpt>
      <trkpt lat="42.65696" lon="1.93887">
        <ele>2064.087890625</ele>
        <time>2013-08-20T13:51:25Z</time>
      </trkpt>
      <trkpt lat="42.65698" lon="1.93888">
        <ele>2063.6071777344</ele>
        <time>2013-08-20T13:51:27Z</time>
      </trkpt>
      <trkpt lat="42.65704" lon="1.93894">
        <ele>2061.2041015625</ele>
        <time>2013-08-20T13:51:33Z</time>
      </trkpt>
      <trkpt lat="42.6571" lon="1.93898">
        <ele>2059.76171875</ele>
        <time>2013-08-20T13:51:38Z</time>
      </trkpt>
      <trkpt lat="42.65712" lon="1.939">
        <ele>2059.28125</ele>
        <time>2013-08-20T13:51:41Z</time>
      </trkpt>
      <trkpt lat="42.65718" lon="1.93907">
        <ele>2055.9165039062</ele>
        <time>2013-08-20T13:51:49Z</time>
      </trkpt>
      <trkpt lat="42.65724" lon="1.93911">
        <ele>2053.5134277344</ele>
        <time>2013-08-20T13:51:57Z</time>
      </trkpt>
      <trkpt lat="42.65728" lon="1.93916">
        <ele>2051.1101074219</ele>
        <time>2013-08-20T13:52:03Z</time>
      </trkpt>
      <trkpt lat="42.65735" lon="1.93922">
        <ele>2048.7067871094</ele>
        <time>2013-08-20T13:52:11Z</time>
      </trkpt>
      <trkpt lat="42.65739" lon="1.93925">
        <ele>2046.7841796875</ele>
        <time>2013-08-20T13:52:18Z</time>
      </trkpt>
      <trkpt lat="42.65746" lon="1.93924">
        <ele>2044.380859375</ele>
        <time>2013-08-20T13:52:26Z</time>
      </trkpt>
      <trkpt lat="42.65753" lon="1.93921">
        <ele>2043.4194335938</ele>
        <time>2013-08-20T13:52:34Z</time>
      </trkpt>
      <trkpt lat="42.65758" lon="1.93924">
        <ele>2042.4582519531</ele>
        <time>2013-08-20T13:52:40Z</time>
      </trkpt>
      <trkpt lat="42.65766" lon="1.93925">
        <ele>2040.0549316406</ele>
        <time>2013-08-20T13:52:48Z</time>
      </trkpt>
      <trkpt lat="42.65767" lon="1.93926">
        <ele>2040.0549316406</ele>
        <time>2013-08-20T13:52:49Z</time>
      </trkpt>
      <trkpt lat="42.65774" lon="1.93929">
        <ele>2037.6516113281</ele>
        <time>2013-08-20T13:52:56Z</time>
      </trkpt>
      <trkpt lat="42.65782" lon="1.93938">
        <ele>2034.7678222656</ele>
        <time>2013-08-20T13:53:05Z</time>
      </trkpt>
      <trkpt lat="42.65788" lon="1.93941">
        <ele>2032.3645019531</ele>
        <time>2013-08-20T13:53:10Z</time>
      </trkpt>
      <trkpt lat="42.65796" lon="1.93947">
        <ele>2028.9997558594</ele>
        <time>2013-08-20T13:53:19Z</time>
      </trkpt>
      <trkpt lat="42.65808" lon="1.93955">
        <ele>2025.6350097656</ele>
        <time>2013-08-20T13:53:30Z</time>
      </trkpt>
      <trkpt lat="42.65819" lon="1.93958">
        <ele>2024.1931152344</ele>
        <time>2013-08-20T13:53:38Z</time>
      </trkpt>
      <trkpt lat="42.65829" lon="1.93957">
        <ele>2023.7124023438</ele>
        <time>2013-08-20T13:53:45Z</time>
      </trkpt>
      <trkpt lat="42.65839" lon="1.93956">
        <ele>2024.673828125</ele>
        <time>2013-08-20T13:53:53Z</time>
      </trkpt>
      <trkpt lat="42.65847" lon="1.93955">
        <ele>2026.5964355469</ele>
        <time>2013-08-20T13:54:00Z</time>
      </trkpt>
      <trkpt lat="42.65851" lon="1.93956">
        <ele>2027.5576171875</ele>
        <time>2013-08-20T13:54:04Z</time>
      </trkpt>
      <trkpt lat="42.65857" lon="1.93956">
        <ele>2028.5192871094</ele>
        <time>2013-08-20T13:54:11Z</time>
      </trkpt>
      <trkpt lat="42.6586" lon="1.93956">
        <ele>2028.0385742188</ele>
        <time>2013-08-20T13:54:18Z</time>
      </trkpt>
      <trkpt lat="42.6587" lon="1.93956">
        <ele>2027.5576171875</ele>
        <time>2013-08-20T13:54:26Z</time>
      </trkpt>
      <trkpt lat="42.65878" lon="1.9396">
        <ele>2027.5576171875</ele>
        <time>2013-08-20T13:54:34Z</time>
      </trkpt>
      <trkpt lat="42.65886" lon="1.93967">
        <ele>2027.0771484375</ele>
        <time>2013-08-20T13:54:42Z</time>
      </trkpt>
      <trkpt lat="42.65894" lon="1.93975">
        <ele>2026.5964355469</ele>
        <time>2013-08-20T13:54:50Z</time>
      </trkpt>
      <trkpt lat="42.65902" lon="1.93983">
        <ele>2027.0771484375</ele>
        <time>2013-08-20T13:54:58Z</time>
      </trkpt>
      <trkpt lat="42.65908" lon="1.93986">
        <ele>2028.0385742188</ele>
        <time>2013-08-20T13:55:04Z</time>
      </trkpt>
      <trkpt lat="42.65916" lon="1.9398">
        <ele>2028.9997558594</ele>
        <time>2013-08-20T13:55:12Z</time>
      </trkpt>
      <trkpt lat="42.65919" lon="1.93975">
        <ele>2028.9997558594</ele>
        <time>2013-08-20T13:55:17Z</time>
      </trkpt>
      <trkpt lat="42.65923" lon="1.93967">
        <ele>2028.9997558594</ele>
        <time>2013-08-20T13:55:24Z</time>
      </trkpt>
      <trkpt lat="42.65926" lon="1.93962">
        <ele>2028.0385742188</ele>
        <time>2013-08-20T13:55:30Z</time>
      </trkpt>
      <trkpt lat="42.65932" lon="1.93957">
        <ele>2025.6350097656</ele>
        <time>2013-08-20T13:55:37Z</time>
      </trkpt>
      <trkpt lat="42.65937" lon="1.9395">
        <ele>2025.154296875</ele>
        <time>2013-08-20T13:55:44Z</time>
      </trkpt>
      <trkpt lat="42.65942" lon="1.93944">
        <ele>2023.2319335938</ele>
        <time>2013-08-20T13:55:51Z</time>
      </trkpt>
      <trkpt lat="42.65948" lon="1.93938">
        <ele>2019.38671875</ele>
        <time>2013-08-20T13:55:59Z</time>
      </trkpt>
      <trkpt lat="42.65953" lon="1.93936">
        <ele>2016.5026855469</ele>
        <time>2013-08-20T13:56:06Z</time>
      </trkpt>
      <trkpt lat="42.65959" lon="1.93932">
        <ele>2011.6960449219</ele>
        <time>2013-08-20T13:56:13Z</time>
      </trkpt>
      <trkpt lat="42.65964" lon="1.93928">
        <ele>2009.2927246094</ele>
        <time>2013-08-20T13:56:19Z</time>
      </trkpt>
      <trkpt lat="42.65967" lon="1.93922">
        <ele>2007.3701171875</ele>
        <time>2013-08-20T13:56:25Z</time>
      </trkpt>
      <trkpt lat="42.65974" lon="1.93919">
        <ele>2004.966796875</ele>
        <time>2013-08-20T13:56:33Z</time>
      </trkpt>
      <trkpt lat="42.65981" lon="1.93916">
        <ele>2004.0056152344</ele>
        <time>2013-08-20T13:56:41Z</time>
      </trkpt>
      <trkpt lat="42.65988" lon="1.93912">
        <ele>2001.6022949219</ele>
        <time>2013-08-20T13:56:48Z</time>
      </trkpt>
      <trkpt lat="42.6599" lon="1.93911">
        <ele>2001.6022949219</ele>
        <time>2013-08-20T13:56:51Z</time>
      </trkpt>
      <trkpt lat="42.65996" lon="1.93905">
        <ele>2002.0827636719</ele>
        <time>2013-08-20T13:56:58Z</time>
      </trkpt>
      <trkpt lat="42.66" lon="1.93904">
        <ele>2003.5249023438</ele>
        <time>2013-08-20T13:57:05Z</time>
      </trkpt>
      <trkpt lat="42.66002" lon="1.93902">
        <ele>2002.0827636719</ele>
        <time>2013-08-20T13:57:11Z</time>
      </trkpt>
      <trkpt lat="42.66002" lon="1.93902">
        <ele>2001.6022949219</ele>
        <time>2013-08-20T13:57:17Z</time>
      </trkpt>
      <trkpt lat="42.66003" lon="1.93902">
        <ele>2001.6022949219</ele>
        <time>2013-08-20T13:57:24Z</time>
      </trkpt>
      <trkpt lat="42.66003" lon="1.93902">
        <ele>2003.0441894531</ele>
        <time>2013-08-20T13:57:34Z</time>
      </trkpt>
      <trkpt lat="42.66002" lon="1.93905">
        <ele>1998.2375488281</ele>
        <time>2013-08-20T13:57:56Z</time>
      </trkpt>
      <trkpt lat="42.66002" lon="1.93906">
        <ele>1998.2375488281</ele>
        <time>2013-08-20T13:58:15Z</time>
      </trkpt>
      <trkpt lat="42.66" lon="1.93904">
        <ele>2002.5634765625</ele>
        <time>2013-08-20T13:58:41Z</time>
      </trkpt>
      <trkpt lat="42.66002" lon="1.93904">
        <ele>1998.2375488281</ele>
        <time>2013-08-20T13:58:58Z</time>
      </trkpt>
      <trkpt lat="42.66004" lon="1.93902">
        <ele>1991.5083007812</ele>
        <time>2013-08-20T13:59:38Z</time>
      </trkpt>
      <trkpt lat="42.66003" lon="1.93903">
        <ele>1992.9501953125</ele>
        <time>2013-08-20T13:59:44Z</time>
      </trkpt>
      <trkpt lat="42.66003" lon="1.93902">
        <ele>1994.8728027344</ele>
        <time>2013-08-20T13:59:53Z</time>
      </trkpt>
      <trkpt lat="42.66002" lon="1.93901">
        <ele>1998.2375488281</ele>
        <time>2013-08-20T14:00:07Z</time>
      </trkpt>
      <trkpt lat="42.66003" lon="1.93901">
        <ele>1997.7570800781</ele>
        <time>2013-08-20T14:00:11Z</time>
      </trkpt>
      <trkpt lat="42.66003" lon="1.939">
        <ele>1998.2375488281</ele>
        <time>2013-08-20T14:00:14Z</time>
      </trkpt>
      <trkpt lat="42.66008" lon="1.93896">
        <ele>1997.7570800781</ele>
        <time>2013-08-20T14:00:21Z</time>
      </trkpt>
      <trkpt lat="42.6601" lon="1.93896">
        <ele>1997.7570800781</ele>
        <time>2013-08-20T14:00:26Z</time>
      </trkpt>
      <trkpt lat="42.66013" lon="1.939">
        <ele>1995.353515625</ele>
        <time>2013-08-20T14:00:36Z</time>
      </trkpt>
      <trkpt lat="42.66015" lon="1.93906">
        <ele>1993.4309082031</ele>
        <time>2013-08-20T14:00:43Z</time>
      </trkpt>
      <trkpt lat="42.66016" lon="1.93909">
        <ele>1992.4697265625</ele>
        <time>2013-08-20T14:00:51Z</time>
      </trkpt>
      <trkpt lat="42.66019" lon="1.93913">
        <ele>1990.06640625</ele>
        <time>2013-08-20T14:00:58Z</time>
      </trkpt>
      <trkpt lat="42.66024" lon="1.93917">
        <ele>1987.1823730469</ele>
        <time>2013-08-20T14:01:06Z</time>
      </trkpt>
      <trkpt lat="42.66026" lon="1.93921">
        <ele>1983.8178710938</ele>
        <time>2013-08-20T14:01:12Z</time>
      </trkpt>
      <trkpt lat="42.66025" lon="1.93923">
        <ele>1983.8178710938</ele>
        <time>2013-08-20T14:01:16Z</time>
      </trkpt>
      <trkpt lat="42.66021" lon="1.93924">
        <ele>1986.7016601562</ele>
        <time>2013-08-20T14:01:24Z</time>
      </trkpt>
      <trkpt lat="42.66019" lon="1.93929">
        <ele>1985.259765625</ele>
        <time>2013-08-20T14:01:30Z</time>
      </trkpt>
      <trkpt lat="42.66018" lon="1.93932">
        <ele>1984.2985839844</ele>
        <time>2013-08-20T14:01:34Z</time>
      </trkpt>
      <trkpt lat="42.66016" lon="1.93938">
        <ele>1982.3759765625</ele>
        <time>2013-08-20T14:01:41Z</time>
      </trkpt>
      <trkpt lat="42.66013" lon="1.93941">
        <ele>1983.8178710938</ele>
        <time>2013-08-20T14:01:46Z</time>
      </trkpt>
      <trkpt lat="42.66008" lon="1.93946">
        <ele>1986.7016601562</ele>
        <time>2013-08-20T14:01:52Z</time>
      </trkpt>
      <trkpt lat="42.66007" lon="1.93948">
        <ele>1986.2211914062</ele>
        <time>2013-08-20T14:01:54Z</time>
      </trkpt>
      <trkpt lat="42.66005" lon="1.93955">
        <ele>1985.259765625</ele>
        <time>2013-08-20T14:01:59Z</time>
      </trkpt>
      <trkpt lat="42.66004" lon="1.93958">
        <ele>1984.779296875</ele>
        <time>2013-08-20T14:02:03Z</time>
      </trkpt>
      <trkpt lat="42.66004" lon="1.93962">
        <ele>1984.2985839844</ele>
        <time>2013-08-20T14:02:07Z</time>
      </trkpt>
      <trkpt lat="42.66003" lon="1.93966">
        <ele>1984.2985839844</ele>
        <time>2013-08-20T14:02:11Z</time>
      </trkpt>
      <trkpt lat="42.66002" lon="1.93974">
        <ele>1982.8564453125</ele>
        <time>2013-08-20T14:02:16Z</time>
      </trkpt>
      <trkpt lat="42.66002" lon="1.93978">
        <ele>1982.8564453125</ele>
        <time>2013-08-20T14:02:20Z</time>
      </trkpt>
      <trkpt lat="42.66" lon="1.93982">
        <ele>1983.8178710938</ele>
        <time>2013-08-20T14:02:24Z</time>
      </trkpt>
      <trkpt lat="42.65998" lon="1.93988">
        <ele>1982.3759765625</ele>
        <time>2013-08-20T14:02:29Z</time>
      </trkpt>
      <trkpt lat="42.65995" lon="1.93995">
        <ele>1983.3371582031</ele>
        <time>2013-08-20T14:02:35Z</time>
      </trkpt>
      <trkpt lat="42.65994" lon="1.93999">
        <ele>1982.3759765625</ele>
        <time>2013-08-20T14:02:39Z</time>
      </trkpt>
      <trkpt lat="42.65992" lon="1.94005">
        <ele>1981.8952636719</ele>
        <time>2013-08-20T14:02:44Z</time>
      </trkpt>
      <trkpt lat="42.65991" lon="1.94011">
        <ele>1978.0498046875</ele>
        <time>2013-08-20T14:02:48Z</time>
      </trkpt>
      <trkpt lat="42.65992" lon="1.94016">
        <ele>1980.9340820312</ele>
        <time>2013-08-20T14:02:55Z</time>
      </trkpt>
      <trkpt lat="42.65992" lon="1.94021">
        <ele>1980.4533691406</ele>
        <time>2013-08-20T14:02:59Z</time>
      </trkpt>
      <trkpt lat="42.6599" lon="1.94031">
        <ele>1980.9340820312</ele>
        <time>2013-08-20T14:03:07Z</time>
      </trkpt>
      <trkpt lat="42.6599" lon="1.94034">
        <ele>1980.9340820312</ele>
        <time>2013-08-20T14:03:09Z</time>
      </trkpt>
      <trkpt lat="42.65989" lon="1.94042">
        <ele>1980.4533691406</ele>
        <time>2013-08-20T14:03:15Z</time>
      </trkpt>
      <trkpt lat="42.65989" lon="1.94046">
        <ele>1980.4533691406</ele>
        <time>2013-08-20T14:03:19Z</time>
      </trkpt>
      <trkpt lat="42.65989" lon="1.9405">
        <ele>1979.9724121094</ele>
        <time>2013-08-20T14:03:23Z</time>
      </trkpt>
      <trkpt lat="42.6599" lon="1.94056">
        <ele>1979.4916992188</ele>
        <time>2013-08-20T14:03:28Z</time>
      </trkpt>
      <trkpt lat="42.6599" lon="1.9406">
        <ele>1979.0109863281</ele>
        <time>2013-08-20T14:03:31Z</time>
      </trkpt>
      <trkpt lat="42.65993" lon="1.9407">
        <ele>1978.0498046875</ele>
        <time>2013-08-20T14:03:38Z</time>
      </trkpt>
      <trkpt lat="42.65995" lon="1.94071">
        <ele>1977.5690917969</ele>
        <time>2013-08-20T14:03:40Z</time>
      </trkpt>
      <trkpt lat="42.66005" lon="1.94077">
        <ele>1975.646484375</ele>
        <time>2013-08-20T14:03:49Z</time>
      </trkpt>
      <trkpt lat="42.66009" lon="1.94079">
        <ele>1975.1657714844</ele>
        <time>2013-08-20T14:03:53Z</time>
      </trkpt>
      <trkpt lat="42.66013" lon="1.94079">
        <ele>1973.7238769531</ele>
        <time>2013-08-20T14:03:57Z</time>
      </trkpt>
      <trkpt lat="42.66019" lon="1.94079">
        <ele>1972.2819824219</ele>
        <time>2013-08-20T14:04:03Z</time>
      </trkpt>
      <trkpt lat="42.66029" lon="1.9408">
        <ele>1970.359375</ele>
        <time>2013-08-20T14:04:15Z</time>
      </trkpt>
      <trkpt lat="42.66034" lon="1.94083">
        <ele>1969.3981933594</ele>
        <time>2013-08-20T14:04:21Z</time>
      </trkpt>
      <trkpt lat="42.6604" lon="1.94088">
        <ele>1966.9948730469</ele>
        <time>2013-08-20T14:04:28Z</time>
      </trkpt>
      <trkpt lat="42.66044" lon="1.94088">
        <ele>1966.5141601562</ele>
        <time>2013-08-20T14:04:34Z</time>
      </trkpt>
      <trkpt lat="42.66051" lon="1.9409">
        <ele>1965.5529785156</ele>
        <time>2013-08-20T14:04:48Z</time>
      </trkpt>
      <trkpt lat="42.66055" lon="1.9409">
        <ele>1965.5529785156</ele>
        <time>2013-08-20T14:04:52Z</time>
      </trkpt>
      <trkpt lat="42.66061" lon="1.94088">
        <ele>1965.072265625</ele>
        <time>2013-08-20T14:04:59Z</time>
      </trkpt>
      <trkpt lat="42.66064" lon="1.94089">
        <ele>1964.5915527344</ele>
        <time>2013-08-20T14:05:05Z</time>
      </trkpt>
      <trkpt lat="42.66068" lon="1.9409">
        <ele>1964.1108398438</ele>
        <time>2013-08-20T14:05:09Z</time>
      </trkpt>
      <trkpt lat="42.66072" lon="1.94093">
        <ele>1963.6298828125</ele>
        <time>2013-08-20T14:05:13Z</time>
      </trkpt>
      <trkpt lat="42.66077" lon="1.94095">
        <ele>1963.6298828125</ele>
        <time>2013-08-20T14:05:18Z</time>
      </trkpt>
      <trkpt lat="42.66084" lon="1.94095">
        <ele>1962.1879882812</ele>
        <time>2013-08-20T14:05:25Z</time>
      </trkpt>
      <trkpt lat="42.66088" lon="1.94095">
        <ele>1962.1879882812</ele>
        <time>2013-08-20T14:05:30Z</time>
      </trkpt>
      <trkpt lat="42.66095" lon="1.94094">
        <ele>1960.74609375</ele>
        <time>2013-08-20T14:05:37Z</time>
      </trkpt>
      <trkpt lat="42.66104" lon="1.94092">
        <ele>1958.3427734375</ele>
        <time>2013-08-20T14:05:43Z</time>
      </trkpt>
      <trkpt lat="42.66112" lon="1.94091">
        <ele>1956.9008789062</ele>
        <time>2013-08-20T14:05:51Z</time>
      </trkpt>
      <trkpt lat="42.66118" lon="1.94091">
        <ele>1956.4201660156</ele>
        <time>2013-08-20T14:05:56Z</time>
      </trkpt>
      <trkpt lat="42.66121" lon="1.94091">
        <ele>1955.939453125</ele>
        <time>2013-08-20T14:05:58Z</time>
      </trkpt>
      <trkpt lat="42.66149" lon="1.94098">
        <ele>1940.0778808594</ele>
        <time>2013-08-20T14:06:05Z</time>
      </trkpt>
      <trkpt lat="42.66158" lon="1.94098">
        <ele>1936.7131347656</ele>
        <time>2013-08-20T14:06:11Z</time>
      </trkpt>
      <trkpt lat="42.66161" lon="1.94098">
        <ele>1936.2326660156</ele>
        <time>2013-08-20T14:06:15Z</time>
      </trkpt>
      <trkpt lat="42.66168" lon="1.941">
        <ele>1933.3486328125</ele>
        <time>2013-08-20T14:06:19Z</time>
      </trkpt>
      <trkpt lat="42.66173" lon="1.94103">
        <ele>1931.9064941406</ele>
        <time>2013-08-20T14:06:25Z</time>
      </trkpt>
      <trkpt lat="42.66177" lon="1.94109">
        <ele>1929.0224609375</ele>
        <time>2013-08-20T14:06:30Z</time>
      </trkpt>
      <trkpt lat="42.66176" lon="1.94112">
        <ele>1929.5031738281</ele>
        <time>2013-08-20T14:06:34Z</time>
      </trkpt>
      <trkpt lat="42.66181" lon="1.94112">
        <ele>1928.5419921875</ele>
        <time>2013-08-20T14:06:39Z</time>
      </trkpt>
      <trkpt lat="42.66183" lon="1.94111">
        <ele>1928.5419921875</ele>
        <time>2013-08-20T14:06:44Z</time>
      </trkpt>
      <trkpt lat="42.66188" lon="1.9411">
        <ele>1926.6193847656</ele>
        <time>2013-08-20T14:06:58Z</time>
      </trkpt>
      <trkpt lat="42.66191" lon="1.94105">
        <ele>1924.2160644531</ele>
        <time>2013-08-20T14:07:05Z</time>
      </trkpt>
      <trkpt lat="42.66193" lon="1.94102">
        <ele>1923.2548828125</ele>
        <time>2013-08-20T14:07:07Z</time>
      </trkpt>
      <trkpt lat="42.66196" lon="1.94097">
        <ele>1921.8127441406</ele>
        <time>2013-08-20T14:07:11Z</time>
      </trkpt>
      <trkpt lat="42.66203" lon="1.94092">
        <ele>1919.4096679688</ele>
        <time>2013-08-20T14:07:18Z</time>
      </trkpt>
      <trkpt lat="42.66204" lon="1.94091">
        <ele>1919.4096679688</ele>
        <time>2013-08-20T14:07:20Z</time>
      </trkpt>
      <trkpt lat="42.66206" lon="1.94088">
        <ele>1919.8901367188</ele>
        <time>2013-08-20T14:07:23Z</time>
      </trkpt>
      <trkpt lat="42.6621" lon="1.94084">
        <ele>1918.4482421875</ele>
        <time>2013-08-20T14:07:29Z</time>
      </trkpt>
      <trkpt lat="42.66214" lon="1.94079">
        <ele>1917.9675292969</ele>
        <time>2013-08-20T14:07:36Z</time>
      </trkpt>
      <trkpt lat="42.6623" lon="1.94074">
        <ele>1910.7575683594</ele>
        <time>2013-08-20T14:07:47Z</time>
      </trkpt>
      <trkpt lat="42.66232" lon="1.94068">
        <ele>1910.7575683594</ele>
        <time>2013-08-20T14:07:53Z</time>
      </trkpt>
      <trkpt lat="42.66236" lon="1.94064">
        <ele>1908.8349609375</ele>
        <time>2013-08-20T14:07:58Z</time>
      </trkpt>
      <trkpt lat="42.6624" lon="1.94061">
        <ele>1908.3542480469</ele>
        <time>2013-08-20T14:08:02Z</time>
      </trkpt>
      <trkpt lat="42.66242" lon="1.94058">
        <ele>1907.3930664062</ele>
        <time>2013-08-20T14:08:06Z</time>
      </trkpt>
      <trkpt lat="42.6625" lon="1.94054">
        <ele>1903.0671386719</ele>
        <time>2013-08-20T14:08:12Z</time>
      </trkpt>
      <trkpt lat="42.66251" lon="1.9405">
        <ele>1902.1057128906</ele>
        <time>2013-08-20T14:08:18Z</time>
      </trkpt>
      <trkpt lat="42.66253" lon="1.94046">
        <ele>1901.14453125</ele>
        <time>2013-08-20T14:08:24Z</time>
      </trkpt>
      <trkpt lat="42.66254" lon="1.94042">
        <ele>1900.1833496094</ele>
        <time>2013-08-20T14:08:28Z</time>
      </trkpt>
      <trkpt lat="42.66255" lon="1.94039">
        <ele>1899.7023925781</ele>
        <time>2013-08-20T14:08:32Z</time>
      </trkpt>
      <trkpt lat="42.66258" lon="1.94037">
        <ele>1899.2216796875</ele>
        <time>2013-08-20T14:08:38Z</time>
      </trkpt>
      <trkpt lat="42.66265" lon="1.94034">
        <ele>1898.7409667969</ele>
        <time>2013-08-20T14:08:48Z</time>
      </trkpt>
      <trkpt lat="42.6627" lon="1.94029">
        <ele>1899.2216796875</ele>
        <time>2013-08-20T14:08:58Z</time>
      </trkpt>
      <trkpt lat="42.66272" lon="1.94021">
        <ele>1900.1833496094</ele>
        <time>2013-08-20T14:09:06Z</time>
      </trkpt>
      <trkpt lat="42.66276" lon="1.9402">
        <ele>1900.6638183594</ele>
        <time>2013-08-20T14:09:10Z</time>
      </trkpt>
      <trkpt lat="42.66282" lon="1.94025">
        <ele>1900.6638183594</ele>
        <time>2013-08-20T14:09:16Z</time>
      </trkpt>
      <trkpt lat="42.66286" lon="1.94025">
        <ele>1900.6638183594</ele>
        <time>2013-08-20T14:09:21Z</time>
      </trkpt>
      <trkpt lat="42.66286" lon="1.94019">
        <ele>1901.14453125</ele>
        <time>2013-08-20T14:09:27Z</time>
      </trkpt>
      <trkpt lat="42.66289" lon="1.94009">
        <ele>1901.6252441406</ele>
        <time>2013-08-20T14:09:48Z</time>
      </trkpt>
      <trkpt lat="42.66293" lon="1.94008">
        <ele>1902.5864257812</ele>
        <time>2013-08-20T14:10:06Z</time>
      </trkpt>
      <trkpt lat="42.66296" lon="1.94007">
        <ele>1903.0671386719</ele>
        <time>2013-08-20T14:10:13Z</time>
      </trkpt>
      <trkpt lat="42.66301" lon="1.94006">
        <ele>1902.5864257812</ele>
        <time>2013-08-20T14:10:19Z</time>
      </trkpt>
      <trkpt lat="42.66296" lon="1.94001">
        <ele>1914.1220703125</ele>
        <time>2013-08-20T14:10:29Z</time>
      </trkpt>
      <trkpt lat="42.66303" lon="1.94003">
        <ele>1907.8737792969</ele>
        <time>2013-08-20T14:10:33Z</time>
      </trkpt>
      <trkpt lat="42.66317" lon="1.94006">
        <ele>1895.3764648438</ele>
        <time>2013-08-20T14:10:39Z</time>
      </trkpt>
      <trkpt lat="42.66329" lon="1.94007">
        <ele>1888.6474609375</ele>
        <time>2013-08-20T14:10:47Z</time>
      </trkpt>
      <trkpt lat="42.66341" lon="1.94009">
        <ele>1881.4372558594</ele>
        <time>2013-08-20T14:10:54Z</time>
      </trkpt>
      <trkpt lat="42.66346" lon="1.9401">
        <ele>1877.5920410156</ele>
        <time>2013-08-20T14:10:58Z</time>
      </trkpt>
      <trkpt lat="42.66351" lon="1.94012">
        <ele>1874.7082519531</ele>
        <time>2013-08-20T14:11:02Z</time>
      </trkpt>
      <trkpt lat="42.66357" lon="1.94013">
        <ele>1871.3435058594</ele>
        <time>2013-08-20T14:11:07Z</time>
      </trkpt>
      <trkpt lat="42.66362" lon="1.94011">
        <ele>1867.498046875</ele>
        <time>2013-08-20T14:11:14Z</time>
      </trkpt>
      <trkpt lat="42.66367" lon="1.9401">
        <ele>1865.0949707031</ele>
        <time>2013-08-20T14:11:20Z</time>
      </trkpt>
      <trkpt lat="42.66376" lon="1.94012">
        <ele>1862.6916503906</ele>
        <time>2013-08-20T14:11:27Z</time>
      </trkpt>
      <trkpt lat="42.66385" lon="1.94009">
        <ele>1860.2883300781</ele>
        <time>2013-08-20T14:11:35Z</time>
      </trkpt>
      <trkpt lat="42.66393" lon="1.94006">
        <ele>1858.8464355469</ele>
        <time>2013-08-20T14:11:42Z</time>
      </trkpt>
      <trkpt lat="42.664" lon="1.94">
        <ele>1856.4431152344</ele>
        <time>2013-08-20T14:11:50Z</time>
      </trkpt>
      <trkpt lat="42.66404" lon="1.93997">
        <ele>1854.0400390625</ele>
        <time>2013-08-20T14:11:55Z</time>
      </trkpt>
      <trkpt lat="42.6641" lon="1.93996">
        <ele>1852.5979003906</ele>
        <time>2013-08-20T14:12:00Z</time>
      </trkpt>
      <trkpt lat="42.66415" lon="1.93993">
        <ele>1851.1557617188</ele>
        <time>2013-08-20T14:12:05Z</time>
      </trkpt>
      <trkpt lat="42.66429" lon="1.93987">
        <ele>1847.7912597656</ele>
        <time>2013-08-20T14:12:11Z</time>
      </trkpt>
      <trkpt lat="42.66435" lon="1.93986">
        <ele>1845.8686523438</ele>
        <time>2013-08-20T14:12:17Z</time>
      </trkpt>
      <trkpt lat="42.6644" lon="1.93986">
        <ele>1843.9460449219</ele>
        <time>2013-08-20T14:12:22Z</time>
      </trkpt>
      <trkpt lat="42.66449" lon="1.93983">
        <ele>1840.5812988281</ele>
        <time>2013-08-20T14:12:30Z</time>
      </trkpt>
      <trkpt lat="42.66452" lon="1.93981">
        <ele>1838.6589355469</ele>
        <time>2013-08-20T14:12:34Z</time>
      </trkpt>
      <trkpt lat="42.66456" lon="1.93982">
        <ele>1837.216796875</ele>
        <time>2013-08-20T14:12:38Z</time>
      </trkpt>
      <trkpt lat="42.66461" lon="1.93979">
        <ele>1835.2939453125</ele>
        <time>2013-08-20T14:12:43Z</time>
      </trkpt>
      <trkpt lat="42.66468" lon="1.93978">
        <ele>1832.41015625</ele>
        <time>2013-08-20T14:12:51Z</time>
      </trkpt>
      <trkpt lat="42.66474" lon="1.93979">
        <ele>1830.0068359375</ele>
        <time>2013-08-20T14:12:58Z</time>
      </trkpt>
      <trkpt lat="42.66478" lon="1.9398">
        <ele>1828.5649414062</ele>
        <time>2013-08-20T14:13:03Z</time>
      </trkpt>
      <trkpt lat="42.66483" lon="1.93981">
        <ele>1827.123046875</ele>
        <time>2013-08-20T14:13:09Z</time>
      </trkpt>
      <trkpt lat="42.66494" lon="1.93979">
        <ele>1824.7197265625</ele>
        <time>2013-08-20T14:13:20Z</time>
      </trkpt>
      <trkpt lat="42.66502" lon="1.9398">
        <ele>1824.2390136719</ele>
        <time>2013-08-20T14:13:27Z</time>
      </trkpt>
      <trkpt lat="42.66508" lon="1.93978">
        <ele>1820.8745117188</ele>
        <time>2013-08-20T14:13:35Z</time>
      </trkpt>
      <trkpt lat="42.66517" lon="1.93972">
        <ele>1817.5095214844</ele>
        <time>2013-08-20T14:13:45Z</time>
      </trkpt>
      <trkpt lat="42.66526" lon="1.93969">
        <ele>1814.6257324219</ele>
        <time>2013-08-20T14:13:54Z</time>
      </trkpt>
      <trkpt lat="42.66528" lon="1.93969">
        <ele>1815.1064453125</ele>
        <time>2013-08-20T14:13:55Z</time>
      </trkpt>
      <trkpt lat="42.66563" lon="1.93966">
        <ele>1809.8190917969</ele>
        <time>2013-08-20T14:14:02Z</time>
      </trkpt>
      <trkpt lat="42.66579" lon="1.93967">
        <ele>1806.9353027344</ele>
        <time>2013-08-20T14:14:09Z</time>
      </trkpt>
      <trkpt lat="42.66577" lon="1.93967">
        <ele>1806.9353027344</ele>
        <time>2013-08-20T14:14:19Z</time>
      </trkpt>
      <trkpt lat="42.66586" lon="1.9397">
        <ele>1806.4545898438</ele>
        <time>2013-08-20T14:14:27Z</time>
      </trkpt>
      <trkpt lat="42.66587" lon="1.93971">
        <ele>1806.4545898438</ele>
        <time>2013-08-20T14:14:33Z</time>
      </trkpt>
      <trkpt lat="42.66595" lon="1.93972">
        <ele>1805.4934082031</ele>
        <time>2013-08-20T14:14:38Z</time>
      </trkpt>
      <trkpt lat="42.66598" lon="1.93973">
        <ele>1805.0126953125</ele>
        <time>2013-08-20T14:14:41Z</time>
      </trkpt>
      <trkpt lat="42.66603" lon="1.93974">
        <ele>1803.5705566406</ele>
        <time>2013-08-20T14:14:49Z</time>
      </trkpt>
      <trkpt lat="42.66608" lon="1.93973">
        <ele>1802.6091308594</ele>
        <time>2013-08-20T14:14:55Z</time>
      </trkpt>
      <trkpt lat="42.6661" lon="1.93972">
        <ele>1801.6479492188</ele>
        <time>2013-08-20T14:15:00Z</time>
      </trkpt>
      <trkpt lat="42.66614" lon="1.93974">
        <ele>1800.6865234375</ele>
        <time>2013-08-20T14:15:06Z</time>
      </trkpt>
      <trkpt lat="42.66618" lon="1.93973">
        <ele>1799.2446289062</ele>
        <time>2013-08-20T14:15:11Z</time>
      </trkpt>
      <trkpt lat="42.66626" lon="1.93973">
        <ele>1796.8413085938</ele>
        <time>2013-08-20T14:15:18Z</time>
      </trkpt>
      <trkpt lat="42.66631" lon="1.93972">
        <ele>1795.3994140625</ele>
        <time>2013-08-20T14:15:24Z</time>
      </trkpt>
      <trkpt lat="42.66634" lon="1.93973">
        <ele>1794.4379882812</ele>
        <time>2013-08-20T14:15:28Z</time>
      </trkpt>
      <trkpt lat="42.6664" lon="1.93974">
        <ele>1792.515625</ele>
        <time>2013-08-20T14:15:34Z</time>
      </trkpt>
      <trkpt lat="42.66645" lon="1.93976">
        <ele>1791.0734863281</ele>
        <time>2013-08-20T14:15:40Z</time>
      </trkpt>
      <trkpt lat="42.66646" lon="1.93981">
        <ele>1790.1123046875</ele>
        <time>2013-08-20T14:15:46Z</time>
      </trkpt>
      <trkpt lat="42.66643" lon="1.93991">
        <ele>1788.1896972656</ele>
        <time>2013-08-20T14:15:54Z</time>
      </trkpt>
      <trkpt lat="42.66643" lon="1.93993">
        <ele>1786.7473144531</ele>
        <time>2013-08-20T14:16:01Z</time>
      </trkpt>
      <trkpt lat="42.66645" lon="1.93996">
        <ele>1785.7861328125</ele>
        <time>2013-08-20T14:16:06Z</time>
      </trkpt>
      <trkpt lat="42.66646" lon="1.94">
        <ele>1785.3054199219</ele>
        <time>2013-08-20T14:16:12Z</time>
      </trkpt>
      <trkpt lat="42.66648" lon="1.94002">
        <ele>1783.8635253906</ele>
        <time>2013-08-20T14:16:18Z</time>
      </trkpt>
      <trkpt lat="42.66646" lon="1.94003">
        <ele>1783.8635253906</ele>
        <time>2013-08-20T14:16:27Z</time>
      </trkpt>
      <trkpt lat="42.66651" lon="1.93999">
        <ele>1781.9409179688</ele>
        <time>2013-08-20T14:16:32Z</time>
      </trkpt>
      <trkpt lat="42.66654" lon="1.94">
        <ele>1780.9797363281</ele>
        <time>2013-08-20T14:16:40Z</time>
      </trkpt>
      <trkpt lat="42.66644" lon="1.94">
        <ele>1780.4990234375</ele>
        <time>2013-08-20T14:16:51Z</time>
      </trkpt>
      <trkpt lat="42.66652" lon="1.94">
        <ele>1777.6149902344</ele>
        <time>2013-08-20T14:16:56Z</time>
      </trkpt>
      <trkpt lat="42.66641" lon="1.93999">
        <ele>1786.2668457031</ele>
        <time>2013-08-20T14:17:24Z</time>
      </trkpt>
      <trkpt lat="42.66642" lon="1.94005">
        <ele>1782.9020996094</ele>
        <time>2013-08-20T14:17:29Z</time>
      </trkpt>
      <trkpt lat="42.66643" lon="1.94009">
        <ele>1780.4990234375</ele>
        <time>2013-08-20T14:17:33Z</time>
      </trkpt>
      <trkpt lat="42.66646" lon="1.94013">
        <ele>1776.6538085938</ele>
        <time>2013-08-20T14:17:39Z</time>
      </trkpt>
      <trkpt lat="42.6665" lon="1.94016">
        <ele>1773.7697753906</ele>
        <time>2013-08-20T14:17:44Z</time>
      </trkpt>
      <trkpt lat="42.66653" lon="1.94019">
        <ele>1771.8469238281</ele>
        <time>2013-08-20T14:17:48Z</time>
      </trkpt>
      <trkpt lat="42.66657" lon="1.94023">
        <ele>1768.9631347656</ele>
        <time>2013-08-20T14:17:54Z</time>
      </trkpt>
      <trkpt lat="42.6668" lon="1.9402">
        <ele>1761.7534179688</ele>
        <time>2013-08-20T14:18:09Z</time>
      </trkpt>
      <trkpt lat="42.66681" lon="1.94021">
        <ele>1761.2727050781</ele>
        <time>2013-08-20T14:18:12Z</time>
      </trkpt>
      <trkpt lat="42.6667" lon="1.9401">
        <ele>1772.80859375</ele>
        <time>2013-08-20T14:18:36Z</time>
      </trkpt>
      <trkpt lat="42.66656" lon="1.9401">
        <ele>1775.6923828125</ele>
        <time>2013-08-20T14:18:40Z</time>
      </trkpt>
      <trkpt lat="42.66636" lon="1.94013">
        <ele>1778.095703125</ele>
        <time>2013-08-20T14:18:47Z</time>
      </trkpt>
      <trkpt lat="42.66621" lon="1.94014">
        <ele>1782.9020996094</ele>
        <time>2013-08-20T14:18:52Z</time>
      </trkpt>
      <trkpt lat="42.66627" lon="1.94015">
        <ele>1779.0568847656</ele>
        <time>2013-08-20T14:18:58Z</time>
      </trkpt>
      <trkpt lat="42.66661" lon="1.94024">
        <ele>1761.7534179688</ele>
        <time>2013-08-20T14:19:22Z</time>
      </trkpt>
      <trkpt lat="42.66664" lon="1.94025">
        <ele>1759.8305664062</ele>
        <time>2013-08-20T14:19:27Z</time>
      </trkpt>
      <trkpt lat="42.6667" lon="1.94023">
        <ele>1753.58203125</ele>
        <time>2013-08-20T14:19:55Z</time>
      </trkpt>
      <trkpt lat="42.66678" lon="1.94027">
        <ele>1750.2175292969</ele>
        <time>2013-08-20T14:20:00Z</time>
      </trkpt>
      <trkpt lat="42.66686" lon="1.94028">
        <ele>1745.8916015625</ele>
        <time>2013-08-20T14:20:07Z</time>
      </trkpt>
      <trkpt lat="42.66705" lon="1.94021">
        <ele>1738.2009277344</ele>
        <time>2013-08-20T14:20:22Z</time>
      </trkpt>
      <trkpt lat="42.66711" lon="1.94021">
        <ele>1734.8364257812</ele>
        <time>2013-08-20T14:20:29Z</time>
      </trkpt>
      <trkpt lat="42.66718" lon="1.94026">
        <ele>1731.9523925781</ele>
        <time>2013-08-20T14:20:36Z</time>
      </trkpt>
      <trkpt lat="42.66719" lon="1.94027">
        <ele>1731.4716796875</ele>
        <time>2013-08-20T14:20:38Z</time>
      </trkpt>
      <trkpt lat="42.66726" lon="1.94032">
        <ele>1729.5490722656</ele>
        <time>2013-08-20T14:20:44Z</time>
      </trkpt>
      <trkpt lat="42.66738" lon="1.94033">
        <ele>1721.8583984375</ele>
        <time>2013-08-20T14:21:10Z</time>
      </trkpt>
      <trkpt lat="42.66746" lon="1.94036">
        <ele>1718.4938964844</ele>
        <time>2013-08-20T14:21:24Z</time>
      </trkpt>
      <trkpt lat="42.66749" lon="1.94038">
        <ele>1718.0131835938</ele>
        <time>2013-08-20T14:21:29Z</time>
      </trkpt>
      <trkpt lat="42.66759" lon="1.94037">
        <ele>1713.2067871094</ele>
        <time>2013-08-20T14:21:49Z</time>
      </trkpt>
      <trkpt lat="42.66766" lon="1.9404">
        <ele>1711.7648925781</ele>
        <time>2013-08-20T14:21:54Z</time>
      </trkpt>
      <trkpt lat="42.66769" lon="1.94041">
        <ele>1711.2841796875</ele>
        <time>2013-08-20T14:21:56Z</time>
      </trkpt>
      <trkpt lat="42.66779" lon="1.94044">
        <ele>1710.3227539062</ele>
        <time>2013-08-20T14:22:00Z</time>
      </trkpt>
      <trkpt lat="42.66775" lon="1.94049">
        <ele>1710.3227539062</ele>
        <time>2013-08-20T14:22:06Z</time>
      </trkpt>
      <trkpt lat="42.66776" lon="1.94053">
        <ele>1710.3227539062</ele>
        <time>2013-08-20T14:22:10Z</time>
      </trkpt>
      <trkpt lat="42.66778" lon="1.94059">
        <ele>1708.880859375</ele>
        <time>2013-08-20T14:22:18Z</time>
      </trkpt>
      <trkpt lat="42.6678" lon="1.94059">
        <ele>1708.4001464844</ele>
        <time>2013-08-20T14:22:24Z</time>
      </trkpt>
      <trkpt lat="42.66789" lon="1.94058">
        <ele>1705.0354003906</ele>
        <time>2013-08-20T14:22:38Z</time>
      </trkpt>
      <trkpt lat="42.66795" lon="1.94061">
        <ele>1703.5935058594</ele>
        <time>2013-08-20T14:22:46Z</time>
      </trkpt>
      <trkpt lat="42.66803" lon="1.94062">
        <ele>1701.6708984375</ele>
        <time>2013-08-20T14:22:58Z</time>
      </trkpt>
      <trkpt lat="42.66808" lon="1.94069">
        <ele>1699.7482910156</ele>
        <time>2013-08-20T14:23:06Z</time>
      </trkpt>
      <trkpt lat="42.66808" lon="1.94071">
        <ele>1699.7482910156</ele>
        <time>2013-08-20T14:23:09Z</time>
      </trkpt>
      <trkpt lat="42.66807" lon="1.94076">
        <ele>1698.3061523438</ele>
        <time>2013-08-20T14:23:14Z</time>
      </trkpt>
      <trkpt lat="42.66811" lon="1.94078">
        <ele>1696.8642578125</ele>
        <time>2013-08-20T14:23:19Z</time>
      </trkpt>
      <trkpt lat="42.66816" lon="1.9408">
        <ele>1695.4223632812</ele>
        <time>2013-08-20T14:23:25Z</time>
      </trkpt>
      <trkpt lat="42.66821" lon="1.9408">
        <ele>1694.4609375</ele>
        <time>2013-08-20T14:23:30Z</time>
      </trkpt>
      <trkpt lat="42.66828" lon="1.94084">
        <ele>1693.0190429688</ele>
        <time>2013-08-20T14:23:37Z</time>
      </trkpt>
      <trkpt lat="42.66833" lon="1.94085">
        <ele>1692.0578613281</ele>
        <time>2013-08-20T14:23:43Z</time>
      </trkpt>
      <trkpt lat="42.66839" lon="1.94084">
        <ele>1690.6154785156</ele>
        <time>2013-08-20T14:23:50Z</time>
      </trkpt>
      <trkpt lat="42.66847" lon="1.94085">
        <ele>1689.1735839844</ele>
        <time>2013-08-20T14:23:56Z</time>
      </trkpt>
      <trkpt lat="42.66854" lon="1.94086">
        <ele>1687.7316894531</ele>
        <time>2013-08-20T14:24:04Z</time>
      </trkpt>
      <trkpt lat="42.66856" lon="1.94089">
        <ele>1687.2509765625</ele>
        <time>2013-08-20T14:24:07Z</time>
      </trkpt>
      <trkpt lat="42.66869" lon="1.94092">
        <ele>1685.8090820312</ele>
        <time>2013-08-20T14:24:16Z</time>
      </trkpt>
      <trkpt lat="42.66878" lon="1.94092">
        <ele>1684.3671875</ele>
        <time>2013-08-20T14:24:24Z</time>
      </trkpt>
      <trkpt lat="42.66885" lon="1.94095">
        <ele>1682.4445800781</ele>
        <time>2013-08-20T14:24:34Z</time>
      </trkpt>
      <trkpt lat="42.66891" lon="1.94094">
        <ele>1680.0412597656</ele>
        <time>2013-08-20T14:24:42Z</time>
      </trkpt>
      <trkpt lat="42.66898" lon="1.94095">
        <ele>1678.5993652344</ele>
        <time>2013-08-20T14:24:50Z</time>
      </trkpt>
      <trkpt lat="42.66901" lon="1.94094">
        <ele>1677.6379394531</ele>
        <time>2013-08-20T14:24:56Z</time>
      </trkpt>
      <trkpt lat="42.66904" lon="1.94094">
        <ele>1677.1574707031</ele>
        <time>2013-08-20T14:24:59Z</time>
      </trkpt>
      <trkpt lat="42.66912" lon="1.94093">
        <ele>1675.234375</ele>
        <time>2013-08-20T14:25:07Z</time>
      </trkpt>
      <trkpt lat="42.66916" lon="1.94094">
        <ele>1674.2731933594</ele>
        <time>2013-08-20T14:25:13Z</time>
      </trkpt>
      <trkpt lat="42.66925" lon="1.94096">
        <ele>1672.8312988281</ele>
        <time>2013-08-20T14:25:20Z</time>
      </trkpt>
      <trkpt lat="42.66931" lon="1.94095">
        <ele>1671.8698730469</ele>
        <time>2013-08-20T14:25:27Z</time>
      </trkpt>
      <trkpt lat="42.66932" lon="1.94095">
        <ele>1671.3891601562</ele>
        <time>2013-08-20T14:25:28Z</time>
      </trkpt>
      <trkpt lat="42.66935" lon="1.94097">
        <ele>1670.4279785156</ele>
        <time>2013-08-20T14:25:33Z</time>
      </trkpt>
      <trkpt lat="42.66941" lon="1.94095">
        <ele>1668.9860839844</ele>
        <time>2013-08-20T14:25:39Z</time>
      </trkpt>
      <trkpt lat="42.66947" lon="1.94095">
        <ele>1667.5439453125</ele>
        <time>2013-08-20T14:25:46Z</time>
      </trkpt>
      <trkpt lat="42.66934" lon="1.94094">
        <ele>1664.1794433594</ele>
        <time>2013-08-20T14:25:52Z</time>
      </trkpt>
      <trkpt lat="42.6693" lon="1.94095">
        <ele>1663.2182617188</ele>
        <time>2013-08-20T14:25:54Z</time>
      </trkpt>
      <trkpt lat="42.66937" lon="1.94093">
        <ele>1660.3342285156</ele>
        <time>2013-08-20T14:26:02Z</time>
      </trkpt>
      <trkpt lat="42.66941" lon="1.94088">
        <ele>1658.8920898438</ele>
        <time>2013-08-20T14:26:07Z</time>
      </trkpt>
      <trkpt lat="42.6695" lon="1.94084">
        <ele>1656.9694824219</ele>
        <time>2013-08-20T14:26:15Z</time>
      </trkpt>
      <trkpt lat="42.66955" lon="1.94082">
        <ele>1655.5275878906</ele>
        <time>2013-08-20T14:26:20Z</time>
      </trkpt>
      <trkpt lat="42.6696" lon="1.94081">
        <ele>1654.0856933594</ele>
        <time>2013-08-20T14:26:25Z</time>
      </trkpt>
      <trkpt lat="42.66964" lon="1.94079">
        <ele>1653.1242675781</ele>
        <time>2013-08-20T14:26:29Z</time>
      </trkpt>
      <trkpt lat="42.6697" lon="1.94081">
        <ele>1650.7209472656</ele>
        <time>2013-08-20T14:26:36Z</time>
      </trkpt>
      <trkpt lat="42.66973" lon="1.94082">
        <ele>1649.759765625</ele>
        <time>2013-08-20T14:26:40Z</time>
      </trkpt>
      <trkpt lat="42.66977" lon="1.94085">
        <ele>1647.8371582031</ele>
        <time>2013-08-20T14:26:46Z</time>
      </trkpt>
      <trkpt lat="42.66982" lon="1.94087">
        <ele>1645.9145507812</ele>
        <time>2013-08-20T14:26:52Z</time>
      </trkpt>
      <trkpt lat="42.66987" lon="1.94089">
        <ele>1644.4724121094</ele>
        <time>2013-08-20T14:26:58Z</time>
      </trkpt>
      <trkpt lat="42.66991" lon="1.9409">
        <ele>1643.0302734375</ele>
        <time>2013-08-20T14:27:04Z</time>
      </trkpt>
      <trkpt lat="42.66996" lon="1.94087">
        <ele>1641.1076660156</ele>
        <time>2013-08-20T14:27:10Z</time>
      </trkpt>
      <trkpt lat="42.67001" lon="1.94082">
        <ele>1640.146484375</ele>
        <time>2013-08-20T14:27:16Z</time>
      </trkpt>
      <trkpt lat="42.67002" lon="1.9408">
        <ele>1639.6657714844</ele>
        <time>2013-08-20T14:27:18Z</time>
      </trkpt>
      <trkpt lat="42.67004" lon="1.94069">
        <ele>1638.2238769531</ele>
        <time>2013-08-20T14:27:25Z</time>
      </trkpt>
      <trkpt lat="42.67005" lon="1.94065">
        <ele>1637.7431640625</ele>
        <time>2013-08-20T14:27:28Z</time>
      </trkpt>
      <trkpt lat="42.67009" lon="1.94055">
        <ele>1636.7817382812</ele>
        <time>2013-08-20T14:27:35Z</time>
      </trkpt>
      <trkpt lat="42.67012" lon="1.9405">
        <ele>1636.7817382812</ele>
        <time>2013-08-20T14:27:39Z</time>
      </trkpt>
      <trkpt lat="42.67013" lon="1.94048">
        <ele>1636.3012695312</ele>
        <time>2013-08-20T14:27:41Z</time>
      </trkpt>
      <trkpt lat="42.67016" lon="1.94039">
        <ele>1635.33984375</ele>
        <time>2013-08-20T14:27:48Z</time>
      </trkpt>
      <trkpt lat="42.6702" lon="1.94035">
        <ele>1634.3786621094</ele>
        <time>2013-08-20T14:27:53Z</time>
      </trkpt>
      <trkpt lat="42.67023" lon="1.94032">
        <ele>1632.9365234375</ele>
        <time>2013-08-20T14:27:58Z</time>
      </trkpt>
      <trkpt lat="42.67025" lon="1.94028">
        <ele>1632.9365234375</ele>
        <time>2013-08-20T14:28:04Z</time>
      </trkpt>
      <trkpt lat="42.67025" lon="1.94028">
        <ele>1631.9753417969</ele>
        <time>2013-08-20T14:28:13Z</time>
      </trkpt>
      <trkpt lat="42.6703" lon="1.94029">
        <ele>1631.4946289062</ele>
        <time>2013-08-20T14:28:35Z</time>
      </trkpt>
      <trkpt lat="42.67034" lon="1.94029">
        <ele>1632.9365234375</ele>
        <time>2013-08-20T14:28:46Z</time>
      </trkpt>
      <trkpt lat="42.67034" lon="1.94028">
        <ele>1632.9365234375</ele>
        <time>2013-08-20T14:28:51Z</time>
      </trkpt>
      <trkpt lat="42.67034" lon="1.94024">
        <ele>1631.0141601562</ele>
        <time>2013-08-20T14:28:57Z</time>
      </trkpt>
      <trkpt lat="42.67037" lon="1.94022">
        <ele>1629.0913085938</ele>
        <time>2013-08-20T14:29:02Z</time>
      </trkpt>
      <trkpt lat="42.67038" lon="1.94019">
        <ele>1628.6108398438</ele>
        <time>2013-08-20T14:29:06Z</time>
      </trkpt>
      <trkpt lat="42.67041" lon="1.94021">
        <ele>1629.5720214844</ele>
        <time>2013-08-20T14:29:11Z</time>
      </trkpt>
      <trkpt lat="42.67041" lon="1.94022">
        <ele>1629.5720214844</ele>
        <time>2013-08-20T14:29:12Z</time>
      </trkpt>
      <trkpt lat="42.67048" lon="1.94028">
        <ele>1630.052734375</ele>
        <time>2013-08-20T14:29:20Z</time>
      </trkpt>
      <trkpt lat="42.67052" lon="1.94034">
        <ele>1631.0141601562</ele>
        <time>2013-08-20T14:29:25Z</time>
      </trkpt>
      <trkpt lat="42.67054" lon="1.9404">
        <ele>1631.0141601562</ele>
        <time>2013-08-20T14:29:29Z</time>
      </trkpt>
      <trkpt lat="42.67056" lon="1.94042">
        <ele>1629.0913085938</ele>
        <time>2013-08-20T14:29:31Z</time>
      </trkpt>
      <trkpt lat="42.67062" lon="1.94043">
        <ele>1627.6491699219</ele>
        <time>2013-08-20T14:29:35Z</time>
      </trkpt>
      <trkpt lat="42.67071" lon="1.94044">
        <ele>1624.7653808594</ele>
        <time>2013-08-20T14:29:42Z</time>
      </trkpt>
      <trkpt lat="42.67073" lon="1.94046">
        <ele>1623.3234863281</ele>
        <time>2013-08-20T14:29:47Z</time>
      </trkpt>
      <trkpt lat="42.6708" lon="1.94051">
        <ele>1622.3620605469</ele>
        <time>2013-08-20T14:29:53Z</time>
      </trkpt>
      <trkpt lat="42.67084" lon="1.94055">
        <ele>1621.4006347656</ele>
        <time>2013-08-20T14:29:58Z</time>
      </trkpt>
      <trkpt lat="42.67089" lon="1.94058">
        <ele>1618.9975585938</ele>
        <time>2013-08-20T14:30:05Z</time>
      </trkpt>
      <trkpt lat="42.67096" lon="1.94062">
        <ele>1618.5168457031</ele>
        <time>2013-08-20T14:30:10Z</time>
      </trkpt>
      <trkpt lat="42.67103" lon="1.94066">
        <ele>1617.5554199219</ele>
        <time>2013-08-20T14:30:16Z</time>
      </trkpt>
      <trkpt lat="42.67108" lon="1.94071">
        <ele>1617.0749511719</ele>
        <time>2013-08-20T14:30:22Z</time>
      </trkpt>
      <trkpt lat="42.67113" lon="1.94074">
        <ele>1615.6330566406</ele>
        <time>2013-08-20T14:30:26Z</time>
      </trkpt>
      <trkpt lat="42.67115" lon="1.94075">
        <ele>1615.15234375</ele>
        <time>2013-08-20T14:30:28Z</time>
      </trkpt>
      <trkpt lat="42.6712" lon="1.94078">
        <ele>1613.7102050781</ele>
        <time>2013-08-20T14:30:34Z</time>
      </trkpt>
      <trkpt lat="42.67125" lon="1.94078">
        <ele>1612.2683105469</ele>
        <time>2013-08-20T14:30:42Z</time>
      </trkpt>
      <trkpt lat="42.67132" lon="1.94078">
        <ele>1608.4228515625</ele>
        <time>2013-08-20T14:30:54Z</time>
      </trkpt>
      <trkpt lat="42.67138" lon="1.94076">
        <ele>1607.4616699219</ele>
        <time>2013-08-20T14:31:00Z</time>
      </trkpt>
      <trkpt lat="42.67143" lon="1.94075">
        <ele>1606.9809570312</ele>
        <time>2013-08-20T14:31:05Z</time>
      </trkpt>
      <trkpt lat="42.67148" lon="1.94079">
        <ele>1606.5002441406</ele>
        <time>2013-08-20T14:31:11Z</time>
      </trkpt>
      <trkpt lat="42.67149" lon="1.94085">
        <ele>1606.01953125</ele>
        <time>2013-08-20T14:31:15Z</time>
      </trkpt>
      <trkpt lat="42.67153" lon="1.94089">
        <ele>1606.01953125</ele>
        <time>2013-08-20T14:31:18Z</time>
      </trkpt>
      <trkpt lat="42.67152" lon="1.94094">
        <ele>1606.01953125</ele>
        <time>2013-08-20T14:31:21Z</time>
      </trkpt>
      <trkpt lat="42.67154" lon="1.94098">
        <ele>1605.5390625</ele>
        <time>2013-08-20T14:31:25Z</time>
      </trkpt>
      <trkpt lat="42.67157" lon="1.94103">
        <ele>1605.0583496094</ele>
        <time>2013-08-20T14:31:32Z</time>
      </trkpt>
      <trkpt lat="42.6716" lon="1.94104">
        <ele>1605.0583496094</ele>
        <time>2013-08-20T14:31:34Z</time>
      </trkpt>
      <trkpt lat="42.67163" lon="1.94104">
        <ele>1604.5776367188</ele>
        <time>2013-08-20T14:31:36Z</time>
      </trkpt>
      <trkpt lat="42.67167" lon="1.94104">
        <ele>1601.6938476562</ele>
        <time>2013-08-20T14:31:42Z</time>
      </trkpt>
      <trkpt lat="42.67169" lon="1.94108">
        <ele>1600.251953125</ele>
        <time>2013-08-20T14:31:48Z</time>
      </trkpt>
      <trkpt lat="42.6717" lon="1.94111">
        <ele>1600.732421875</ele>
        <time>2013-08-20T14:31:54Z</time>
      </trkpt>
      <trkpt lat="42.67173" lon="1.94108">
        <ele>1603.6164550781</ele>
        <time>2013-08-20T14:32:07Z</time>
      </trkpt>
      <trkpt lat="42.67175" lon="1.94109">
        <ele>1603.1357421875</ele>
        <time>2013-08-20T14:32:11Z</time>
      </trkpt>
      <trkpt lat="42.67186" lon="1.94112">
        <ele>1603.1357421875</ele>
        <time>2013-08-20T14:32:19Z</time>
      </trkpt>
      <trkpt lat="42.67186" lon="1.94112">
        <ele>1602.6550292969</ele>
        <time>2013-08-20T14:32:20Z</time>
      </trkpt>
      <trkpt lat="42.6719" lon="1.9412">
        <ele>1601.2131347656</ele>
        <time>2013-08-20T14:32:28Z</time>
      </trkpt>
      <trkpt lat="42.67196" lon="1.94122">
        <ele>1601.6938476562</ele>
        <time>2013-08-20T14:32:34Z</time>
      </trkpt>
      <trkpt lat="42.672" lon="1.94125">
        <ele>1601.6938476562</ele>
        <time>2013-08-20T14:32:38Z</time>
      </trkpt>
      <trkpt lat="42.67207" lon="1.94125">
        <ele>1601.2131347656</ele>
        <time>2013-08-20T14:32:44Z</time>
      </trkpt>
      <trkpt lat="42.67219" lon="1.94124">
        <ele>1602.6550292969</ele>
        <time>2013-08-20T14:32:49Z</time>
      </trkpt>
      <trkpt lat="42.67223" lon="1.94121">
        <ele>1602.1743164062</ele>
        <time>2013-08-20T14:32:53Z</time>
      </trkpt>
      <trkpt lat="42.67221" lon="1.94115">
        <ele>1599.2905273438</ele>
        <time>2013-08-20T14:32:57Z</time>
      </trkpt>
      <trkpt lat="42.67221" lon="1.94114">
        <ele>1597.8486328125</ele>
        <time>2013-08-20T14:32:59Z</time>
      </trkpt>
      <trkpt lat="42.6722" lon="1.94109">
        <ele>1595.92578125</ele>
        <time>2013-08-20T14:33:03Z</time>
      </trkpt>
      <trkpt lat="42.67221" lon="1.94103">
        <ele>1594.4836425781</ele>
        <time>2013-08-20T14:33:08Z</time>
      </trkpt>
      <trkpt lat="42.67218" lon="1.94096">
        <ele>1592.0805664062</ele>
        <time>2013-08-20T14:33:15Z</time>
      </trkpt>
      <trkpt lat="42.67221" lon="1.9409">
        <ele>1589.6772460938</ele>
        <time>2013-08-20T14:33:21Z</time>
      </trkpt>
      <trkpt lat="42.67226" lon="1.94086">
        <ele>1587.7546386719</ele>
        <time>2013-08-20T14:33:28Z</time>
      </trkpt>
      <trkpt lat="42.67228" lon="1.94088">
        <ele>1586.3127441406</ele>
        <time>2013-08-20T14:33:33Z</time>
      </trkpt>
      <trkpt lat="42.67229" lon="1.94086">
        <ele>1585.3513183594</ele>
        <time>2013-08-20T14:33:37Z</time>
      </trkpt>
      <trkpt lat="42.6723" lon="1.94081">
        <ele>1583.4287109375</ele>
        <time>2013-08-20T14:33:45Z</time>
      </trkpt>
      <trkpt lat="42.67231" lon="1.9408">
        <ele>1582.9479980469</ele>
        <time>2013-08-20T14:33:49Z</time>
      </trkpt>
      <trkpt lat="42.67232" lon="1.94078">
        <ele>1581.9868164062</ele>
        <time>2013-08-20T14:33:54Z</time>
      </trkpt>
      <trkpt lat="42.67233" lon="1.94076">
        <ele>1581.9868164062</ele>
        <time>2013-08-20T14:33:59Z</time>
      </trkpt>
      <trkpt lat="42.67234" lon="1.94074">
        <ele>1581.0256347656</ele>
        <time>2013-08-20T14:34:05Z</time>
      </trkpt>
      <trkpt lat="42.67234" lon="1.9407">
        <ele>1584.8708496094</ele>
        <time>2013-08-20T14:34:16Z</time>
      </trkpt>
      <trkpt lat="42.67233" lon="1.94068">
        <ele>1583.4287109375</ele>
        <time>2013-08-20T14:34:21Z</time>
      </trkpt>
      <trkpt lat="42.67235" lon="1.94065">
        <ele>1582.9479980469</ele>
        <time>2013-08-20T14:34:26Z</time>
      </trkpt>
      <trkpt lat="42.6723" lon="1.9406">
        <ele>1585.3513183594</ele>
        <time>2013-08-20T14:34:32Z</time>
      </trkpt>
      <trkpt lat="42.67231" lon="1.94054">
        <ele>1585.83203125</ele>
        <time>2013-08-20T14:34:39Z</time>
      </trkpt>
      <trkpt lat="42.67236" lon="1.94051">
        <ele>1582.4675292969</ele>
        <time>2013-08-20T14:34:44Z</time>
      </trkpt>
      <trkpt lat="42.67237" lon="1.9405">
        <ele>1581.0256347656</ele>
        <time>2013-08-20T14:34:45Z</time>
      </trkpt>
      <trkpt lat="42.67241" lon="1.94043">
        <ele>1575.7380371094</ele>
        <time>2013-08-20T14:34:50Z</time>
      </trkpt>
      <trkpt lat="42.67241" lon="1.9404">
        <ele>1575.7380371094</ele>
        <time>2013-08-20T14:34:59Z</time>
      </trkpt>
      <trkpt lat="42.67239" lon="1.94033">
        <ele>1565.64453125</ele>
        <time>2013-08-20T14:35:40Z</time>
      </trkpt>
      <trkpt lat="42.67239" lon="1.94027">
        <ele>1565.64453125</ele>
        <time>2013-08-20T14:35:44Z</time>
      </trkpt>
      <trkpt lat="42.67244" lon="1.9402">
        <ele>1566.6057128906</ele>
        <time>2013-08-20T14:35:49Z</time>
      </trkpt>
      <trkpt lat="42.67247" lon="1.9401">
        <ele>1565.1638183594</ele>
        <time>2013-08-20T14:35:56Z</time>
      </trkpt>
      <trkpt lat="42.67247" lon="1.94005">
        <ele>1565.1638183594</ele>
        <time>2013-08-20T14:35:58Z</time>
      </trkpt>
      <trkpt lat="42.67253" lon="1.93998">
        <ele>1566.6057128906</ele>
        <time>2013-08-20T14:36:04Z</time>
      </trkpt>
      <trkpt lat="42.67259" lon="1.93996">
        <ele>1565.64453125</ele>
        <time>2013-08-20T14:36:09Z</time>
      </trkpt>
      <trkpt lat="42.67261" lon="1.93992">
        <ele>1564.2023925781</ele>
        <time>2013-08-20T14:36:12Z</time>
      </trkpt>
      <trkpt lat="42.6726" lon="1.93986">
        <ele>1563.7214355469</ele>
        <time>2013-08-20T14:36:15Z</time>
      </trkpt>
      <trkpt lat="42.67252" lon="1.93976">
        <ele>1563.2409667969</ele>
        <time>2013-08-20T14:36:19Z</time>
      </trkpt>
      <trkpt lat="42.67255" lon="1.93972">
        <ele>1564.2023925781</ele>
        <time>2013-08-20T14:36:23Z</time>
      </trkpt>
      <trkpt lat="42.6726" lon="1.93967">
        <ele>1564.2023925781</ele>
        <time>2013-08-20T14:36:28Z</time>
      </trkpt>
      <trkpt lat="42.6726" lon="1.93961">
        <ele>1566.6057128906</ele>
        <time>2013-08-20T14:36:31Z</time>
      </trkpt>
      <trkpt lat="42.67266" lon="1.93954">
        <ele>1567.0864257812</ele>
        <time>2013-08-20T14:36:36Z</time>
      </trkpt>
      <trkpt lat="42.67266" lon="1.93949">
        <ele>1570.931640625</ele>
        <time>2013-08-20T14:36:40Z</time>
      </trkpt>
      <trkpt lat="42.6727" lon="1.93941">
        <ele>1569.4897460938</ele>
        <time>2013-08-20T14:36:48Z</time>
      </trkpt>
      <trkpt lat="42.67276" lon="1.93934">
        <ele>1568.0476074219</ele>
        <time>2013-08-20T14:36:53Z</time>
      </trkpt>
      <trkpt lat="42.6728" lon="1.93927">
        <ele>1565.64453125</ele>
        <time>2013-08-20T14:36:59Z</time>
      </trkpt>
      <trkpt lat="42.67283" lon="1.9392">
        <ele>1561.318359375</ele>
        <time>2013-08-20T14:37:05Z</time>
      </trkpt>
      <trkpt lat="42.67284" lon="1.93917">
        <ele>1559.8762207031</ele>
        <time>2013-08-20T14:37:10Z</time>
      </trkpt>
      <trkpt lat="42.6729" lon="1.93918">
        <ele>1554.5891113281</ele>
        <time>2013-08-20T14:37:21Z</time>
      </trkpt>
      <trkpt lat="42.67301" lon="1.93917">
        <ele>1552.1857910156</ele>
        <time>2013-08-20T14:37:36Z</time>
      </trkpt>
      <trkpt lat="42.67303" lon="1.93914">
        <ele>1550.7438964844</ele>
        <time>2013-08-20T14:37:41Z</time>
      </trkpt>
      <trkpt lat="42.67302" lon="1.93914">
        <ele>1549.3020019531</ele>
        <time>2013-08-20T14:37:46Z</time>
      </trkpt>
      <trkpt lat="42.67305" lon="1.93919">
        <ele>1549.7827148438</ele>
        <time>2013-08-20T14:37:54Z</time>
      </trkpt>
      <trkpt lat="42.67304" lon="1.93923">
        <ele>1549.3020019531</ele>
        <time>2013-08-20T14:37:58Z</time>
      </trkpt>
      <trkpt lat="42.67303" lon="1.93926">
        <ele>1549.7827148438</ele>
        <time>2013-08-20T14:38:03Z</time>
      </trkpt>
      <trkpt lat="42.67304" lon="1.93927">
        <ele>1550.7438964844</ele>
        <time>2013-08-20T14:38:06Z</time>
      </trkpt>
      <trkpt lat="42.67305" lon="1.93933">
        <ele>1550.7438964844</ele>
        <time>2013-08-20T14:38:13Z</time>
      </trkpt>
      <trkpt lat="42.67304" lon="1.93936">
        <ele>1549.7827148438</ele>
        <time>2013-08-20T14:38:17Z</time>
      </trkpt>
      <trkpt lat="42.67308" lon="1.93938">
        <ele>1547.8598632812</ele>
        <time>2013-08-20T14:38:24Z</time>
      </trkpt>
      <trkpt lat="42.67312" lon="1.9394">
        <ele>1547.3791503906</ele>
        <time>2013-08-20T14:38:29Z</time>
      </trkpt>
      <trkpt lat="42.67316" lon="1.9394">
        <ele>1547.3791503906</ele>
        <time>2013-08-20T14:38:35Z</time>
      </trkpt>
      <trkpt lat="42.67317" lon="1.93942">
        <ele>1544.9758300781</ele>
        <time>2013-08-20T14:38:56Z</time>
      </trkpt>
      <trkpt lat="42.67319" lon="1.93943">
        <ele>1545.9372558594</ele>
        <time>2013-08-20T14:38:58Z</time>
      </trkpt>
      <trkpt lat="42.67321" lon="1.93945">
        <ele>1546.8984375</ele>
        <time>2013-08-20T14:39:05Z</time>
      </trkpt>
      <trkpt lat="42.67324" lon="1.93948">
        <ele>1544.0146484375</ele>
        <time>2013-08-20T14:39:12Z</time>
      </trkpt>
      <trkpt lat="42.67324" lon="1.9395">
        <ele>1543.0532226562</ele>
        <time>2013-08-20T14:39:16Z</time>
      </trkpt>
      <trkpt lat="42.67319" lon="1.93954">
        <ele>1551.7053222656</ele>
        <time>2013-08-20T14:39:46Z</time>
      </trkpt>
      <trkpt lat="42.6732" lon="1.93955">
        <ele>1555.5505371094</ele>
        <time>2013-08-20T14:39:52Z</time>
      </trkpt>
      <trkpt lat="42.67327" lon="1.93954">
        <ele>1544.9758300781</ele>
        <time>2013-08-20T14:40:05Z</time>
      </trkpt>
      <trkpt lat="42.67328" lon="1.93953">
        <ele>1544.0146484375</ele>
        <time>2013-08-20T14:40:06Z</time>
      </trkpt>
      <trkpt lat="42.67332" lon="1.9395">
        <ele>1536.8046875</ele>
        <time>2013-08-20T14:40:13Z</time>
      </trkpt>
      <trkpt lat="42.67331" lon="1.93945">
        <ele>1533.9208984375</ele>
        <time>2013-08-20T14:40:21Z</time>
      </trkpt>
      <trkpt lat="42.67335" lon="1.93943">
        <ele>1532.9594726562</ele>
        <time>2013-08-20T14:40:39Z</time>
      </trkpt>
      <trkpt lat="42.67344" lon="1.93948">
        <ele>1519.0205078125</ele>
        <time>2013-08-20T14:40:56Z</time>
      </trkpt>
      <trkpt lat="42.67347" lon="1.9395">
        <ele>1503.6394042969</ele>
        <time>2013-08-20T14:41:18Z</time>
      </trkpt>
      <trkpt lat="42.67349" lon="1.9395">
        <ele>1508.9265136719</ele>
        <time>2013-08-20T14:41:25Z</time>
      </trkpt>
      <trkpt lat="42.67348" lon="1.9395">
        <ele>1510.8491210938</ele>
        <time>2013-08-20T14:41:41Z</time>
      </trkpt>
      <trkpt lat="42.67348" lon="1.93952">
        <ele>1504.6005859375</ele>
        <time>2013-08-20T14:41:46Z</time>
      </trkpt>
      <trkpt lat="42.6735" lon="1.93955">
        <ele>1494.5065917969</ele>
        <time>2013-08-20T14:41:54Z</time>
      </trkpt>
      <trkpt lat="42.6735" lon="1.93957">
        <ele>1497.390625</ele>
        <time>2013-08-20T14:42:01Z</time>
      </trkpt>
      <trkpt lat="42.67363" lon="1.93969">
        <ele>1457.9768066406</ele>
        <time>2013-08-20T14:43:06Z</time>
      </trkpt>
      <trkpt lat="42.67368" lon="1.93971">
        <ele>1447.4020996094</ele>
        <time>2013-08-20T14:43:12Z</time>
      </trkpt>
      <trkpt lat="42.67358" lon="1.93969">
        <ele>1490.6613769531</ele>
        <time>2013-08-20T14:43:23Z</time>
      </trkpt>
      <trkpt lat="42.67358" lon="1.9396">
        <ele>1507.4846191406</ele>
        <time>2013-08-20T14:43:52Z</time>
      </trkpt>
      <trkpt lat="42.67358" lon="1.93956">
        <ele>1504.6005859375</ele>
        <time>2013-08-20T14:44:07Z</time>
      </trkpt>
      <trkpt lat="42.67355" lon="1.93952">
        <ele>1504.6005859375</ele>
        <time>2013-08-20T14:44:13Z</time>
      </trkpt>
      <trkpt lat="42.67352" lon="1.93949">
        <ele>1505.0812988281</ele>
        <time>2013-08-20T14:44:18Z</time>
      </trkpt>
      <trkpt lat="42.67352" lon="1.93948">
        <ele>1506.0424804688</ele>
        <time>2013-08-20T14:44:23Z</time>
      </trkpt>
      <trkpt lat="42.67354" lon="1.93946">
        <ele>1508.4458007812</ele>
        <time>2013-08-20T14:44:32Z</time>
      </trkpt>
      <trkpt lat="42.67357" lon="1.93946">
        <ele>1508.9265136719</ele>
        <time>2013-08-20T14:44:38Z</time>
      </trkpt>
      <trkpt lat="42.67358" lon="1.93944">
        <ele>1507.00390625</ele>
        <time>2013-08-20T14:44:44Z</time>
      </trkpt>
      <trkpt lat="42.67356" lon="1.93942">
        <ele>1508.9265136719</ele>
        <time>2013-08-20T14:44:48Z</time>
      </trkpt>
      <trkpt lat="42.67358" lon="1.93935">
        <ele>1509.4072265625</ele>
        <time>2013-08-20T14:45:00Z</time>
      </trkpt>
      <trkpt lat="42.6736" lon="1.93937">
        <ele>1507.4846191406</ele>
        <time>2013-08-20T14:45:07Z</time>
      </trkpt>
      <trkpt lat="42.67365" lon="1.93939">
        <ele>1511.3298339844</ele>
        <time>2013-08-20T14:45:14Z</time>
      </trkpt>
      <trkpt lat="42.67362" lon="1.93942">
        <ele>1512.291015625</ele>
        <time>2013-08-20T14:45:22Z</time>
      </trkpt>
      <trkpt lat="42.67361" lon="1.93946">
        <ele>1512.291015625</ele>
        <time>2013-08-20T14:45:29Z</time>
      </trkpt>
      <trkpt lat="42.67355" lon="1.93947">
        <ele>1510.8491210938</ele>
        <time>2013-08-20T14:45:38Z</time>
      </trkpt>
      <trkpt lat="42.67353" lon="1.93948">
        <ele>1511.810546875</ele>
        <time>2013-08-20T14:45:45Z</time>
      </trkpt>
      <trkpt lat="42.67352" lon="1.93946">
        <ele>1510.8491210938</ele>
        <time>2013-08-20T14:45:59Z</time>
      </trkpt>
      <trkpt lat="42.6735" lon="1.93946">
        <ele>1514.6943359375</ele>
        <time>2013-08-20T14:46:07Z</time>
      </trkpt>
      <trkpt lat="42.67347" lon="1.93948">
        <ele>1519.5012207031</ele>
        <time>2013-08-20T14:46:19Z</time>
      </trkpt>
      <trkpt lat="42.67344" lon="1.93951">
        <ele>1525.2687988281</ele>
        <time>2013-08-20T14:46:28Z</time>
      </trkpt>
      <trkpt lat="42.67346" lon="1.93954">
        <ele>1514.6943359375</ele>
        <time>2013-08-20T14:46:43Z</time>
      </trkpt>
      <trkpt lat="42.67345" lon="1.93954">
        <ele>1512.291015625</ele>
        <time>2013-08-20T14:46:48Z</time>
      </trkpt>
      <trkpt lat="42.67341" lon="1.93954">
        <ele>1517.5783691406</ele>
        <time>2013-08-20T14:46:54Z</time>
      </trkpt>
      <trkpt lat="42.67339" lon="1.93952">
        <ele>1515.6557617188</ele>
        <time>2013-08-20T14:47:05Z</time>
      </trkpt>
      <trkpt lat="42.67337" lon="1.93949">
        <ele>1521.904296875</ele>
        <time>2013-08-20T14:47:11Z</time>
      </trkpt>
      <trkpt lat="42.67339" lon="1.93949">
        <ele>1532.4790039062</ele>
        <time>2013-08-20T14:47:24Z</time>
      </trkpt>
      <trkpt lat="42.67337" lon="1.93949">
        <ele>1532.9594726562</ele>
        <time>2013-08-20T14:47:31Z</time>
      </trkpt>
      <trkpt lat="42.67336" lon="1.93949">
        <ele>1530.5561523438</ele>
        <time>2013-08-20T14:47:42Z</time>
      </trkpt>
      <trkpt lat="42.67332" lon="1.93949">
        <ele>1531.0368652344</ele>
        <time>2013-08-20T14:47:55Z</time>
      </trkpt>
      <trkpt lat="42.67329" lon="1.9395">
        <ele>1531.0368652344</ele>
        <time>2013-08-20T14:47:58Z</time>
      </trkpt>
      <trkpt lat="42.67322" lon="1.93947">
        <ele>1527.6721191406</ele>
        <time>2013-08-20T14:48:04Z</time>
      </trkpt>
      <trkpt lat="42.67323" lon="1.93948">
        <ele>1527.6721191406</ele>
        <time>2013-08-20T14:48:05Z</time>
      </trkpt>
      <trkpt lat="42.67326" lon="1.9395">
        <ele>1534.8823242188</ele>
        <time>2013-08-20T14:48:18Z</time>
      </trkpt>
      <trkpt lat="42.67323" lon="1.93948">
        <ele>1550.7438964844</ele>
        <time>2013-08-20T14:48:54Z</time>
      </trkpt>
      <trkpt lat="42.67322" lon="1.93951">
        <ele>1552.6665039062</ele>
        <time>2013-08-20T14:49:10Z</time>
      </trkpt>
      <trkpt lat="42.67318" lon="1.93951">
        <ele>1546.41796875</ele>
        <time>2013-08-20T14:49:36Z</time>
      </trkpt>
      <trkpt lat="42.67318" lon="1.9395">
        <ele>1554.1086425781</ele>
        <time>2013-08-20T14:49:49Z</time>
      </trkpt>
      <trkpt lat="42.67317" lon="1.93948">
        <ele>1553.6279296875</ele>
        <time>2013-08-20T14:49:54Z</time>
      </trkpt>
      <trkpt lat="42.67311" lon="1.93947">
        <ele>1559.3957519531</ele>
        <time>2013-08-20T14:50:10Z</time>
      </trkpt>
      <trkpt lat="42.67309" lon="1.93947">
        <ele>1559.3957519531</ele>
        <time>2013-08-20T14:50:18Z</time>
      </trkpt>
      <trkpt lat="42.67307" lon="1.93946">
        <ele>1556.51171875</ele>
        <time>2013-08-20T14:50:25Z</time>
      </trkpt>
      <trkpt lat="42.67302" lon="1.93948">
        <ele>1553.6279296875</ele>
        <time>2013-08-20T14:50:33Z</time>
      </trkpt>
      <trkpt lat="42.67301" lon="1.93945">
        <ele>1553.1472167969</ele>
        <time>2013-08-20T14:50:37Z</time>
      </trkpt>
      <trkpt lat="42.67302" lon="1.93943">
        <ele>1554.5891113281</ele>
        <time>2013-08-20T14:50:43Z</time>
      </trkpt>
      <trkpt lat="42.67295" lon="1.93942">
        <ele>1554.1086425781</ele>
        <time>2013-08-20T14:50:53Z</time>
      </trkpt>
      <trkpt lat="42.67293" lon="1.93942">
        <ele>1560.8376464844</ele>
        <time>2013-08-20T14:51:00Z</time>
      </trkpt>
      <trkpt lat="42.67292" lon="1.93938">
        <ele>1564.2023925781</ele>
        <time>2013-08-20T14:51:07Z</time>
      </trkpt>
      <trkpt lat="42.67292" lon="1.93933">
        <ele>1562.7602539062</ele>
        <time>2013-08-20T14:51:13Z</time>
      </trkpt>
      <trkpt lat="42.67289" lon="1.93931">
        <ele>1561.318359375</ele>
        <time>2013-08-20T14:51:18Z</time>
      </trkpt>
      <trkpt lat="42.67286" lon="1.93926">
        <ele>1561.318359375</ele>
        <time>2013-08-20T14:51:23Z</time>
      </trkpt>
      <trkpt lat="42.67283" lon="1.93923">
        <ele>1560.8376464844</ele>
        <time>2013-08-20T14:51:29Z</time>
      </trkpt>
      <trkpt lat="42.67282" lon="1.93919">
        <ele>1559.8762207031</ele>
        <time>2013-08-20T14:51:36Z</time>
      </trkpt>
      <trkpt lat="42.67281" lon="1.93915">
        <ele>1559.8762207031</ele>
        <time>2013-08-20T14:51:43Z</time>
      </trkpt>
      <trkpt lat="42.67284" lon="1.93909">
        <ele>1561.318359375</ele>
        <time>2013-08-20T14:51:50Z</time>
      </trkpt>
      <trkpt lat="42.67286" lon="1.93907">
        <ele>1560.8376464844</ele>
        <time>2013-08-20T14:51:55Z</time>
      </trkpt>
      <trkpt lat="42.67287" lon="1.93905">
        <ele>1558.9150390625</ele>
        <time>2013-08-20T14:52:01Z</time>
      </trkpt>
      <trkpt lat="42.67288" lon="1.93903">
        <ele>1556.9924316406</ele>
        <time>2013-08-20T14:52:06Z</time>
      </trkpt>
      <trkpt lat="42.67289" lon="1.93902">
        <ele>1555.5505371094</ele>
        <time>2013-08-20T14:52:11Z</time>
      </trkpt>
      <trkpt lat="42.6729" lon="1.93897">
        <ele>1554.1086425781</ele>
        <time>2013-08-20T14:52:17Z</time>
      </trkpt>
      <trkpt lat="42.67292" lon="1.93894">
        <ele>1555.0698242188</ele>
        <time>2013-08-20T14:52:22Z</time>
      </trkpt>
      <trkpt lat="42.6729" lon="1.93889">
        <ele>1554.5891113281</ele>
        <time>2013-08-20T14:52:29Z</time>
      </trkpt>
      <trkpt lat="42.6729" lon="1.93887">
        <ele>1554.5891113281</ele>
        <time>2013-08-20T14:52:35Z</time>
      </trkpt>
      <trkpt lat="42.67292" lon="1.93885">
        <ele>1556.0310058594</ele>
        <time>2013-08-20T14:52:40Z</time>
      </trkpt>
      <trkpt lat="42.67295" lon="1.93884">
        <ele>1557.4731445312</ele>
        <time>2013-08-20T14:52:45Z</time>
      </trkpt>
      <trkpt lat="42.673" lon="1.93881">
        <ele>1558.4343261719</ele>
        <time>2013-08-20T14:52:52Z</time>
      </trkpt>
      <trkpt lat="42.67304" lon="1.93881">
        <ele>1559.8762207031</ele>
        <time>2013-08-20T14:52:56Z</time>
      </trkpt>
      <trkpt lat="42.67309" lon="1.9388">
        <ele>1559.8762207031</ele>
        <time>2013-08-20T14:53:04Z</time>
      </trkpt>
      <trkpt lat="42.67313" lon="1.93881">
        <ele>1558.9150390625</ele>
        <time>2013-08-20T14:53:10Z</time>
      </trkpt>
      <trkpt lat="42.67313" lon="1.93878">
        <ele>1556.0310058594</ele>
        <time>2013-08-20T14:53:14Z</time>
      </trkpt>
      <trkpt lat="42.67317" lon="1.93877">
        <ele>1554.5891113281</ele>
        <time>2013-08-20T14:53:19Z</time>
      </trkpt>
      <trkpt lat="42.67321" lon="1.93875">
        <ele>1554.1086425781</ele>
        <time>2013-08-20T14:53:24Z</time>
      </trkpt>
      <trkpt lat="42.67323" lon="1.93874">
        <ele>1551.7053222656</ele>
        <time>2013-08-20T14:53:28Z</time>
      </trkpt>
      <trkpt lat="42.67329" lon="1.93874">
        <ele>1557.4731445312</ele>
        <time>2013-08-20T14:53:34Z</time>
      </trkpt>
      <trkpt lat="42.67333" lon="1.93872">
        <ele>1557.9538574219</ele>
        <time>2013-08-20T14:53:40Z</time>
      </trkpt>
      <trkpt lat="42.67337" lon="1.93871">
        <ele>1556.0310058594</ele>
        <time>2013-08-20T14:53:46Z</time>
      </trkpt>
      <trkpt lat="42.67341" lon="1.93868">
        <ele>1552.1857910156</ele>
        <time>2013-08-20T14:53:52Z</time>
      </trkpt>
      <trkpt lat="42.67343" lon="1.93872">
        <ele>1548.3405761719</ele>
        <time>2013-08-20T14:53:57Z</time>
      </trkpt>
      <trkpt lat="42.67345" lon="1.93877">
        <ele>1544.4951171875</ele>
        <time>2013-08-20T14:54:02Z</time>
      </trkpt>
      <trkpt lat="42.67346" lon="1.93876">
        <ele>1542.5727539062</ele>
        <time>2013-08-20T14:54:06Z</time>
      </trkpt>
      <trkpt lat="42.67349" lon="1.93873">
        <ele>1540.1694335938</ele>
        <time>2013-08-20T14:54:12Z</time>
      </trkpt>
      <trkpt lat="42.6735" lon="1.93868">
        <ele>1537.7661132812</ele>
        <time>2013-08-20T14:54:17Z</time>
      </trkpt>
      <trkpt lat="42.67353" lon="1.93863">
        <ele>1537.7661132812</ele>
        <time>2013-08-20T14:54:23Z</time>
      </trkpt>
      <trkpt lat="42.67356" lon="1.93866">
        <ele>1537.7661132812</ele>
        <time>2013-08-20T14:54:28Z</time>
      </trkpt>
      <trkpt lat="42.67361" lon="1.93865">
        <ele>1540.1694335938</ele>
        <time>2013-08-20T14:54:32Z</time>
      </trkpt>
      <trkpt lat="42.67366" lon="1.93865">
        <ele>1542.5727539062</ele>
        <time>2013-08-20T14:54:36Z</time>
      </trkpt>
      <trkpt lat="42.67371" lon="1.93869">
        <ele>1544.0146484375</ele>
        <time>2013-08-20T14:54:42Z</time>
      </trkpt>
      <trkpt lat="42.67371" lon="1.93868">
        <ele>1542.5727539062</ele>
        <time>2013-08-20T14:54:50Z</time>
      </trkpt>
      <trkpt lat="42.67376" lon="1.93871">
        <ele>1543.0532226562</ele>
        <time>2013-08-20T14:54:54Z</time>
      </trkpt>
      <trkpt lat="42.67381" lon="1.9387">
        <ele>1542.5727539062</ele>
        <time>2013-08-20T14:55:03Z</time>
      </trkpt>
      <trkpt lat="42.67385" lon="1.93871">
        <ele>1543.0532226562</ele>
        <time>2013-08-20T14:55:08Z</time>
      </trkpt>
      <trkpt lat="42.67389" lon="1.93871">
        <ele>1543.0532226562</ele>
        <time>2013-08-20T14:55:14Z</time>
      </trkpt>
      <trkpt lat="42.67394" lon="1.93869">
        <ele>1543.0532226562</ele>
        <time>2013-08-20T14:55:20Z</time>
      </trkpt>
      <trkpt lat="42.67397" lon="1.93869">
        <ele>1544.4951171875</ele>
        <time>2013-08-20T14:55:28Z</time>
      </trkpt>
      <trkpt lat="42.67397" lon="1.9387">
        <ele>1540.6499023438</ele>
        <time>2013-08-20T14:55:33Z</time>
      </trkpt>
      <trkpt lat="42.67399" lon="1.93866">
        <ele>1533.9208984375</ele>
        <time>2013-08-20T14:55:42Z</time>
      </trkpt>
      <trkpt lat="42.67399" lon="1.93857">
        <ele>1524.3076171875</ele>
        <time>2013-08-20T14:55:50Z</time>
      </trkpt>
      <trkpt lat="42.67404" lon="1.93854">
        <ele>1517.0979003906</ele>
        <time>2013-08-20T14:55:57Z</time>
      </trkpt>
      <trkpt lat="42.67406" lon="1.93851">
        <ele>1514.2136230469</ele>
        <time>2013-08-20T14:56:02Z</time>
      </trkpt>
      <trkpt lat="42.67413" lon="1.93852">
        <ele>1514.6943359375</ele>
        <time>2013-08-20T14:56:07Z</time>
      </trkpt>
      <trkpt lat="42.67414" lon="1.93852">
        <ele>1514.6943359375</ele>
        <time>2013-08-20T14:56:08Z</time>
      </trkpt>
      <trkpt lat="42.67416" lon="1.93853">
        <ele>1513.7329101562</ele>
        <time>2013-08-20T14:56:10Z</time>
      </trkpt>
      <trkpt lat="42.67419" lon="1.93857">
        <ele>1513.2524414062</ele>
        <time>2013-08-20T14:56:17Z</time>
      </trkpt>
      <trkpt lat="42.67424" lon="1.93851">
        <ele>1511.810546875</ele>
        <time>2013-08-20T14:56:25Z</time>
      </trkpt>
      <trkpt lat="42.67429" lon="1.93855">
        <ele>1508.4458007812</ele>
        <time>2013-08-20T14:56:31Z</time>
      </trkpt>
      <trkpt lat="42.67431" lon="1.93857">
        <ele>1507.00390625</ele>
        <time>2013-08-20T14:56:33Z</time>
      </trkpt>
      <trkpt lat="42.67434" lon="1.93856">
        <ele>1506.0424804688</ele>
        <time>2013-08-20T14:56:35Z</time>
      </trkpt>
      <trkpt lat="42.67438" lon="1.93856">
        <ele>1506.5231933594</ele>
        <time>2013-08-20T14:56:39Z</time>
      </trkpt>
      <trkpt lat="42.67436" lon="1.93866">
        <ele>1500.7553710938</ele>
        <time>2013-08-20T14:56:46Z</time>
      </trkpt>
      <trkpt lat="42.67434" lon="1.93868">
        <ele>1500.7553710938</ele>
        <time>2013-08-20T14:56:52Z</time>
      </trkpt>
      <trkpt lat="42.67441" lon="1.93861">
        <ele>1502.197265625</ele>
        <time>2013-08-20T14:57:00Z</time>
      </trkpt>
      <trkpt lat="42.67446" lon="1.9386">
        <ele>1499.3132324219</ele>
        <time>2013-08-20T14:57:06Z</time>
      </trkpt>
      <trkpt lat="42.67451" lon="1.93861">
        <ele>1505.0812988281</ele>
        <time>2013-08-20T14:57:12Z</time>
      </trkpt>
      <trkpt lat="42.67451" lon="1.93855">
        <ele>1504.1201171875</ele>
        <time>2013-08-20T14:57:17Z</time>
      </trkpt>
      <trkpt lat="42.67456" lon="1.93853">
        <ele>1505.0812988281</ele>
        <time>2013-08-20T14:57:22Z</time>
      </trkpt>
      <trkpt lat="42.67459" lon="1.9385">
        <ele>1505.0812988281</ele>
        <time>2013-08-20T14:57:30Z</time>
      </trkpt>
      <trkpt lat="42.67464" lon="1.93847">
        <ele>1506.0424804688</ele>
        <time>2013-08-20T14:57:36Z</time>
      </trkpt>
      <trkpt lat="42.67473" lon="1.93845">
        <ele>1509.4072265625</ele>
        <time>2013-08-20T14:57:42Z</time>
      </trkpt>
      <trkpt lat="42.67474" lon="1.93845">
        <ele>1508.9265136719</ele>
        <time>2013-08-20T14:57:43Z</time>
      </trkpt>
      <trkpt lat="42.67477" lon="1.93849">
        <ele>1502.197265625</ele>
        <time>2013-08-20T14:57:49Z</time>
      </trkpt>
      <trkpt lat="42.67474" lon="1.93853">
        <ele>1488.2583007812</ele>
        <time>2013-08-20T14:57:58Z</time>
      </trkpt>
      <trkpt lat="42.67483" lon="1.93852">
        <ele>1486.8161621094</ele>
        <time>2013-08-20T14:58:05Z</time>
      </trkpt>
      <trkpt lat="42.67484" lon="1.93853">
        <ele>1486.3356933594</ele>
        <time>2013-08-20T14:58:06Z</time>
      </trkpt>
      <trkpt lat="42.67494" lon="1.93854">
        <ele>1484.4130859375</ele>
        <time>2013-08-20T14:58:13Z</time>
      </trkpt>
      <trkpt lat="42.67505" lon="1.93854">
        <ele>1487.296875</ele>
        <time>2013-08-20T14:58:20Z</time>
      </trkpt>
      <trkpt lat="42.67503" lon="1.93853">
        <ele>1484.8937988281</ele>
        <time>2013-08-20T14:58:22Z</time>
      </trkpt>
      <trkpt lat="42.67509" lon="1.93854">
        <ele>1484.4130859375</ele>
        <time>2013-08-20T14:58:28Z</time>
      </trkpt>
      <trkpt lat="42.67511" lon="1.93854">
        <ele>1482.490234375</ele>
        <time>2013-08-20T14:58:32Z</time>
      </trkpt>
      <trkpt lat="42.67516" lon="1.93851">
        <ele>1485.8549804688</ele>
        <time>2013-08-20T14:58:37Z</time>
      </trkpt>
      <trkpt lat="42.67522" lon="1.93848">
        <ele>1487.296875</ele>
        <time>2013-08-20T14:58:42Z</time>
      </trkpt>
      <trkpt lat="42.6753" lon="1.93845">
        <ele>1484.8937988281</ele>
        <time>2013-08-20T14:58:47Z</time>
      </trkpt>
      <trkpt lat="42.67533" lon="1.93841">
        <ele>1486.8161621094</ele>
        <time>2013-08-20T14:58:51Z</time>
      </trkpt>
      <trkpt lat="42.67535" lon="1.93837">
        <ele>1483.9321289062</ele>
        <time>2013-08-20T14:58:57Z</time>
      </trkpt>
      <trkpt lat="42.67542" lon="1.93834">
        <ele>1476.2416992188</ele>
        <time>2013-08-20T14:59:08Z</time>
      </trkpt>
      <trkpt lat="42.67546" lon="1.93832">
        <ele>1474.3190917969</ele>
        <time>2013-08-20T14:59:12Z</time>
      </trkpt>
      <trkpt lat="42.67549" lon="1.9383">
        <ele>1473.8383789062</ele>
        <time>2013-08-20T14:59:15Z</time>
      </trkpt>
      <trkpt lat="42.6755" lon="1.9383">
        <ele>1473.8383789062</ele>
        <time>2013-08-20T14:59:16Z</time>
      </trkpt>
      <trkpt lat="42.67553" lon="1.93828">
        <ele>1471.4350585938</ele>
        <time>2013-08-20T14:59:21Z</time>
      </trkpt>
      <trkpt lat="42.67554" lon="1.93824">
        <ele>1464.7058105469</ele>
        <time>2013-08-20T14:59:26Z</time>
      </trkpt>
      <trkpt lat="42.67559" lon="1.93828">
        <ele>1460.8605957031</ele>
        <time>2013-08-20T14:59:32Z</time>
      </trkpt>
      <trkpt lat="42.67558" lon="1.93836">
        <ele>1455.5734863281</ele>
        <time>2013-08-20T14:59:39Z</time>
      </trkpt>
      <trkpt lat="42.67558" lon="1.9384">
        <ele>1452.689453125</ele>
        <time>2013-08-20T14:59:45Z</time>
      </trkpt>
      <trkpt lat="42.67563" lon="1.93841">
        <ele>1450.7666015625</ele>
        <time>2013-08-20T14:59:51Z</time>
      </trkpt>
      <trkpt lat="42.67562" lon="1.93844">
        <ele>1447.8828125</ele>
        <time>2013-08-20T14:59:55Z</time>
      </trkpt>
      <trkpt lat="42.67559" lon="1.93849">
        <ele>1446.4409179688</ele>
        <time>2013-08-20T15:00:01Z</time>
      </trkpt>
      <trkpt lat="42.67562" lon="1.9385">
        <ele>1445.4794921875</ele>
        <time>2013-08-20T15:00:07Z</time>
      </trkpt>
      <trkpt lat="42.67565" lon="1.93848">
        <ele>1443.5568847656</ele>
        <time>2013-08-20T15:00:13Z</time>
      </trkpt>
      <trkpt lat="42.67568" lon="1.93845">
        <ele>1439.2309570312</ele>
        <time>2013-08-20T15:00:19Z</time>
      </trkpt>
      <trkpt lat="42.67571" lon="1.93844">
        <ele>1436.3471679688</ele>
        <time>2013-08-20T15:00:23Z</time>
      </trkpt>
      <trkpt lat="42.67575" lon="1.93849">
        <ele>1437.3083496094</ele>
        <time>2013-08-20T15:00:28Z</time>
      </trkpt>
      <trkpt lat="42.67575" lon="1.93854">
        <ele>1437.3083496094</ele>
        <time>2013-08-20T15:00:33Z</time>
      </trkpt>
      <trkpt lat="42.67576" lon="1.93857">
        <ele>1437.3083496094</ele>
        <time>2013-08-20T15:00:37Z</time>
      </trkpt>
      <trkpt lat="42.6758" lon="1.93855">
        <ele>1436.3471679688</ele>
        <time>2013-08-20T15:00:43Z</time>
      </trkpt>
      <trkpt lat="42.67583" lon="1.93854">
        <ele>1435.8662109375</ele>
        <time>2013-08-20T15:00:47Z</time>
      </trkpt>
      <trkpt lat="42.67587" lon="1.93851">
        <ele>1433.9436035156</ele>
        <time>2013-08-20T15:00:52Z</time>
      </trkpt>
      <trkpt lat="42.67591" lon="1.93849">
        <ele>1432.9821777344</ele>
        <time>2013-08-20T15:00:57Z</time>
      </trkpt>
      <trkpt lat="42.67594" lon="1.9385">
        <ele>1433.462890625</ele>
        <time>2013-08-20T15:01:00Z</time>
      </trkpt>
      <trkpt lat="42.67592" lon="1.93856">
        <ele>1430.0983886719</ele>
        <time>2013-08-20T15:01:06Z</time>
      </trkpt>
      <trkpt lat="42.67594" lon="1.93859">
        <ele>1428.6564941406</ele>
        <time>2013-08-20T15:01:11Z</time>
      </trkpt>
      <trkpt lat="42.67597" lon="1.93855">
        <ele>1427.2145996094</ele>
        <time>2013-08-20T15:01:16Z</time>
      </trkpt>
      <trkpt lat="42.67598" lon="1.93858">
        <ele>1426.7338867188</ele>
        <time>2013-08-20T15:01:18Z</time>
      </trkpt>
      <trkpt lat="42.67601" lon="1.93865">
        <ele>1424.8112792969</ele>
        <time>2013-08-20T15:01:23Z</time>
      </trkpt>
      <trkpt lat="42.67601" lon="1.93865">
        <ele>1424.8112792969</ele>
        <time>2013-08-20T15:01:24Z</time>
      </trkpt>
      <trkpt lat="42.67604" lon="1.93865">
        <ele>1425.2917480469</ele>
        <time>2013-08-20T15:01:27Z</time>
      </trkpt>
      <trkpt lat="42.67605" lon="1.9386">
        <ele>1423.8498535156</ele>
        <time>2013-08-20T15:01:33Z</time>
      </trkpt>
      <trkpt lat="42.67605" lon="1.93855">
        <ele>1420.4853515625</ele>
        <time>2013-08-20T15:01:38Z</time>
      </trkpt>
      <trkpt lat="42.67609" lon="1.93855">
        <ele>1419.5239257812</ele>
        <time>2013-08-20T15:01:43Z</time>
      </trkpt>
      <trkpt lat="42.6761" lon="1.93861">
        <ele>1417.1206054688</ele>
        <time>2013-08-20T15:01:48Z</time>
      </trkpt>
      <trkpt lat="42.6761" lon="1.93863">
        <ele>1416.1591796875</ele>
        <time>2013-08-20T15:01:50Z</time>
      </trkpt>
      <trkpt lat="42.67613" lon="1.93862">
        <ele>1415.1979980469</ele>
        <time>2013-08-20T15:01:55Z</time>
      </trkpt>
      <trkpt lat="42.67616" lon="1.9386">
        <ele>1413.755859375</ele>
        <time>2013-08-20T15:02:00Z</time>
      </trkpt>
      <trkpt lat="42.67616" lon="1.93863">
        <ele>1411.3527832031</ele>
        <time>2013-08-20T15:02:05Z</time>
      </trkpt>
      <trkpt lat="42.67618" lon="1.93866">
        <ele>1407.5075683594</ele>
        <time>2013-08-20T15:02:10Z</time>
      </trkpt>
      <trkpt lat="42.67619" lon="1.93863">
        <ele>1405.5849609375</ele>
        <time>2013-08-20T15:02:14Z</time>
      </trkpt>
      <trkpt lat="42.67622" lon="1.93862">
        <ele>1404.6235351562</ele>
        <time>2013-08-20T15:02:20Z</time>
      </trkpt>
      <trkpt lat="42.67624" lon="1.93862">
        <ele>1400.7780761719</ele>
        <time>2013-08-20T15:02:27Z</time>
      </trkpt>
      <trkpt lat="42.67623" lon="1.93858">
        <ele>1400.2976074219</ele>
        <time>2013-08-20T15:02:30Z</time>
      </trkpt>
      <trkpt lat="42.67625" lon="1.93853">
        <ele>1397.8942871094</ele>
        <time>2013-08-20T15:02:36Z</time>
      </trkpt>
      <trkpt lat="42.67628" lon="1.93858">
        <ele>1396.4523925781</ele>
        <time>2013-08-20T15:02:41Z</time>
      </trkpt>
      <trkpt lat="42.6763" lon="1.93863">
        <ele>1395.4909667969</ele>
        <time>2013-08-20T15:02:44Z</time>
      </trkpt>
      <trkpt lat="42.67636" lon="1.93871">
        <ele>1394.5295410156</ele>
        <time>2013-08-20T15:02:51Z</time>
      </trkpt>
      <trkpt lat="42.67638" lon="1.93868">
        <ele>1393.568359375</ele>
        <time>2013-08-20T15:02:57Z</time>
      </trkpt>
      <trkpt lat="42.67637" lon="1.93864">
        <ele>1392.1264648438</ele>
        <time>2013-08-20T15:03:01Z</time>
      </trkpt>
      <trkpt lat="42.67638" lon="1.9386">
        <ele>1385.3969726562</ele>
        <time>2013-08-20T15:03:07Z</time>
      </trkpt>
      <trkpt lat="42.67638" lon="1.9386">
        <ele>1384.4357910156</ele>
        <time>2013-08-20T15:03:08Z</time>
      </trkpt>
      <trkpt lat="42.67644" lon="1.93866">
        <ele>1384.4357910156</ele>
        <time>2013-08-20T15:03:15Z</time>
      </trkpt>
      <trkpt lat="42.67646" lon="1.93867">
        <ele>1384.4357910156</ele>
        <time>2013-08-20T15:03:17Z</time>
      </trkpt>
      <trkpt lat="42.67647" lon="1.9387">
        <ele>1383.4743652344</ele>
        <time>2013-08-20T15:03:19Z</time>
      </trkpt>
      <trkpt lat="42.67648" lon="1.93876">
        <ele>1381.0712890625</ele>
        <time>2013-08-20T15:03:25Z</time>
      </trkpt>
      <trkpt lat="42.6765" lon="1.93873">
        <ele>1378.66796875</ele>
        <time>2013-08-20T15:03:30Z</time>
      </trkpt>
      <trkpt lat="42.67653" lon="1.93868">
        <ele>1375.7839355469</ele>
        <time>2013-08-20T15:03:36Z</time>
      </trkpt>
      <trkpt lat="42.67658" lon="1.93868">
        <ele>1374.3420410156</ele>
        <time>2013-08-20T15:03:41Z</time>
      </trkpt>
      <trkpt lat="42.67662" lon="1.93876">
        <ele>1372.4194335938</ele>
        <time>2013-08-20T15:03:48Z</time>
      </trkpt>
      <trkpt lat="42.67665" lon="1.93879">
        <ele>1370.9772949219</ele>
        <time>2013-08-20T15:03:51Z</time>
      </trkpt>
      <trkpt lat="42.67665" lon="1.93887">
        <ele>1368.0932617188</ele>
        <time>2013-08-20T15:03:57Z</time>
      </trkpt>
      <trkpt lat="42.67667" lon="1.93897">
        <ele>1366.6513671875</ele>
        <time>2013-08-20T15:04:03Z</time>
      </trkpt>
      <trkpt lat="42.6767" lon="1.939">
        <ele>1365.2094726562</ele>
        <time>2013-08-20T15:04:10Z</time>
      </trkpt>
      <trkpt lat="42.67672" lon="1.93904">
        <ele>1362.8061523438</ele>
        <time>2013-08-20T15:04:14Z</time>
      </trkpt>
      <trkpt lat="42.67674" lon="1.93907">
        <ele>1363.2868652344</ele>
        <time>2013-08-20T15:04:18Z</time>
      </trkpt>
      <trkpt lat="42.67678" lon="1.93911">
        <ele>1363.7673339844</ele>
        <time>2013-08-20T15:04:22Z</time>
      </trkpt>
      <trkpt lat="42.67678" lon="1.93912">
        <ele>1363.2868652344</ele>
        <time>2013-08-20T15:04:23Z</time>
      </trkpt>
      <trkpt lat="42.6768" lon="1.93913">
        <ele>1363.7673339844</ele>
        <time>2013-08-20T15:04:26Z</time>
      </trkpt>
      <trkpt lat="42.67684" lon="1.93912">
        <ele>1365.6901855469</ele>
        <time>2013-08-20T15:04:33Z</time>
      </trkpt>
      <trkpt lat="42.67685" lon="1.93909">
        <ele>1364.7287597656</ele>
        <time>2013-08-20T15:04:37Z</time>
      </trkpt>
      <trkpt lat="42.67686" lon="1.93904">
        <ele>1361.8449707031</ele>
        <time>2013-08-20T15:04:43Z</time>
      </trkpt>
      <trkpt lat="42.67688" lon="1.93901">
        <ele>1358.4802246094</ele>
        <time>2013-08-20T15:04:47Z</time>
      </trkpt>
      <trkpt lat="42.6769" lon="1.93898">
        <ele>1357.0383300781</ele>
        <time>2013-08-20T15:04:51Z</time>
      </trkpt>
      <trkpt lat="42.67694" lon="1.93902">
        <ele>1354.634765625</ele>
        <time>2013-08-20T15:04:56Z</time>
      </trkpt>
      <trkpt lat="42.67696" lon="1.93907">
        <ele>1352.2314453125</ele>
        <time>2013-08-20T15:05:01Z</time>
      </trkpt>
      <trkpt lat="42.67698" lon="1.93909">
        <ele>1351.7509765625</ele>
        <time>2013-08-20T15:05:03Z</time>
      </trkpt>
      <trkpt lat="42.67701" lon="1.93917">
        <ele>1347.9057617188</ele>
        <time>2013-08-20T15:05:10Z</time>
      </trkpt>
      <trkpt lat="42.67701" lon="1.93923">
        <ele>1345.9831542969</ele>
        <time>2013-08-20T15:05:16Z</time>
      </trkpt>
      <trkpt lat="42.67703" lon="1.93922">
        <ele>1343.0991210938</ele>
        <time>2013-08-20T15:05:22Z</time>
      </trkpt>
      <trkpt lat="42.67705" lon="1.93917">
        <ele>1340.6958007812</ele>
        <time>2013-08-20T15:05:29Z</time>
      </trkpt>
      <trkpt lat="42.67709" lon="1.93912">
        <ele>1337.8117675781</ele>
        <time>2013-08-20T15:05:35Z</time>
      </trkpt>
      <trkpt lat="42.67719" lon="1.93916">
        <ele>1344.060546875</ele>
        <time>2013-08-20T15:06:05Z</time>
      </trkpt>
      <trkpt lat="42.67717" lon="1.93922">
        <ele>1339.2536621094</ele>
        <time>2013-08-20T15:06:10Z</time>
      </trkpt>
      <trkpt lat="42.67716" lon="1.93925">
        <ele>1335.4084472656</ele>
        <time>2013-08-20T15:06:16Z</time>
      </trkpt>
      <trkpt lat="42.67719" lon="1.93927">
        <ele>1333.4858398438</ele>
        <time>2013-08-20T15:06:21Z</time>
      </trkpt>
      <trkpt lat="42.6772" lon="1.93931">
        <ele>1331.5632324219</ele>
        <time>2013-08-20T15:06:26Z</time>
      </trkpt>
      <trkpt lat="42.67723" lon="1.93933">
        <ele>1329.1599121094</ele>
        <time>2013-08-20T15:06:33Z</time>
      </trkpt>
      <trkpt lat="42.67727" lon="1.93929">
        <ele>1325.7954101562</ele>
        <time>2013-08-20T15:06:40Z</time>
      </trkpt>
      <trkpt lat="42.67728" lon="1.93931">
        <ele>1324.8342285156</ele>
        <time>2013-08-20T15:06:44Z</time>
      </trkpt>
      <trkpt lat="42.67729" lon="1.93937">
        <ele>1321.9499511719</ele>
        <time>2013-08-20T15:06:49Z</time>
      </trkpt>
      <trkpt lat="42.6773" lon="1.93939">
        <ele>1322.4306640625</ele>
        <time>2013-08-20T15:06:50Z</time>
      </trkpt>
      <trkpt lat="42.67729" lon="1.93943">
        <ele>1320.5080566406</ele>
        <time>2013-08-20T15:06:53Z</time>
      </trkpt>
      <trkpt lat="42.67731" lon="1.93955">
        <ele>1317.6240234375</ele>
        <time>2013-08-20T15:07:00Z</time>
      </trkpt>
      <trkpt lat="42.6773" lon="1.93961">
        <ele>1316.1821289062</ele>
        <time>2013-08-20T15:07:04Z</time>
      </trkpt>
      <trkpt lat="42.67727" lon="1.93968">
        <ele>1313.7788085938</ele>
        <time>2013-08-20T15:07:08Z</time>
      </trkpt>
      <trkpt lat="42.67726" lon="1.9397">
        <ele>1310.8950195312</ele>
        <time>2013-08-20T15:07:14Z</time>
      </trkpt>
      <trkpt lat="42.67728" lon="1.93965">
        <ele>1311.3757324219</ele>
        <time>2013-08-20T15:07:18Z</time>
      </trkpt>
      <trkpt lat="42.67729" lon="1.9396">
        <ele>1313.2983398438</ele>
        <time>2013-08-20T15:07:22Z</time>
      </trkpt>
      <trkpt lat="42.67731" lon="1.93958">
        <ele>1313.2983398438</ele>
        <time>2013-08-20T15:07:24Z</time>
      </trkpt>
      <trkpt lat="42.67738" lon="1.93952">
        <ele>1312.3369140625</ele>
        <time>2013-08-20T15:07:32Z</time>
      </trkpt>
      <trkpt lat="42.67743" lon="1.93944">
        <ele>1310.4143066406</ele>
        <time>2013-08-20T15:07:39Z</time>
      </trkpt>
      <trkpt lat="42.67747" lon="1.93947">
        <ele>1308.9724121094</ele>
        <time>2013-08-20T15:07:44Z</time>
      </trkpt>
      <trkpt lat="42.6775" lon="1.93957">
        <ele>1305.126953125</ele>
        <time>2013-08-20T15:07:50Z</time>
      </trkpt>
      <trkpt lat="42.67753" lon="1.93963">
        <ele>1303.6850585938</ele>
        <time>2013-08-20T15:07:54Z</time>
      </trkpt>
      <trkpt lat="42.67756" lon="1.93961">
        <ele>1301.7624511719</ele>
        <time>2013-08-20T15:07:59Z</time>
      </trkpt>
      <trkpt lat="42.67758" lon="1.93955">
        <ele>1299.3591308594</ele>
        <time>2013-08-20T15:08:04Z</time>
      </trkpt>
      <trkpt lat="42.67761" lon="1.9396">
        <ele>1296.9558105469</ele>
        <time>2013-08-20T15:08:08Z</time>
      </trkpt>
      <trkpt lat="42.67762" lon="1.93958">
        <ele>1295.5139160156</ele>
        <time>2013-08-20T15:08:10Z</time>
      </trkpt>
      <trkpt lat="42.67764" lon="1.93953">
        <ele>1295.033203125</ele>
        <time>2013-08-20T15:08:13Z</time>
      </trkpt>
      <trkpt lat="42.67769" lon="1.93946">
        <ele>1295.5139160156</ele>
        <time>2013-08-20T15:08:17Z</time>
      </trkpt>
      <trkpt lat="42.67771" lon="1.93948">
        <ele>1293.1105957031</ele>
        <time>2013-08-20T15:08:20Z</time>
      </trkpt>
      <trkpt lat="42.67771" lon="1.93952">
        <ele>1291.1877441406</ele>
        <time>2013-08-20T15:08:23Z</time>
      </trkpt>
      <trkpt lat="42.67773" lon="1.9396">
        <ele>1288.3039550781</ele>
        <time>2013-08-20T15:08:27Z</time>
      </trkpt>
      <trkpt lat="42.67774" lon="1.93964">
        <ele>1286.8618164062</ele>
        <time>2013-08-20T15:08:30Z</time>
      </trkpt>
      <trkpt lat="42.67775" lon="1.9397">
        <ele>1284.939453125</ele>
        <time>2013-08-20T15:08:33Z</time>
      </trkpt>
      <trkpt lat="42.67779" lon="1.93968">
        <ele>1283.0166015625</ele>
        <time>2013-08-20T15:08:39Z</time>
      </trkpt>
      <trkpt lat="42.67777" lon="1.93966">
        <ele>1282.5361328125</ele>
        <time>2013-08-20T15:08:50Z</time>
      </trkpt>
      <trkpt lat="42.67778" lon="1.93963">
        <ele>1280.6135253906</ele>
        <time>2013-08-20T15:08:55Z</time>
      </trkpt>
      <trkpt lat="42.67782" lon="1.93968">
        <ele>1278.6909179688</ele>
        <time>2013-08-20T15:09:01Z</time>
      </trkpt>
      <trkpt lat="42.67784" lon="1.93972">
        <ele>1278.2102050781</ele>
        <time>2013-08-20T15:09:04Z</time>
      </trkpt>
      <trkpt lat="42.67784" lon="1.9398">
        <ele>1273.8840332031</ele>
        <time>2013-08-20T15:09:11Z</time>
      </trkpt>
      <trkpt lat="42.67787" lon="1.93979">
        <ele>1274.3647460938</ele>
        <time>2013-08-20T15:09:14Z</time>
      </trkpt>
      <trkpt lat="42.67789" lon="1.93979">
        <ele>1274.3647460938</ele>
        <time>2013-08-20T15:09:16Z</time>
      </trkpt>
      <trkpt lat="42.67795" lon="1.93974">
        <ele>1271.4807128906</ele>
        <time>2013-08-20T15:09:22Z</time>
      </trkpt>
      <trkpt lat="42.67796" lon="1.93971">
        <ele>1271.4807128906</ele>
        <time>2013-08-20T15:09:24Z</time>
      </trkpt>
      <trkpt lat="42.67798" lon="1.93966">
        <ele>1268.5969238281</ele>
        <time>2013-08-20T15:09:29Z</time>
      </trkpt>
      <trkpt lat="42.67799" lon="1.93965">
        <ele>1268.1162109375</ele>
        <time>2013-08-20T15:09:30Z</time>
      </trkpt>
      <trkpt lat="42.67806" lon="1.93971">
        <ele>1264.7517089844</ele>
        <time>2013-08-20T15:09:37Z</time>
      </trkpt>
      <trkpt lat="42.67807" lon="1.93971">
        <ele>1264.7517089844</ele>
        <time>2013-08-20T15:09:38Z</time>
      </trkpt>
      <trkpt lat="42.6781" lon="1.93976">
        <ele>1263.3098144531</ele>
        <time>2013-08-20T15:09:43Z</time>
      </trkpt>
      <trkpt lat="42.67809" lon="1.93985">
        <ele>1257.5417480469</ele>
        <time>2013-08-20T15:09:49Z</time>
      </trkpt>
      <trkpt lat="42.67807" lon="1.93988">
        <ele>1255.1384277344</ele>
        <time>2013-08-20T15:09:52Z</time>
      </trkpt>
      <trkpt lat="42.67811" lon="1.93991">
        <ele>1254.1772460938</ele>
        <time>2013-08-20T15:09:57Z</time>
      </trkpt>
      <trkpt lat="42.67815" lon="1.93988">
        <ele>1253.6965332031</ele>
        <time>2013-08-20T15:10:03Z</time>
      </trkpt>
      <trkpt lat="42.67818" lon="1.93984">
        <ele>1255.1384277344</ele>
        <time>2013-08-20T15:10:08Z</time>
      </trkpt>
      <trkpt lat="42.6782" lon="1.9399">
        <ele>1253.6965332031</ele>
        <time>2013-08-20T15:10:13Z</time>
      </trkpt>
      <trkpt lat="42.67825" lon="1.93989">
        <ele>1254.1772460938</ele>
        <time>2013-08-20T15:10:19Z</time>
      </trkpt>
      <trkpt lat="42.67828" lon="1.93988">
        <ele>1258.5029296875</ele>
        <time>2013-08-20T15:10:24Z</time>
      </trkpt>
      <trkpt lat="42.67833" lon="1.93989">
        <ele>1258.5029296875</ele>
        <time>2013-08-20T15:10:28Z</time>
      </trkpt>
      <trkpt lat="42.67834" lon="1.93993">
        <ele>1256.5803222656</ele>
        <time>2013-08-20T15:10:33Z</time>
      </trkpt>
      <trkpt lat="42.67837" lon="1.93989">
        <ele>1255.1384277344</ele>
        <time>2013-08-20T15:10:39Z</time>
      </trkpt>
      <trkpt lat="42.67838" lon="1.93984">
        <ele>1253.6965332031</ele>
        <time>2013-08-20T15:10:43Z</time>
      </trkpt>
      <trkpt lat="42.67839" lon="1.93978">
        <ele>1257.0610351562</ele>
        <time>2013-08-20T15:10:48Z</time>
      </trkpt>
      <trkpt lat="42.6784" lon="1.93977">
        <ele>1257.5417480469</ele>
        <time>2013-08-20T15:10:49Z</time>
      </trkpt>
      <trkpt lat="42.67844" lon="1.93971">
        <ele>1254.6577148438</ele>
        <time>2013-08-20T15:10:55Z</time>
      </trkpt>
      <trkpt lat="42.67847" lon="1.9397">
        <ele>1254.1772460938</ele>
        <time>2013-08-20T15:10:57Z</time>
      </trkpt>
      <trkpt lat="42.67854" lon="1.93971">
        <ele>1251.7739257812</ele>
        <time>2013-08-20T15:11:03Z</time>
      </trkpt>
      <trkpt lat="42.67859" lon="1.93972">
        <ele>1249.3706054688</ele>
        <time>2013-08-20T15:11:09Z</time>
      </trkpt>
      <trkpt lat="42.67863" lon="1.93974">
        <ele>1243.6025390625</ele>
        <time>2013-08-20T15:11:15Z</time>
      </trkpt>
      <trkpt lat="42.67868" lon="1.93969">
        <ele>1239.7573242188</ele>
        <time>2013-08-20T15:11:21Z</time>
      </trkpt>
      <trkpt lat="42.67871" lon="1.93964">
        <ele>1234.9509277344</ele>
        <time>2013-08-20T15:11:32Z</time>
      </trkpt>
      <trkpt lat="42.6787" lon="1.93959">
        <ele>1232.0668945312</ele>
        <time>2013-08-20T15:11:36Z</time>
      </trkpt>
      <trkpt lat="42.6787" lon="1.93954">
        <ele>1230.1442871094</ele>
        <time>2013-08-20T15:11:41Z</time>
      </trkpt>
      <trkpt lat="42.67871" lon="1.93949">
        <ele>1228.7023925781</ele>
        <time>2013-08-20T15:11:45Z</time>
      </trkpt>
      <trkpt lat="42.67875" lon="1.93948">
        <ele>1229.6635742188</ele>
        <time>2013-08-20T15:11:50Z</time>
      </trkpt>
      <trkpt lat="42.67878" lon="1.93944">
        <ele>1230.1442871094</ele>
        <time>2013-08-20T15:11:56Z</time>
      </trkpt>
      <trkpt lat="42.67884" lon="1.93943">
        <ele>1229.6635742188</ele>
        <time>2013-08-20T15:12:03Z</time>
      </trkpt>
      <trkpt lat="42.67887" lon="1.93941">
        <ele>1227.7407226562</ele>
        <time>2013-08-20T15:12:10Z</time>
      </trkpt>
      <trkpt lat="42.67889" lon="1.93938">
        <ele>1224.8569335938</ele>
        <time>2013-08-20T15:12:17Z</time>
      </trkpt>
      <trkpt lat="42.67897" lon="1.9394">
        <ele>1224.8569335938</ele>
        <time>2013-08-20T15:12:24Z</time>
      </trkpt>
      <trkpt lat="42.67898" lon="1.9394">
        <ele>1223.4150390625</ele>
        <time>2013-08-20T15:12:25Z</time>
      </trkpt>
      <trkpt lat="42.67899" lon="1.93942">
        <ele>1221.01171875</ele>
        <time>2013-08-20T15:12:28Z</time>
      </trkpt>
      <trkpt lat="42.67901" lon="1.93947">
        <ele>1218.6083984375</ele>
        <time>2013-08-20T15:12:35Z</time>
      </trkpt>
      <trkpt lat="42.67903" lon="1.93952">
        <ele>1214.7631835938</ele>
        <time>2013-08-20T15:12:40Z</time>
      </trkpt>
      <trkpt lat="42.67904" lon="1.9396">
        <ele>1210.9177246094</ele>
        <time>2013-08-20T15:12:47Z</time>
      </trkpt>
      <trkpt lat="42.67907" lon="1.93961">
        <ele>1209.4758300781</ele>
        <time>2013-08-20T15:12:51Z</time>
      </trkpt>
      <trkpt lat="42.6791" lon="1.93959">
        <ele>1207.5532226562</ele>
        <time>2013-08-20T15:12:57Z</time>
      </trkpt>
      <trkpt lat="42.6791" lon="1.93959">
        <ele>1207.0725097656</ele>
        <time>2013-08-20T15:12:58Z</time>
      </trkpt>
      <trkpt lat="42.67915" lon="1.93953">
        <ele>1205.6306152344</ele>
        <time>2013-08-20T15:13:06Z</time>
      </trkpt>
      <trkpt lat="42.67918" lon="1.93955">
        <ele>1203.2272949219</ele>
        <time>2013-08-20T15:13:11Z</time>
      </trkpt>
      <trkpt lat="42.67924" lon="1.93958">
        <ele>1201.7854003906</ele>
        <time>2013-08-20T15:13:18Z</time>
      </trkpt>
      <trkpt lat="42.67926" lon="1.93956">
        <ele>1202.2658691406</ele>
        <time>2013-08-20T15:13:22Z</time>
      </trkpt>
      <trkpt lat="42.6793" lon="1.93953">
        <ele>1202.2658691406</ele>
        <time>2013-08-20T15:13:29Z</time>
      </trkpt>
      <trkpt lat="42.67933" lon="1.93956">
        <ele>1199.8627929688</ele>
        <time>2013-08-20T15:13:35Z</time>
      </trkpt>
      <trkpt lat="42.67936" lon="1.93959">
        <ele>1196.9787597656</ele>
        <time>2013-08-20T15:13:43Z</time>
      </trkpt>
      <trkpt lat="42.67939" lon="1.93961">
        <ele>1196.9787597656</ele>
        <time>2013-08-20T15:13:49Z</time>
      </trkpt>
      <trkpt lat="42.67945" lon="1.93963">
        <ele>1198.4206542969</ele>
        <time>2013-08-20T15:13:54Z</time>
      </trkpt>
      <trkpt lat="42.67949" lon="1.93965">
        <ele>1197.4594726562</ele>
        <time>2013-08-20T15:13:59Z</time>
      </trkpt>
      <trkpt lat="42.67951" lon="1.93975">
        <ele>1194.0947265625</ele>
        <time>2013-08-20T15:14:06Z</time>
      </trkpt>
      <trkpt lat="42.67952" lon="1.93977">
        <ele>1190.2495117188</ele>
        <time>2013-08-20T15:14:15Z</time>
      </trkpt>
      <trkpt lat="42.67953" lon="1.93983">
        <ele>1189.7687988281</ele>
        <time>2013-08-20T15:14:24Z</time>
      </trkpt>
      <trkpt lat="42.67953" lon="1.93989">
        <ele>1190.7299804688</ele>
        <time>2013-08-20T15:14:29Z</time>
      </trkpt>
      <trkpt lat="42.67953" lon="1.93997">
        <ele>1185.9235839844</ele>
        <time>2013-08-20T15:14:37Z</time>
      </trkpt>
      <trkpt lat="42.67957" lon="1.93998">
        <ele>1185.9235839844</ele>
        <time>2013-08-20T15:14:41Z</time>
      </trkpt>
      <trkpt lat="42.67963" lon="1.93992">
        <ele>1182.5590820312</ele>
        <time>2013-08-20T15:14:48Z</time>
      </trkpt>
      <trkpt lat="42.67964" lon="1.9399">
        <ele>1182.0783691406</ele>
        <time>2013-08-20T15:14:50Z</time>
      </trkpt>
      <trkpt lat="42.67971" lon="1.93984">
        <ele>1181.59765625</ele>
        <time>2013-08-20T15:14:58Z</time>
      </trkpt>
      <trkpt lat="42.67972" lon="1.93982">
        <ele>1182.0783691406</ele>
        <time>2013-08-20T15:15:00Z</time>
      </trkpt>
      <trkpt lat="42.67978" lon="1.93977">
        <ele>1181.1171875</ele>
        <time>2013-08-20T15:15:07Z</time>
      </trkpt>
      <trkpt lat="42.67979" lon="1.93976">
        <ele>1181.1171875</ele>
        <time>2013-08-20T15:15:08Z</time>
      </trkpt>
      <trkpt lat="42.67981" lon="1.9397">
        <ele>1179.6748046875</ele>
        <time>2013-08-20T15:15:13Z</time>
      </trkpt>
      <trkpt lat="42.67982" lon="1.93968">
        <ele>1179.1940917969</ele>
        <time>2013-08-20T15:15:14Z</time>
      </trkpt>
      <trkpt lat="42.67984" lon="1.93959">
        <ele>1177.7521972656</ele>
        <time>2013-08-20T15:15:20Z</time>
      </trkpt>
      <trkpt lat="42.67987" lon="1.93949">
        <ele>1179.1940917969</ele>
        <time>2013-08-20T15:15:26Z</time>
      </trkpt>
      <trkpt lat="42.67992" lon="1.93943">
        <ele>1175.8295898438</ele>
        <time>2013-08-20T15:15:34Z</time>
      </trkpt>
      <trkpt lat="42.67995" lon="1.93939">
        <ele>1174.3876953125</ele>
        <time>2013-08-20T15:15:38Z</time>
      </trkpt>
      <trkpt lat="42.67997" lon="1.93934">
        <ele>1172.9458007812</ele>
        <time>2013-08-20T15:15:43Z</time>
      </trkpt>
      <trkpt lat="42.67997" lon="1.93932">
        <ele>1171.984375</ele>
        <time>2013-08-20T15:15:46Z</time>
      </trkpt>
      <trkpt lat="42.68003" lon="1.93922">
        <ele>1172.4650878906</ele>
        <time>2013-08-20T15:15:53Z</time>
      </trkpt>
      <trkpt lat="42.68006" lon="1.93915">
        <ele>1171.0231933594</ele>
        <time>2013-08-20T15:15:58Z</time>
      </trkpt>
      <trkpt lat="42.68006" lon="1.93911">
        <ele>1169.1005859375</ele>
        <time>2013-08-20T15:16:01Z</time>
      </trkpt>
      <trkpt lat="42.6801" lon="1.93908">
        <ele>1169.1005859375</ele>
        <time>2013-08-20T15:16:04Z</time>
      </trkpt>
      <trkpt lat="42.68011" lon="1.93902">
        <ele>1167.1779785156</ele>
        <time>2013-08-20T15:16:08Z</time>
      </trkpt>
      <trkpt lat="42.68012" lon="1.93898">
        <ele>1164.7746582031</ele>
        <time>2013-08-20T15:16:11Z</time>
      </trkpt>
      <trkpt lat="42.6801" lon="1.9389">
        <ele>1162.37109375</ele>
        <time>2013-08-20T15:16:17Z</time>
      </trkpt>
      <trkpt lat="42.68011" lon="1.93885">
        <ele>1160.9291992188</ele>
        <time>2013-08-20T15:16:21Z</time>
      </trkpt>
      <trkpt lat="42.68019" lon="1.93878">
        <ele>1158.0454101562</ele>
        <time>2013-08-20T15:16:30Z</time>
      </trkpt>
      <trkpt lat="42.68024" lon="1.93874">
        <ele>1158.0454101562</ele>
        <time>2013-08-20T15:16:34Z</time>
      </trkpt>
      <trkpt lat="42.68027" lon="1.93868">
        <ele>1158.5258789062</ele>
        <time>2013-08-20T15:16:39Z</time>
      </trkpt>
      <trkpt lat="42.68029" lon="1.93865">
        <ele>1157.083984375</ele>
        <time>2013-08-20T15:16:42Z</time>
      </trkpt>
      <trkpt lat="42.68032" lon="1.93858">
        <ele>1156.1225585938</ele>
        <time>2013-08-20T15:16:47Z</time>
      </trkpt>
      <trkpt lat="42.68036" lon="1.93851">
        <ele>1157.5646972656</ele>
        <time>2013-08-20T15:16:51Z</time>
      </trkpt>
      <trkpt lat="42.68036" lon="1.9385">
        <ele>1157.5646972656</ele>
        <time>2013-08-20T15:16:52Z</time>
      </trkpt>
      <trkpt lat="42.68041" lon="1.93841">
        <ele>1159.0065917969</ele>
        <time>2013-08-20T15:16:59Z</time>
      </trkpt>
      <trkpt lat="42.68045" lon="1.93841">
        <ele>1155.1613769531</ele>
        <time>2013-08-20T15:17:04Z</time>
      </trkpt>
      <trkpt lat="42.68049" lon="1.93844">
        <ele>1152.7580566406</ele>
        <time>2013-08-20T15:17:08Z</time>
      </trkpt>
      <trkpt lat="42.6805" lon="1.93848">
        <ele>1151.3161621094</ele>
        <time>2013-08-20T15:17:11Z</time>
      </trkpt>
      <trkpt lat="42.68051" lon="1.93859">
        <ele>1148.9128417969</ele>
        <time>2013-08-20T15:17:17Z</time>
      </trkpt>
      <trkpt lat="42.68055" lon="1.93872">
        <ele>1148.4321289062</ele>
        <time>2013-08-20T15:17:24Z</time>
      </trkpt>
      <trkpt lat="42.68062" lon="1.9388">
        <ele>1147.9514160156</ele>
        <time>2013-08-20T15:17:30Z</time>
      </trkpt>
      <trkpt lat="42.68064" lon="1.93883">
        <ele>1146.9899902344</ele>
        <time>2013-08-20T15:17:32Z</time>
      </trkpt>
      <trkpt lat="42.68068" lon="1.9389">
        <ele>1146.9899902344</ele>
        <time>2013-08-20T15:17:38Z</time>
      </trkpt>
      <trkpt lat="42.68069" lon="1.93899">
        <ele>1146.9899902344</ele>
        <time>2013-08-20T15:17:43Z</time>
      </trkpt>
      <trkpt lat="42.68069" lon="1.939">
        <ele>1146.9899902344</ele>
        <time>2013-08-20T15:17:44Z</time>
      </trkpt>
      <trkpt lat="42.68073" lon="1.93908">
        <ele>1145.5480957031</ele>
        <time>2013-08-20T15:17:50Z</time>
      </trkpt>
      <trkpt lat="42.68074" lon="1.93916">
        <ele>1141.7028808594</ele>
        <time>2013-08-20T15:17:55Z</time>
      </trkpt>
      <trkpt lat="42.68074" lon="1.93924">
        <ele>1137.376953125</ele>
        <time>2013-08-20T15:18:00Z</time>
      </trkpt>
      <trkpt lat="42.68076" lon="1.93932">
        <ele>1130.1669921875</ele>
        <time>2013-08-20T15:18:05Z</time>
      </trkpt>
      <trkpt lat="42.68077" lon="1.93941">
        <ele>1125.8410644531</ele>
        <time>2013-08-20T15:18:12Z</time>
      </trkpt>
      <trkpt lat="42.68077" lon="1.93949">
        <ele>1123.4379882812</ele>
        <time>2013-08-20T15:18:17Z</time>
      </trkpt>
      <trkpt lat="42.68079" lon="1.93958">
        <ele>1122.9572753906</ele>
        <time>2013-08-20T15:18:22Z</time>
      </trkpt>
      <trkpt lat="42.68083" lon="1.93969">
        <ele>1121.9958496094</ele>
        <time>2013-08-20T15:18:28Z</time>
      </trkpt>
      <trkpt lat="42.68087" lon="1.93975">
        <ele>1126.3217773438</ele>
        <time>2013-08-20T15:18:32Z</time>
      </trkpt>
      <trkpt lat="42.68088" lon="1.93979">
        <ele>1128.7250976562</ele>
        <time>2013-08-20T15:18:34Z</time>
      </trkpt>
      <trkpt lat="42.6809" lon="1.93985">
        <ele>1128.2443847656</ele>
        <time>2013-08-20T15:18:37Z</time>
      </trkpt>
      <trkpt lat="42.68093" lon="1.93995">
        <ele>1132.5705566406</ele>
        <time>2013-08-20T15:18:43Z</time>
      </trkpt>
      <trkpt lat="42.68096" lon="1.94005">
        <ele>1134.0124511719</ele>
        <time>2013-08-20T15:18:48Z</time>
      </trkpt>
      <trkpt lat="42.68097" lon="1.94008">
        <ele>1132.5705566406</ele>
        <time>2013-08-20T15:18:50Z</time>
      </trkpt>
      <trkpt lat="42.681" lon="1.94016">
        <ele>1128.7250976562</ele>
        <time>2013-08-20T15:18:55Z</time>
      </trkpt>
      <trkpt lat="42.68103" lon="1.94025">
        <ele>1130.1669921875</ele>
        <time>2013-08-20T15:19:00Z</time>
      </trkpt>
      <trkpt lat="42.68106" lon="1.9403">
        <ele>1128.2443847656</ele>
        <time>2013-08-20T15:19:04Z</time>
      </trkpt>
      <trkpt lat="42.68108" lon="1.94038">
        <ele>1124.8798828125</ele>
        <time>2013-08-20T15:19:09Z</time>
      </trkpt>
      <trkpt lat="42.68109" lon="1.94043">
        <ele>1125.8410644531</ele>
        <time>2013-08-20T15:19:12Z</time>
      </trkpt>
      <trkpt lat="42.68108" lon="1.94046">
        <ele>1126.3217773438</ele>
        <time>2013-08-20T15:19:14Z</time>
      </trkpt>
      <trkpt lat="42.68108" lon="1.94049">
        <ele>1128.2443847656</ele>
        <time>2013-08-20T15:19:16Z</time>
      </trkpt>
      <trkpt lat="42.68109" lon="1.94056">
        <ele>1126.3217773438</ele>
        <time>2013-08-20T15:19:21Z</time>
      </trkpt>
      <trkpt lat="42.68112" lon="1.9406">
        <ele>1125.8410644531</ele>
        <time>2013-08-20T15:19:25Z</time>
      </trkpt>
      <trkpt lat="42.68113" lon="1.9406">
        <ele>1125.8410644531</ele>
        <time>2013-08-20T15:19:27Z</time>
      </trkpt>
      <trkpt lat="42.68116" lon="1.94054">
        <ele>1126.8024902344</ele>
        <time>2013-08-20T15:19:30Z</time>
      </trkpt>
      <trkpt lat="42.68122" lon="1.94045">
        <ele>1127.763671875</ele>
        <time>2013-08-20T15:19:36Z</time>
      </trkpt>
      <trkpt lat="42.68124" lon="1.94041">
        <ele>1127.763671875</ele>
        <time>2013-08-20T15:19:38Z</time>
      </trkpt>
      <trkpt lat="42.68125" lon="1.94028">
        <ele>1129.6862792969</ele>
        <time>2013-08-20T15:19:43Z</time>
      </trkpt>
      <trkpt lat="42.68126" lon="1.94024">
        <ele>1130.6477050781</ele>
        <time>2013-08-20T15:19:45Z</time>
      </trkpt>
      <trkpt lat="42.68129" lon="1.94016">
        <ele>1134.4931640625</ele>
        <time>2013-08-20T15:19:50Z</time>
      </trkpt>
      <trkpt lat="42.68134" lon="1.94012">
        <ele>1134.0124511719</ele>
        <time>2013-08-20T15:19:54Z</time>
      </trkpt>
      <trkpt lat="42.6814" lon="1.94013">
        <ele>1130.1669921875</ele>
        <time>2013-08-20T15:19:59Z</time>
      </trkpt>
      <trkpt lat="42.6815" lon="1.94011">
        <ele>1128.7250976562</ele>
        <time>2013-08-20T15:20:06Z</time>
      </trkpt>
      <trkpt lat="42.68154" lon="1.94014">
        <ele>1128.7250976562</ele>
        <time>2013-08-20T15:20:09Z</time>
      </trkpt>
      <trkpt lat="42.68156" lon="1.9403">
        <ele>1126.3217773438</ele>
        <time>2013-08-20T15:20:18Z</time>
      </trkpt>
      <trkpt lat="42.68158" lon="1.94046">
        <ele>1125.8410644531</ele>
        <time>2013-08-20T15:20:28Z</time>
      </trkpt>
      <trkpt lat="42.6816" lon="1.94063">
        <ele>1125.8410644531</ele>
        <time>2013-08-20T15:20:38Z</time>
      </trkpt>
      <trkpt lat="42.68158" lon="1.94076">
        <ele>1123.4379882812</ele>
        <time>2013-08-20T15:20:46Z</time>
      </trkpt>
      <trkpt lat="42.68157" lon="1.9408">
        <ele>1123.9184570312</ele>
        <time>2013-08-20T15:20:49Z</time>
      </trkpt>
      <trkpt lat="42.68155" lon="1.94089">
        <ele>1125.3603515625</ele>
        <time>2013-08-20T15:20:56Z</time>
      </trkpt>
      <trkpt lat="42.6815" lon="1.94105">
        <ele>1127.283203125</ele>
        <time>2013-08-20T15:21:07Z</time>
      </trkpt>
      <trkpt lat="42.68145" lon="1.94122">
        <ele>1129.2055664062</ele>
        <time>2013-08-20T15:21:17Z</time>
      </trkpt>
      <trkpt lat="42.68142" lon="1.94132">
        <ele>1131.6088867188</ele>
        <time>2013-08-20T15:21:23Z</time>
      </trkpt>
      <trkpt lat="42.68137" lon="1.94144">
        <ele>1130.1669921875</ele>
        <time>2013-08-20T15:21:31Z</time>
      </trkpt>
      <trkpt lat="42.68135" lon="1.94153">
        <ele>1133.0510253906</ele>
        <time>2013-08-20T15:21:36Z</time>
      </trkpt>
      <trkpt lat="42.68136" lon="1.94155">
        <ele>1133.5317382812</ele>
        <time>2013-08-20T15:21:37Z</time>
      </trkpt>
      <trkpt lat="42.68135" lon="1.94164">
        <ele>1132.5705566406</ele>
        <time>2013-08-20T15:21:43Z</time>
      </trkpt>
      <trkpt lat="42.68138" lon="1.94176">
        <ele>1132.08984375</ele>
        <time>2013-08-20T15:21:50Z</time>
      </trkpt>
      <trkpt lat="42.68142" lon="1.9419">
        <ele>1134.0124511719</ele>
        <time>2013-08-20T15:21:59Z</time>
      </trkpt>
      <trkpt lat="42.68143" lon="1.94196">
        <ele>1134.4931640625</ele>
        <time>2013-08-20T15:22:03Z</time>
      </trkpt>
      <trkpt lat="42.68143" lon="1.94208">
        <ele>1138.3383789062</ele>
        <time>2013-08-20T15:22:09Z</time>
      </trkpt>
      <trkpt lat="42.68138" lon="1.94223">
        <ele>1141.7028808594</ele>
        <time>2013-08-20T15:22:18Z</time>
      </trkpt>
      <trkpt lat="42.68135" lon="1.94239">
        <ele>1142.18359375</ele>
        <time>2013-08-20T15:22:27Z</time>
      </trkpt>
      <trkpt lat="42.68135" lon="1.94248">
        <ele>1139.7802734375</ele>
        <time>2013-08-20T15:22:33Z</time>
      </trkpt>
      <trkpt lat="42.68135" lon="1.94255">
        <ele>1139.7802734375</ele>
        <time>2013-08-20T15:22:37Z</time>
      </trkpt>
      <trkpt lat="42.68133" lon="1.94266">
        <ele>1138.8190917969</ele>
        <time>2013-08-20T15:22:43Z</time>
      </trkpt>
      <trkpt lat="42.68131" lon="1.94273">
        <ele>1137.376953125</ele>
        <time>2013-08-20T15:22:47Z</time>
      </trkpt>
      <trkpt lat="42.6813" lon="1.94287">
        <ele>1140.7414550781</ele>
        <time>2013-08-20T15:22:54Z</time>
      </trkpt>
      <trkpt lat="42.68127" lon="1.943">
        <ele>1142.6643066406</ele>
        <time>2013-08-20T15:23:01Z</time>
      </trkpt>
      <trkpt lat="42.68122" lon="1.94312">
        <ele>1142.18359375</ele>
        <time>2013-08-20T15:23:08Z</time>
      </trkpt>
      <trkpt lat="42.68118" lon="1.94324">
        <ele>1143.6254882812</ele>
        <time>2013-08-20T15:23:15Z</time>
      </trkpt>
      <trkpt lat="42.68117" lon="1.94333">
        <ele>1143.1447753906</ele>
        <time>2013-08-20T15:23:20Z</time>
      </trkpt>
      <trkpt lat="42.68114" lon="1.94341">
        <ele>1141.2221679688</ele>
        <time>2013-08-20T15:23:25Z</time>
      </trkpt>
      <trkpt lat="42.68113" lon="1.94348">
        <ele>1142.18359375</ele>
        <time>2013-08-20T15:23:29Z</time>
      </trkpt>
      <trkpt lat="42.68107" lon="1.94363">
        <ele>1142.6643066406</ele>
        <time>2013-08-20T15:23:38Z</time>
      </trkpt>
      <trkpt lat="42.68106" lon="1.94367">
        <ele>1141.7028808594</ele>
        <time>2013-08-20T15:23:40Z</time>
      </trkpt>
      <trkpt lat="42.68104" lon="1.94373">
        <ele>1141.2221679688</ele>
        <time>2013-08-20T15:23:44Z</time>
      </trkpt>
      <trkpt lat="42.68098" lon="1.94377">
        <ele>1140.2609863281</ele>
        <time>2013-08-20T15:23:49Z</time>
      </trkpt>
      <trkpt lat="42.68097" lon="1.94383">
        <ele>1139.7802734375</ele>
        <time>2013-08-20T15:23:52Z</time>
      </trkpt>
      <trkpt lat="42.68094" lon="1.94399">
        <ele>1137.376953125</ele>
        <time>2013-08-20T15:24:00Z</time>
      </trkpt>
      <trkpt lat="42.68092" lon="1.9441">
        <ele>1139.2995605469</ele>
        <time>2013-08-20T15:24:06Z</time>
      </trkpt>
      <trkpt lat="42.68087" lon="1.94422">
        <ele>1141.7028808594</ele>
        <time>2013-08-20T15:24:13Z</time>
      </trkpt>
      <trkpt lat="42.68086" lon="1.94424">
        <ele>1142.6643066406</ele>
        <time>2013-08-20T15:24:14Z</time>
      </trkpt>
      <trkpt lat="42.68081" lon="1.94438">
        <ele>1144.1062011719</ele>
        <time>2013-08-20T15:24:22Z</time>
      </trkpt>
      <trkpt lat="42.68077" lon="1.94454">
        <ele>1147.470703125</ele>
        <time>2013-08-20T15:24:30Z</time>
      </trkpt>
      <trkpt lat="42.68073" lon="1.94464">
        <ele>1146.5095214844</ele>
        <time>2013-08-20T15:24:36Z</time>
      </trkpt>
      <trkpt lat="42.6807" lon="1.94474">
        <ele>1146.5095214844</ele>
        <time>2013-08-20T15:24:42Z</time>
      </trkpt>
      <trkpt lat="42.68066" lon="1.94485">
        <ele>1146.0288085938</ele>
        <time>2013-08-20T15:24:49Z</time>
      </trkpt>
      <trkpt lat="42.68063" lon="1.94496">
        <ele>1145.0673828125</ele>
        <time>2013-08-20T15:24:56Z</time>
      </trkpt>
      <trkpt lat="42.6806" lon="1.94507">
        <ele>1147.9514160156</ele>
        <time>2013-08-20T15:25:02Z</time>
      </trkpt>
      <trkpt lat="42.68058" lon="1.94515">
        <ele>1149.3935546875</ele>
        <time>2013-08-20T15:25:06Z</time>
      </trkpt>
      <trkpt lat="42.68056" lon="1.94525">
        <ele>1152.27734375</ele>
        <time>2013-08-20T15:25:11Z</time>
      </trkpt>
      <trkpt lat="42.68054" lon="1.94541">
        <ele>1158.0454101562</ele>
        <time>2013-08-20T15:25:18Z</time>
      </trkpt>
      <trkpt lat="42.68049" lon="1.94553">
        <ele>1155.1613769531</ele>
        <time>2013-08-20T15:25:25Z</time>
      </trkpt>
      <trkpt lat="42.68045" lon="1.94561">
        <ele>1153.2387695312</ele>
        <time>2013-08-20T15:25:31Z</time>
      </trkpt>
      <trkpt lat="42.68041" lon="1.94571">
        <ele>1151.3161621094</ele>
        <time>2013-08-20T15:25:37Z</time>
      </trkpt>
      <trkpt lat="42.6804" lon="1.94573">
        <ele>1150.8354492188</ele>
        <time>2013-08-20T15:25:38Z</time>
      </trkpt>
      <trkpt lat="42.68032" lon="1.94585">
        <ele>1145.5480957031</ele>
        <time>2013-08-20T15:25:47Z</time>
      </trkpt>
      <trkpt lat="42.68028" lon="1.94595">
        <ele>1142.6643066406</ele>
        <time>2013-08-20T15:25:53Z</time>
      </trkpt>
      <trkpt lat="42.68024" lon="1.94605">
        <ele>1141.2221679688</ele>
        <time>2013-08-20T15:26:00Z</time>
      </trkpt>
      <trkpt lat="42.68022" lon="1.9461">
        <ele>1140.7414550781</ele>
        <time>2013-08-20T15:26:03Z</time>
      </trkpt>
      <trkpt lat="42.6802" lon="1.94614">
        <ele>1140.7414550781</ele>
        <time>2013-08-20T15:26:05Z</time>
      </trkpt>
      <trkpt lat="42.68014" lon="1.94625">
        <ele>1143.1447753906</ele>
        <time>2013-08-20T15:26:12Z</time>
      </trkpt>
      <trkpt lat="42.68012" lon="1.9463">
        <ele>1143.1447753906</ele>
        <time>2013-08-20T15:26:15Z</time>
      </trkpt>
      <trkpt lat="42.68005" lon="1.9464">
        <ele>1138.3383789062</ele>
        <time>2013-08-20T15:26:22Z</time>
      </trkpt>
      <trkpt lat="42.67999" lon="1.94654">
        <ele>1140.2609863281</ele>
        <time>2013-08-20T15:26:29Z</time>
      </trkpt>
      <trkpt lat="42.67997" lon="1.94665">
        <ele>1139.7802734375</ele>
        <time>2013-08-20T15:26:35Z</time>
      </trkpt>
      <trkpt lat="42.67997" lon="1.94666">
        <ele>1138.8190917969</ele>
        <time>2013-08-20T15:26:36Z</time>
      </trkpt>
      <trkpt lat="42.67994" lon="1.94673">
        <ele>1136.8962402344</ele>
        <time>2013-08-20T15:26:41Z</time>
      </trkpt>
      <trkpt lat="42.67992" lon="1.9468">
        <ele>1136.8962402344</ele>
        <time>2013-08-20T15:26:45Z</time>
      </trkpt>
      <trkpt lat="42.67991" lon="1.9469">
        <ele>1142.18359375</ele>
        <time>2013-08-20T15:26:49Z</time>
      </trkpt>
      <trkpt lat="42.6799" lon="1.947">
        <ele>1144.5866699219</ele>
        <time>2013-08-20T15:26:54Z</time>
      </trkpt>
      <trkpt lat="42.67987" lon="1.94722">
        <ele>1145.5480957031</ele>
        <time>2013-08-20T15:27:05Z</time>
      </trkpt>
      <trkpt lat="42.67987" lon="1.94741">
        <ele>1147.9514160156</ele>
        <time>2013-08-20T15:27:14Z</time>
      </trkpt>
      <trkpt lat="42.67989" lon="1.94756">
        <ele>1147.470703125</ele>
        <time>2013-08-20T15:27:22Z</time>
      </trkpt>
      <trkpt lat="42.67991" lon="1.94771">
        <ele>1143.1447753906</ele>
        <time>2013-08-20T15:27:30Z</time>
      </trkpt>
      <trkpt lat="42.67991" lon="1.94781">
        <ele>1143.1447753906</ele>
        <time>2013-08-20T15:27:36Z</time>
      </trkpt>
      <trkpt lat="42.67991" lon="1.94789">
        <ele>1141.7028808594</ele>
        <time>2013-08-20T15:27:41Z</time>
      </trkpt>
      <trkpt lat="42.6799" lon="1.94796">
        <ele>1141.7028808594</ele>
        <time>2013-08-20T15:27:45Z</time>
      </trkpt>
      <trkpt lat="42.67987" lon="1.94806">
        <ele>1141.2221679688</ele>
        <time>2013-08-20T15:27:51Z</time>
      </trkpt>
      <trkpt lat="42.67987" lon="1.94817">
        <ele>1140.2609863281</ele>
        <time>2013-08-20T15:27:56Z</time>
      </trkpt>
      <trkpt lat="42.67989" lon="1.94833">
        <ele>1142.6643066406</ele>
        <time>2013-08-20T15:28:04Z</time>
      </trkpt>
      <trkpt lat="42.6799" lon="1.94834">
        <ele>1143.1447753906</ele>
        <time>2013-08-20T15:28:05Z</time>
      </trkpt>
      <trkpt lat="42.67988" lon="1.94845">
        <ele>1143.6254882812</ele>
        <time>2013-08-20T15:28:12Z</time>
      </trkpt>
      <trkpt lat="42.67986" lon="1.94854">
        <ele>1146.5095214844</ele>
        <time>2013-08-20T15:28:17Z</time>
      </trkpt>
      <trkpt lat="42.67984" lon="1.94862">
        <ele>1154.6806640625</ele>
        <time>2013-08-20T15:28:20Z</time>
      </trkpt>
      <trkpt lat="42.67974" lon="1.94868">
        <ele>1158.0454101562</ele>
        <time>2013-08-20T15:28:27Z</time>
      </trkpt>
      <trkpt lat="42.67965" lon="1.94867">
        <ele>1152.7580566406</ele>
        <time>2013-08-20T15:28:34Z</time>
      </trkpt>
      <trkpt lat="42.6796" lon="1.94869">
        <ele>1151.796875</ele>
        <time>2013-08-20T15:28:38Z</time>
      </trkpt>
      <trkpt lat="42.67952" lon="1.94875">
        <ele>1149.8742675781</ele>
        <time>2013-08-20T15:28:45Z</time>
      </trkpt>
      <trkpt lat="42.6795" lon="1.94877">
        <ele>1148.4321289062</ele>
        <time>2013-08-20T15:28:47Z</time>
      </trkpt>
      <trkpt lat="42.67948" lon="1.94879">
        <ele>1146.9899902344</ele>
        <time>2013-08-20T15:28:49Z</time>
      </trkpt>
      <trkpt lat="42.67941" lon="1.94888">
        <ele>1147.470703125</ele>
        <time>2013-08-20T15:28:56Z</time>
      </trkpt>
      <trkpt lat="42.67935" lon="1.94895">
        <ele>1150.3549804688</ele>
        <time>2013-08-20T15:29:02Z</time>
      </trkpt>
      <trkpt lat="42.67926" lon="1.94902">
        <ele>1151.3161621094</ele>
        <time>2013-08-20T15:29:10Z</time>
      </trkpt>
      <trkpt lat="42.67919" lon="1.94908">
        <ele>1150.8354492188</ele>
        <time>2013-08-20T15:29:16Z</time>
      </trkpt>
      <trkpt lat="42.67913" lon="1.94912">
        <ele>1153.7194824219</ele>
        <time>2013-08-20T15:29:21Z</time>
      </trkpt>
      <trkpt lat="42.67905" lon="1.94916">
        <ele>1158.0454101562</ele>
        <time>2013-08-20T15:29:28Z</time>
      </trkpt>
      <trkpt lat="42.67896" lon="1.94923">
        <ele>1157.083984375</ele>
        <time>2013-08-20T15:29:35Z</time>
      </trkpt>
      <trkpt lat="42.67894" lon="1.94927">
        <ele>1156.6032714844</ele>
        <time>2013-08-20T15:29:38Z</time>
      </trkpt>
      <trkpt lat="42.67889" lon="1.94927">
        <ele>1153.7194824219</ele>
        <time>2013-08-20T15:29:42Z</time>
      </trkpt>
      <trkpt lat="42.67884" lon="1.94925">
        <ele>1147.470703125</ele>
        <time>2013-08-20T15:29:47Z</time>
      </trkpt>
      <trkpt lat="42.6788" lon="1.94924">
        <ele>1146.0288085938</ele>
        <time>2013-08-20T15:29:50Z</time>
      </trkpt>
    </trkseg>
  </trk>
</gpx>